<?xml version="1.0" encoding="UTF-8"?>
<gpx version="1.1" creator="https://www.youtrack.es" xsi:schemaLocation="http://www.topografix.com/GPX/1/1 http://www.topografix.com/GPX/1/1/gpx.xsd http://www.garmin.com/xmlschemas/GpxExtensions/v3 http://www.garmin.com/xmlschemas/GpxExtensionsv3.xsd http://www.garmin.com/xmlschemas/TrackPointExtension/v1 http://www.garmin.com/xmlschemas/TrackPointExtensionv1.xsd" xmlns:gpxtpx="http://www.garmin.com/xmlschemas/TrackPointExtension/v1" xmlns:gpxx="http://www.garmin.com/xmlschemas/GpxExtensions/v3" xmlns:xsi="http://www.w3.org/2001/XMLSchema-instance">
  <metadata>
    <link href="https://www.youtrack.es">
      <text>YouTrack.es</text>
    </link>
    <time>2026-05-08T14:18:31Z</time>
  </metadata>
  <trk>
    <src>https://www.youtrack.es</src>
    <link href="https://www.youtrack.es/ruta/3853-treino-interrompido-pelo-joelho">
      <text>YouTrack.es</text>
    </link>
    <trkseg>
      <trkpt lat="-21.57459333" lon="-48.80427833">
        <ele>542.0</ele>
        <time>2019-01-27T06:42:13-02:00</time>
      </trkpt>
      <trkpt lat="-21.574579999999997" lon="-48.80425666">
        <ele>542.0</ele>
        <time>2019-01-27T06:42:14-02:00</time>
      </trkpt>
      <trkpt lat="-21.574564330000005" lon="-48.80423833">
        <ele>542.0</ele>
        <time>2019-01-27T06:42:15-02:00</time>
      </trkpt>
      <trkpt lat="-21.574546330000004" lon="-48.80421166">
        <ele>542.0</ele>
        <time>2019-01-27T06:42:16-02:00</time>
      </trkpt>
      <trkpt lat="-21.57453" lon="-48.80418833">
        <ele>542.0</ele>
        <time>2019-01-27T06:42:17-02:00</time>
      </trkpt>
      <trkpt lat="-21.57451366" lon="-48.80416666">
        <ele>542.0</ele>
        <time>2019-01-27T06:42:18-02:00</time>
      </trkpt>
      <trkpt lat="-21.57449966" lon="-48.80414833">
        <ele>542.0</ele>
        <time>2019-01-27T06:42:19-02:00</time>
      </trkpt>
      <trkpt lat="-21.57448333" lon="-48.80412666">
        <ele>542.0</ele>
        <time>2019-01-27T06:42:20-02:00</time>
      </trkpt>
      <trkpt lat="-21.57446833" lon="-48.80410666000001">
        <ele>542.0</ele>
        <time>2019-01-27T06:42:21-02:00</time>
      </trkpt>
      <trkpt lat="-21.57445233" lon="-48.804085">
        <ele>542.0</ele>
        <time>2019-01-27T06:42:22-02:00</time>
      </trkpt>
      <trkpt lat="-21.57443666" lon="-48.804065">
        <ele>543.0</ele>
        <time>2019-01-27T06:42:23-02:00</time>
      </trkpt>
      <trkpt lat="-21.574419659999997" lon="-48.80404166">
        <ele>543.0</ele>
        <time>2019-01-27T06:42:24-02:00</time>
      </trkpt>
      <trkpt lat="-21.574404999999995" lon="-48.80402333">
        <ele>543.0</ele>
        <time>2019-01-27T06:42:25-02:00</time>
      </trkpt>
      <trkpt lat="-21.57438866" lon="-48.80400332999999">
        <ele>543.0</ele>
        <time>2019-01-27T06:42:26-02:00</time>
      </trkpt>
      <trkpt lat="-21.57437133" lon="-48.80398166000001">
        <ele>543.0</ele>
        <time>2019-01-27T06:42:27-02:00</time>
      </trkpt>
      <trkpt lat="-21.574354" lon="-48.80396">
        <ele>543.0</ele>
        <time>2019-01-27T06:42:28-02:00</time>
      </trkpt>
      <trkpt lat="-21.574337659999998" lon="-48.80394">
        <ele>543.0</ele>
        <time>2019-01-27T06:42:29-02:00</time>
      </trkpt>
      <trkpt lat="-21.574319999999997" lon="-48.80391833">
        <ele>543.0</ele>
        <time>2019-01-27T06:42:30-02:00</time>
      </trkpt>
      <trkpt lat="-21.574305" lon="-48.803898329999996">
        <ele>543.0</ele>
        <time>2019-01-27T06:42:31-02:00</time>
      </trkpt>
      <trkpt lat="-21.574288330000005" lon="-48.80387666">
        <ele>543.0</ele>
        <time>2019-01-27T06:42:32-02:00</time>
      </trkpt>
      <trkpt lat="-21.574272999999998" lon="-48.80385666">
        <ele>543.0</ele>
        <time>2019-01-27T06:42:33-02:00</time>
      </trkpt>
      <trkpt lat="-21.574255" lon="-48.803835">
        <ele>543.0</ele>
        <time>2019-01-27T06:42:34-02:00</time>
      </trkpt>
      <trkpt lat="-21.574239330000005" lon="-48.803815">
        <ele>544.0</ele>
        <time>2019-01-27T06:42:35-02:00</time>
      </trkpt>
      <trkpt lat="-21.574223999999997" lon="-48.80379666">
        <ele>544.0</ele>
        <time>2019-01-27T06:42:36-02:00</time>
      </trkpt>
      <trkpt lat="-21.57420733" lon="-48.80377832999999">
        <ele>544.0</ele>
        <time>2019-01-27T06:42:37-02:00</time>
      </trkpt>
      <trkpt lat="-21.574188659999997" lon="-48.80375666">
        <ele>544.0</ele>
        <time>2019-01-27T06:42:38-02:00</time>
      </trkpt>
      <trkpt lat="-21.574171330000006" lon="-48.803736660000006">
        <ele>544.0</ele>
        <time>2019-01-27T06:42:39-02:00</time>
      </trkpt>
      <trkpt lat="-21.57415266" lon="-48.803715">
        <ele>544.0</ele>
        <time>2019-01-27T06:42:40-02:00</time>
      </trkpt>
      <trkpt lat="-21.574133999999997" lon="-48.80369333">
        <ele>544.0</ele>
        <time>2019-01-27T06:42:41-02:00</time>
      </trkpt>
      <trkpt lat="-21.574116330000006" lon="-48.803671660000006">
        <ele>544.0</ele>
        <time>2019-01-27T06:42:42-02:00</time>
      </trkpt>
      <trkpt lat="-21.574100330000004" lon="-48.803653329999996">
        <ele>544.0</ele>
        <time>2019-01-27T06:42:43-02:00</time>
      </trkpt>
      <trkpt lat="-21.574084" lon="-48.803635">
        <ele>544.0</ele>
        <time>2019-01-27T06:42:44-02:00</time>
      </trkpt>
      <trkpt lat="-21.57406733" lon="-48.80361500000001">
        <ele>544.0</ele>
        <time>2019-01-27T06:42:45-02:00</time>
      </trkpt>
      <trkpt lat="-21.57404933" lon="-48.80359500000001">
        <ele>544.0</ele>
        <time>2019-01-27T06:42:46-02:00</time>
      </trkpt>
      <trkpt lat="-21.57403033" lon="-48.80357333">
        <ele>544.0</ele>
        <time>2019-01-27T06:42:47-02:00</time>
      </trkpt>
      <trkpt lat="-21.57401266" lon="-48.803551660000004">
        <ele>544.0</ele>
        <time>2019-01-27T06:42:48-02:00</time>
      </trkpt>
      <trkpt lat="-21.57399566" lon="-48.80353166">
        <ele>544.0</ele>
        <time>2019-01-27T06:42:49-02:00</time>
      </trkpt>
      <trkpt lat="-21.573979" lon="-48.80351333">
        <ele>544.0</ele>
        <time>2019-01-27T06:42:50-02:00</time>
      </trkpt>
      <trkpt lat="-21.573962330000004" lon="-48.80349333">
        <ele>544.0</ele>
        <time>2019-01-27T06:42:51-02:00</time>
      </trkpt>
      <trkpt lat="-21.573943" lon="-48.80347166">
        <ele>544.0</ele>
        <time>2019-01-27T06:42:52-02:00</time>
      </trkpt>
      <trkpt lat="-21.573926330000003" lon="-48.80345166000001">
        <ele>545.0</ele>
        <time>2019-01-27T06:42:53-02:00</time>
      </trkpt>
      <trkpt lat="-21.573908330000002" lon="-48.80343">
        <ele>545.0</ele>
        <time>2019-01-27T06:42:54-02:00</time>
      </trkpt>
      <trkpt lat="-21.573890330000005" lon="-48.80340832999999">
        <ele>545.0</ele>
        <time>2019-01-27T06:42:55-02:00</time>
      </trkpt>
      <trkpt lat="-21.573874" lon="-48.80338833">
        <ele>545.0</ele>
        <time>2019-01-27T06:42:56-02:00</time>
      </trkpt>
      <trkpt lat="-21.573856" lon="-48.80336666">
        <ele>545.0</ele>
        <time>2019-01-27T06:42:57-02:00</time>
      </trkpt>
      <trkpt lat="-21.573837000000005" lon="-48.80334333">
        <ele>545.0</ele>
        <time>2019-01-27T06:42:58-02:00</time>
      </trkpt>
      <trkpt lat="-21.573822659999998" lon="-48.80332333">
        <ele>545.0</ele>
        <time>2019-01-27T06:42:59-02:00</time>
      </trkpt>
      <trkpt lat="-21.57380366" lon="-48.8033">
        <ele>545.0</ele>
        <time>2019-01-27T06:43:00-02:00</time>
      </trkpt>
      <trkpt lat="-21.573789660000003" lon="-48.803279999999994">
        <ele>545.0</ele>
        <time>2019-01-27T06:43:01-02:00</time>
      </trkpt>
      <trkpt lat="-21.573769330000005" lon="-48.803255">
        <ele>545.0</ele>
        <time>2019-01-27T06:43:02-02:00</time>
      </trkpt>
      <trkpt lat="-21.57375333" lon="-48.80323500000001">
        <ele>545.0</ele>
        <time>2019-01-27T06:43:03-02:00</time>
      </trkpt>
      <trkpt lat="-21.573735330000005" lon="-48.80321166">
        <ele>545.0</ele>
        <time>2019-01-27T06:43:04-02:00</time>
      </trkpt>
      <trkpt lat="-21.57371866" lon="-48.80318833">
        <ele>545.0</ele>
        <time>2019-01-27T06:43:05-02:00</time>
      </trkpt>
      <trkpt lat="-21.57370033" lon="-48.803165">
        <ele>545.0</ele>
        <time>2019-01-27T06:43:06-02:00</time>
      </trkpt>
      <trkpt lat="-21.573685" lon="-48.80314333">
        <ele>545.0</ele>
        <time>2019-01-27T06:43:07-02:00</time>
      </trkpt>
      <trkpt lat="-21.57366866" lon="-48.80312">
        <ele>545.0</ele>
        <time>2019-01-27T06:43:08-02:00</time>
      </trkpt>
      <trkpt lat="-21.573653330000003" lon="-48.80309999999999">
        <ele>545.0</ele>
        <time>2019-01-27T06:43:09-02:00</time>
      </trkpt>
      <trkpt lat="-21.573636660000002" lon="-48.80307666">
        <ele>545.0</ele>
        <time>2019-01-27T06:43:10-02:00</time>
      </trkpt>
      <trkpt lat="-21.57362333" lon="-48.80305666">
        <ele>545.0</ele>
        <time>2019-01-27T06:43:11-02:00</time>
      </trkpt>
      <trkpt lat="-21.573609659999995" lon="-48.80303666">
        <ele>545.0</ele>
        <time>2019-01-27T06:43:12-02:00</time>
      </trkpt>
      <trkpt lat="-21.573596330000004" lon="-48.803016660000004">
        <ele>545.0</ele>
        <time>2019-01-27T06:43:13-02:00</time>
      </trkpt>
      <trkpt lat="-21.573584999999998" lon="-48.803000000000004">
        <ele>545.0</ele>
        <time>2019-01-27T06:43:14-02:00</time>
      </trkpt>
      <trkpt lat="-21.573570330000003" lon="-48.802978329999995">
        <ele>546.0</ele>
        <time>2019-01-27T06:43:15-02:00</time>
      </trkpt>
      <trkpt lat="-21.573555660000004" lon="-48.80295666">
        <ele>546.0</ele>
        <time>2019-01-27T06:43:16-02:00</time>
      </trkpt>
      <trkpt lat="-21.57354333" lon="-48.802938329999996">
        <ele>546.0</ele>
        <time>2019-01-27T06:43:17-02:00</time>
      </trkpt>
      <trkpt lat="-21.57352866" lon="-48.80291666">
        <ele>546.0</ele>
        <time>2019-01-27T06:43:18-02:00</time>
      </trkpt>
      <trkpt lat="-21.573513" lon="-48.802893329999996">
        <ele>546.0</ele>
        <time>2019-01-27T06:43:19-02:00</time>
      </trkpt>
      <trkpt lat="-21.57350166" lon="-48.80287333">
        <ele>546.0</ele>
        <time>2019-01-27T06:43:20-02:00</time>
      </trkpt>
      <trkpt lat="-21.57348833" lon="-48.80285333">
        <ele>546.0</ele>
        <time>2019-01-27T06:43:21-02:00</time>
      </trkpt>
      <trkpt lat="-21.573473659999998" lon="-48.80283166">
        <ele>546.0</ele>
        <time>2019-01-27T06:43:22-02:00</time>
      </trkpt>
      <trkpt lat="-21.573458" lon="-48.802805">
        <ele>546.0</ele>
        <time>2019-01-27T06:43:23-02:00</time>
      </trkpt>
      <trkpt lat="-21.57344366" lon="-48.80278333">
        <ele>546.0</ele>
        <time>2019-01-27T06:43:24-02:00</time>
      </trkpt>
      <trkpt lat="-21.573431330000002" lon="-48.80276166">
        <ele>546.0</ele>
        <time>2019-01-27T06:43:25-02:00</time>
      </trkpt>
      <trkpt lat="-21.573420000000002" lon="-48.80274332999999">
        <ele>546.0</ele>
        <time>2019-01-27T06:43:26-02:00</time>
      </trkpt>
      <trkpt lat="-21.573412330000004" lon="-48.80272666">
        <ele>546.0</ele>
        <time>2019-01-27T06:43:27-02:00</time>
      </trkpt>
      <trkpt lat="-21.573399660000003" lon="-48.80270666">
        <ele>547.0</ele>
        <time>2019-01-27T06:43:28-02:00</time>
      </trkpt>
      <trkpt lat="-21.57338566" lon="-48.802685000000004">
        <ele>547.0</ele>
        <time>2019-01-27T06:43:29-02:00</time>
      </trkpt>
      <trkpt lat="-21.57337233" lon="-48.802663329999994">
        <ele>547.0</ele>
        <time>2019-01-27T06:43:30-02:00</time>
      </trkpt>
      <trkpt lat="-21.57336" lon="-48.80264333">
        <ele>547.0</ele>
        <time>2019-01-27T06:43:31-02:00</time>
      </trkpt>
      <trkpt lat="-21.573349659999998" lon="-48.802623329999996">
        <ele>547.0</ele>
        <time>2019-01-27T06:43:32-02:00</time>
      </trkpt>
      <trkpt lat="-21.57333766" lon="-48.80260333">
        <ele>548.0</ele>
        <time>2019-01-27T06:43:33-02:00</time>
      </trkpt>
      <trkpt lat="-21.57332333" lon="-48.80258">
        <ele>548.0</ele>
        <time>2019-01-27T06:43:34-02:00</time>
      </trkpt>
      <trkpt lat="-21.573311330000006" lon="-48.80255999999999">
        <ele>548.0</ele>
        <time>2019-01-27T06:43:35-02:00</time>
      </trkpt>
      <trkpt lat="-21.573298330000004" lon="-48.80253833">
        <ele>548.0</ele>
        <time>2019-01-27T06:43:36-02:00</time>
      </trkpt>
      <trkpt lat="-21.57328666" lon="-48.802518330000005">
        <ele>548.0</ele>
        <time>2019-01-27T06:43:37-02:00</time>
      </trkpt>
      <trkpt lat="-21.573276330000006" lon="-48.802499999999995">
        <ele>548.0</ele>
        <time>2019-01-27T06:43:38-02:00</time>
      </trkpt>
      <trkpt lat="-21.57326466" lon="-48.802479999999996">
        <ele>548.0</ele>
        <time>2019-01-27T06:43:39-02:00</time>
      </trkpt>
      <trkpt lat="-21.573254330000005" lon="-48.80246166">
        <ele>548.0</ele>
        <time>2019-01-27T06:43:40-02:00</time>
      </trkpt>
      <trkpt lat="-21.57323966" lon="-48.802440000000004">
        <ele>548.0</ele>
        <time>2019-01-27T06:43:41-02:00</time>
      </trkpt>
      <trkpt lat="-21.573229330000004" lon="-48.80242166000001">
        <ele>548.0</ele>
        <time>2019-01-27T06:43:42-02:00</time>
      </trkpt>
      <trkpt lat="-21.573217" lon="-48.80240333">
        <ele>548.0</ele>
        <time>2019-01-27T06:43:43-02:00</time>
      </trkpt>
      <trkpt lat="-21.573203659999997" lon="-48.80238332999999">
        <ele>548.0</ele>
        <time>2019-01-27T06:43:44-02:00</time>
      </trkpt>
      <trkpt lat="-21.573195000000002" lon="-48.80236666">
        <ele>548.0</ele>
        <time>2019-01-27T06:43:45-02:00</time>
      </trkpt>
      <trkpt lat="-21.57318233" lon="-48.802348329999994">
        <ele>548.0</ele>
        <time>2019-01-27T06:43:46-02:00</time>
      </trkpt>
      <trkpt lat="-21.57316766" lon="-48.802326660000006">
        <ele>548.0</ele>
        <time>2019-01-27T06:43:47-02:00</time>
      </trkpt>
      <trkpt lat="-21.573155660000005" lon="-48.802308329999995">
        <ele>548.0</ele>
        <time>2019-01-27T06:43:48-02:00</time>
      </trkpt>
      <trkpt lat="-21.573142330000003" lon="-48.802285">
        <ele>548.0</ele>
        <time>2019-01-27T06:43:49-02:00</time>
      </trkpt>
      <trkpt lat="-21.57313233" lon="-48.80227000000001">
        <ele>547.0</ele>
        <time>2019-01-27T06:43:50-02:00</time>
      </trkpt>
      <trkpt lat="-21.573121" lon="-48.80225333">
        <ele>547.0</ele>
        <time>2019-01-27T06:43:51-02:00</time>
      </trkpt>
      <trkpt lat="-21.573108" lon="-48.80223333">
        <ele>547.0</ele>
        <time>2019-01-27T06:43:52-02:00</time>
      </trkpt>
      <trkpt lat="-21.57309866" lon="-48.80221665999999">
        <ele>547.0</ele>
        <time>2019-01-27T06:43:53-02:00</time>
      </trkpt>
      <trkpt lat="-21.573086659999998" lon="-48.802198329999996">
        <ele>547.0</ele>
        <time>2019-01-27T06:43:54-02:00</time>
      </trkpt>
      <trkpt lat="-21.57307133" lon="-48.802175000000005">
        <ele>547.0</ele>
        <time>2019-01-27T06:43:55-02:00</time>
      </trkpt>
      <trkpt lat="-21.57306333" lon="-48.80216333">
        <ele>547.0</ele>
        <time>2019-01-27T06:43:56-02:00</time>
      </trkpt>
      <trkpt lat="-21.57305333" lon="-48.80214833">
        <ele>547.0</ele>
        <time>2019-01-27T06:43:57-02:00</time>
      </trkpt>
      <trkpt lat="-21.573041000000003" lon="-48.80213">
        <ele>547.0</ele>
        <time>2019-01-27T06:43:58-02:00</time>
      </trkpt>
      <trkpt lat="-21.57303033" lon="-48.802113330000005">
        <ele>547.0</ele>
        <time>2019-01-27T06:43:59-02:00</time>
      </trkpt>
      <trkpt lat="-21.573018659999995" lon="-48.802096660000004">
        <ele>547.0</ele>
        <time>2019-01-27T06:44:00-02:00</time>
      </trkpt>
      <trkpt lat="-21.57300666" lon="-48.80207832999999">
        <ele>547.0</ele>
        <time>2019-01-27T06:44:01-02:00</time>
      </trkpt>
      <trkpt lat="-21.57299366" lon="-48.80206166">
        <ele>547.0</ele>
        <time>2019-01-27T06:44:02-02:00</time>
      </trkpt>
      <trkpt lat="-21.572984" lon="-48.80204666000001">
        <ele>547.0</ele>
        <time>2019-01-27T06:44:03-02:00</time>
      </trkpt>
      <trkpt lat="-21.572968659999997" lon="-48.80202666">
        <ele>548.0</ele>
        <time>2019-01-27T06:44:04-02:00</time>
      </trkpt>
      <trkpt lat="-21.57295733" lon="-48.80200999999999">
        <ele>548.0</ele>
        <time>2019-01-27T06:44:05-02:00</time>
      </trkpt>
      <trkpt lat="-21.57294266" lon="-48.80199">
        <ele>548.0</ele>
        <time>2019-01-27T06:44:06-02:00</time>
      </trkpt>
      <trkpt lat="-21.572930330000002" lon="-48.80197166">
        <ele>548.0</ele>
        <time>2019-01-27T06:44:07-02:00</time>
      </trkpt>
      <trkpt lat="-21.572915330000008" lon="-48.80195166">
        <ele>548.0</ele>
        <time>2019-01-27T06:44:08-02:00</time>
      </trkpt>
      <trkpt lat="-21.57290433" lon="-48.80193499999999">
        <ele>548.0</ele>
        <time>2019-01-27T06:44:09-02:00</time>
      </trkpt>
      <trkpt lat="-21.57289233" lon="-48.80191666">
        <ele>548.0</ele>
        <time>2019-01-27T06:44:10-02:00</time>
      </trkpt>
      <trkpt lat="-21.572878329999998" lon="-48.80189832999999">
        <ele>549.0</ele>
        <time>2019-01-27T06:44:11-02:00</time>
      </trkpt>
      <trkpt lat="-21.572866330000004" lon="-48.801883329999995">
        <ele>549.0</ele>
        <time>2019-01-27T06:44:12-02:00</time>
      </trkpt>
      <trkpt lat="-21.572854330000002" lon="-48.80186500000001">
        <ele>549.0</ele>
        <time>2019-01-27T06:44:13-02:00</time>
      </trkpt>
      <trkpt lat="-21.572841" lon="-48.801845">
        <ele>549.0</ele>
        <time>2019-01-27T06:44:14-02:00</time>
      </trkpt>
      <trkpt lat="-21.572828999999995" lon="-48.80182666">
        <ele>549.0</ele>
        <time>2019-01-27T06:44:15-02:00</time>
      </trkpt>
      <trkpt lat="-21.572817999999998" lon="-48.801809999999996">
        <ele>549.0</ele>
        <time>2019-01-27T06:44:16-02:00</time>
      </trkpt>
      <trkpt lat="-21.57280533" lon="-48.801793329999995">
        <ele>549.0</ele>
        <time>2019-01-27T06:44:17-02:00</time>
      </trkpt>
      <trkpt lat="-21.57279433" lon="-48.80177666000001">
        <ele>549.0</ele>
        <time>2019-01-27T06:44:18-02:00</time>
      </trkpt>
      <trkpt lat="-21.572782330000003" lon="-48.80175833">
        <ele>549.0</ele>
        <time>2019-01-27T06:44:19-02:00</time>
      </trkpt>
      <trkpt lat="-21.57277233" lon="-48.80174333">
        <ele>549.0</ele>
        <time>2019-01-27T06:44:20-02:00</time>
      </trkpt>
      <trkpt lat="-21.572761" lon="-48.801723329999994">
        <ele>549.0</ele>
        <time>2019-01-27T06:44:21-02:00</time>
      </trkpt>
      <trkpt lat="-21.572748999999998" lon="-48.801705000000005">
        <ele>549.0</ele>
        <time>2019-01-27T06:44:22-02:00</time>
      </trkpt>
      <trkpt lat="-21.57273666" lon="-48.801686659999994">
        <ele>549.0</ele>
        <time>2019-01-27T06:44:23-02:00</time>
      </trkpt>
      <trkpt lat="-21.57272333" lon="-48.80166666">
        <ele>549.0</ele>
        <time>2019-01-27T06:44:24-02:00</time>
      </trkpt>
      <trkpt lat="-21.572712000000003" lon="-48.80164666">
        <ele>549.0</ele>
        <time>2019-01-27T06:44:25-02:00</time>
      </trkpt>
      <trkpt lat="-21.57269866" lon="-48.80162666">
        <ele>549.0</ele>
        <time>2019-01-27T06:44:26-02:00</time>
      </trkpt>
      <trkpt lat="-21.57268866" lon="-48.80160833">
        <ele>549.0</ele>
        <time>2019-01-27T06:44:27-02:00</time>
      </trkpt>
      <trkpt lat="-21.57267933" lon="-48.80159166">
        <ele>549.0</ele>
        <time>2019-01-27T06:44:28-02:00</time>
      </trkpt>
      <trkpt lat="-21.572668" lon="-48.80157166">
        <ele>549.0</ele>
        <time>2019-01-27T06:44:29-02:00</time>
      </trkpt>
      <trkpt lat="-21.572656330000004" lon="-48.80155333">
        <ele>549.0</ele>
        <time>2019-01-27T06:44:30-02:00</time>
      </trkpt>
      <trkpt lat="-21.572647000000007" lon="-48.80153666">
        <ele>549.0</ele>
        <time>2019-01-27T06:44:31-02:00</time>
      </trkpt>
      <trkpt lat="-21.572637000000004" lon="-48.80151833">
        <ele>549.0</ele>
        <time>2019-01-27T06:44:32-02:00</time>
      </trkpt>
      <trkpt lat="-21.572624660000002" lon="-48.8015">
        <ele>549.0</ele>
        <time>2019-01-27T06:44:33-02:00</time>
      </trkpt>
      <trkpt lat="-21.572614330000004" lon="-48.80148166000001">
        <ele>549.0</ele>
        <time>2019-01-27T06:44:34-02:00</time>
      </trkpt>
      <trkpt lat="-21.572600660000003" lon="-48.80146">
        <ele>549.0</ele>
        <time>2019-01-27T06:44:35-02:00</time>
      </trkpt>
      <trkpt lat="-21.572588330000002" lon="-48.80143833">
        <ele>549.0</ele>
        <time>2019-01-27T06:44:36-02:00</time>
      </trkpt>
      <trkpt lat="-21.572575330000003" lon="-48.80141833">
        <ele>549.0</ele>
        <time>2019-01-27T06:44:37-02:00</time>
      </trkpt>
      <trkpt lat="-21.572563" lon="-48.80139666000001">
        <ele>549.0</ele>
        <time>2019-01-27T06:44:38-02:00</time>
      </trkpt>
      <trkpt lat="-21.572550330000006" lon="-48.80137666">
        <ele>549.0</ele>
        <time>2019-01-27T06:44:39-02:00</time>
      </trkpt>
      <trkpt lat="-21.572540330000002" lon="-48.80135832999999">
        <ele>549.0</ele>
        <time>2019-01-27T06:44:40-02:00</time>
      </trkpt>
      <trkpt lat="-21.57252833" lon="-48.80133666">
        <ele>549.0</ele>
        <time>2019-01-27T06:44:41-02:00</time>
      </trkpt>
      <trkpt lat="-21.57251766" lon="-48.80131665999999">
        <ele>549.0</ele>
        <time>2019-01-27T06:44:42-02:00</time>
      </trkpt>
      <trkpt lat="-21.572504999999996" lon="-48.801296660000006">
        <ele>549.0</ele>
        <time>2019-01-27T06:44:43-02:00</time>
      </trkpt>
      <trkpt lat="-21.572495000000004" lon="-48.801278329999995">
        <ele>549.0</ele>
        <time>2019-01-27T06:44:44-02:00</time>
      </trkpt>
      <trkpt lat="-21.572485" lon="-48.80125999999999">
        <ele>549.0</ele>
        <time>2019-01-27T06:44:45-02:00</time>
      </trkpt>
      <trkpt lat="-21.572475330000007" lon="-48.801241659999995">
        <ele>549.0</ele>
        <time>2019-01-27T06:44:46-02:00</time>
      </trkpt>
      <trkpt lat="-21.572464330000003" lon="-48.80122332999999">
        <ele>549.0</ele>
        <time>2019-01-27T06:44:47-02:00</time>
      </trkpt>
      <trkpt lat="-21.572451330000003" lon="-48.80120333">
        <ele>549.0</ele>
        <time>2019-01-27T06:44:48-02:00</time>
      </trkpt>
      <trkpt lat="-21.57244066" lon="-48.80118332999999">
        <ele>549.0</ele>
        <time>2019-01-27T06:44:49-02:00</time>
      </trkpt>
      <trkpt lat="-21.57242833" lon="-48.801163329999994">
        <ele>550.0</ele>
        <time>2019-01-27T06:44:50-02:00</time>
      </trkpt>
      <trkpt lat="-21.572419" lon="-48.801145000000005">
        <ele>550.0</ele>
        <time>2019-01-27T06:44:51-02:00</time>
      </trkpt>
      <trkpt lat="-21.57239466" lon="-48.80110499999999">
        <ele>550.0</ele>
        <time>2019-01-27T06:44:52-02:00</time>
      </trkpt>
      <trkpt lat="-21.572382" lon="-48.801085">
        <ele>550.0</ele>
        <time>2019-01-27T06:44:53-02:00</time>
      </trkpt>
      <trkpt lat="-21.572370330000005" lon="-48.801065">
        <ele>550.0</ele>
        <time>2019-01-27T06:44:54-02:00</time>
      </trkpt>
      <trkpt lat="-21.572359999999996" lon="-48.801044999999995">
        <ele>550.0</ele>
        <time>2019-01-27T06:44:55-02:00</time>
      </trkpt>
      <trkpt lat="-21.57234766" lon="-48.801024999999996">
        <ele>550.0</ele>
        <time>2019-01-27T06:44:56-02:00</time>
      </trkpt>
      <trkpt lat="-21.57233566" lon="-48.801004999999996">
        <ele>550.0</ele>
        <time>2019-01-27T06:44:57-02:00</time>
      </trkpt>
      <trkpt lat="-21.57232433" lon="-48.80098666">
        <ele>550.0</ele>
        <time>2019-01-27T06:44:58-02:00</time>
      </trkpt>
      <trkpt lat="-21.57231033" lon="-48.80096665999999">
        <ele>550.0</ele>
        <time>2019-01-27T06:44:59-02:00</time>
      </trkpt>
      <trkpt lat="-21.572297000000002" lon="-48.800945">
        <ele>550.0</ele>
        <time>2019-01-27T06:45:00-02:00</time>
      </trkpt>
      <trkpt lat="-21.572284" lon="-48.800923329999996">
        <ele>550.0</ele>
        <time>2019-01-27T06:45:01-02:00</time>
      </trkpt>
      <trkpt lat="-21.572272000000005" lon="-48.80090333">
        <ele>551.0</ele>
        <time>2019-01-27T06:45:02-02:00</time>
      </trkpt>
      <trkpt lat="-21.57225966" lon="-48.80088333">
        <ele>551.0</ele>
        <time>2019-01-27T06:45:03-02:00</time>
      </trkpt>
      <trkpt lat="-21.57224533" lon="-48.800863330000006">
        <ele>551.0</ele>
        <time>2019-01-27T06:45:04-02:00</time>
      </trkpt>
      <trkpt lat="-21.57223233" lon="-48.800841659999996">
        <ele>551.0</ele>
        <time>2019-01-27T06:45:05-02:00</time>
      </trkpt>
      <trkpt lat="-21.57222" lon="-48.800821660000004">
        <ele>551.0</ele>
        <time>2019-01-27T06:45:06-02:00</time>
      </trkpt>
      <trkpt lat="-21.572207659999997" lon="-48.800801660000005">
        <ele>551.0</ele>
        <time>2019-01-27T06:45:07-02:00</time>
      </trkpt>
      <trkpt lat="-21.572193329999998" lon="-48.80077832999999">
        <ele>551.0</ele>
        <time>2019-01-27T06:45:08-02:00</time>
      </trkpt>
      <trkpt lat="-21.572179" lon="-48.800758329999994">
        <ele>551.0</ele>
        <time>2019-01-27T06:45:09-02:00</time>
      </trkpt>
      <trkpt lat="-21.57216666" lon="-48.80073833">
        <ele>551.0</ele>
        <time>2019-01-27T06:45:10-02:00</time>
      </trkpt>
      <trkpt lat="-21.57215266" lon="-48.800715000000004">
        <ele>551.0</ele>
        <time>2019-01-27T06:45:11-02:00</time>
      </trkpt>
      <trkpt lat="-21.572139" lon="-48.800693329999994">
        <ele>551.0</ele>
        <time>2019-01-27T06:45:12-02:00</time>
      </trkpt>
      <trkpt lat="-21.572125999999997" lon="-48.800671660000006">
        <ele>551.0</ele>
        <time>2019-01-27T06:45:13-02:00</time>
      </trkpt>
      <trkpt lat="-21.57211266" lon="-48.800650000000005">
        <ele>551.0</ele>
        <time>2019-01-27T06:45:14-02:00</time>
      </trkpt>
      <trkpt lat="-21.572101330000002" lon="-48.80063166">
        <ele>551.0</ele>
        <time>2019-01-27T06:45:15-02:00</time>
      </trkpt>
      <trkpt lat="-21.572089999999996" lon="-48.80061333">
        <ele>551.0</ele>
        <time>2019-01-27T06:45:16-02:00</time>
      </trkpt>
      <trkpt lat="-21.572077659999998" lon="-48.80059332999999">
        <ele>551.0</ele>
        <time>2019-01-27T06:45:17-02:00</time>
      </trkpt>
      <trkpt lat="-21.572064330000003" lon="-48.80057166">
        <ele>551.0</ele>
        <time>2019-01-27T06:45:18-02:00</time>
      </trkpt>
      <trkpt lat="-21.572052000000003" lon="-48.80055166">
        <ele>552.0</ele>
        <time>2019-01-27T06:45:19-02:00</time>
      </trkpt>
      <trkpt lat="-21.57203966" lon="-48.80053166">
        <ele>552.0</ele>
        <time>2019-01-27T06:45:20-02:00</time>
      </trkpt>
      <trkpt lat="-21.572028330000002" lon="-48.80051333">
        <ele>552.0</ele>
        <time>2019-01-27T06:45:21-02:00</time>
      </trkpt>
      <trkpt lat="-21.572015" lon="-48.80049166">
        <ele>552.0</ele>
        <time>2019-01-27T06:45:22-02:00</time>
      </trkpt>
      <trkpt lat="-21.572003329999998" lon="-48.80047166000001">
        <ele>552.0</ele>
        <time>2019-01-27T06:45:23-02:00</time>
      </trkpt>
      <trkpt lat="-21.571992" lon="-48.800453329999996">
        <ele>552.0</ele>
        <time>2019-01-27T06:45:24-02:00</time>
      </trkpt>
      <trkpt lat="-21.571979660000004" lon="-48.80043333">
        <ele>552.0</ele>
        <time>2019-01-27T06:45:25-02:00</time>
      </trkpt>
      <trkpt lat="-21.571968000000002" lon="-48.80041332999999">
        <ele>552.0</ele>
        <time>2019-01-27T06:45:26-02:00</time>
      </trkpt>
      <trkpt lat="-21.571955659999997" lon="-48.80039333">
        <ele>552.0</ele>
        <time>2019-01-27T06:45:27-02:00</time>
      </trkpt>
      <trkpt lat="-21.57194466" lon="-48.800375">
        <ele>552.0</ele>
        <time>2019-01-27T06:45:28-02:00</time>
      </trkpt>
      <trkpt lat="-21.57193133" lon="-48.80035332999999">
        <ele>552.0</ele>
        <time>2019-01-27T06:45:29-02:00</time>
      </trkpt>
      <trkpt lat="-21.571919" lon="-48.800333329999994">
        <ele>552.0</ele>
        <time>2019-01-27T06:45:30-02:00</time>
      </trkpt>
      <trkpt lat="-21.571907000000003" lon="-48.80031333">
        <ele>552.0</ele>
        <time>2019-01-27T06:45:31-02:00</time>
      </trkpt>
      <trkpt lat="-21.571897659999998" lon="-48.80029499999999">
        <ele>552.0</ele>
        <time>2019-01-27T06:45:32-02:00</time>
      </trkpt>
      <trkpt lat="-21.57188566" lon="-48.800275">
        <ele>553.0</ele>
        <time>2019-01-27T06:45:33-02:00</time>
      </trkpt>
      <trkpt lat="-21.57187233" lon="-48.80025333">
        <ele>553.0</ele>
        <time>2019-01-27T06:45:34-02:00</time>
      </trkpt>
      <trkpt lat="-21.571862000000003" lon="-48.80023332999999">
        <ele>553.0</ele>
        <time>2019-01-27T06:45:35-02:00</time>
      </trkpt>
      <trkpt lat="-21.57185" lon="-48.80021333">
        <ele>553.0</ele>
        <time>2019-01-27T06:45:36-02:00</time>
      </trkpt>
      <trkpt lat="-21.571839330000003" lon="-48.800195">
        <ele>553.0</ele>
        <time>2019-01-27T06:45:37-02:00</time>
      </trkpt>
      <trkpt lat="-21.571826330000004" lon="-48.80017332999999">
        <ele>553.0</ele>
        <time>2019-01-27T06:45:38-02:00</time>
      </trkpt>
      <trkpt lat="-21.571815660000002" lon="-48.80015332999999">
        <ele>553.0</ele>
        <time>2019-01-27T06:45:39-02:00</time>
      </trkpt>
      <trkpt lat="-21.571802659999996" lon="-48.80013166">
        <ele>553.0</ele>
        <time>2019-01-27T06:45:40-02:00</time>
      </trkpt>
      <trkpt lat="-21.57179066" lon="-48.800111660000006">
        <ele>553.0</ele>
        <time>2019-01-27T06:45:41-02:00</time>
      </trkpt>
      <trkpt lat="-21.57177966" lon="-48.800093329999996">
        <ele>553.0</ele>
        <time>2019-01-27T06:45:42-02:00</time>
      </trkpt>
      <trkpt lat="-21.571769330000002" lon="-48.80007333">
        <ele>553.0</ele>
        <time>2019-01-27T06:45:43-02:00</time>
      </trkpt>
      <trkpt lat="-21.571758999999997" lon="-48.80005666">
        <ele>553.0</ele>
        <time>2019-01-27T06:45:44-02:00</time>
      </trkpt>
      <trkpt lat="-21.57174566" lon="-48.800034999999994">
        <ele>553.0</ele>
        <time>2019-01-27T06:45:45-02:00</time>
      </trkpt>
      <trkpt lat="-21.57173233" lon="-48.80001333">
        <ele>553.0</ele>
        <time>2019-01-27T06:45:46-02:00</time>
      </trkpt>
      <trkpt lat="-21.571721330000006" lon="-48.799995">
        <ele>553.0</ele>
        <time>2019-01-27T06:45:47-02:00</time>
      </trkpt>
      <trkpt lat="-21.57170833" lon="-48.79997332999999">
        <ele>553.0</ele>
        <time>2019-01-27T06:45:48-02:00</time>
      </trkpt>
      <trkpt lat="-21.571696000000003" lon="-48.79995333">
        <ele>553.0</ele>
        <time>2019-01-27T06:45:49-02:00</time>
      </trkpt>
      <trkpt lat="-21.571683999999998" lon="-48.799933329999995">
        <ele>553.0</ele>
        <time>2019-01-27T06:45:50-02:00</time>
      </trkpt>
      <trkpt lat="-21.571671000000002" lon="-48.79991166">
        <ele>553.0</ele>
        <time>2019-01-27T06:45:51-02:00</time>
      </trkpt>
      <trkpt lat="-21.57166" lon="-48.799893329999996">
        <ele>553.0</ele>
        <time>2019-01-27T06:45:52-02:00</time>
      </trkpt>
      <trkpt lat="-21.571649660000002" lon="-48.79987332999999">
        <ele>553.0</ele>
        <time>2019-01-27T06:45:53-02:00</time>
      </trkpt>
      <trkpt lat="-21.57163666" lon="-48.799854999999994">
        <ele>553.0</ele>
        <time>2019-01-27T06:45:54-02:00</time>
      </trkpt>
      <trkpt lat="-21.571625660000002" lon="-48.79983666">
        <ele>554.0</ele>
        <time>2019-01-27T06:45:55-02:00</time>
      </trkpt>
      <trkpt lat="-21.571613659999997" lon="-48.79981666">
        <ele>554.0</ele>
        <time>2019-01-27T06:45:56-02:00</time>
      </trkpt>
      <trkpt lat="-21.571601330000004" lon="-48.79979666000001">
        <ele>554.0</ele>
        <time>2019-01-27T06:45:57-02:00</time>
      </trkpt>
      <trkpt lat="-21.571589330000002" lon="-48.799776660000006">
        <ele>554.0</ele>
        <time>2019-01-27T06:45:58-02:00</time>
      </trkpt>
      <trkpt lat="-21.571575330000005" lon="-48.79975666">
        <ele>554.0</ele>
        <time>2019-01-27T06:45:59-02:00</time>
      </trkpt>
      <trkpt lat="-21.57156266" lon="-48.799735">
        <ele>554.0</ele>
        <time>2019-01-27T06:46:00-02:00</time>
      </trkpt>
      <trkpt lat="-21.571550330000004" lon="-48.799715000000006">
        <ele>554.0</ele>
        <time>2019-01-27T06:46:01-02:00</time>
      </trkpt>
      <trkpt lat="-21.571536330000004" lon="-48.79969165999999">
        <ele>554.0</ele>
        <time>2019-01-27T06:46:02-02:00</time>
      </trkpt>
      <trkpt lat="-21.571523330000005" lon="-48.79967">
        <ele>554.0</ele>
        <time>2019-01-27T06:46:03-02:00</time>
      </trkpt>
      <trkpt lat="-21.571510000000004" lon="-48.799648330000004">
        <ele>554.0</ele>
        <time>2019-01-27T06:46:04-02:00</time>
      </trkpt>
      <trkpt lat="-21.571497000000004" lon="-48.79962999999999">
        <ele>554.0</ele>
        <time>2019-01-27T06:46:05-02:00</time>
      </trkpt>
      <trkpt lat="-21.57148566" lon="-48.79961166">
        <ele>554.0</ele>
        <time>2019-01-27T06:46:06-02:00</time>
      </trkpt>
      <trkpt lat="-21.571473660000002" lon="-48.79959166">
        <ele>554.0</ele>
        <time>2019-01-27T06:46:07-02:00</time>
      </trkpt>
      <trkpt lat="-21.571459330000003" lon="-48.799571660000005">
        <ele>554.0</ele>
        <time>2019-01-27T06:46:08-02:00</time>
      </trkpt>
      <trkpt lat="-21.571446330000004" lon="-48.799549999999996">
        <ele>554.0</ele>
        <time>2019-01-27T06:46:09-02:00</time>
      </trkpt>
      <trkpt lat="-21.571436000000002" lon="-48.799533329999996">
        <ele>554.0</ele>
        <time>2019-01-27T06:46:10-02:00</time>
      </trkpt>
      <trkpt lat="-21.571423330000002" lon="-48.799515">
        <ele>554.0</ele>
        <time>2019-01-27T06:46:11-02:00</time>
      </trkpt>
      <trkpt lat="-21.571412000000002" lon="-48.79949666">
        <ele>554.0</ele>
        <time>2019-01-27T06:46:12-02:00</time>
      </trkpt>
      <trkpt lat="-21.571400330000007" lon="-48.79947833">
        <ele>554.0</ele>
        <time>2019-01-27T06:46:13-02:00</time>
      </trkpt>
      <trkpt lat="-21.571387000000005" lon="-48.799459999999996">
        <ele>554.0</ele>
        <time>2019-01-27T06:46:14-02:00</time>
      </trkpt>
      <trkpt lat="-21.571376660000002" lon="-48.799443329999995">
        <ele>554.0</ele>
        <time>2019-01-27T06:46:15-02:00</time>
      </trkpt>
      <trkpt lat="-21.57136333" lon="-48.799425">
        <ele>554.0</ele>
        <time>2019-01-27T06:46:16-02:00</time>
      </trkpt>
      <trkpt lat="-21.57135233" lon="-48.79941">
        <ele>554.0</ele>
        <time>2019-01-27T06:46:17-02:00</time>
      </trkpt>
      <trkpt lat="-21.57134066" lon="-48.799391660000005">
        <ele>554.0</ele>
        <time>2019-01-27T06:46:18-02:00</time>
      </trkpt>
      <trkpt lat="-21.571326660000004" lon="-48.799373329999995">
        <ele>554.0</ele>
        <time>2019-01-27T06:46:19-02:00</time>
      </trkpt>
      <trkpt lat="-21.571313330000002" lon="-48.799355">
        <ele>554.0</ele>
        <time>2019-01-27T06:46:20-02:00</time>
      </trkpt>
      <trkpt lat="-21.571301660000003" lon="-48.79933666">
        <ele>555.0</ele>
        <time>2019-01-27T06:46:21-02:00</time>
      </trkpt>
      <trkpt lat="-21.57128766" lon="-48.79931832999999">
        <ele>555.0</ele>
        <time>2019-01-27T06:46:22-02:00</time>
      </trkpt>
      <trkpt lat="-21.571275330000002" lon="-48.799301660000005">
        <ele>555.0</ele>
        <time>2019-01-27T06:46:23-02:00</time>
      </trkpt>
      <trkpt lat="-21.57126333" lon="-48.799283329999994">
        <ele>555.0</ele>
        <time>2019-01-27T06:46:24-02:00</time>
      </trkpt>
      <trkpt lat="-21.57124933" lon="-48.799265">
        <ele>555.0</ele>
        <time>2019-01-27T06:46:25-02:00</time>
      </trkpt>
      <trkpt lat="-21.571235659999996" lon="-48.79924666000001">
        <ele>555.0</ele>
        <time>2019-01-27T06:46:26-02:00</time>
      </trkpt>
      <trkpt lat="-21.571221330000004" lon="-48.79922832999999">
        <ele>555.0</ele>
        <time>2019-01-27T06:46:27-02:00</time>
      </trkpt>
      <trkpt lat="-21.571208329999997" lon="-48.799211660000005">
        <ele>555.0</ele>
        <time>2019-01-27T06:46:28-02:00</time>
      </trkpt>
      <trkpt lat="-21.571193" lon="-48.79919166">
        <ele>555.0</ele>
        <time>2019-01-27T06:46:29-02:00</time>
      </trkpt>
      <trkpt lat="-21.571183659999996" lon="-48.79917999999999">
        <ele>555.0</ele>
        <time>2019-01-27T06:46:30-02:00</time>
      </trkpt>
      <trkpt lat="-21.571169660000002" lon="-48.79916332999999">
        <ele>555.0</ele>
        <time>2019-01-27T06:46:31-02:00</time>
      </trkpt>
      <trkpt lat="-21.57115466" lon="-48.799146660000005">
        <ele>555.0</ele>
        <time>2019-01-27T06:46:32-02:00</time>
      </trkpt>
      <trkpt lat="-21.57113933" lon="-48.79912666">
        <ele>555.0</ele>
        <time>2019-01-27T06:46:33-02:00</time>
      </trkpt>
      <trkpt lat="-21.571126330000006" lon="-48.79911">
        <ele>555.0</ele>
        <time>2019-01-27T06:46:34-02:00</time>
      </trkpt>
      <trkpt lat="-21.57111066" lon="-48.79909332999999">
        <ele>555.0</ele>
        <time>2019-01-27T06:46:35-02:00</time>
      </trkpt>
      <trkpt lat="-21.571066660000007" lon="-48.79907832999999">
        <ele>555.0</ele>
        <time>2019-01-27T06:46:36-02:00</time>
      </trkpt>
      <trkpt lat="-21.571053330000005" lon="-48.79906165999999">
        <ele>555.0</ele>
        <time>2019-01-27T06:46:37-02:00</time>
      </trkpt>
      <trkpt lat="-21.57103833" lon="-48.79904333">
        <ele>555.0</ele>
        <time>2019-01-27T06:46:38-02:00</time>
      </trkpt>
      <trkpt lat="-21.571023330000003" lon="-48.799025">
        <ele>555.0</ele>
        <time>2019-01-27T06:46:39-02:00</time>
      </trkpt>
      <trkpt lat="-21.57100833" lon="-48.799006659999996">
        <ele>555.0</ele>
        <time>2019-01-27T06:46:40-02:00</time>
      </trkpt>
      <trkpt lat="-21.570991660000004" lon="-48.798985">
        <ele>555.0</ele>
        <time>2019-01-27T06:46:41-02:00</time>
      </trkpt>
      <trkpt lat="-21.570980330000005" lon="-48.79897">
        <ele>555.0</ele>
        <time>2019-01-27T06:46:42-02:00</time>
      </trkpt>
      <trkpt lat="-21.570963999999996" lon="-48.79895166">
        <ele>555.0</ele>
        <time>2019-01-27T06:46:43-02:00</time>
      </trkpt>
      <trkpt lat="-21.570950330000006" lon="-48.798935">
        <ele>555.0</ele>
        <time>2019-01-27T06:46:44-02:00</time>
      </trkpt>
      <trkpt lat="-21.570935" lon="-48.79891833">
        <ele>555.0</ele>
        <time>2019-01-27T06:46:45-02:00</time>
      </trkpt>
      <trkpt lat="-21.570916000000004" lon="-48.79889832999999">
        <ele>555.0</ele>
        <time>2019-01-27T06:46:46-02:00</time>
      </trkpt>
      <trkpt lat="-21.570901660000004" lon="-48.79888666000001">
        <ele>556.0</ele>
        <time>2019-01-27T06:46:47-02:00</time>
      </trkpt>
      <trkpt lat="-21.570885000000004" lon="-48.79887333">
        <ele>556.0</ele>
        <time>2019-01-27T06:46:48-02:00</time>
      </trkpt>
      <trkpt lat="-21.570868330000003" lon="-48.79885700000001">
        <ele>556.0</ele>
        <time>2019-01-27T06:46:49-02:00</time>
      </trkpt>
      <trkpt lat="-21.57085" lon="-48.79883933">
        <ele>556.0</ele>
        <time>2019-01-27T06:46:50-02:00</time>
      </trkpt>
      <trkpt lat="-21.57083333" lon="-48.79882233">
        <ele>556.0</ele>
        <time>2019-01-27T06:46:51-02:00</time>
      </trkpt>
      <trkpt lat="-21.570816660000006" lon="-48.79880733">
        <ele>556.0</ele>
        <time>2019-01-27T06:46:52-02:00</time>
      </trkpt>
      <trkpt lat="-21.570801660000008" lon="-48.79879366">
        <ele>556.0</ele>
        <time>2019-01-27T06:46:53-02:00</time>
      </trkpt>
      <trkpt lat="-21.570785" lon="-48.798777">
        <ele>556.0</ele>
        <time>2019-01-27T06:46:54-02:00</time>
      </trkpt>
      <trkpt lat="-21.570766659999997" lon="-48.798759999999994">
        <ele>556.0</ele>
        <time>2019-01-27T06:46:55-02:00</time>
      </trkpt>
      <trkpt lat="-21.570751660000003" lon="-48.79874533">
        <ele>556.0</ele>
        <time>2019-01-27T06:46:56-02:00</time>
      </trkpt>
      <trkpt lat="-21.570735" lon="-48.798728329999996">
        <ele>556.0</ele>
        <time>2019-01-27T06:46:57-02:00</time>
      </trkpt>
      <trkpt lat="-21.570721660000004" lon="-48.798713660000004">
        <ele>556.0</ele>
        <time>2019-01-27T06:46:58-02:00</time>
      </trkpt>
      <trkpt lat="-21.570701660000005" lon="-48.798693">
        <ele>556.0</ele>
        <time>2019-01-27T06:46:59-02:00</time>
      </trkpt>
      <trkpt lat="-21.570688330000003" lon="-48.79867900000001">
        <ele>556.0</ele>
        <time>2019-01-27T06:47:00-02:00</time>
      </trkpt>
      <trkpt lat="-21.57067166" lon="-48.798662660000005">
        <ele>556.0</ele>
        <time>2019-01-27T06:47:01-02:00</time>
      </trkpt>
      <trkpt lat="-21.570651660000003" lon="-48.79864233">
        <ele>556.0</ele>
        <time>2019-01-27T06:47:02-02:00</time>
      </trkpt>
      <trkpt lat="-21.570636659999998" lon="-48.79862733">
        <ele>556.0</ele>
        <time>2019-01-27T06:47:03-02:00</time>
      </trkpt>
      <trkpt lat="-21.570616660000006" lon="-48.798609000000006">
        <ele>556.0</ele>
        <time>2019-01-27T06:47:04-02:00</time>
      </trkpt>
      <trkpt lat="-21.570603330000004" lon="-48.79859733">
        <ele>556.0</ele>
        <time>2019-01-27T06:47:05-02:00</time>
      </trkpt>
      <trkpt lat="-21.570585" lon="-48.79858032999999">
        <ele>556.0</ele>
        <time>2019-01-27T06:47:06-02:00</time>
      </trkpt>
      <trkpt lat="-21.570573330000002" lon="-48.798569660000005">
        <ele>556.0</ele>
        <time>2019-01-27T06:47:07-02:00</time>
      </trkpt>
      <trkpt lat="-21.57055666" lon="-48.79855366">
        <ele>556.0</ele>
        <time>2019-01-27T06:47:08-02:00</time>
      </trkpt>
      <trkpt lat="-21.57054" lon="-48.798539330000004">
        <ele>556.0</ele>
        <time>2019-01-27T06:47:09-02:00</time>
      </trkpt>
      <trkpt lat="-21.570523330000007" lon="-48.79852433">
        <ele>556.0</ele>
        <time>2019-01-27T06:47:10-02:00</time>
      </trkpt>
      <trkpt lat="-21.570504999999997" lon="-48.79850866">
        <ele>556.0</ele>
        <time>2019-01-27T06:47:11-02:00</time>
      </trkpt>
      <trkpt lat="-21.57048666" lon="-48.798493660000005">
        <ele>557.0</ele>
        <time>2019-01-27T06:47:12-02:00</time>
      </trkpt>
      <trkpt lat="-21.57047" lon="-48.798480330000004">
        <ele>557.0</ele>
        <time>2019-01-27T06:47:13-02:00</time>
      </trkpt>
      <trkpt lat="-21.57045333" lon="-48.798467">
        <ele>557.0</ele>
        <time>2019-01-27T06:47:14-02:00</time>
      </trkpt>
      <trkpt lat="-21.570435000000003" lon="-48.79845266000001">
        <ele>557.0</ele>
        <time>2019-01-27T06:47:15-02:00</time>
      </trkpt>
      <trkpt lat="-21.57041666" lon="-48.79843699999999">
        <ele>557.0</ele>
        <time>2019-01-27T06:47:16-02:00</time>
      </trkpt>
      <trkpt lat="-21.570398330000003" lon="-48.79842266000001">
        <ele>557.0</ele>
        <time>2019-01-27T06:47:17-02:00</time>
      </trkpt>
      <trkpt lat="-21.570379999999993" lon="-48.79840866000001">
        <ele>557.0</ele>
        <time>2019-01-27T06:47:18-02:00</time>
      </trkpt>
      <trkpt lat="-21.570358329999998" lon="-48.798390999999995">
        <ele>557.0</ele>
        <time>2019-01-27T06:47:19-02:00</time>
      </trkpt>
      <trkpt lat="-21.570341660000004" lon="-48.798379000000004">
        <ele>557.0</ele>
        <time>2019-01-27T06:47:20-02:00</time>
      </trkpt>
      <trkpt lat="-21.570328330000002" lon="-48.798368659999994">
        <ele>557.0</ele>
        <time>2019-01-27T06:47:21-02:00</time>
      </trkpt>
      <trkpt lat="-21.570308329999996" lon="-48.79835233">
        <ele>557.0</ele>
        <time>2019-01-27T06:47:22-02:00</time>
      </trkpt>
      <trkpt lat="-21.57029" lon="-48.798338">
        <ele>557.0</ele>
        <time>2019-01-27T06:47:23-02:00</time>
      </trkpt>
      <trkpt lat="-21.570268329999998" lon="-48.79832066000001">
        <ele>557.0</ele>
        <time>2019-01-27T06:47:24-02:00</time>
      </trkpt>
      <trkpt lat="-21.57025333" lon="-48.79830933">
        <ele>557.0</ele>
        <time>2019-01-27T06:47:25-02:00</time>
      </trkpt>
      <trkpt lat="-21.570235000000004" lon="-48.798294999999996">
        <ele>557.0</ele>
        <time>2019-01-27T06:47:26-02:00</time>
      </trkpt>
      <trkpt lat="-21.57021666" lon="-48.798280999999996">
        <ele>557.0</ele>
        <time>2019-01-27T06:47:27-02:00</time>
      </trkpt>
      <trkpt lat="-21.570198330000004" lon="-48.79826533000001">
        <ele>557.0</ele>
        <time>2019-01-27T06:47:28-02:00</time>
      </trkpt>
      <trkpt lat="-21.570178330000005" lon="-48.798252000000005">
        <ele>557.0</ele>
        <time>2019-01-27T06:47:29-02:00</time>
      </trkpt>
      <trkpt lat="-21.57016" lon="-48.798238330000004">
        <ele>558.0</ele>
        <time>2019-01-27T06:47:30-02:00</time>
      </trkpt>
      <trkpt lat="-21.570141659999997" lon="-48.798224659999995">
        <ele>558.0</ele>
        <time>2019-01-27T06:47:31-02:00</time>
      </trkpt>
      <trkpt lat="-21.57012166" lon="-48.79821">
        <ele>558.0</ele>
        <time>2019-01-27T06:47:32-02:00</time>
      </trkpt>
      <trkpt lat="-21.570103330000002" lon="-48.79819666">
        <ele>558.0</ele>
        <time>2019-01-27T06:47:33-02:00</time>
      </trkpt>
      <trkpt lat="-21.570081660000007" lon="-48.79818066000001">
        <ele>558.0</ele>
        <time>2019-01-27T06:47:34-02:00</time>
      </trkpt>
      <trkpt lat="-21.570063330000004" lon="-48.798167660000004">
        <ele>558.0</ele>
        <time>2019-01-27T06:47:35-02:00</time>
      </trkpt>
      <trkpt lat="-21.570043329999997" lon="-48.798151">
        <ele>558.0</ele>
        <time>2019-01-27T06:47:36-02:00</time>
      </trkpt>
      <trkpt lat="-21.570026660000003" lon="-48.798141">
        <ele>558.0</ele>
        <time>2019-01-27T06:47:37-02:00</time>
      </trkpt>
      <trkpt lat="-21.570006660000004" lon="-48.798128">
        <ele>558.0</ele>
        <time>2019-01-27T06:47:38-02:00</time>
      </trkpt>
      <trkpt lat="-21.569986660000005" lon="-48.79811266">
        <ele>558.0</ele>
        <time>2019-01-27T06:47:39-02:00</time>
      </trkpt>
      <trkpt lat="-21.569968330000002" lon="-48.798101329999994">
        <ele>558.0</ele>
        <time>2019-01-27T06:47:40-02:00</time>
      </trkpt>
      <trkpt lat="-21.56995" lon="-48.79808833">
        <ele>558.0</ele>
        <time>2019-01-27T06:47:41-02:00</time>
      </trkpt>
      <trkpt lat="-21.56993166" lon="-48.798077">
        <ele>558.0</ele>
        <time>2019-01-27T06:47:42-02:00</time>
      </trkpt>
      <trkpt lat="-21.569911660000002" lon="-48.798062660000014">
        <ele>558.0</ele>
        <time>2019-01-27T06:47:43-02:00</time>
      </trkpt>
      <trkpt lat="-21.569895000000002" lon="-48.79805266000001">
        <ele>558.0</ele>
        <time>2019-01-27T06:47:44-02:00</time>
      </trkpt>
      <trkpt lat="-21.569875000000003" lon="-48.79803866">
        <ele>558.0</ele>
        <time>2019-01-27T06:47:45-02:00</time>
      </trkpt>
      <trkpt lat="-21.56985666" lon="-48.79802566">
        <ele>558.0</ele>
        <time>2019-01-27T06:47:46-02:00</time>
      </trkpt>
      <trkpt lat="-21.569838330000003" lon="-48.798012660000005">
        <ele>558.0</ele>
        <time>2019-01-27T06:47:47-02:00</time>
      </trkpt>
      <trkpt lat="-21.569818330000004" lon="-48.797999">
        <ele>558.0</ele>
        <time>2019-01-27T06:47:48-02:00</time>
      </trkpt>
      <trkpt lat="-21.569801660000003" lon="-48.79798566000001">
        <ele>558.0</ele>
        <time>2019-01-27T06:47:49-02:00</time>
      </trkpt>
      <trkpt lat="-21.569781659999997" lon="-48.79797233000001">
        <ele>558.0</ele>
        <time>2019-01-27T06:47:50-02:00</time>
      </trkpt>
      <trkpt lat="-21.56976333" lon="-48.79795766000001">
        <ele>558.0</ele>
        <time>2019-01-27T06:47:51-02:00</time>
      </trkpt>
      <trkpt lat="-21.569745000000005" lon="-48.79794366">
        <ele>558.0</ele>
        <time>2019-01-27T06:47:52-02:00</time>
      </trkpt>
      <trkpt lat="-21.56973" lon="-48.797932">
        <ele>558.0</ele>
        <time>2019-01-27T06:47:53-02:00</time>
      </trkpt>
      <trkpt lat="-21.569713330000006" lon="-48.79791866000001">
        <ele>558.0</ele>
        <time>2019-01-27T06:47:54-02:00</time>
      </trkpt>
      <trkpt lat="-21.56969333" lon="-48.79790332999999">
        <ele>559.0</ele>
        <time>2019-01-27T06:47:55-02:00</time>
      </trkpt>
      <trkpt lat="-21.569674999999997" lon="-48.797889000000005">
        <ele>559.0</ele>
        <time>2019-01-27T06:47:56-02:00</time>
      </trkpt>
      <trkpt lat="-21.569654999999997" lon="-48.797872000000005">
        <ele>559.0</ele>
        <time>2019-01-27T06:47:57-02:00</time>
      </trkpt>
      <trkpt lat="-21.569635" lon="-48.797856329999995">
        <ele>559.0</ele>
        <time>2019-01-27T06:47:58-02:00</time>
      </trkpt>
      <trkpt lat="-21.569615" lon="-48.797840660000006">
        <ele>559.0</ele>
        <time>2019-01-27T06:47:59-02:00</time>
      </trkpt>
      <trkpt lat="-21.569596660000002" lon="-48.797824999999996">
        <ele>559.0</ele>
        <time>2019-01-27T06:48:00-02:00</time>
      </trkpt>
      <trkpt lat="-21.569576660000003" lon="-48.79780933">
        <ele>559.0</ele>
        <time>2019-01-27T06:48:01-02:00</time>
      </trkpt>
      <trkpt lat="-21.569555" lon="-48.797793">
        <ele>558.0</ele>
        <time>2019-01-27T06:48:02-02:00</time>
      </trkpt>
      <trkpt lat="-21.569536660000004" lon="-48.797778660000006">
        <ele>558.0</ele>
        <time>2019-01-27T06:48:03-02:00</time>
      </trkpt>
      <trkpt lat="-21.56951833" lon="-48.79776466">
        <ele>558.0</ele>
        <time>2019-01-27T06:48:04-02:00</time>
      </trkpt>
      <trkpt lat="-21.56949666" lon="-48.797748">
        <ele>558.0</ele>
        <time>2019-01-27T06:48:05-02:00</time>
      </trkpt>
      <trkpt lat="-21.569476660000003" lon="-48.79773299999999">
        <ele>558.0</ele>
        <time>2019-01-27T06:48:06-02:00</time>
      </trkpt>
      <trkpt lat="-21.569458330000003" lon="-48.79771933000001">
        <ele>558.0</ele>
        <time>2019-01-27T06:48:07-02:00</time>
      </trkpt>
      <trkpt lat="-21.569438330000004" lon="-48.797704">
        <ele>558.0</ele>
        <time>2019-01-27T06:48:08-02:00</time>
      </trkpt>
      <trkpt lat="-21.56942" lon="-48.797692330000004">
        <ele>558.0</ele>
        <time>2019-01-27T06:48:09-02:00</time>
      </trkpt>
      <trkpt lat="-21.569398330000006" lon="-48.79767566">
        <ele>558.0</ele>
        <time>2019-01-27T06:48:10-02:00</time>
      </trkpt>
      <trkpt lat="-21.569379999999995" lon="-48.797662">
        <ele>558.0</ele>
        <time>2019-01-27T06:48:11-02:00</time>
      </trkpt>
      <trkpt lat="-21.56936" lon="-48.797647000000005">
        <ele>558.0</ele>
        <time>2019-01-27T06:48:12-02:00</time>
      </trkpt>
      <trkpt lat="-21.569340000000004" lon="-48.79763366000001">
        <ele>558.0</ele>
        <time>2019-01-27T06:48:13-02:00</time>
      </trkpt>
      <trkpt lat="-21.56931833" lon="-48.79761733">
        <ele>558.0</ele>
        <time>2019-01-27T06:48:14-02:00</time>
      </trkpt>
      <trkpt lat="-21.569298330000002" lon="-48.797602330000004">
        <ele>558.0</ele>
        <time>2019-01-27T06:48:15-02:00</time>
      </trkpt>
      <trkpt lat="-21.569276660000007" lon="-48.79758433">
        <ele>558.0</ele>
        <time>2019-01-27T06:48:16-02:00</time>
      </trkpt>
      <trkpt lat="-21.569255" lon="-48.79756999999999">
        <ele>558.0</ele>
        <time>2019-01-27T06:48:17-02:00</time>
      </trkpt>
      <trkpt lat="-21.569235" lon="-48.797555">
        <ele>558.0</ele>
        <time>2019-01-27T06:48:18-02:00</time>
      </trkpt>
      <trkpt lat="-21.569216660000002" lon="-48.797541329999994">
        <ele>558.0</ele>
        <time>2019-01-27T06:48:19-02:00</time>
      </trkpt>
      <trkpt lat="-21.56919333" lon="-48.79752366000001">
        <ele>558.0</ele>
        <time>2019-01-27T06:48:20-02:00</time>
      </trkpt>
      <trkpt lat="-21.569171660000002" lon="-48.797509659999996">
        <ele>558.0</ele>
        <time>2019-01-27T06:48:21-02:00</time>
      </trkpt>
      <trkpt lat="-21.56915" lon="-48.797493329999995">
        <ele>558.0</ele>
        <time>2019-01-27T06:48:22-02:00</time>
      </trkpt>
      <trkpt lat="-21.569129999999994" lon="-48.79747999999999">
        <ele>557.0</ele>
        <time>2019-01-27T06:48:23-02:00</time>
      </trkpt>
      <trkpt lat="-21.569111660000004" lon="-48.79746633">
        <ele>557.0</ele>
        <time>2019-01-27T06:48:24-02:00</time>
      </trkpt>
      <trkpt lat="-21.56909" lon="-48.79745233">
        <ele>557.0</ele>
        <time>2019-01-27T06:48:25-02:00</time>
      </trkpt>
      <trkpt lat="-21.569070000000004" lon="-48.797439329999996">
        <ele>557.0</ele>
        <time>2019-01-27T06:48:26-02:00</time>
      </trkpt>
      <trkpt lat="-21.56904833" lon="-48.79742333">
        <ele>557.0</ele>
        <time>2019-01-27T06:48:27-02:00</time>
      </trkpt>
      <trkpt lat="-21.569023330000004" lon="-48.79740700000001">
        <ele>557.0</ele>
        <time>2019-01-27T06:48:28-02:00</time>
      </trkpt>
      <trkpt lat="-21.569004999999997" lon="-48.79739566">
        <ele>556.0</ele>
        <time>2019-01-27T06:48:29-02:00</time>
      </trkpt>
      <trkpt lat="-21.56897833" lon="-48.797377999999995">
        <ele>556.0</ele>
        <time>2019-01-27T06:48:30-02:00</time>
      </trkpt>
      <trkpt lat="-21.56895833" lon="-48.797365330000005">
        <ele>556.0</ele>
        <time>2019-01-27T06:48:31-02:00</time>
      </trkpt>
      <trkpt lat="-21.56893333" lon="-48.797349000000004">
        <ele>556.0</ele>
        <time>2019-01-27T06:48:32-02:00</time>
      </trkpt>
      <trkpt lat="-21.568915" lon="-48.79733732999999">
        <ele>556.0</ele>
        <time>2019-01-27T06:48:33-02:00</time>
      </trkpt>
      <trkpt lat="-21.56888833" lon="-48.797320330000005">
        <ele>557.0</ele>
        <time>2019-01-27T06:48:34-02:00</time>
      </trkpt>
      <trkpt lat="-21.568866660000005" lon="-48.797306660000004">
        <ele>557.0</ele>
        <time>2019-01-27T06:48:35-02:00</time>
      </trkpt>
      <trkpt lat="-21.56884833" lon="-48.797295659999996">
        <ele>557.0</ele>
        <time>2019-01-27T06:48:36-02:00</time>
      </trkpt>
      <trkpt lat="-21.568828330000002" lon="-48.797283">
        <ele>557.0</ele>
        <time>2019-01-27T06:48:37-02:00</time>
      </trkpt>
      <trkpt lat="-21.56880333" lon="-48.79726766">
        <ele>558.0</ele>
        <time>2019-01-27T06:48:38-02:00</time>
      </trkpt>
      <trkpt lat="-21.568783329999995" lon="-48.79725533">
        <ele>558.0</ele>
        <time>2019-01-27T06:48:39-02:00</time>
      </trkpt>
      <trkpt lat="-21.568763330000003" lon="-48.79724366000001">
        <ele>558.0</ele>
        <time>2019-01-27T06:48:40-02:00</time>
      </trkpt>
      <trkpt lat="-21.568748330000002" lon="-48.79723532999999">
        <ele>558.0</ele>
        <time>2019-01-27T06:48:41-02:00</time>
      </trkpt>
      <trkpt lat="-21.568725" lon="-48.797221">
        <ele>558.0</ele>
        <time>2019-01-27T06:48:42-02:00</time>
      </trkpt>
      <trkpt lat="-21.56870833" lon="-48.79721166">
        <ele>558.0</ele>
        <time>2019-01-27T06:48:43-02:00</time>
      </trkpt>
      <trkpt lat="-21.568686659999997" lon="-48.797197">
        <ele>558.0</ele>
        <time>2019-01-27T06:48:44-02:00</time>
      </trkpt>
      <trkpt lat="-21.568665000000003" lon="-48.797184">
        <ele>558.0</ele>
        <time>2019-01-27T06:48:45-02:00</time>
      </trkpt>
      <trkpt lat="-21.56864" lon="-48.79716933000001">
        <ele>558.0</ele>
        <time>2019-01-27T06:48:46-02:00</time>
      </trkpt>
      <trkpt lat="-21.56862333" lon="-48.797158">
        <ele>558.0</ele>
        <time>2019-01-27T06:48:47-02:00</time>
      </trkpt>
      <trkpt lat="-21.56859833" lon="-48.797140999999996">
        <ele>558.0</ele>
        <time>2019-01-27T06:48:48-02:00</time>
      </trkpt>
      <trkpt lat="-21.56857666" lon="-48.79712632999999">
        <ele>558.0</ele>
        <time>2019-01-27T06:48:49-02:00</time>
      </trkpt>
      <trkpt lat="-21.568555" lon="-48.797114">
        <ele>558.0</ele>
        <time>2019-01-27T06:48:50-02:00</time>
      </trkpt>
      <trkpt lat="-21.568538330000003" lon="-48.79710266000001">
        <ele>558.0</ele>
        <time>2019-01-27T06:48:51-02:00</time>
      </trkpt>
      <trkpt lat="-21.56851666" lon="-48.797088">
        <ele>558.0</ele>
        <time>2019-01-27T06:48:52-02:00</time>
      </trkpt>
      <trkpt lat="-21.568498330000004" lon="-48.797075660000004">
        <ele>558.0</ele>
        <time>2019-01-27T06:48:53-02:00</time>
      </trkpt>
      <trkpt lat="-21.568476660000005" lon="-48.797062999999994">
        <ele>558.0</ele>
        <time>2019-01-27T06:48:54-02:00</time>
      </trkpt>
      <trkpt lat="-21.568456660000003" lon="-48.797049660000006">
        <ele>558.0</ele>
        <time>2019-01-27T06:48:55-02:00</time>
      </trkpt>
      <trkpt lat="-21.568435" lon="-48.797037">
        <ele>558.0</ele>
        <time>2019-01-27T06:48:56-02:00</time>
      </trkpt>
      <trkpt lat="-21.568411660000002" lon="-48.797020999999994">
        <ele>558.0</ele>
        <time>2019-01-27T06:48:57-02:00</time>
      </trkpt>
      <trkpt lat="-21.568391660000003" lon="-48.797007660000006">
        <ele>558.0</ele>
        <time>2019-01-27T06:48:58-02:00</time>
      </trkpt>
      <trkpt lat="-21.568376660000006" lon="-48.79699966">
        <ele>558.0</ele>
        <time>2019-01-27T06:48:59-02:00</time>
      </trkpt>
      <trkpt lat="-21.56835166" lon="-48.79698299999999">
        <ele>558.0</ele>
        <time>2019-01-27T06:49:00-02:00</time>
      </trkpt>
      <trkpt lat="-21.56833333" lon="-48.79697066000001">
        <ele>558.0</ele>
        <time>2019-01-27T06:49:01-02:00</time>
      </trkpt>
      <trkpt lat="-21.568310000000004" lon="-48.796957000000006">
        <ele>558.0</ele>
        <time>2019-01-27T06:49:02-02:00</time>
      </trkpt>
      <trkpt lat="-21.568288330000005" lon="-48.79694266">
        <ele>558.0</ele>
        <time>2019-01-27T06:49:03-02:00</time>
      </trkpt>
      <trkpt lat="-21.56826666" lon="-48.79692633">
        <ele>558.0</ele>
        <time>2019-01-27T06:49:04-02:00</time>
      </trkpt>
      <trkpt lat="-21.56824666" lon="-48.79691266000001">
        <ele>558.0</ele>
        <time>2019-01-27T06:49:05-02:00</time>
      </trkpt>
      <trkpt lat="-21.568226660000004" lon="-48.796899329999995">
        <ele>558.0</ele>
        <time>2019-01-27T06:49:06-02:00</time>
      </trkpt>
      <trkpt lat="-21.568185000000003" lon="-48.79686933">
        <ele>557.0</ele>
        <time>2019-01-27T06:49:07-02:00</time>
      </trkpt>
      <trkpt lat="-21.568165" lon="-48.79685599999999">
        <ele>557.0</ele>
        <time>2019-01-27T06:49:08-02:00</time>
      </trkpt>
      <trkpt lat="-21.568144999999998" lon="-48.79684266000001">
        <ele>557.0</ele>
        <time>2019-01-27T06:49:09-02:00</time>
      </trkpt>
      <trkpt lat="-21.568121660000003" lon="-48.796825330000004">
        <ele>557.0</ele>
        <time>2019-01-27T06:49:10-02:00</time>
      </trkpt>
      <trkpt lat="-21.568101660000004" lon="-48.796812">
        <ele>557.0</ele>
        <time>2019-01-27T06:49:11-02:00</time>
      </trkpt>
      <trkpt lat="-21.56808166" lon="-48.79679866">
        <ele>557.0</ele>
        <time>2019-01-27T06:49:12-02:00</time>
      </trkpt>
      <trkpt lat="-21.568061659999998" lon="-48.79678332999999">
        <ele>557.0</ele>
        <time>2019-01-27T06:49:13-02:00</time>
      </trkpt>
      <trkpt lat="-21.568045" lon="-48.796772">
        <ele>557.0</ele>
        <time>2019-01-27T06:49:14-02:00</time>
      </trkpt>
      <trkpt lat="-21.568021660000007" lon="-48.79675466">
        <ele>557.0</ele>
        <time>2019-01-27T06:49:15-02:00</time>
      </trkpt>
      <trkpt lat="-21.568005" lon="-48.79674333">
        <ele>557.0</ele>
        <time>2019-01-27T06:49:16-02:00</time>
      </trkpt>
      <trkpt lat="-21.567986660000003" lon="-48.79673099999999">
        <ele>557.0</ele>
        <time>2019-01-27T06:49:17-02:00</time>
      </trkpt>
      <trkpt lat="-21.56796833" lon="-48.79671666">
        <ele>557.0</ele>
        <time>2019-01-27T06:49:18-02:00</time>
      </trkpt>
      <trkpt lat="-21.567943330000002" lon="-48.796699659999994">
        <ele>557.0</ele>
        <time>2019-01-27T06:49:19-02:00</time>
      </trkpt>
      <trkpt lat="-21.567926660000005" lon="-48.79668866">
        <ele>557.0</ele>
        <time>2019-01-27T06:49:20-02:00</time>
      </trkpt>
      <trkpt lat="-21.56790333" lon="-48.796670660000004">
        <ele>557.0</ele>
        <time>2019-01-27T06:49:21-02:00</time>
      </trkpt>
      <trkpt lat="-21.567881660000005" lon="-48.79665632999998">
        <ele>557.0</ele>
        <time>2019-01-27T06:49:22-02:00</time>
      </trkpt>
      <trkpt lat="-21.567861660000002" lon="-48.796641">
        <ele>557.0</ele>
        <time>2019-01-27T06:49:23-02:00</time>
      </trkpt>
      <trkpt lat="-21.567835" lon="-48.796623">
        <ele>557.0</ele>
        <time>2019-01-27T06:49:24-02:00</time>
      </trkpt>
      <trkpt lat="-21.567815000000003" lon="-48.79660933">
        <ele>557.0</ele>
        <time>2019-01-27T06:49:25-02:00</time>
      </trkpt>
      <trkpt lat="-21.56779833" lon="-48.796596">
        <ele>557.0</ele>
        <time>2019-01-27T06:49:26-02:00</time>
      </trkpt>
      <trkpt lat="-21.567776660000003" lon="-48.79658099999999">
        <ele>557.0</ele>
        <time>2019-01-27T06:49:27-02:00</time>
      </trkpt>
      <trkpt lat="-21.567751660000006" lon="-48.796564000000004">
        <ele>557.0</ele>
        <time>2019-01-27T06:49:28-02:00</time>
      </trkpt>
      <trkpt lat="-21.567735000000003" lon="-48.79655233">
        <ele>557.0</ele>
        <time>2019-01-27T06:49:29-02:00</time>
      </trkpt>
      <trkpt lat="-21.56770833" lon="-48.79653366000001">
        <ele>557.0</ele>
        <time>2019-01-27T06:49:30-02:00</time>
      </trkpt>
      <trkpt lat="-21.56769" lon="-48.79652133">
        <ele>557.0</ele>
        <time>2019-01-27T06:49:31-02:00</time>
      </trkpt>
      <trkpt lat="-21.56766833" lon="-48.79650665999999">
        <ele>557.0</ele>
        <time>2019-01-27T06:49:32-02:00</time>
      </trkpt>
      <trkpt lat="-21.56764666" lon="-48.79649166">
        <ele>557.0</ele>
        <time>2019-01-27T06:49:33-02:00</time>
      </trkpt>
      <trkpt lat="-21.56763" lon="-48.796480329999994">
        <ele>557.0</ele>
        <time>2019-01-27T06:49:34-02:00</time>
      </trkpt>
      <trkpt lat="-21.56760833" lon="-48.79646566">
        <ele>557.0</ele>
        <time>2019-01-27T06:49:35-02:00</time>
      </trkpt>
      <trkpt lat="-21.56758333" lon="-48.79644866">
        <ele>556.0</ele>
        <time>2019-01-27T06:49:36-02:00</time>
      </trkpt>
      <trkpt lat="-21.567565" lon="-48.79643866">
        <ele>556.0</ele>
        <time>2019-01-27T06:49:37-02:00</time>
      </trkpt>
      <trkpt lat="-21.56754166" lon="-48.796422660000005">
        <ele>556.0</ele>
        <time>2019-01-27T06:49:38-02:00</time>
      </trkpt>
      <trkpt lat="-21.56752" lon="-48.79640799999999">
        <ele>556.0</ele>
        <time>2019-01-27T06:49:39-02:00</time>
      </trkpt>
      <trkpt lat="-21.567500000000003" lon="-48.796394330000005">
        <ele>556.0</ele>
        <time>2019-01-27T06:49:40-02:00</time>
      </trkpt>
      <trkpt lat="-21.567471660000002" lon="-48.796377330000006">
        <ele>556.0</ele>
        <time>2019-01-27T06:49:41-02:00</time>
      </trkpt>
      <trkpt lat="-21.56745" lon="-48.796363">
        <ele>556.0</ele>
        <time>2019-01-27T06:49:42-02:00</time>
      </trkpt>
      <trkpt lat="-21.567424999999997" lon="-48.79634832999999">
        <ele>556.0</ele>
        <time>2019-01-27T06:49:43-02:00</time>
      </trkpt>
      <trkpt lat="-21.56740666" lon="-48.79633866">
        <ele>556.0</ele>
        <time>2019-01-27T06:49:44-02:00</time>
      </trkpt>
      <trkpt lat="-21.567379999999996" lon="-48.79632266">
        <ele>556.0</ele>
        <time>2019-01-27T06:49:45-02:00</time>
      </trkpt>
      <trkpt lat="-21.56736166" lon="-48.796313">
        <ele>556.0</ele>
        <time>2019-01-27T06:49:46-02:00</time>
      </trkpt>
      <trkpt lat="-21.567339999999998" lon="-48.79630099999999">
        <ele>556.0</ele>
        <time>2019-01-27T06:49:47-02:00</time>
      </trkpt>
      <trkpt lat="-21.56731166" lon="-48.796284660000005">
        <ele>556.0</ele>
        <time>2019-01-27T06:49:48-02:00</time>
      </trkpt>
      <trkpt lat="-21.567293330000002" lon="-48.796276999999996">
        <ele>555.0</ele>
        <time>2019-01-27T06:49:49-02:00</time>
      </trkpt>
      <trkpt lat="-21.567268329999997" lon="-48.796262999999996">
        <ele>555.0</ele>
        <time>2019-01-27T06:49:50-02:00</time>
      </trkpt>
      <trkpt lat="-21.567245000000003" lon="-48.79625233">
        <ele>555.0</ele>
        <time>2019-01-27T06:49:51-02:00</time>
      </trkpt>
      <trkpt lat="-21.567220000000002" lon="-48.796239">
        <ele>555.0</ele>
        <time>2019-01-27T06:49:52-02:00</time>
      </trkpt>
      <trkpt lat="-21.567198330000004" lon="-48.796229999999994">
        <ele>555.0</ele>
        <time>2019-01-27T06:49:53-02:00</time>
      </trkpt>
      <trkpt lat="-21.56717333" lon="-48.79621933">
        <ele>555.0</ele>
        <time>2019-01-27T06:49:54-02:00</time>
      </trkpt>
      <trkpt lat="-21.567145" lon="-48.79620666000001">
        <ele>555.0</ele>
        <time>2019-01-27T06:49:55-02:00</time>
      </trkpt>
      <trkpt lat="-21.567125" lon="-48.796197">
        <ele>555.0</ele>
        <time>2019-01-27T06:49:56-02:00</time>
      </trkpt>
      <trkpt lat="-21.56709333" lon="-48.79618466">
        <ele>555.0</ele>
        <time>2019-01-27T06:49:57-02:00</time>
      </trkpt>
      <trkpt lat="-21.567075" lon="-48.796179">
        <ele>555.0</ele>
        <time>2019-01-27T06:49:58-02:00</time>
      </trkpt>
      <trkpt lat="-21.567051660000008" lon="-48.796170000000004">
        <ele>555.0</ele>
        <time>2019-01-27T06:49:59-02:00</time>
      </trkpt>
      <trkpt lat="-21.567026660000003" lon="-48.79616266000001">
        <ele>554.0</ele>
        <time>2019-01-27T06:50:00-02:00</time>
      </trkpt>
      <trkpt lat="-21.56700333" lon="-48.79615433000001">
        <ele>554.0</ele>
        <time>2019-01-27T06:50:01-02:00</time>
      </trkpt>
      <trkpt lat="-21.566974999999996" lon="-48.79614533">
        <ele>554.0</ele>
        <time>2019-01-27T06:50:02-02:00</time>
      </trkpt>
      <trkpt lat="-21.566955" lon="-48.79613966">
        <ele>554.0</ele>
        <time>2019-01-27T06:50:03-02:00</time>
      </trkpt>
      <trkpt lat="-21.566930000000003" lon="-48.79613332999999">
        <ele>554.0</ele>
        <time>2019-01-27T06:50:04-02:00</time>
      </trkpt>
      <trkpt lat="-21.566905" lon="-48.796127">
        <ele>554.0</ele>
        <time>2019-01-27T06:50:05-02:00</time>
      </trkpt>
      <trkpt lat="-21.566879999999998" lon="-48.79612132999999">
        <ele>554.0</ele>
        <time>2019-01-27T06:50:06-02:00</time>
      </trkpt>
      <trkpt lat="-21.566856660000003" lon="-48.79611633">
        <ele>554.0</ele>
        <time>2019-01-27T06:50:07-02:00</time>
      </trkpt>
      <trkpt lat="-21.56683333" lon="-48.79610933">
        <ele>554.0</ele>
        <time>2019-01-27T06:50:08-02:00</time>
      </trkpt>
      <trkpt lat="-21.56681" lon="-48.79610533">
        <ele>554.0</ele>
        <time>2019-01-27T06:50:09-02:00</time>
      </trkpt>
      <trkpt lat="-21.56677833" lon="-48.796096999999996">
        <ele>554.0</ele>
        <time>2019-01-27T06:50:10-02:00</time>
      </trkpt>
      <trkpt lat="-21.566756660000003" lon="-48.796094000000004">
        <ele>554.0</ele>
        <time>2019-01-27T06:50:11-02:00</time>
      </trkpt>
      <trkpt lat="-21.56673166" lon="-48.79608965999999">
        <ele>554.0</ele>
        <time>2019-01-27T06:50:12-02:00</time>
      </trkpt>
      <trkpt lat="-21.566703330000003" lon="-48.79608133">
        <ele>554.0</ele>
        <time>2019-01-27T06:50:13-02:00</time>
      </trkpt>
      <trkpt lat="-21.56668333" lon="-48.79608">
        <ele>554.0</ele>
        <time>2019-01-27T06:50:14-02:00</time>
      </trkpt>
      <trkpt lat="-21.566655" lon="-48.796075">
        <ele>554.0</ele>
        <time>2019-01-27T06:50:15-02:00</time>
      </trkpt>
      <trkpt lat="-21.56663666" lon="-48.796072">
        <ele>554.0</ele>
        <time>2019-01-27T06:50:16-02:00</time>
      </trkpt>
      <trkpt lat="-21.566611660000003" lon="-48.796069">
        <ele>554.0</ele>
        <time>2019-01-27T06:50:17-02:00</time>
      </trkpt>
      <trkpt lat="-21.56659333" lon="-48.79606866">
        <ele>554.0</ele>
        <time>2019-01-27T06:50:18-02:00</time>
      </trkpt>
      <trkpt lat="-21.566570000000002" lon="-48.796063999999994">
        <ele>554.0</ele>
        <time>2019-01-27T06:50:19-02:00</time>
      </trkpt>
      <trkpt lat="-21.566545" lon="-48.79606166">
        <ele>554.0</ele>
        <time>2019-01-27T06:50:20-02:00</time>
      </trkpt>
      <trkpt lat="-21.566521660000003" lon="-48.79605766000001">
        <ele>554.0</ele>
        <time>2019-01-27T06:50:21-02:00</time>
      </trkpt>
      <trkpt lat="-21.566496660000002" lon="-48.79605566">
        <ele>554.0</ele>
        <time>2019-01-27T06:50:22-02:00</time>
      </trkpt>
      <trkpt lat="-21.56647166" lon="-48.79605166">
        <ele>553.0</ele>
        <time>2019-01-27T06:50:23-02:00</time>
      </trkpt>
      <trkpt lat="-21.566448330000004" lon="-48.79604833">
        <ele>553.0</ele>
        <time>2019-01-27T06:50:24-02:00</time>
      </trkpt>
      <trkpt lat="-21.566423330000003" lon="-48.79604700000001">
        <ele>553.0</ele>
        <time>2019-01-27T06:50:25-02:00</time>
      </trkpt>
      <trkpt lat="-21.566398330000002" lon="-48.79604366">
        <ele>553.0</ele>
        <time>2019-01-27T06:50:26-02:00</time>
      </trkpt>
      <trkpt lat="-21.566366660000003" lon="-48.796038329999995">
        <ele>552.0</ele>
        <time>2019-01-27T06:50:27-02:00</time>
      </trkpt>
      <trkpt lat="-21.566345000000002" lon="-48.79603633">
        <ele>552.0</ele>
        <time>2019-01-27T06:50:28-02:00</time>
      </trkpt>
      <trkpt lat="-21.56632" lon="-48.79603366">
        <ele>552.0</ele>
        <time>2019-01-27T06:50:29-02:00</time>
      </trkpt>
      <trkpt lat="-21.566295" lon="-48.79603099999999">
        <ele>551.0</ele>
        <time>2019-01-27T06:50:30-02:00</time>
      </trkpt>
      <trkpt lat="-21.56627" lon="-48.796028660000005">
        <ele>551.0</ele>
        <time>2019-01-27T06:50:31-02:00</time>
      </trkpt>
      <trkpt lat="-21.56624666" lon="-48.79602733">
        <ele>551.0</ele>
        <time>2019-01-27T06:50:32-02:00</time>
      </trkpt>
      <trkpt lat="-21.566221660000004" lon="-48.79602532999999">
        <ele>551.0</ele>
        <time>2019-01-27T06:50:33-02:00</time>
      </trkpt>
      <trkpt lat="-21.5662" lon="-48.79602232999999">
        <ele>551.0</ele>
        <time>2019-01-27T06:50:34-02:00</time>
      </trkpt>
      <trkpt lat="-21.566174999999998" lon="-48.79602066">
        <ele>551.0</ele>
        <time>2019-01-27T06:50:35-02:00</time>
      </trkpt>
      <trkpt lat="-21.56615" lon="-48.79601933">
        <ele>551.0</ele>
        <time>2019-01-27T06:50:36-02:00</time>
      </trkpt>
      <trkpt lat="-21.56612333" lon="-48.796017660000004">
        <ele>551.0</ele>
        <time>2019-01-27T06:50:37-02:00</time>
      </trkpt>
      <trkpt lat="-21.56609833" lon="-48.79601433">
        <ele>551.0</ele>
        <time>2019-01-27T06:50:38-02:00</time>
      </trkpt>
      <trkpt lat="-21.566073330000002" lon="-48.79601132999999">
        <ele>551.0</ele>
        <time>2019-01-27T06:50:39-02:00</time>
      </trkpt>
      <trkpt lat="-21.56604666" lon="-48.79601033">
        <ele>551.0</ele>
        <time>2019-01-27T06:50:40-02:00</time>
      </trkpt>
      <trkpt lat="-21.56601666" lon="-48.79600666">
        <ele>551.0</ele>
        <time>2019-01-27T06:50:41-02:00</time>
      </trkpt>
      <trkpt lat="-21.565998330000003" lon="-48.796007660000015">
        <ele>551.0</ele>
        <time>2019-01-27T06:50:42-02:00</time>
      </trkpt>
      <trkpt lat="-21.565973330000002" lon="-48.796004999999994">
        <ele>551.0</ele>
        <time>2019-01-27T06:50:43-02:00</time>
      </trkpt>
      <trkpt lat="-21.56594833" lon="-48.796003">
        <ele>551.0</ele>
        <time>2019-01-27T06:50:44-02:00</time>
      </trkpt>
      <trkpt lat="-21.565926660000006" lon="-48.79600366000001">
        <ele>551.0</ele>
        <time>2019-01-27T06:50:45-02:00</time>
      </trkpt>
      <trkpt lat="-21.565896660000003" lon="-48.79600066000001">
        <ele>551.0</ele>
        <time>2019-01-27T06:50:46-02:00</time>
      </trkpt>
      <trkpt lat="-21.565870000000004" lon="-48.79599866">
        <ele>551.0</ele>
        <time>2019-01-27T06:50:47-02:00</time>
      </trkpt>
      <trkpt lat="-21.56584333" lon="-48.795996329999994">
        <ele>551.0</ele>
        <time>2019-01-27T06:50:48-02:00</time>
      </trkpt>
      <trkpt lat="-21.565816660000003" lon="-48.79599666">
        <ele>551.0</ele>
        <time>2019-01-27T06:50:49-02:00</time>
      </trkpt>
      <trkpt lat="-21.56579" lon="-48.795995000000005">
        <ele>551.0</ele>
        <time>2019-01-27T06:50:50-02:00</time>
      </trkpt>
      <trkpt lat="-21.565765000000003" lon="-48.79599333">
        <ele>551.0</ele>
        <time>2019-01-27T06:50:51-02:00</time>
      </trkpt>
      <trkpt lat="-21.565739999999998" lon="-48.795992000000005">
        <ele>551.0</ele>
        <time>2019-01-27T06:50:52-02:00</time>
      </trkpt>
      <trkpt lat="-21.56571333" lon="-48.79599033000001">
        <ele>551.0</ele>
        <time>2019-01-27T06:50:53-02:00</time>
      </trkpt>
      <trkpt lat="-21.565688330000004" lon="-48.795989">
        <ele>551.0</ele>
        <time>2019-01-27T06:50:54-02:00</time>
      </trkpt>
      <trkpt lat="-21.56566166" lon="-48.795988">
        <ele>551.0</ele>
        <time>2019-01-27T06:50:55-02:00</time>
      </trkpt>
      <trkpt lat="-21.565638330000002" lon="-48.79598932999999">
        <ele>550.0</ele>
        <time>2019-01-27T06:50:56-02:00</time>
      </trkpt>
      <trkpt lat="-21.565611660000005" lon="-48.795988">
        <ele>550.0</ele>
        <time>2019-01-27T06:50:57-02:00</time>
      </trkpt>
      <trkpt lat="-21.565585000000002" lon="-48.79598466">
        <ele>550.0</ele>
        <time>2019-01-27T06:50:58-02:00</time>
      </trkpt>
      <trkpt lat="-21.565559999999998" lon="-48.79598400000001">
        <ele>550.0</ele>
        <time>2019-01-27T06:50:59-02:00</time>
      </trkpt>
      <trkpt lat="-21.565535" lon="-48.79598333">
        <ele>550.0</ele>
        <time>2019-01-27T06:51:00-02:00</time>
      </trkpt>
      <trkpt lat="-21.565511660000002" lon="-48.79598299999999">
        <ele>550.0</ele>
        <time>2019-01-27T06:51:01-02:00</time>
      </trkpt>
      <trkpt lat="-21.56548666" lon="-48.79598233">
        <ele>550.0</ele>
        <time>2019-01-27T06:51:02-02:00</time>
      </trkpt>
      <trkpt lat="-21.565465" lon="-48.79598">
        <ele>550.0</ele>
        <time>2019-01-27T06:51:03-02:00</time>
      </trkpt>
      <trkpt lat="-21.56544" lon="-48.79597933">
        <ele>550.0</ele>
        <time>2019-01-27T06:51:04-02:00</time>
      </trkpt>
      <trkpt lat="-21.565418330000004" lon="-48.79597700000001">
        <ele>550.0</ele>
        <time>2019-01-27T06:51:05-02:00</time>
      </trkpt>
      <trkpt lat="-21.56539333" lon="-48.79597700000001">
        <ele>550.0</ele>
        <time>2019-01-27T06:51:06-02:00</time>
      </trkpt>
      <trkpt lat="-21.56537" lon="-48.79597433000001">
        <ele>549.0</ele>
        <time>2019-01-27T06:51:07-02:00</time>
      </trkpt>
      <trkpt lat="-21.56534333" lon="-48.79597400000001">
        <ele>549.0</ele>
        <time>2019-01-27T06:51:08-02:00</time>
      </trkpt>
      <trkpt lat="-21.56531833" lon="-48.79597132999999">
        <ele>549.0</ele>
        <time>2019-01-27T06:51:09-02:00</time>
      </trkpt>
      <trkpt lat="-21.56529333" lon="-48.795970999999994">
        <ele>549.0</ele>
        <time>2019-01-27T06:51:10-02:00</time>
      </trkpt>
      <trkpt lat="-21.56526833" lon="-48.79596866">
        <ele>549.0</ele>
        <time>2019-01-27T06:51:11-02:00</time>
      </trkpt>
      <trkpt lat="-21.565245000000004" lon="-48.795966">
        <ele>549.0</ele>
        <time>2019-01-27T06:51:12-02:00</time>
      </trkpt>
      <trkpt lat="-21.565221660000002" lon="-48.79596632999999">
        <ele>548.0</ele>
        <time>2019-01-27T06:51:13-02:00</time>
      </trkpt>
      <trkpt lat="-21.56519666" lon="-48.795964000000005">
        <ele>548.0</ele>
        <time>2019-01-27T06:51:14-02:00</time>
      </trkpt>
      <trkpt lat="-21.565170000000002" lon="-48.79596133">
        <ele>547.0</ele>
        <time>2019-01-27T06:51:15-02:00</time>
      </trkpt>
      <trkpt lat="-21.565145" lon="-48.79596166">
        <ele>547.0</ele>
        <time>2019-01-27T06:51:16-02:00</time>
      </trkpt>
      <trkpt lat="-21.56512" lon="-48.795959329999995">
        <ele>547.0</ele>
        <time>2019-01-27T06:51:17-02:00</time>
      </trkpt>
      <trkpt lat="-21.565095000000003" lon="-48.79595733">
        <ele>547.0</ele>
        <time>2019-01-27T06:51:18-02:00</time>
      </trkpt>
      <trkpt lat="-21.56507" lon="-48.79595533">
        <ele>547.0</ele>
        <time>2019-01-27T06:51:19-02:00</time>
      </trkpt>
      <trkpt lat="-21.56504666" lon="-48.79595299999999">
        <ele>548.0</ele>
        <time>2019-01-27T06:51:20-02:00</time>
      </trkpt>
      <trkpt lat="-21.565019999999997" lon="-48.795950999999995">
        <ele>548.0</ele>
        <time>2019-01-27T06:51:21-02:00</time>
      </trkpt>
      <trkpt lat="-21.564996660000002" lon="-48.79594900000001">
        <ele>548.0</ele>
        <time>2019-01-27T06:51:22-02:00</time>
      </trkpt>
      <trkpt lat="-21.56497166" lon="-48.79594900000001">
        <ele>548.0</ele>
        <time>2019-01-27T06:51:23-02:00</time>
      </trkpt>
      <trkpt lat="-21.56494666" lon="-48.795947">
        <ele>548.0</ele>
        <time>2019-01-27T06:51:24-02:00</time>
      </trkpt>
      <trkpt lat="-21.56492166" lon="-48.795945">
        <ele>548.0</ele>
        <time>2019-01-27T06:51:25-02:00</time>
      </trkpt>
      <trkpt lat="-21.564896660000006" lon="-48.79594266000001">
        <ele>548.0</ele>
        <time>2019-01-27T06:51:26-02:00</time>
      </trkpt>
      <trkpt lat="-21.564870000000003" lon="-48.79593833">
        <ele>548.0</ele>
        <time>2019-01-27T06:51:27-02:00</time>
      </trkpt>
      <trkpt lat="-21.564845" lon="-48.795936">
        <ele>548.0</ele>
        <time>2019-01-27T06:51:28-02:00</time>
      </trkpt>
      <trkpt lat="-21.56481833" lon="-48.79593366">
        <ele>548.0</ele>
        <time>2019-01-27T06:51:29-02:00</time>
      </trkpt>
      <trkpt lat="-21.564793330000004" lon="-48.79593166000001">
        <ele>548.0</ele>
        <time>2019-01-27T06:51:30-02:00</time>
      </trkpt>
      <trkpt lat="-21.56477" lon="-48.79593">
        <ele>547.0</ele>
        <time>2019-01-27T06:51:31-02:00</time>
      </trkpt>
      <trkpt lat="-21.564745000000002" lon="-48.795927660000004">
        <ele>547.0</ele>
        <time>2019-01-27T06:51:32-02:00</time>
      </trkpt>
      <trkpt lat="-21.564713330000004" lon="-48.795924660000004">
        <ele>547.0</ele>
        <time>2019-01-27T06:51:33-02:00</time>
      </trkpt>
      <trkpt lat="-21.56468833" lon="-48.795919999999995">
        <ele>547.0</ele>
        <time>2019-01-27T06:51:34-02:00</time>
      </trkpt>
      <trkpt lat="-21.564663330000002" lon="-48.79591766">
        <ele>547.0</ele>
        <time>2019-01-27T06:51:35-02:00</time>
      </trkpt>
      <trkpt lat="-21.56464" lon="-48.795915660000006">
        <ele>546.0</ele>
        <time>2019-01-27T06:51:36-02:00</time>
      </trkpt>
      <trkpt lat="-21.564614999999996" lon="-48.79591066000001">
        <ele>546.0</ele>
        <time>2019-01-27T06:51:37-02:00</time>
      </trkpt>
      <trkpt lat="-21.56459166" lon="-48.79590866">
        <ele>546.0</ele>
        <time>2019-01-27T06:51:38-02:00</time>
      </trkpt>
      <trkpt lat="-21.564568330000004" lon="-48.795905999999995">
        <ele>546.0</ele>
        <time>2019-01-27T06:51:39-02:00</time>
      </trkpt>
      <trkpt lat="-21.56454333" lon="-48.79590133">
        <ele>546.0</ele>
        <time>2019-01-27T06:51:40-02:00</time>
      </trkpt>
      <trkpt lat="-21.564518330000002" lon="-48.79589866">
        <ele>546.0</ele>
        <time>2019-01-27T06:51:41-02:00</time>
      </trkpt>
      <trkpt lat="-21.564495" lon="-48.795893660000004">
        <ele>546.0</ele>
        <time>2019-01-27T06:51:42-02:00</time>
      </trkpt>
      <trkpt lat="-21.564471660000002" lon="-48.795891329999996">
        <ele>546.0</ele>
        <time>2019-01-27T06:51:43-02:00</time>
      </trkpt>
      <trkpt lat="-21.564445" lon="-48.79588566">
        <ele>546.0</ele>
        <time>2019-01-27T06:51:44-02:00</time>
      </trkpt>
      <trkpt lat="-21.564420000000002" lon="-48.79588066000001">
        <ele>546.0</ele>
        <time>2019-01-27T06:51:45-02:00</time>
      </trkpt>
      <trkpt lat="-21.564394999999998" lon="-48.795877999999995">
        <ele>546.0</ele>
        <time>2019-01-27T06:51:46-02:00</time>
      </trkpt>
      <trkpt lat="-21.56437166" lon="-48.79587266">
        <ele>546.0</ele>
        <time>2019-01-27T06:51:47-02:00</time>
      </trkpt>
      <trkpt lat="-21.56434666" lon="-48.79587">
        <ele>546.0</ele>
        <time>2019-01-27T06:51:48-02:00</time>
      </trkpt>
      <trkpt lat="-21.56432166" lon="-48.79586465999999">
        <ele>546.0</ele>
        <time>2019-01-27T06:51:49-02:00</time>
      </trkpt>
      <trkpt lat="-21.56429666" lon="-48.79586166">
        <ele>546.0</ele>
        <time>2019-01-27T06:51:50-02:00</time>
      </trkpt>
      <trkpt lat="-21.564275000000002" lon="-48.79585666000001">
        <ele>545.0</ele>
        <time>2019-01-27T06:51:51-02:00</time>
      </trkpt>
      <trkpt lat="-21.56425" lon="-48.795854000000006">
        <ele>545.0</ele>
        <time>2019-01-27T06:51:52-02:00</time>
      </trkpt>
      <trkpt lat="-21.564224999999997" lon="-48.79584832999999">
        <ele>545.0</ele>
        <time>2019-01-27T06:51:53-02:00</time>
      </trkpt>
      <trkpt lat="-21.564201660000002" lon="-48.795845660000005">
        <ele>545.0</ele>
        <time>2019-01-27T06:51:54-02:00</time>
      </trkpt>
      <trkpt lat="-21.564176660000005" lon="-48.79584066">
        <ele>545.0</ele>
        <time>2019-01-27T06:51:55-02:00</time>
      </trkpt>
      <trkpt lat="-21.56415333" lon="-48.79583733">
        <ele>545.0</ele>
        <time>2019-01-27T06:51:56-02:00</time>
      </trkpt>
      <trkpt lat="-21.56412833" lon="-48.79583433">
        <ele>545.0</ele>
        <time>2019-01-27T06:51:57-02:00</time>
      </trkpt>
      <trkpt lat="-21.564103330000002" lon="-48.795829000000005">
        <ele>545.0</ele>
        <time>2019-01-27T06:51:58-02:00</time>
      </trkpt>
      <trkpt lat="-21.56407833" lon="-48.795826">
        <ele>545.0</ele>
        <time>2019-01-27T06:51:59-02:00</time>
      </trkpt>
      <trkpt lat="-21.56405333" lon="-48.79582066000001">
        <ele>545.0</ele>
        <time>2019-01-27T06:52:00-02:00</time>
      </trkpt>
      <trkpt lat="-21.564028330000003" lon="-48.79581733000001">
        <ele>545.0</ele>
        <time>2019-01-27T06:52:01-02:00</time>
      </trkpt>
      <trkpt lat="-21.564006660000004" lon="-48.795812330000004">
        <ele>545.0</ele>
        <time>2019-01-27T06:52:02-02:00</time>
      </trkpt>
      <trkpt lat="-21.563983330000003" lon="-48.795809330000004">
        <ele>545.0</ele>
        <time>2019-01-27T06:52:03-02:00</time>
      </trkpt>
      <trkpt lat="-21.563959999999998" lon="-48.79580632999999">
        <ele>545.0</ele>
        <time>2019-01-27T06:52:04-02:00</time>
      </trkpt>
      <trkpt lat="-21.56393666" lon="-48.79580333">
        <ele>545.0</ele>
        <time>2019-01-27T06:52:05-02:00</time>
      </trkpt>
      <trkpt lat="-21.563913330000005" lon="-48.795800330000006">
        <ele>545.0</ele>
        <time>2019-01-27T06:52:06-02:00</time>
      </trkpt>
      <trkpt lat="-21.56389" lon="-48.795795">
        <ele>545.0</ele>
        <time>2019-01-27T06:52:07-02:00</time>
      </trkpt>
      <trkpt lat="-21.56386833" lon="-48.795792330000005">
        <ele>545.0</ele>
        <time>2019-01-27T06:52:08-02:00</time>
      </trkpt>
      <trkpt lat="-21.563845" lon="-48.79579132999999">
        <ele>545.0</ele>
        <time>2019-01-27T06:52:09-02:00</time>
      </trkpt>
      <trkpt lat="-21.563818330000004" lon="-48.79578832999999">
        <ele>545.0</ele>
        <time>2019-01-27T06:52:10-02:00</time>
      </trkpt>
      <trkpt lat="-21.56379333" lon="-48.795784659999995">
        <ele>545.0</ele>
        <time>2019-01-27T06:52:11-02:00</time>
      </trkpt>
      <trkpt lat="-21.563769999999998" lon="-48.795781999999996">
        <ele>545.0</ele>
        <time>2019-01-27T06:52:12-02:00</time>
      </trkpt>
      <trkpt lat="-21.56374333" lon="-48.79577833">
        <ele>545.0</ele>
        <time>2019-01-27T06:52:13-02:00</time>
      </trkpt>
      <trkpt lat="-21.56371833" lon="-48.795775000000006">
        <ele>545.0</ele>
        <time>2019-01-27T06:52:14-02:00</time>
      </trkpt>
      <trkpt lat="-21.56369333" lon="-48.79577433000001">
        <ele>545.0</ele>
        <time>2019-01-27T06:52:15-02:00</time>
      </trkpt>
      <trkpt lat="-21.563668330000002" lon="-48.795770999999995">
        <ele>545.0</ele>
        <time>2019-01-27T06:52:16-02:00</time>
      </trkpt>
      <trkpt lat="-21.563641660000002" lon="-48.795767330000004">
        <ele>545.0</ele>
        <time>2019-01-27T06:52:17-02:00</time>
      </trkpt>
      <trkpt lat="-21.56361666" lon="-48.79576366">
        <ele>545.0</ele>
        <time>2019-01-27T06:52:18-02:00</time>
      </trkpt>
      <trkpt lat="-21.563593329999996" lon="-48.795760660000006">
        <ele>545.0</ele>
        <time>2019-01-27T06:52:19-02:00</time>
      </trkpt>
      <trkpt lat="-21.563568330000003" lon="-48.795759659999995">
        <ele>545.0</ele>
        <time>2019-01-27T06:52:20-02:00</time>
      </trkpt>
      <trkpt lat="-21.563545000000005" lon="-48.79575632999998">
        <ele>544.0</ele>
        <time>2019-01-27T06:52:21-02:00</time>
      </trkpt>
      <trkpt lat="-21.56352" lon="-48.79575566000001">
        <ele>544.0</ele>
        <time>2019-01-27T06:52:22-02:00</time>
      </trkpt>
      <trkpt lat="-21.56349833" lon="-48.79575266000002">
        <ele>544.0</ele>
        <time>2019-01-27T06:52:23-02:00</time>
      </trkpt>
      <trkpt lat="-21.56347333" lon="-48.79575200000001">
        <ele>544.0</ele>
        <time>2019-01-27T06:52:24-02:00</time>
      </trkpt>
      <trkpt lat="-21.563450000000003" lon="-48.79574866000001">
        <ele>544.0</ele>
        <time>2019-01-27T06:52:25-02:00</time>
      </trkpt>
      <trkpt lat="-21.563426660000005" lon="-48.79574566">
        <ele>544.0</ele>
        <time>2019-01-27T06:52:26-02:00</time>
      </trkpt>
      <trkpt lat="-21.56340333" lon="-48.795743">
        <ele>544.0</ele>
        <time>2019-01-27T06:52:27-02:00</time>
      </trkpt>
      <trkpt lat="-21.563381660000005" lon="-48.79574233">
        <ele>544.0</ele>
        <time>2019-01-27T06:52:28-02:00</time>
      </trkpt>
      <trkpt lat="-21.56335833" lon="-48.795739329999996">
        <ele>544.0</ele>
        <time>2019-01-27T06:52:29-02:00</time>
      </trkpt>
      <trkpt lat="-21.563336659999997" lon="-48.79573633">
        <ele>544.0</ele>
        <time>2019-01-27T06:52:30-02:00</time>
      </trkpt>
      <trkpt lat="-21.56331166" lon="-48.79573299999999">
        <ele>544.0</ele>
        <time>2019-01-27T06:52:31-02:00</time>
      </trkpt>
      <trkpt lat="-21.563288330000006" lon="-48.79573033">
        <ele>543.0</ele>
        <time>2019-01-27T06:52:32-02:00</time>
      </trkpt>
      <trkpt lat="-21.56326333" lon="-48.795727">
        <ele>543.0</ele>
        <time>2019-01-27T06:52:33-02:00</time>
      </trkpt>
      <trkpt lat="-21.563239999999997" lon="-48.79572466">
        <ele>543.0</ele>
        <time>2019-01-27T06:52:34-02:00</time>
      </trkpt>
      <trkpt lat="-21.563215" lon="-48.79572133">
        <ele>543.0</ele>
        <time>2019-01-27T06:52:35-02:00</time>
      </trkpt>
      <trkpt lat="-21.56319166" lon="-48.79571866">
        <ele>543.0</ele>
        <time>2019-01-27T06:52:36-02:00</time>
      </trkpt>
      <trkpt lat="-21.56316666" lon="-48.795715660000006">
        <ele>543.0</ele>
        <time>2019-01-27T06:52:37-02:00</time>
      </trkpt>
      <trkpt lat="-21.563143329999996" lon="-48.795713000000006">
        <ele>543.0</ele>
        <time>2019-01-27T06:52:38-02:00</time>
      </trkpt>
      <trkpt lat="-21.563118330000002" lon="-48.79570966">
        <ele>543.0</ele>
        <time>2019-01-27T06:52:39-02:00</time>
      </trkpt>
      <trkpt lat="-21.563095000000004" lon="-48.79570732999999">
        <ele>543.0</ele>
        <time>2019-01-27T06:52:40-02:00</time>
      </trkpt>
      <trkpt lat="-21.56307166" lon="-48.79570433">
        <ele>543.0</ele>
        <time>2019-01-27T06:52:41-02:00</time>
      </trkpt>
      <trkpt lat="-21.56304666" lon="-48.79570132999999">
        <ele>543.0</ele>
        <time>2019-01-27T06:52:42-02:00</time>
      </trkpt>
      <trkpt lat="-21.563021660000004" lon="-48.79569832999999">
        <ele>542.0</ele>
        <time>2019-01-27T06:52:43-02:00</time>
      </trkpt>
      <trkpt lat="-21.56299833" lon="-48.79569566">
        <ele>542.0</ele>
        <time>2019-01-27T06:52:44-02:00</time>
      </trkpt>
      <trkpt lat="-21.562974999999998" lon="-48.79569566">
        <ele>542.0</ele>
        <time>2019-01-27T06:52:45-02:00</time>
      </trkpt>
      <trkpt lat="-21.56295" lon="-48.79569266">
        <ele>542.0</ele>
        <time>2019-01-27T06:52:46-02:00</time>
      </trkpt>
      <trkpt lat="-21.562928330000005" lon="-48.79569033">
        <ele>541.0</ele>
        <time>2019-01-27T06:52:47-02:00</time>
      </trkpt>
      <trkpt lat="-21.56290333" lon="-48.79568766000001">
        <ele>541.0</ele>
        <time>2019-01-27T06:52:48-02:00</time>
      </trkpt>
      <trkpt lat="-21.562879999999996" lon="-48.79568499999999">
        <ele>541.0</ele>
        <time>2019-01-27T06:52:49-02:00</time>
      </trkpt>
      <trkpt lat="-21.562855" lon="-48.79568233">
        <ele>541.0</ele>
        <time>2019-01-27T06:52:50-02:00</time>
      </trkpt>
      <trkpt lat="-21.56283166" lon="-48.795679660000005">
        <ele>541.0</ele>
        <time>2019-01-27T06:52:51-02:00</time>
      </trkpt>
      <trkpt lat="-21.56281" lon="-48.795677330000004">
        <ele>541.0</ele>
        <time>2019-01-27T06:52:52-02:00</time>
      </trkpt>
      <trkpt lat="-21.56278666" lon="-48.795675">
        <ele>541.0</ele>
        <time>2019-01-27T06:52:53-02:00</time>
      </trkpt>
      <trkpt lat="-21.562763330000003" lon="-48.79567466">
        <ele>541.0</ele>
        <time>2019-01-27T06:52:54-02:00</time>
      </trkpt>
      <trkpt lat="-21.562739999999998" lon="-48.795672">
        <ele>541.0</ele>
        <time>2019-01-27T06:52:55-02:00</time>
      </trkpt>
      <trkpt lat="-21.562714999999997" lon="-48.79566966">
        <ele>541.0</ele>
        <time>2019-01-27T06:52:56-02:00</time>
      </trkpt>
      <trkpt lat="-21.562689999999996" lon="-48.79566666000001">
        <ele>541.0</ele>
        <time>2019-01-27T06:52:57-02:00</time>
      </trkpt>
      <trkpt lat="-21.562663330000003" lon="-48.79566366000001">
        <ele>541.0</ele>
        <time>2019-01-27T06:52:58-02:00</time>
      </trkpt>
      <trkpt lat="-21.56263833" lon="-48.795661">
        <ele>541.0</ele>
        <time>2019-01-27T06:52:59-02:00</time>
      </trkpt>
      <trkpt lat="-21.562614999999997" lon="-48.79566066000001">
        <ele>540.0</ele>
        <time>2019-01-27T06:53:00-02:00</time>
      </trkpt>
      <trkpt lat="-21.56259" lon="-48.79565799999999">
        <ele>540.0</ele>
        <time>2019-01-27T06:53:01-02:00</time>
      </trkpt>
      <trkpt lat="-21.56256666" lon="-48.79565532999999">
        <ele>540.0</ele>
        <time>2019-01-27T06:53:02-02:00</time>
      </trkpt>
      <trkpt lat="-21.56254166" lon="-48.795652329999996">
        <ele>540.0</ele>
        <time>2019-01-27T06:53:03-02:00</time>
      </trkpt>
      <trkpt lat="-21.562518329999996" lon="-48.795649659999995">
        <ele>540.0</ele>
        <time>2019-01-27T06:53:04-02:00</time>
      </trkpt>
      <trkpt lat="-21.562495000000006" lon="-48.795649329999996">
        <ele>540.0</ele>
        <time>2019-01-27T06:53:05-02:00</time>
      </trkpt>
      <trkpt lat="-21.562473330000003" lon="-48.79564733">
        <ele>540.0</ele>
        <time>2019-01-27T06:53:06-02:00</time>
      </trkpt>
      <trkpt lat="-21.562448330000002" lon="-48.79564433">
        <ele>540.0</ele>
        <time>2019-01-27T06:53:07-02:00</time>
      </trkpt>
      <trkpt lat="-21.562424999999998" lon="-48.79564233">
        <ele>540.0</ele>
        <time>2019-01-27T06:53:08-02:00</time>
      </trkpt>
      <trkpt lat="-21.562400000000004" lon="-48.79563932999999">
        <ele>540.0</ele>
        <time>2019-01-27T06:53:09-02:00</time>
      </trkpt>
      <trkpt lat="-21.56237666" lon="-48.795637000000006">
        <ele>540.0</ele>
        <time>2019-01-27T06:53:10-02:00</time>
      </trkpt>
      <trkpt lat="-21.562351660000004" lon="-48.79563466">
        <ele>540.0</ele>
        <time>2019-01-27T06:53:11-02:00</time>
      </trkpt>
      <trkpt lat="-21.562326660000004" lon="-48.795632">
        <ele>540.0</ele>
        <time>2019-01-27T06:53:12-02:00</time>
      </trkpt>
      <trkpt lat="-21.562303330000002" lon="-48.795632">
        <ele>539.0</ele>
        <time>2019-01-27T06:53:13-02:00</time>
      </trkpt>
      <trkpt lat="-21.562276660000002" lon="-48.795629">
        <ele>539.0</ele>
        <time>2019-01-27T06:53:14-02:00</time>
      </trkpt>
      <trkpt lat="-21.562253329999997" lon="-48.79562632999999">
        <ele>539.0</ele>
        <time>2019-01-27T06:53:15-02:00</time>
      </trkpt>
      <trkpt lat="-21.56223" lon="-48.79562400000001">
        <ele>539.0</ele>
        <time>2019-01-27T06:53:16-02:00</time>
      </trkpt>
      <trkpt lat="-21.56220666" lon="-48.79562166000001">
        <ele>539.0</ele>
        <time>2019-01-27T06:53:17-02:00</time>
      </trkpt>
      <trkpt lat="-21.56218166" lon="-48.795619">
        <ele>539.0</ele>
        <time>2019-01-27T06:53:18-02:00</time>
      </trkpt>
      <trkpt lat="-21.56215666" lon="-48.79561665999999">
        <ele>539.0</ele>
        <time>2019-01-27T06:53:19-02:00</time>
      </trkpt>
      <trkpt lat="-21.562131660000006" lon="-48.79561433">
        <ele>539.0</ele>
        <time>2019-01-27T06:53:20-02:00</time>
      </trkpt>
      <trkpt lat="-21.56210833" lon="-48.795611660000006">
        <ele>539.0</ele>
        <time>2019-01-27T06:53:21-02:00</time>
      </trkpt>
      <trkpt lat="-21.56205833" lon="-48.795606660000004">
        <ele>539.0</ele>
        <time>2019-01-27T06:53:22-02:00</time>
      </trkpt>
      <trkpt lat="-21.56203333" lon="-48.79560433">
        <ele>539.0</ele>
        <time>2019-01-27T06:53:23-02:00</time>
      </trkpt>
      <trkpt lat="-21.562008329999998" lon="-48.79560166">
        <ele>539.0</ele>
        <time>2019-01-27T06:53:24-02:00</time>
      </trkpt>
      <trkpt lat="-21.561985" lon="-48.79559933">
        <ele>539.0</ele>
        <time>2019-01-27T06:53:25-02:00</time>
      </trkpt>
      <trkpt lat="-21.561958330000003" lon="-48.79559666">
        <ele>539.0</ele>
        <time>2019-01-27T06:53:26-02:00</time>
      </trkpt>
      <trkpt lat="-21.561935000000002" lon="-48.79559433000001">
        <ele>539.0</ele>
        <time>2019-01-27T06:53:27-02:00</time>
      </trkpt>
      <trkpt lat="-21.561909999999997" lon="-48.79559166">
        <ele>539.0</ele>
        <time>2019-01-27T06:53:28-02:00</time>
      </trkpt>
      <trkpt lat="-21.561885" lon="-48.79558933">
        <ele>538.0</ele>
        <time>2019-01-27T06:53:29-02:00</time>
      </trkpt>
      <trkpt lat="-21.56185833" lon="-48.795584330000004">
        <ele>538.0</ele>
        <time>2019-01-27T06:53:30-02:00</time>
      </trkpt>
      <trkpt lat="-21.561835000000002" lon="-48.795582329999995">
        <ele>538.0</ele>
        <time>2019-01-27T06:53:31-02:00</time>
      </trkpt>
      <trkpt lat="-21.56181" lon="-48.79558">
        <ele>538.0</ele>
        <time>2019-01-27T06:53:32-02:00</time>
      </trkpt>
      <trkpt lat="-21.561786660000003" lon="-48.79558032999999">
        <ele>538.0</ele>
        <time>2019-01-27T06:53:33-02:00</time>
      </trkpt>
      <trkpt lat="-21.561761660000002" lon="-48.795577660000006">
        <ele>538.0</ele>
        <time>2019-01-27T06:53:34-02:00</time>
      </trkpt>
      <trkpt lat="-21.56173666" lon="-48.795575">
        <ele>538.0</ele>
        <time>2019-01-27T06:53:35-02:00</time>
      </trkpt>
      <trkpt lat="-21.561713330000003" lon="-48.795573">
        <ele>538.0</ele>
        <time>2019-01-27T06:53:36-02:00</time>
      </trkpt>
      <trkpt lat="-21.561688330000003" lon="-48.79557">
        <ele>538.0</ele>
        <time>2019-01-27T06:53:37-02:00</time>
      </trkpt>
      <trkpt lat="-21.56166666" lon="-48.79556766">
        <ele>538.0</ele>
        <time>2019-01-27T06:53:38-02:00</time>
      </trkpt>
      <trkpt lat="-21.56164166" lon="-48.79556533">
        <ele>538.0</ele>
        <time>2019-01-27T06:53:39-02:00</time>
      </trkpt>
      <trkpt lat="-21.56161833" lon="-48.795562660000016">
        <ele>538.0</ele>
        <time>2019-01-27T06:53:40-02:00</time>
      </trkpt>
      <trkpt lat="-21.561595000000004" lon="-48.79555832999999">
        <ele>538.0</ele>
        <time>2019-01-27T06:53:41-02:00</time>
      </trkpt>
      <trkpt lat="-21.56157" lon="-48.79555533">
        <ele>537.0</ele>
        <time>2019-01-27T06:53:42-02:00</time>
      </trkpt>
      <trkpt lat="-21.561545000000002" lon="-48.79555266000001">
        <ele>537.0</ele>
        <time>2019-01-27T06:53:43-02:00</time>
      </trkpt>
      <trkpt lat="-21.561521660000004" lon="-48.79555033">
        <ele>537.0</ele>
        <time>2019-01-27T06:53:44-02:00</time>
      </trkpt>
      <trkpt lat="-21.561496660000003" lon="-48.79554766">
        <ele>537.0</ele>
        <time>2019-01-27T06:53:45-02:00</time>
      </trkpt>
      <trkpt lat="-21.561471660000002" lon="-48.795545000000004">
        <ele>537.0</ele>
        <time>2019-01-27T06:53:46-02:00</time>
      </trkpt>
      <trkpt lat="-21.56144666" lon="-48.79554266000001">
        <ele>537.0</ele>
        <time>2019-01-27T06:53:47-02:00</time>
      </trkpt>
      <trkpt lat="-21.56142166" lon="-48.79554">
        <ele>537.0</ele>
        <time>2019-01-27T06:53:48-02:00</time>
      </trkpt>
      <trkpt lat="-21.56139666" lon="-48.795537329999995">
        <ele>537.0</ele>
        <time>2019-01-27T06:53:49-02:00</time>
      </trkpt>
      <trkpt lat="-21.56137166" lon="-48.795534659999994">
        <ele>537.0</ele>
        <time>2019-01-27T06:53:50-02:00</time>
      </trkpt>
      <trkpt lat="-21.56134833" lon="-48.79553233">
        <ele>537.0</ele>
        <time>2019-01-27T06:53:51-02:00</time>
      </trkpt>
      <trkpt lat="-21.561323330000004" lon="-48.79552966">
        <ele>537.0</ele>
        <time>2019-01-27T06:53:52-02:00</time>
      </trkpt>
      <trkpt lat="-21.5613" lon="-48.79552732999999">
        <ele>536.0</ele>
        <time>2019-01-27T06:53:53-02:00</time>
      </trkpt>
      <trkpt lat="-21.561273330000002" lon="-48.79552466">
        <ele>536.0</ele>
        <time>2019-01-27T06:53:54-02:00</time>
      </trkpt>
      <trkpt lat="-21.56125" lon="-48.795522330000004">
        <ele>536.0</ele>
        <time>2019-01-27T06:53:55-02:00</time>
      </trkpt>
      <trkpt lat="-21.56122333" lon="-48.79551966000001">
        <ele>536.0</ele>
        <time>2019-01-27T06:53:56-02:00</time>
      </trkpt>
      <trkpt lat="-21.5612" lon="-48.795517000000004">
        <ele>536.0</ele>
        <time>2019-01-27T06:53:57-02:00</time>
      </trkpt>
      <trkpt lat="-21.561173330000003" lon="-48.795514329999996">
        <ele>536.0</ele>
        <time>2019-01-27T06:53:58-02:00</time>
      </trkpt>
      <trkpt lat="-21.561150000000005" lon="-48.79551233">
        <ele>536.0</ele>
        <time>2019-01-27T06:53:59-02:00</time>
      </trkpt>
      <trkpt lat="-21.561128330000003" lon="-48.79550999999999">
        <ele>536.0</ele>
        <time>2019-01-27T06:54:00-02:00</time>
      </trkpt>
      <trkpt lat="-21.561104999999998" lon="-48.79550766000001">
        <ele>536.0</ele>
        <time>2019-01-27T06:54:01-02:00</time>
      </trkpt>
      <trkpt lat="-21.561079999999997" lon="-48.79550499999999">
        <ele>536.0</ele>
        <time>2019-01-27T06:54:02-02:00</time>
      </trkpt>
      <trkpt lat="-21.561055000000003" lon="-48.79550266000001">
        <ele>536.0</ele>
        <time>2019-01-27T06:54:03-02:00</time>
      </trkpt>
      <trkpt lat="-21.56103" lon="-48.79550233">
        <ele>536.0</ele>
        <time>2019-01-27T06:54:04-02:00</time>
      </trkpt>
      <trkpt lat="-21.561006660000004" lon="-48.795500000000004">
        <ele>536.0</ele>
        <time>2019-01-27T06:54:05-02:00</time>
      </trkpt>
      <trkpt lat="-21.56098333" lon="-48.79549766000001">
        <ele>536.0</ele>
        <time>2019-01-27T06:54:06-02:00</time>
      </trkpt>
      <trkpt lat="-21.560958330000002" lon="-48.795495329999994">
        <ele>536.0</ele>
        <time>2019-01-27T06:54:07-02:00</time>
      </trkpt>
      <trkpt lat="-21.560933329999997" lon="-48.79549266">
        <ele>535.0</ele>
        <time>2019-01-27T06:54:08-02:00</time>
      </trkpt>
      <trkpt lat="-21.560908329999997" lon="-48.79549033">
        <ele>535.0</ele>
        <time>2019-01-27T06:54:09-02:00</time>
      </trkpt>
      <trkpt lat="-21.560881660000003" lon="-48.795487660000006">
        <ele>535.0</ele>
        <time>2019-01-27T06:54:10-02:00</time>
      </trkpt>
      <trkpt lat="-21.56085666" lon="-48.795485">
        <ele>535.0</ele>
        <time>2019-01-27T06:54:11-02:00</time>
      </trkpt>
      <trkpt lat="-21.56083333" lon="-48.795482660000005">
        <ele>535.0</ele>
        <time>2019-01-27T06:54:12-02:00</time>
      </trkpt>
      <trkpt lat="-21.560806660000004" lon="-48.79548">
        <ele>534.0</ele>
        <time>2019-01-27T06:54:13-02:00</time>
      </trkpt>
      <trkpt lat="-21.560781660000004" lon="-48.795477330000004">
        <ele>534.0</ele>
        <time>2019-01-27T06:54:14-02:00</time>
      </trkpt>
      <trkpt lat="-21.56075833" lon="-48.795474999999996">
        <ele>534.0</ele>
        <time>2019-01-27T06:54:15-02:00</time>
      </trkpt>
      <trkpt lat="-21.560735" lon="-48.79547033">
        <ele>534.0</ele>
        <time>2019-01-27T06:54:16-02:00</time>
      </trkpt>
      <trkpt lat="-21.560711660000003" lon="-48.795467660000014">
        <ele>534.0</ele>
        <time>2019-01-27T06:54:17-02:00</time>
      </trkpt>
      <trkpt lat="-21.560686660000002" lon="-48.795465">
        <ele>534.0</ele>
        <time>2019-01-27T06:54:18-02:00</time>
      </trkpt>
      <trkpt lat="-21.560663330000004" lon="-48.795462660000005">
        <ele>534.0</ele>
        <time>2019-01-27T06:54:19-02:00</time>
      </trkpt>
      <trkpt lat="-21.56063666" lon="-48.79545965999999">
        <ele>534.0</ele>
        <time>2019-01-27T06:54:20-02:00</time>
      </trkpt>
      <trkpt lat="-21.560613330000002" lon="-48.795457000000006">
        <ele>534.0</ele>
        <time>2019-01-27T06:54:21-02:00</time>
      </trkpt>
      <trkpt lat="-21.56059" lon="-48.79545433">
        <ele>534.0</ele>
        <time>2019-01-27T06:54:22-02:00</time>
      </trkpt>
      <trkpt lat="-21.560564999999997" lon="-48.79545133">
        <ele>533.0</ele>
        <time>2019-01-27T06:54:23-02:00</time>
      </trkpt>
      <trkpt lat="-21.56054" lon="-48.79544866000001">
        <ele>533.0</ele>
        <time>2019-01-27T06:54:24-02:00</time>
      </trkpt>
      <trkpt lat="-21.560515000000002" lon="-48.79544599999999">
        <ele>533.0</ele>
        <time>2019-01-27T06:54:25-02:00</time>
      </trkpt>
      <trkpt lat="-21.56048833" lon="-48.79544299999999">
        <ele>533.0</ele>
        <time>2019-01-27T06:54:26-02:00</time>
      </trkpt>
      <trkpt lat="-21.56046333" lon="-48.795438000000004">
        <ele>533.0</ele>
        <time>2019-01-27T06:54:27-02:00</time>
      </trkpt>
      <trkpt lat="-21.560438330000004" lon="-48.79543532999999">
        <ele>533.0</ele>
        <time>2019-01-27T06:54:28-02:00</time>
      </trkpt>
      <trkpt lat="-21.56041333" lon="-48.79543266">
        <ele>533.0</ele>
        <time>2019-01-27T06:54:29-02:00</time>
      </trkpt>
      <trkpt lat="-21.560389999999998" lon="-48.795429999999996">
        <ele>533.0</ele>
        <time>2019-01-27T06:54:30-02:00</time>
      </trkpt>
      <trkpt lat="-21.560366660000007" lon="-48.795428">
        <ele>533.0</ele>
        <time>2019-01-27T06:54:31-02:00</time>
      </trkpt>
      <trkpt lat="-21.560341660000002" lon="-48.79542533">
        <ele>533.0</ele>
        <time>2019-01-27T06:54:32-02:00</time>
      </trkpt>
      <trkpt lat="-21.560316660000005" lon="-48.79542233">
        <ele>533.0</ele>
        <time>2019-01-27T06:54:33-02:00</time>
      </trkpt>
      <trkpt lat="-21.56029333" lon="-48.795417660000005">
        <ele>533.0</ele>
        <time>2019-01-27T06:54:34-02:00</time>
      </trkpt>
      <trkpt lat="-21.560266660000003" lon="-48.79541465999999">
        <ele>533.0</ele>
        <time>2019-01-27T06:54:35-02:00</time>
      </trkpt>
      <trkpt lat="-21.560245000000002" lon="-48.79541233">
        <ele>533.0</ele>
        <time>2019-01-27T06:54:36-02:00</time>
      </trkpt>
      <trkpt lat="-21.560219999999997" lon="-48.79540966">
        <ele>533.0</ele>
        <time>2019-01-27T06:54:37-02:00</time>
      </trkpt>
      <trkpt lat="-21.560196660000003" lon="-48.795407">
        <ele>533.0</ele>
        <time>2019-01-27T06:54:38-02:00</time>
      </trkpt>
      <trkpt lat="-21.56017166" lon="-48.795404330000004">
        <ele>533.0</ele>
        <time>2019-01-27T06:54:39-02:00</time>
      </trkpt>
      <trkpt lat="-21.56014666" lon="-48.79540166">
        <ele>533.0</ele>
        <time>2019-01-27T06:54:40-02:00</time>
      </trkpt>
      <trkpt lat="-21.56012" lon="-48.795396329999996">
        <ele>533.0</ele>
        <time>2019-01-27T06:54:41-02:00</time>
      </trkpt>
      <trkpt lat="-21.560095" lon="-48.79539366">
        <ele>533.0</ele>
        <time>2019-01-27T06:54:42-02:00</time>
      </trkpt>
      <trkpt lat="-21.560071660000002" lon="-48.79539133">
        <ele>533.0</ele>
        <time>2019-01-27T06:54:43-02:00</time>
      </trkpt>
      <trkpt lat="-21.560046659999998" lon="-48.79538833">
        <ele>533.0</ele>
        <time>2019-01-27T06:54:44-02:00</time>
      </trkpt>
      <trkpt lat="-21.56002166" lon="-48.79538566000001">
        <ele>533.0</ele>
        <time>2019-01-27T06:54:45-02:00</time>
      </trkpt>
      <trkpt lat="-21.559996660000003" lon="-48.795382999999994">
        <ele>533.0</ele>
        <time>2019-01-27T06:54:46-02:00</time>
      </trkpt>
      <trkpt lat="-21.559973330000002" lon="-48.79538033">
        <ele>533.0</ele>
        <time>2019-01-27T06:54:47-02:00</time>
      </trkpt>
      <trkpt lat="-21.55994666" lon="-48.79537733">
        <ele>533.0</ele>
        <time>2019-01-27T06:54:48-02:00</time>
      </trkpt>
      <trkpt lat="-21.55992333" lon="-48.79537466">
        <ele>533.0</ele>
        <time>2019-01-27T06:54:49-02:00</time>
      </trkpt>
      <trkpt lat="-21.559898330000003" lon="-48.79537166">
        <ele>533.0</ele>
        <time>2019-01-27T06:54:50-02:00</time>
      </trkpt>
      <trkpt lat="-21.55987333" lon="-48.79536900000001">
        <ele>533.0</ele>
        <time>2019-01-27T06:54:51-02:00</time>
      </trkpt>
      <trkpt lat="-21.559849999999997" lon="-48.79536632999999">
        <ele>533.0</ele>
        <time>2019-01-27T06:54:52-02:00</time>
      </trkpt>
      <trkpt lat="-21.559823330000004" lon="-48.79536366000001">
        <ele>533.0</ele>
        <time>2019-01-27T06:54:53-02:00</time>
      </trkpt>
      <trkpt lat="-21.559800000000003" lon="-48.79536333">
        <ele>533.0</ele>
        <time>2019-01-27T06:54:54-02:00</time>
      </trkpt>
      <trkpt lat="-21.559775" lon="-48.79536066000001">
        <ele>533.0</ele>
        <time>2019-01-27T06:54:55-02:00</time>
      </trkpt>
      <trkpt lat="-21.55975" lon="-48.795358">
        <ele>533.0</ele>
        <time>2019-01-27T06:54:56-02:00</time>
      </trkpt>
      <trkpt lat="-21.559726660000006" lon="-48.79535766000001">
        <ele>533.0</ele>
        <time>2019-01-27T06:54:57-02:00</time>
      </trkpt>
      <trkpt lat="-21.55970333" lon="-48.79535533">
        <ele>533.0</ele>
        <time>2019-01-27T06:54:58-02:00</time>
      </trkpt>
      <trkpt lat="-21.559679999999997" lon="-48.79535299999999">
        <ele>533.0</ele>
        <time>2019-01-27T06:54:59-02:00</time>
      </trkpt>
      <trkpt lat="-21.559658329999998" lon="-48.79535299999999">
        <ele>533.0</ele>
        <time>2019-01-27T06:55:00-02:00</time>
      </trkpt>
      <trkpt lat="-21.559633330000004" lon="-48.795350330000005">
        <ele>533.0</ele>
        <time>2019-01-27T06:55:01-02:00</time>
      </trkpt>
      <trkpt lat="-21.559610000000003" lon="-48.795348">
        <ele>533.0</ele>
        <time>2019-01-27T06:55:02-02:00</time>
      </trkpt>
      <trkpt lat="-21.559585" lon="-48.795347660000004">
        <ele>533.0</ele>
        <time>2019-01-27T06:55:03-02:00</time>
      </trkpt>
      <trkpt lat="-21.55956" lon="-48.795345">
        <ele>533.0</ele>
        <time>2019-01-27T06:55:04-02:00</time>
      </trkpt>
      <trkpt lat="-21.559536660000003" lon="-48.79534266">
        <ele>533.0</ele>
        <time>2019-01-27T06:55:05-02:00</time>
      </trkpt>
      <trkpt lat="-21.55951" lon="-48.79534">
        <ele>533.0</ele>
        <time>2019-01-27T06:55:06-02:00</time>
      </trkpt>
      <trkpt lat="-21.559485000000002" lon="-48.795337">
        <ele>533.0</ele>
        <time>2019-01-27T06:55:07-02:00</time>
      </trkpt>
      <trkpt lat="-21.559458330000002" lon="-48.795334659999995">
        <ele>533.0</ele>
        <time>2019-01-27T06:55:08-02:00</time>
      </trkpt>
      <trkpt lat="-21.55943333" lon="-48.795331999999995">
        <ele>533.0</ele>
        <time>2019-01-27T06:55:09-02:00</time>
      </trkpt>
      <trkpt lat="-21.55940666" lon="-48.79532933">
        <ele>533.0</ele>
        <time>2019-01-27T06:55:10-02:00</time>
      </trkpt>
      <trkpt lat="-21.55938333" lon="-48.795326660000015">
        <ele>533.0</ele>
        <time>2019-01-27T06:55:11-02:00</time>
      </trkpt>
      <trkpt lat="-21.559358330000002" lon="-48.79532400000001">
        <ele>533.0</ele>
        <time>2019-01-27T06:55:12-02:00</time>
      </trkpt>
      <trkpt lat="-21.559331660000005" lon="-48.79532132999999">
        <ele>533.0</ele>
        <time>2019-01-27T06:55:13-02:00</time>
      </trkpt>
      <trkpt lat="-21.55930666" lon="-48.795319">
        <ele>533.0</ele>
        <time>2019-01-27T06:55:14-02:00</time>
      </trkpt>
      <trkpt lat="-21.559279999999998" lon="-48.795316">
        <ele>533.0</ele>
        <time>2019-01-27T06:55:15-02:00</time>
      </trkpt>
      <trkpt lat="-21.559255" lon="-48.79531333">
        <ele>533.0</ele>
        <time>2019-01-27T06:55:16-02:00</time>
      </trkpt>
      <trkpt lat="-21.559229999999996" lon="-48.795311000000005">
        <ele>533.0</ele>
        <time>2019-01-27T06:55:17-02:00</time>
      </trkpt>
      <trkpt lat="-21.559205" lon="-48.79530832999999">
        <ele>533.0</ele>
        <time>2019-01-27T06:55:18-02:00</time>
      </trkpt>
      <trkpt lat="-21.55918" lon="-48.795306">
        <ele>533.0</ele>
        <time>2019-01-27T06:55:19-02:00</time>
      </trkpt>
      <trkpt lat="-21.559155" lon="-48.795303329999996">
        <ele>533.0</ele>
        <time>2019-01-27T06:55:20-02:00</time>
      </trkpt>
      <trkpt lat="-21.559129999999996" lon="-48.79530066000001">
        <ele>533.0</ele>
        <time>2019-01-27T06:55:21-02:00</time>
      </trkpt>
      <trkpt lat="-21.559105" lon="-48.79529799999999">
        <ele>533.0</ele>
        <time>2019-01-27T06:55:22-02:00</time>
      </trkpt>
      <trkpt lat="-21.55908" lon="-48.79529533">
        <ele>533.0</ele>
        <time>2019-01-27T06:55:23-02:00</time>
      </trkpt>
      <trkpt lat="-21.559054999999997" lon="-48.795293">
        <ele>533.0</ele>
        <time>2019-01-27T06:55:24-02:00</time>
      </trkpt>
      <trkpt lat="-21.55903" lon="-48.79529033000001">
        <ele>533.0</ele>
        <time>2019-01-27T06:55:25-02:00</time>
      </trkpt>
      <trkpt lat="-21.559006660000005" lon="-48.79528832999999">
        <ele>533.0</ele>
        <time>2019-01-27T06:55:26-02:00</time>
      </trkpt>
      <trkpt lat="-21.55898333" lon="-48.795285660000005">
        <ele>533.0</ele>
        <time>2019-01-27T06:55:27-02:00</time>
      </trkpt>
      <trkpt lat="-21.558959999999995" lon="-48.79528333">
        <ele>533.0</ele>
        <time>2019-01-27T06:55:28-02:00</time>
      </trkpt>
      <trkpt lat="-21.558935" lon="-48.79528066000001">
        <ele>533.0</ele>
        <time>2019-01-27T06:55:29-02:00</time>
      </trkpt>
      <trkpt lat="-21.55890833" lon="-48.79527832999999">
        <ele>533.0</ele>
        <time>2019-01-27T06:55:30-02:00</time>
      </trkpt>
      <trkpt lat="-21.558885" lon="-48.79527333">
        <ele>533.0</ele>
        <time>2019-01-27T06:55:31-02:00</time>
      </trkpt>
      <trkpt lat="-21.55886" lon="-48.79527066000001">
        <ele>533.0</ele>
        <time>2019-01-27T06:55:32-02:00</time>
      </trkpt>
      <trkpt lat="-21.558838330000004" lon="-48.79526866">
        <ele>533.0</ele>
        <time>2019-01-27T06:55:33-02:00</time>
      </trkpt>
      <trkpt lat="-21.558815" lon="-48.79526632999999">
        <ele>533.0</ele>
        <time>2019-01-27T06:55:34-02:00</time>
      </trkpt>
      <trkpt lat="-21.55879" lon="-48.79526400000001">
        <ele>533.0</ele>
        <time>2019-01-27T06:55:35-02:00</time>
      </trkpt>
      <trkpt lat="-21.55876333" lon="-48.795261329999995">
        <ele>533.0</ele>
        <time>2019-01-27T06:55:36-02:00</time>
      </trkpt>
      <trkpt lat="-21.558739999999997" lon="-48.795259">
        <ele>533.0</ele>
        <time>2019-01-27T06:55:37-02:00</time>
      </trkpt>
      <trkpt lat="-21.558715" lon="-48.79525665999999">
        <ele>533.0</ele>
        <time>2019-01-27T06:55:38-02:00</time>
      </trkpt>
      <trkpt lat="-21.558691660000004" lon="-48.795254330000006">
        <ele>533.0</ele>
        <time>2019-01-27T06:55:39-02:00</time>
      </trkpt>
      <trkpt lat="-21.55866833" lon="-48.795252330000004">
        <ele>533.0</ele>
        <time>2019-01-27T06:55:40-02:00</time>
      </trkpt>
      <trkpt lat="-21.558641660000003" lon="-48.79524966">
        <ele>533.0</ele>
        <time>2019-01-27T06:55:41-02:00</time>
      </trkpt>
      <trkpt lat="-21.558616660000002" lon="-48.795247">
        <ele>533.0</ele>
        <time>2019-01-27T06:55:42-02:00</time>
      </trkpt>
      <trkpt lat="-21.55859166" lon="-48.79524233">
        <ele>533.0</ele>
        <time>2019-01-27T06:55:43-02:00</time>
      </trkpt>
      <trkpt lat="-21.558568330000003" lon="-48.79524200000001">
        <ele>533.0</ele>
        <time>2019-01-27T06:55:44-02:00</time>
      </trkpt>
      <trkpt lat="-21.55854166" lon="-48.795239329999994">
        <ele>533.0</ele>
        <time>2019-01-27T06:55:45-02:00</time>
      </trkpt>
      <trkpt lat="-21.55851833" lon="-48.79523666">
        <ele>533.0</ele>
        <time>2019-01-27T06:55:46-02:00</time>
      </trkpt>
      <trkpt lat="-21.55849333" lon="-48.795234">
        <ele>533.0</ele>
        <time>2019-01-27T06:55:47-02:00</time>
      </trkpt>
      <trkpt lat="-21.558470000000003" lon="-48.79523132999999">
        <ele>533.0</ele>
        <time>2019-01-27T06:55:48-02:00</time>
      </trkpt>
      <trkpt lat="-21.558446659999998" lon="-48.795229000000006">
        <ele>533.0</ele>
        <time>2019-01-27T06:55:49-02:00</time>
      </trkpt>
      <trkpt lat="-21.55842166" lon="-48.79522666">
        <ele>533.0</ele>
        <time>2019-01-27T06:55:50-02:00</time>
      </trkpt>
      <trkpt lat="-21.558396660000003" lon="-48.795226329999984">
        <ele>533.0</ele>
        <time>2019-01-27T06:55:51-02:00</time>
      </trkpt>
      <trkpt lat="-21.558371660000002" lon="-48.79522366">
        <ele>533.0</ele>
        <time>2019-01-27T06:55:52-02:00</time>
      </trkpt>
      <trkpt lat="-21.558348329999998" lon="-48.79522132999999">
        <ele>533.0</ele>
        <time>2019-01-27T06:55:53-02:00</time>
      </trkpt>
      <trkpt lat="-21.55832333" lon="-48.79521866">
        <ele>533.0</ele>
        <time>2019-01-27T06:55:54-02:00</time>
      </trkpt>
      <trkpt lat="-21.5583" lon="-48.795216329999995">
        <ele>533.0</ele>
        <time>2019-01-27T06:55:55-02:00</time>
      </trkpt>
      <trkpt lat="-21.558275000000002" lon="-48.79521366">
        <ele>533.0</ele>
        <time>2019-01-27T06:55:56-02:00</time>
      </trkpt>
      <trkpt lat="-21.558253329999996" lon="-48.795214">
        <ele>533.0</ele>
        <time>2019-01-27T06:55:57-02:00</time>
      </trkpt>
      <trkpt lat="-21.55823166" lon="-48.79521200000001">
        <ele>533.0</ele>
        <time>2019-01-27T06:55:58-02:00</time>
      </trkpt>
      <trkpt lat="-21.55821" lon="-48.79521">
        <ele>533.0</ele>
        <time>2019-01-27T06:55:59-02:00</time>
      </trkpt>
      <trkpt lat="-21.55819" lon="-48.795208">
        <ele>533.0</ele>
        <time>2019-01-27T06:56:00-02:00</time>
      </trkpt>
      <trkpt lat="-21.55816666" lon="-48.79520566000001">
        <ele>533.0</ele>
        <time>2019-01-27T06:56:01-02:00</time>
      </trkpt>
      <trkpt lat="-21.55814333" lon="-48.79520332999999">
        <ele>533.0</ele>
        <time>2019-01-27T06:56:02-02:00</time>
      </trkpt>
      <trkpt lat="-21.558118330000003" lon="-48.79520066000001">
        <ele>533.0</ele>
        <time>2019-01-27T06:56:03-02:00</time>
      </trkpt>
      <trkpt lat="-21.55809666" lon="-48.795198660000004">
        <ele>533.0</ele>
        <time>2019-01-27T06:56:04-02:00</time>
      </trkpt>
      <trkpt lat="-21.558073330000003" lon="-48.79519632999999">
        <ele>533.0</ele>
        <time>2019-01-27T06:56:05-02:00</time>
      </trkpt>
      <trkpt lat="-21.558049999999998" lon="-48.795194">
        <ele>533.0</ele>
        <time>2019-01-27T06:56:06-02:00</time>
      </trkpt>
      <trkpt lat="-21.558025000000004" lon="-48.795189">
        <ele>533.0</ele>
        <time>2019-01-27T06:56:07-02:00</time>
      </trkpt>
      <trkpt lat="-21.558" lon="-48.79518666">
        <ele>533.0</ele>
        <time>2019-01-27T06:56:08-02:00</time>
      </trkpt>
      <trkpt lat="-21.557974999999995" lon="-48.79518433">
        <ele>533.0</ele>
        <time>2019-01-27T06:56:09-02:00</time>
      </trkpt>
      <trkpt lat="-21.557951660000004" lon="-48.795182000000004">
        <ele>533.0</ele>
        <time>2019-01-27T06:56:10-02:00</time>
      </trkpt>
      <trkpt lat="-21.557930000000002" lon="-48.79518">
        <ele>533.0</ele>
        <time>2019-01-27T06:56:11-02:00</time>
      </trkpt>
      <trkpt lat="-21.557904999999998" lon="-48.795177329999994">
        <ele>533.0</ele>
        <time>2019-01-27T06:56:12-02:00</time>
      </trkpt>
      <trkpt lat="-21.55788333" lon="-48.79517533">
        <ele>533.0</ele>
        <time>2019-01-27T06:56:13-02:00</time>
      </trkpt>
      <trkpt lat="-21.557859999999998" lon="-48.795172660000006">
        <ele>533.0</ele>
        <time>2019-01-27T06:56:14-02:00</time>
      </trkpt>
      <trkpt lat="-21.557838330000003" lon="-48.795170660000004">
        <ele>533.0</ele>
        <time>2019-01-27T06:56:15-02:00</time>
      </trkpt>
      <trkpt lat="-21.55781333" lon="-48.795168329999996">
        <ele>533.0</ele>
        <time>2019-01-27T06:56:16-02:00</time>
      </trkpt>
      <trkpt lat="-21.55779" lon="-48.795166">
        <ele>533.0</ele>
        <time>2019-01-27T06:56:17-02:00</time>
      </trkpt>
      <trkpt lat="-21.557765" lon="-48.795163329999994">
        <ele>533.0</ele>
        <time>2019-01-27T06:56:18-02:00</time>
      </trkpt>
      <trkpt lat="-21.55774166" lon="-48.79516132999999">
        <ele>533.0</ele>
        <time>2019-01-27T06:56:19-02:00</time>
      </trkpt>
      <trkpt lat="-21.557718329999997" lon="-48.795159">
        <ele>533.0</ele>
        <time>2019-01-27T06:56:20-02:00</time>
      </trkpt>
      <trkpt lat="-21.557695" lon="-48.795157">
        <ele>533.0</ele>
        <time>2019-01-27T06:56:21-02:00</time>
      </trkpt>
      <trkpt lat="-21.55767166" lon="-48.795154659999994">
        <ele>533.0</ele>
        <time>2019-01-27T06:56:22-02:00</time>
      </trkpt>
      <trkpt lat="-21.55764833" lon="-48.79515233">
        <ele>533.0</ele>
        <time>2019-01-27T06:56:23-02:00</time>
      </trkpt>
      <trkpt lat="-21.55762666" lon="-48.79515033">
        <ele>533.0</ele>
        <time>2019-01-27T06:56:24-02:00</time>
      </trkpt>
      <trkpt lat="-21.557605" lon="-48.795148329999996">
        <ele>533.0</ele>
        <time>2019-01-27T06:56:25-02:00</time>
      </trkpt>
      <trkpt lat="-21.557579999999998" lon="-48.795145999999995">
        <ele>533.0</ele>
        <time>2019-01-27T06:56:26-02:00</time>
      </trkpt>
      <trkpt lat="-21.55755666" lon="-48.795145999999995">
        <ele>533.0</ele>
        <time>2019-01-27T06:56:27-02:00</time>
      </trkpt>
      <trkpt lat="-21.557533329999995" lon="-48.79514366">
        <ele>533.0</ele>
        <time>2019-01-27T06:56:28-02:00</time>
      </trkpt>
      <trkpt lat="-21.55751166" lon="-48.79514166">
        <ele>533.0</ele>
        <time>2019-01-27T06:56:29-02:00</time>
      </trkpt>
      <trkpt lat="-21.55748833" lon="-48.79513933">
        <ele>533.0</ele>
        <time>2019-01-27T06:56:30-02:00</time>
      </trkpt>
      <trkpt lat="-21.55746666" lon="-48.79514">
        <ele>534.0</ele>
        <time>2019-01-27T06:56:31-02:00</time>
      </trkpt>
      <trkpt lat="-21.55744333" lon="-48.79513766000001">
        <ele>534.0</ele>
        <time>2019-01-27T06:56:32-02:00</time>
      </trkpt>
      <trkpt lat="-21.55742166" lon="-48.79513566000001">
        <ele>534.0</ele>
        <time>2019-01-27T06:56:33-02:00</time>
      </trkpt>
      <trkpt lat="-21.5574" lon="-48.79513366000001">
        <ele>534.0</ele>
        <time>2019-01-27T06:56:34-02:00</time>
      </trkpt>
      <trkpt lat="-21.55737666" lon="-48.795131659999996">
        <ele>534.0</ele>
        <time>2019-01-27T06:56:35-02:00</time>
      </trkpt>
      <trkpt lat="-21.557354999999998" lon="-48.79512966">
        <ele>534.0</ele>
        <time>2019-01-27T06:56:36-02:00</time>
      </trkpt>
      <trkpt lat="-21.557331660000006" lon="-48.79512766000001">
        <ele>534.0</ele>
        <time>2019-01-27T06:56:37-02:00</time>
      </trkpt>
      <trkpt lat="-21.55730833" lon="-48.79512532999999">
        <ele>534.0</ele>
        <time>2019-01-27T06:56:38-02:00</time>
      </trkpt>
      <trkpt lat="-21.557285" lon="-48.795123329999996">
        <ele>534.0</ele>
        <time>2019-01-27T06:56:39-02:00</time>
      </trkpt>
      <trkpt lat="-21.55726166" lon="-48.79512132999999">
        <ele>534.0</ele>
        <time>2019-01-27T06:56:40-02:00</time>
      </trkpt>
      <trkpt lat="-21.557239999999997" lon="-48.79511900000001">
        <ele>534.0</ele>
        <time>2019-01-27T06:56:41-02:00</time>
      </trkpt>
      <trkpt lat="-21.55721666" lon="-48.795116660000005">
        <ele>534.0</ele>
        <time>2019-01-27T06:56:42-02:00</time>
      </trkpt>
      <trkpt lat="-21.55719666" lon="-48.79511466">
        <ele>534.0</ele>
        <time>2019-01-27T06:56:43-02:00</time>
      </trkpt>
      <trkpt lat="-21.55717333" lon="-48.79511266000001">
        <ele>534.0</ele>
        <time>2019-01-27T06:56:44-02:00</time>
      </trkpt>
      <trkpt lat="-21.557151660000006" lon="-48.79511066000001">
        <ele>535.0</ele>
        <time>2019-01-27T06:56:45-02:00</time>
      </trkpt>
      <trkpt lat="-21.557129999999997" lon="-48.795108660000004">
        <ele>535.0</ele>
        <time>2019-01-27T06:56:46-02:00</time>
      </trkpt>
      <trkpt lat="-21.55710833" lon="-48.79510832999999">
        <ele>535.0</ele>
        <time>2019-01-27T06:56:47-02:00</time>
      </trkpt>
      <trkpt lat="-21.557088330000003" lon="-48.79510666">
        <ele>535.0</ele>
        <time>2019-01-27T06:56:48-02:00</time>
      </trkpt>
      <trkpt lat="-21.557066660000004" lon="-48.79510466">
        <ele>535.0</ele>
        <time>2019-01-27T06:56:49-02:00</time>
      </trkpt>
      <trkpt lat="-21.557045000000002" lon="-48.79510266000001">
        <ele>535.0</ele>
        <time>2019-01-27T06:56:50-02:00</time>
      </trkpt>
      <trkpt lat="-21.55702333" lon="-48.79510066000001">
        <ele>535.0</ele>
        <time>2019-01-27T06:56:51-02:00</time>
      </trkpt>
      <trkpt lat="-21.557" lon="-48.79509832999999">
        <ele>535.0</ele>
        <time>2019-01-27T06:56:52-02:00</time>
      </trkpt>
      <trkpt lat="-21.556976660000004" lon="-48.79509632999999">
        <ele>535.0</ele>
        <time>2019-01-27T06:56:53-02:00</time>
      </trkpt>
      <trkpt lat="-21.556955" lon="-48.79509433000001">
        <ele>535.0</ele>
        <time>2019-01-27T06:56:54-02:00</time>
      </trkpt>
      <trkpt lat="-21.55693333" lon="-48.79509233">
        <ele>535.0</ele>
        <time>2019-01-27T06:56:55-02:00</time>
      </trkpt>
      <trkpt lat="-21.55691" lon="-48.79509033000001">
        <ele>535.0</ele>
        <time>2019-01-27T06:56:56-02:00</time>
      </trkpt>
      <trkpt lat="-21.55688666" lon="-48.79508833">
        <ele>535.0</ele>
        <time>2019-01-27T06:56:57-02:00</time>
      </trkpt>
      <trkpt lat="-21.556863330000002" lon="-48.79508632999999">
        <ele>536.0</ele>
        <time>2019-01-27T06:56:58-02:00</time>
      </trkpt>
      <trkpt lat="-21.55684" lon="-48.795082">
        <ele>536.0</ele>
        <time>2019-01-27T06:56:59-02:00</time>
      </trkpt>
      <trkpt lat="-21.556818330000002" lon="-48.79508">
        <ele>536.0</ele>
        <time>2019-01-27T06:57:00-02:00</time>
      </trkpt>
      <trkpt lat="-21.55679666" lon="-48.795078">
        <ele>536.0</ele>
        <time>2019-01-27T06:57:01-02:00</time>
      </trkpt>
      <trkpt lat="-21.556776660000004" lon="-48.79507632999999">
        <ele>536.0</ele>
        <time>2019-01-27T06:57:02-02:00</time>
      </trkpt>
      <trkpt lat="-21.556755" lon="-48.795074330000006">
        <ele>536.0</ele>
        <time>2019-01-27T06:57:03-02:00</time>
      </trkpt>
      <trkpt lat="-21.556733329999997" lon="-48.79507233">
        <ele>536.0</ele>
        <time>2019-01-27T06:57:04-02:00</time>
      </trkpt>
      <trkpt lat="-21.55671166" lon="-48.79507033">
        <ele>537.0</ele>
        <time>2019-01-27T06:57:05-02:00</time>
      </trkpt>
      <trkpt lat="-21.556688330000004" lon="-48.795068">
        <ele>537.0</ele>
        <time>2019-01-27T06:57:06-02:00</time>
      </trkpt>
      <trkpt lat="-21.55666666" lon="-48.795066">
        <ele>537.0</ele>
        <time>2019-01-27T06:57:07-02:00</time>
      </trkpt>
      <trkpt lat="-21.556644999999996" lon="-48.795064659999994">
        <ele>537.0</ele>
        <time>2019-01-27T06:57:08-02:00</time>
      </trkpt>
      <trkpt lat="-21.55662333" lon="-48.79506266000001">
        <ele>537.0</ele>
        <time>2019-01-27T06:57:09-02:00</time>
      </trkpt>
      <trkpt lat="-21.55660333" lon="-48.79505866000001">
        <ele>537.0</ele>
        <time>2019-01-27T06:57:10-02:00</time>
      </trkpt>
      <trkpt lat="-21.55658166" lon="-48.79505666">
        <ele>537.0</ele>
        <time>2019-01-27T06:57:11-02:00</time>
      </trkpt>
      <trkpt lat="-21.556559999999998" lon="-48.795054330000006">
        <ele>537.0</ele>
        <time>2019-01-27T06:57:12-02:00</time>
      </trkpt>
      <trkpt lat="-21.556535" lon="-48.79505233">
        <ele>537.0</ele>
        <time>2019-01-27T06:57:13-02:00</time>
      </trkpt>
      <trkpt lat="-21.556514999999997" lon="-48.795050329999995">
        <ele>537.0</ele>
        <time>2019-01-27T06:57:14-02:00</time>
      </trkpt>
      <trkpt lat="-21.55649166" lon="-48.79504833">
        <ele>537.0</ele>
        <time>2019-01-27T06:57:15-02:00</time>
      </trkpt>
      <trkpt lat="-21.556469999999997" lon="-48.79504599999999">
        <ele>537.0</ele>
        <time>2019-01-27T06:57:16-02:00</time>
      </trkpt>
      <trkpt lat="-21.556448330000002" lon="-48.79504366">
        <ele>537.0</ele>
        <time>2019-01-27T06:57:17-02:00</time>
      </trkpt>
      <trkpt lat="-21.556426660000007" lon="-48.79504132999999">
        <ele>537.0</ele>
        <time>2019-01-27T06:57:18-02:00</time>
      </trkpt>
      <trkpt lat="-21.556405" lon="-48.795036999999994">
        <ele>537.0</ele>
        <time>2019-01-27T06:57:19-02:00</time>
      </trkpt>
      <trkpt lat="-21.556385" lon="-48.795035330000005">
        <ele>538.0</ele>
        <time>2019-01-27T06:57:20-02:00</time>
      </trkpt>
      <trkpt lat="-21.556364999999996" lon="-48.795033">
        <ele>538.0</ele>
        <time>2019-01-27T06:57:21-02:00</time>
      </trkpt>
      <trkpt lat="-21.556341660000005" lon="-48.795031">
        <ele>538.0</ele>
        <time>2019-01-27T06:57:22-02:00</time>
      </trkpt>
      <trkpt lat="-21.55632" lon="-48.79502900000001">
        <ele>538.0</ele>
        <time>2019-01-27T06:57:23-02:00</time>
      </trkpt>
      <trkpt lat="-21.556296659999997" lon="-48.79502900000001">
        <ele>538.0</ele>
        <time>2019-01-27T06:57:24-02:00</time>
      </trkpt>
      <trkpt lat="-21.556275" lon="-48.795026660000005">
        <ele>538.0</ele>
        <time>2019-01-27T06:57:25-02:00</time>
      </trkpt>
      <trkpt lat="-21.556253329999997" lon="-48.79502466">
        <ele>538.0</ele>
        <time>2019-01-27T06:57:26-02:00</time>
      </trkpt>
      <trkpt lat="-21.55623" lon="-48.79502266000001">
        <ele>538.0</ele>
        <time>2019-01-27T06:57:27-02:00</time>
      </trkpt>
      <trkpt lat="-21.55621" lon="-48.79502033">
        <ele>538.0</ele>
        <time>2019-01-27T06:57:28-02:00</time>
      </trkpt>
      <trkpt lat="-21.556186659999998" lon="-48.795018330000005">
        <ele>538.0</ele>
        <time>2019-01-27T06:57:29-02:00</time>
      </trkpt>
      <trkpt lat="-21.556166660000002" lon="-48.795016329999996">
        <ele>538.0</ele>
        <time>2019-01-27T06:57:30-02:00</time>
      </trkpt>
      <trkpt lat="-21.556145" lon="-48.795014">
        <ele>538.0</ele>
        <time>2019-01-27T06:57:31-02:00</time>
      </trkpt>
      <trkpt lat="-21.55612333" lon="-48.79500965999999">
        <ele>538.0</ele>
        <time>2019-01-27T06:57:32-02:00</time>
      </trkpt>
      <trkpt lat="-21.556099999999997" lon="-48.79500733">
        <ele>538.0</ele>
        <time>2019-01-27T06:57:33-02:00</time>
      </trkpt>
      <trkpt lat="-21.55607833" lon="-48.79500533">
        <ele>538.0</ele>
        <time>2019-01-27T06:57:34-02:00</time>
      </trkpt>
      <trkpt lat="-21.556058330000003" lon="-48.79500332999999">
        <ele>538.0</ele>
        <time>2019-01-27T06:57:35-02:00</time>
      </trkpt>
      <trkpt lat="-21.55603666" lon="-48.79499866">
        <ele>539.0</ele>
        <time>2019-01-27T06:57:36-02:00</time>
      </trkpt>
      <trkpt lat="-21.555991660000004" lon="-48.794994329999994">
        <ele>539.0</ele>
        <time>2019-01-27T06:57:37-02:00</time>
      </trkpt>
      <trkpt lat="-21.555970000000002" lon="-48.794992">
        <ele>539.0</ele>
        <time>2019-01-27T06:57:38-02:00</time>
      </trkpt>
      <trkpt lat="-21.555945" lon="-48.794989">
        <ele>539.0</ele>
        <time>2019-01-27T06:57:39-02:00</time>
      </trkpt>
      <trkpt lat="-21.55592166" lon="-48.79498433">
        <ele>539.0</ele>
        <time>2019-01-27T06:57:40-02:00</time>
      </trkpt>
      <trkpt lat="-21.555901660000004" lon="-48.79498233">
        <ele>539.0</ele>
        <time>2019-01-27T06:57:41-02:00</time>
      </trkpt>
      <trkpt lat="-21.555878330000002" lon="-48.794979999999995">
        <ele>539.0</ele>
        <time>2019-01-27T06:57:42-02:00</time>
      </trkpt>
      <trkpt lat="-21.555855" lon="-48.794974999999994">
        <ele>539.0</ele>
        <time>2019-01-27T06:57:43-02:00</time>
      </trkpt>
      <trkpt lat="-21.555833330000002" lon="-48.79497266">
        <ele>539.0</ele>
        <time>2019-01-27T06:57:44-02:00</time>
      </trkpt>
      <trkpt lat="-21.55581" lon="-48.79497">
        <ele>539.0</ele>
        <time>2019-01-27T06:57:45-02:00</time>
      </trkpt>
      <trkpt lat="-21.555786660000003" lon="-48.79496733">
        <ele>539.0</ele>
        <time>2019-01-27T06:57:46-02:00</time>
      </trkpt>
      <trkpt lat="-21.555763329999998" lon="-48.79496233">
        <ele>539.0</ele>
        <time>2019-01-27T06:57:47-02:00</time>
      </trkpt>
      <trkpt lat="-21.555741660000002" lon="-48.79496">
        <ele>539.0</ele>
        <time>2019-01-27T06:57:48-02:00</time>
      </trkpt>
      <trkpt lat="-21.555718329999998" lon="-48.79495766000001">
        <ele>539.0</ele>
        <time>2019-01-27T06:57:49-02:00</time>
      </trkpt>
      <trkpt lat="-21.555698330000006" lon="-48.79495566000001">
        <ele>539.0</ele>
        <time>2019-01-27T06:57:50-02:00</time>
      </trkpt>
      <trkpt lat="-21.555676660000003" lon="-48.79495333">
        <ele>539.0</ele>
        <time>2019-01-27T06:57:51-02:00</time>
      </trkpt>
      <trkpt lat="-21.555654999999994" lon="-48.79495099999999">
        <ele>539.0</ele>
        <time>2019-01-27T06:57:52-02:00</time>
      </trkpt>
      <trkpt lat="-21.555631660000003" lon="-48.79494799999999">
        <ele>539.0</ele>
        <time>2019-01-27T06:57:53-02:00</time>
      </trkpt>
      <trkpt lat="-21.555608330000002" lon="-48.79494566">
        <ele>539.0</ele>
        <time>2019-01-27T06:57:54-02:00</time>
      </trkpt>
      <trkpt lat="-21.555585" lon="-48.794943329999995">
        <ele>540.0</ele>
        <time>2019-01-27T06:57:55-02:00</time>
      </trkpt>
      <trkpt lat="-21.555563330000002" lon="-48.794941">
        <ele>540.0</ele>
        <time>2019-01-27T06:57:56-02:00</time>
      </trkpt>
      <trkpt lat="-21.555541660000003" lon="-48.79493866">
        <ele>540.0</ele>
        <time>2019-01-27T06:57:57-02:00</time>
      </trkpt>
      <trkpt lat="-21.55552" lon="-48.794938329999994">
        <ele>540.0</ele>
        <time>2019-01-27T06:57:58-02:00</time>
      </trkpt>
      <trkpt lat="-21.55549833" lon="-48.79493599999999">
        <ele>540.0</ele>
        <time>2019-01-27T06:57:59-02:00</time>
      </trkpt>
      <trkpt lat="-21.555476660000004" lon="-48.794934">
        <ele>540.0</ele>
        <time>2019-01-27T06:58:00-02:00</time>
      </trkpt>
      <trkpt lat="-21.55545333" lon="-48.79493132999999">
        <ele>540.0</ele>
        <time>2019-01-27T06:58:01-02:00</time>
      </trkpt>
      <trkpt lat="-21.555431660000004" lon="-48.79493166">
        <ele>540.0</ele>
        <time>2019-01-27T06:58:02-02:00</time>
      </trkpt>
      <trkpt lat="-21.555410000000002" lon="-48.794929329999995">
        <ele>540.0</ele>
        <time>2019-01-27T06:58:03-02:00</time>
      </trkpt>
      <trkpt lat="-21.55539166" lon="-48.794929659999994">
        <ele>540.0</ele>
        <time>2019-01-27T06:58:04-02:00</time>
      </trkpt>
      <trkpt lat="-21.55537166" lon="-48.794928">
        <ele>540.0</ele>
        <time>2019-01-27T06:58:05-02:00</time>
      </trkpt>
      <trkpt lat="-21.555349999999997" lon="-48.794925660000004">
        <ele>540.0</ele>
        <time>2019-01-27T06:58:06-02:00</time>
      </trkpt>
      <trkpt lat="-21.555328330000002" lon="-48.79492366000001">
        <ele>540.0</ele>
        <time>2019-01-27T06:58:07-02:00</time>
      </trkpt>
      <trkpt lat="-21.55530333" lon="-48.79492400000001">
        <ele>541.0</ele>
        <time>2019-01-27T06:58:08-02:00</time>
      </trkpt>
      <trkpt lat="-21.55528166" lon="-48.794921660000014">
        <ele>541.0</ele>
        <time>2019-01-27T06:58:09-02:00</time>
      </trkpt>
      <trkpt lat="-21.555260000000004" lon="-48.794921660000014">
        <ele>541.0</ele>
        <time>2019-01-27T06:58:10-02:00</time>
      </trkpt>
      <trkpt lat="-21.55523833" lon="-48.79491965999999">
        <ele>541.0</ele>
        <time>2019-01-27T06:58:11-02:00</time>
      </trkpt>
      <trkpt lat="-21.555218329999995" lon="-48.794920000000005">
        <ele>541.0</ele>
        <time>2019-01-27T06:58:12-02:00</time>
      </trkpt>
      <trkpt lat="-21.55519666" lon="-48.794917999999996">
        <ele>541.0</ele>
        <time>2019-01-27T06:58:13-02:00</time>
      </trkpt>
      <trkpt lat="-21.555175" lon="-48.79491833">
        <ele>541.0</ele>
        <time>2019-01-27T06:58:14-02:00</time>
      </trkpt>
      <trkpt lat="-21.555153330000003" lon="-48.79491833">
        <ele>541.0</ele>
        <time>2019-01-27T06:58:15-02:00</time>
      </trkpt>
      <trkpt lat="-21.555133329999997" lon="-48.79491666">
        <ele>541.0</ele>
        <time>2019-01-27T06:58:16-02:00</time>
      </trkpt>
      <trkpt lat="-21.55511333" lon="-48.79491666">
        <ele>542.0</ele>
        <time>2019-01-27T06:58:17-02:00</time>
      </trkpt>
      <trkpt lat="-21.555091660000002" lon="-48.794914659999996">
        <ele>542.0</ele>
        <time>2019-01-27T06:58:18-02:00</time>
      </trkpt>
      <trkpt lat="-21.55507" lon="-48.79491533">
        <ele>542.0</ele>
        <time>2019-01-27T06:58:19-02:00</time>
      </trkpt>
      <trkpt lat="-21.555048329999998" lon="-48.79491333">
        <ele>542.0</ele>
        <time>2019-01-27T06:58:20-02:00</time>
      </trkpt>
      <trkpt lat="-21.555026660000003" lon="-48.794913660000006">
        <ele>542.0</ele>
        <time>2019-01-27T06:58:21-02:00</time>
      </trkpt>
      <trkpt lat="-21.555003329999998" lon="-48.79491166">
        <ele>542.0</ele>
        <time>2019-01-27T06:58:22-02:00</time>
      </trkpt>
      <trkpt lat="-21.554981660000003" lon="-48.79491">
        <ele>542.0</ele>
        <time>2019-01-27T06:58:23-02:00</time>
      </trkpt>
      <trkpt lat="-21.55496" lon="-48.79491033000001">
        <ele>542.0</ele>
        <time>2019-01-27T06:58:24-02:00</time>
      </trkpt>
      <trkpt lat="-21.55493833" lon="-48.79490866">
        <ele>542.0</ele>
        <time>2019-01-27T06:58:25-02:00</time>
      </trkpt>
      <trkpt lat="-21.554916660000004" lon="-48.794909">
        <ele>542.0</ele>
        <time>2019-01-27T06:58:26-02:00</time>
      </trkpt>
      <trkpt lat="-21.55489333" lon="-48.79490733000001">
        <ele>542.0</ele>
        <time>2019-01-27T06:58:27-02:00</time>
      </trkpt>
      <trkpt lat="-21.554871659999996" lon="-48.79490599999999">
        <ele>542.0</ele>
        <time>2019-01-27T06:58:28-02:00</time>
      </trkpt>
      <trkpt lat="-21.554849999999995" lon="-48.79490632999999">
        <ele>543.0</ele>
        <time>2019-01-27T06:58:29-02:00</time>
      </trkpt>
      <trkpt lat="-21.55483" lon="-48.79490532999999">
        <ele>543.0</ele>
        <time>2019-01-27T06:58:30-02:00</time>
      </trkpt>
      <trkpt lat="-21.55480833" lon="-48.79490366">
        <ele>543.0</ele>
        <time>2019-01-27T06:58:31-02:00</time>
      </trkpt>
      <trkpt lat="-21.554786659999998" lon="-48.79490233">
        <ele>543.0</ele>
        <time>2019-01-27T06:58:32-02:00</time>
      </trkpt>
      <trkpt lat="-21.554764999999996" lon="-48.794900999999996">
        <ele>543.0</ele>
        <time>2019-01-27T06:58:33-02:00</time>
      </trkpt>
      <trkpt lat="-21.55474333" lon="-48.79489966">
        <ele>543.0</ele>
        <time>2019-01-27T06:58:34-02:00</time>
      </trkpt>
      <trkpt lat="-21.554721660000006" lon="-48.794898329999995">
        <ele>543.0</ele>
        <time>2019-01-27T06:58:35-02:00</time>
      </trkpt>
      <trkpt lat="-21.554700000000004" lon="-48.794897000000006">
        <ele>543.0</ele>
        <time>2019-01-27T06:58:36-02:00</time>
      </trkpt>
      <trkpt lat="-21.554676660000005" lon="-48.79489566">
        <ele>543.0</ele>
        <time>2019-01-27T06:58:37-02:00</time>
      </trkpt>
      <trkpt lat="-21.55465333" lon="-48.794894000000006">
        <ele>543.0</ele>
        <time>2019-01-27T06:58:38-02:00</time>
      </trkpt>
      <trkpt lat="-21.554631660000005" lon="-48.79489266">
        <ele>543.0</ele>
        <time>2019-01-27T06:58:39-02:00</time>
      </trkpt>
      <trkpt lat="-21.55460833" lon="-48.79489133">
        <ele>543.0</ele>
        <time>2019-01-27T06:58:40-02:00</time>
      </trkpt>
      <trkpt lat="-21.554586660000002" lon="-48.794889999999995">
        <ele>543.0</ele>
        <time>2019-01-27T06:58:41-02:00</time>
      </trkpt>
      <trkpt lat="-21.554566660000006" lon="-48.794888330000006">
        <ele>543.0</ele>
        <time>2019-01-27T06:58:42-02:00</time>
      </trkpt>
      <trkpt lat="-21.554545" lon="-48.794887">
        <ele>543.0</ele>
        <time>2019-01-27T06:58:43-02:00</time>
      </trkpt>
      <trkpt lat="-21.554523330000002" lon="-48.79488566000001">
        <ele>543.0</ele>
        <time>2019-01-27T06:58:44-02:00</time>
      </trkpt>
      <trkpt lat="-21.554503329999996" lon="-48.79488233">
        <ele>543.0</ele>
        <time>2019-01-27T06:58:45-02:00</time>
      </trkpt>
      <trkpt lat="-21.55448166" lon="-48.794880660000004">
        <ele>543.0</ele>
        <time>2019-01-27T06:58:46-02:00</time>
      </trkpt>
      <trkpt lat="-21.55446" lon="-48.79487733">
        <ele>543.0</ele>
        <time>2019-01-27T06:58:47-02:00</time>
      </trkpt>
      <trkpt lat="-21.554438330000004" lon="-48.794875999999995">
        <ele>543.0</ele>
        <time>2019-01-27T06:58:48-02:00</time>
      </trkpt>
      <trkpt lat="-21.55441666" lon="-48.794874330000006">
        <ele>543.0</ele>
        <time>2019-01-27T06:58:49-02:00</time>
      </trkpt>
      <trkpt lat="-21.554396660000002" lon="-48.79487332999999">
        <ele>543.0</ele>
        <time>2019-01-27T06:58:50-02:00</time>
      </trkpt>
      <trkpt lat="-21.554373330000004" lon="-48.79487132999999">
        <ele>543.0</ele>
        <time>2019-01-27T06:58:51-02:00</time>
      </trkpt>
      <trkpt lat="-21.554353330000005" lon="-48.79486766">
        <ele>543.0</ele>
        <time>2019-01-27T06:58:52-02:00</time>
      </trkpt>
      <trkpt lat="-21.554331660000003" lon="-48.79486633">
        <ele>543.0</ele>
        <time>2019-01-27T06:58:53-02:00</time>
      </trkpt>
      <trkpt lat="-21.55431166" lon="-48.79486500000001">
        <ele>543.0</ele>
        <time>2019-01-27T06:58:54-02:00</time>
      </trkpt>
      <trkpt lat="-21.55429" lon="-48.794861000000004">
        <ele>543.0</ele>
        <time>2019-01-27T06:58:55-02:00</time>
      </trkpt>
      <trkpt lat="-21.55426833" lon="-48.794859329999994">
        <ele>543.0</ele>
        <time>2019-01-27T06:58:56-02:00</time>
      </trkpt>
      <trkpt lat="-21.554246659999997" lon="-48.794857660000005">
        <ele>543.0</ele>
        <time>2019-01-27T06:58:57-02:00</time>
      </trkpt>
      <trkpt lat="-21.55422333" lon="-48.794855999999996">
        <ele>543.0</ele>
        <time>2019-01-27T06:58:58-02:00</time>
      </trkpt>
      <trkpt lat="-21.55420333" lon="-48.79485466">
        <ele>543.0</ele>
        <time>2019-01-27T06:58:59-02:00</time>
      </trkpt>
      <trkpt lat="-21.554181660000005" lon="-48.794852999999996">
        <ele>543.0</ele>
        <time>2019-01-27T06:59:00-02:00</time>
      </trkpt>
      <trkpt lat="-21.55416166" lon="-48.794851660000006">
        <ele>543.0</ele>
        <time>2019-01-27T06:59:01-02:00</time>
      </trkpt>
      <trkpt lat="-21.554139999999997" lon="-48.794850329999996">
        <ele>544.0</ele>
        <time>2019-01-27T06:59:02-02:00</time>
      </trkpt>
      <trkpt lat="-21.554120000000005" lon="-48.79484866000001">
        <ele>544.0</ele>
        <time>2019-01-27T06:59:03-02:00</time>
      </trkpt>
      <trkpt lat="-21.5541" lon="-48.794847">
        <ele>544.0</ele>
        <time>2019-01-27T06:59:04-02:00</time>
      </trkpt>
      <trkpt lat="-21.55407666" lon="-48.79484533">
        <ele>544.0</ele>
        <time>2019-01-27T06:59:05-02:00</time>
      </trkpt>
      <trkpt lat="-21.554054999999998" lon="-48.794844">
        <ele>544.0</ele>
        <time>2019-01-27T06:59:06-02:00</time>
      </trkpt>
      <trkpt lat="-21.55403333" lon="-48.79484233">
        <ele>544.0</ele>
        <time>2019-01-27T06:59:07-02:00</time>
      </trkpt>
      <trkpt lat="-21.55401" lon="-48.794841">
        <ele>544.0</ele>
        <time>2019-01-27T06:59:08-02:00</time>
      </trkpt>
      <trkpt lat="-21.553988330000003" lon="-48.79483933">
        <ele>544.0</ele>
        <time>2019-01-27T06:59:09-02:00</time>
      </trkpt>
      <trkpt lat="-21.55396666" lon="-48.794838">
        <ele>544.0</ele>
        <time>2019-01-27T06:59:10-02:00</time>
      </trkpt>
      <trkpt lat="-21.553945" lon="-48.79483666">
        <ele>544.0</ele>
        <time>2019-01-27T06:59:11-02:00</time>
      </trkpt>
      <trkpt lat="-21.553923330000003" lon="-48.794835">
        <ele>544.0</ele>
        <time>2019-01-27T06:59:12-02:00</time>
      </trkpt>
      <trkpt lat="-21.553900000000006" lon="-48.794833329999996">
        <ele>544.0</ele>
        <time>2019-01-27T06:59:13-02:00</time>
      </trkpt>
      <trkpt lat="-21.553874999999998" lon="-48.79483133">
        <ele>545.0</ele>
        <time>2019-01-27T06:59:14-02:00</time>
      </trkpt>
      <trkpt lat="-21.553853330000003" lon="-48.794829660000005">
        <ele>545.0</ele>
        <time>2019-01-27T06:59:15-02:00</time>
      </trkpt>
      <trkpt lat="-21.553829999999998" lon="-48.794827999999995">
        <ele>545.0</ele>
        <time>2019-01-27T06:59:16-02:00</time>
      </trkpt>
      <trkpt lat="-21.553808330000003" lon="-48.79482632999999">
        <ele>545.0</ele>
        <time>2019-01-27T06:59:17-02:00</time>
      </trkpt>
      <trkpt lat="-21.553788330000003" lon="-48.79482433">
        <ele>545.0</ele>
        <time>2019-01-27T06:59:18-02:00</time>
      </trkpt>
      <trkpt lat="-21.55376666" lon="-48.79482266000001">
        <ele>545.0</ele>
        <time>2019-01-27T06:59:19-02:00</time>
      </trkpt>
      <trkpt lat="-21.553745000000003" lon="-48.79482099999999">
        <ele>545.0</ele>
        <time>2019-01-27T06:59:20-02:00</time>
      </trkpt>
      <trkpt lat="-21.553723330000004" lon="-48.79481933000001">
        <ele>545.0</ele>
        <time>2019-01-27T06:59:21-02:00</time>
      </trkpt>
      <trkpt lat="-21.55370166" lon="-48.79481766000001">
        <ele>545.0</ele>
        <time>2019-01-27T06:59:22-02:00</time>
      </trkpt>
      <trkpt lat="-21.553678330000004" lon="-48.794815660000005">
        <ele>546.0</ele>
        <time>2019-01-27T06:59:23-02:00</time>
      </trkpt>
      <trkpt lat="-21.55365666" lon="-48.79481366">
        <ele>546.0</ele>
        <time>2019-01-27T06:59:24-02:00</time>
      </trkpt>
      <trkpt lat="-21.553635000000003" lon="-48.794812">
        <ele>546.0</ele>
        <time>2019-01-27T06:59:25-02:00</time>
      </trkpt>
      <trkpt lat="-21.553613329999997" lon="-48.79481">
        <ele>546.0</ele>
        <time>2019-01-27T06:59:26-02:00</time>
      </trkpt>
      <trkpt lat="-21.553591660000002" lon="-48.794808329999995">
        <ele>546.0</ele>
        <time>2019-01-27T06:59:27-02:00</time>
      </trkpt>
      <trkpt lat="-21.55356833" lon="-48.794806660000006">
        <ele>546.0</ele>
        <time>2019-01-27T06:59:28-02:00</time>
      </trkpt>
      <trkpt lat="-21.553546660000002" lon="-48.794805">
        <ele>546.0</ele>
        <time>2019-01-27T06:59:29-02:00</time>
      </trkpt>
      <trkpt lat="-21.553525" lon="-48.79480332999999">
        <ele>546.0</ele>
        <time>2019-01-27T06:59:30-02:00</time>
      </trkpt>
      <trkpt lat="-21.553501660000002" lon="-48.79480099999999">
        <ele>546.0</ele>
        <time>2019-01-27T06:59:31-02:00</time>
      </trkpt>
      <trkpt lat="-21.553481660000003" lon="-48.79479966000001">
        <ele>546.0</ele>
        <time>2019-01-27T06:59:32-02:00</time>
      </trkpt>
      <trkpt lat="-21.55346" lon="-48.79479799999999">
        <ele>547.0</ele>
        <time>2019-01-27T06:59:33-02:00</time>
      </trkpt>
      <trkpt lat="-21.55343833" lon="-48.79479633">
        <ele>547.0</ele>
        <time>2019-01-27T06:59:34-02:00</time>
      </trkpt>
      <trkpt lat="-21.553416660000003" lon="-48.79479499999999">
        <ele>547.0</ele>
        <time>2019-01-27T06:59:35-02:00</time>
      </trkpt>
      <trkpt lat="-21.553395000000002" lon="-48.794793330000005">
        <ele>547.0</ele>
        <time>2019-01-27T06:59:36-02:00</time>
      </trkpt>
      <trkpt lat="-21.553375" lon="-48.79479166">
        <ele>547.0</ele>
        <time>2019-01-27T06:59:37-02:00</time>
      </trkpt>
      <trkpt lat="-21.553351660000004" lon="-48.79479">
        <ele>547.0</ele>
        <time>2019-01-27T06:59:38-02:00</time>
      </trkpt>
      <trkpt lat="-21.553329999999995" lon="-48.794788329999996">
        <ele>547.0</ele>
        <time>2019-01-27T06:59:39-02:00</time>
      </trkpt>
      <trkpt lat="-21.553306660000004" lon="-48.79478666">
        <ele>547.0</ele>
        <time>2019-01-27T06:59:40-02:00</time>
      </trkpt>
      <trkpt lat="-21.55328333" lon="-48.79478465999999">
        <ele>547.0</ele>
        <time>2019-01-27T06:59:41-02:00</time>
      </trkpt>
      <trkpt lat="-21.553261659999997" lon="-48.79478066">
        <ele>547.0</ele>
        <time>2019-01-27T06:59:42-02:00</time>
      </trkpt>
      <trkpt lat="-21.55323833" lon="-48.794779">
        <ele>547.0</ele>
        <time>2019-01-27T06:59:43-02:00</time>
      </trkpt>
      <trkpt lat="-21.553216660000004" lon="-48.794775">
        <ele>547.0</ele>
        <time>2019-01-27T06:59:44-02:00</time>
      </trkpt>
      <trkpt lat="-21.553195" lon="-48.794773000000006">
        <ele>547.0</ele>
        <time>2019-01-27T06:59:45-02:00</time>
      </trkpt>
      <trkpt lat="-21.55317333" lon="-48.794769329999994">
        <ele>547.0</ele>
        <time>2019-01-27T06:59:46-02:00</time>
      </trkpt>
      <trkpt lat="-21.55315" lon="-48.79476733">
        <ele>547.0</ele>
        <time>2019-01-27T06:59:47-02:00</time>
      </trkpt>
      <trkpt lat="-21.553126660000004" lon="-48.794765">
        <ele>547.0</ele>
        <time>2019-01-27T06:59:48-02:00</time>
      </trkpt>
      <trkpt lat="-21.553106660000005" lon="-48.79476366000001">
        <ele>547.0</ele>
        <time>2019-01-27T06:59:49-02:00</time>
      </trkpt>
      <trkpt lat="-21.55308333" lon="-48.794761660000006">
        <ele>548.0</ele>
        <time>2019-01-27T06:59:50-02:00</time>
      </trkpt>
      <trkpt lat="-21.553061659999997" lon="-48.79476">
        <ele>548.0</ele>
        <time>2019-01-27T06:59:51-02:00</time>
      </trkpt>
      <trkpt lat="-21.553038330000003" lon="-48.794757660000016">
        <ele>548.0</ele>
        <time>2019-01-27T06:59:52-02:00</time>
      </trkpt>
      <trkpt lat="-21.553016660000004" lon="-48.79475599999999">
        <ele>548.0</ele>
        <time>2019-01-27T06:59:53-02:00</time>
      </trkpt>
      <trkpt lat="-21.552991660000004" lon="-48.794754">
        <ele>548.0</ele>
        <time>2019-01-27T06:59:54-02:00</time>
      </trkpt>
      <trkpt lat="-21.55297" lon="-48.79475233">
        <ele>548.0</ele>
        <time>2019-01-27T06:59:55-02:00</time>
      </trkpt>
      <trkpt lat="-21.552948330000003" lon="-48.79475033">
        <ele>548.0</ele>
        <time>2019-01-27T06:59:56-02:00</time>
      </trkpt>
      <trkpt lat="-21.552925" lon="-48.79474866">
        <ele>548.0</ele>
        <time>2019-01-27T06:59:57-02:00</time>
      </trkpt>
      <trkpt lat="-21.552905000000003" lon="-48.79474700000001">
        <ele>548.0</ele>
        <time>2019-01-27T06:59:58-02:00</time>
      </trkpt>
      <trkpt lat="-21.552881660000004" lon="-48.79474700000001">
        <ele>548.0</ele>
        <time>2019-01-27T06:59:59-02:00</time>
      </trkpt>
      <trkpt lat="-21.552860000000003" lon="-48.79474533">
        <ele>548.0</ele>
        <time>2019-01-27T07:00:00-02:00</time>
      </trkpt>
      <trkpt lat="-21.552838330000004" lon="-48.794745999999996">
        <ele>548.0</ele>
        <time>2019-01-27T07:00:01-02:00</time>
      </trkpt>
      <trkpt lat="-21.55281833" lon="-48.79474433">
        <ele>548.0</ele>
        <time>2019-01-27T07:00:02-02:00</time>
      </trkpt>
      <trkpt lat="-21.55279666" lon="-48.794745">
        <ele>548.0</ele>
        <time>2019-01-27T07:00:03-02:00</time>
      </trkpt>
      <trkpt lat="-21.552775000000004" lon="-48.79474333">
        <ele>548.0</ele>
        <time>2019-01-27T07:00:04-02:00</time>
      </trkpt>
      <trkpt lat="-21.552754999999998" lon="-48.79474433">
        <ele>549.0</ele>
        <time>2019-01-27T07:00:05-02:00</time>
      </trkpt>
      <trkpt lat="-21.55273166" lon="-48.79474533">
        <ele>549.0</ele>
        <time>2019-01-27T07:00:06-02:00</time>
      </trkpt>
      <trkpt lat="-21.55270833" lon="-48.79474366000001">
        <ele>549.0</ele>
        <time>2019-01-27T07:00:07-02:00</time>
      </trkpt>
      <trkpt lat="-21.55268666" lon="-48.794744660000006">
        <ele>549.0</ele>
        <time>2019-01-27T07:00:08-02:00</time>
      </trkpt>
      <trkpt lat="-21.55266" lon="-48.79474533">
        <ele>549.0</ele>
        <time>2019-01-27T07:00:09-02:00</time>
      </trkpt>
      <trkpt lat="-21.552636659999997" lon="-48.79474400000001">
        <ele>549.0</ele>
        <time>2019-01-27T07:00:10-02:00</time>
      </trkpt>
      <trkpt lat="-21.55261333" lon="-48.794745">
        <ele>549.0</ele>
        <time>2019-01-27T07:00:11-02:00</time>
      </trkpt>
      <trkpt lat="-21.55259333" lon="-48.794746329999995">
        <ele>549.0</ele>
        <time>2019-01-27T07:00:12-02:00</time>
      </trkpt>
      <trkpt lat="-21.55257" lon="-48.79474533">
        <ele>549.0</ele>
        <time>2019-01-27T07:00:13-02:00</time>
      </trkpt>
      <trkpt lat="-21.552546659999997" lon="-48.794746329999995">
        <ele>549.0</ele>
        <time>2019-01-27T07:00:14-02:00</time>
      </trkpt>
      <trkpt lat="-21.552525" lon="-48.79474766000001">
        <ele>549.0</ele>
        <time>2019-01-27T07:00:15-02:00</time>
      </trkpt>
      <trkpt lat="-21.55250333" lon="-48.79474700000001">
        <ele>549.0</ele>
        <time>2019-01-27T07:00:16-02:00</time>
      </trkpt>
      <trkpt lat="-21.55248333" lon="-48.79474832999999">
        <ele>549.0</ele>
        <time>2019-01-27T07:00:17-02:00</time>
      </trkpt>
      <trkpt lat="-21.55246166" lon="-48.794749659999994">
        <ele>549.0</ele>
        <time>2019-01-27T07:00:18-02:00</time>
      </trkpt>
      <trkpt lat="-21.552439999999997" lon="-48.794751">
        <ele>549.0</ele>
        <time>2019-01-27T07:00:19-02:00</time>
      </trkpt>
      <trkpt lat="-21.552418330000002" lon="-48.79475233">
        <ele>549.0</ele>
        <time>2019-01-27T07:00:20-02:00</time>
      </trkpt>
      <trkpt lat="-21.552398330000006" lon="-48.794754">
        <ele>549.0</ele>
        <time>2019-01-27T07:00:21-02:00</time>
      </trkpt>
      <trkpt lat="-21.55237666" lon="-48.79475566000001">
        <ele>549.0</ele>
        <time>2019-01-27T07:00:22-02:00</time>
      </trkpt>
      <trkpt lat="-21.552355" lon="-48.79475733">
        <ele>549.0</ele>
        <time>2019-01-27T07:00:23-02:00</time>
      </trkpt>
      <trkpt lat="-21.552335" lon="-48.794759000000006">
        <ele>549.0</ele>
        <time>2019-01-27T07:00:24-02:00</time>
      </trkpt>
      <trkpt lat="-21.552315" lon="-48.79476066000001">
        <ele>549.0</ele>
        <time>2019-01-27T07:00:25-02:00</time>
      </trkpt>
      <trkpt lat="-21.552295000000004" lon="-48.794765">
        <ele>549.0</ele>
        <time>2019-01-27T07:00:26-02:00</time>
      </trkpt>
      <trkpt lat="-21.552275" lon="-48.794765">
        <ele>549.0</ele>
        <time>2019-01-27T07:00:27-02:00</time>
      </trkpt>
      <trkpt lat="-21.552254999999995" lon="-48.794767000000014">
        <ele>549.0</ele>
        <time>2019-01-27T07:00:28-02:00</time>
      </trkpt>
      <trkpt lat="-21.55223333" lon="-48.79477132999999">
        <ele>549.0</ele>
        <time>2019-01-27T07:00:29-02:00</time>
      </trkpt>
      <trkpt lat="-21.55221" lon="-48.79477366000001">
        <ele>549.0</ele>
        <time>2019-01-27T07:00:30-02:00</time>
      </trkpt>
      <trkpt lat="-21.55218833" lon="-48.794776">
        <ele>549.0</ele>
        <time>2019-01-27T07:00:31-02:00</time>
      </trkpt>
      <trkpt lat="-21.55216833" lon="-48.79478066">
        <ele>549.0</ele>
        <time>2019-01-27T07:00:32-02:00</time>
      </trkpt>
      <trkpt lat="-21.552148330000005" lon="-48.79478332999999">
        <ele>549.0</ele>
        <time>2019-01-27T07:00:33-02:00</time>
      </trkpt>
      <trkpt lat="-21.55212833" lon="-48.794786">
        <ele>549.0</ele>
        <time>2019-01-27T07:00:34-02:00</time>
      </trkpt>
      <trkpt lat="-21.55210666" lon="-48.79478933">
        <ele>549.0</ele>
        <time>2019-01-27T07:00:35-02:00</time>
      </trkpt>
      <trkpt lat="-21.552084999999998" lon="-48.79479233">
        <ele>549.0</ele>
        <time>2019-01-27T07:00:36-02:00</time>
      </trkpt>
      <trkpt lat="-21.55206166" lon="-48.79479533">
        <ele>550.0</ele>
        <time>2019-01-27T07:00:37-02:00</time>
      </trkpt>
      <trkpt lat="-21.55204" lon="-48.794798660000005">
        <ele>550.0</ele>
        <time>2019-01-27T07:00:38-02:00</time>
      </trkpt>
      <trkpt lat="-21.55201666" lon="-48.794802">
        <ele>550.0</ele>
        <time>2019-01-27T07:00:39-02:00</time>
      </trkpt>
      <trkpt lat="-21.55199666" lon="-48.794805">
        <ele>550.0</ele>
        <time>2019-01-27T07:00:40-02:00</time>
      </trkpt>
      <trkpt lat="-21.551973330000003" lon="-48.79480866">
        <ele>550.0</ele>
        <time>2019-01-27T07:00:41-02:00</time>
      </trkpt>
      <trkpt lat="-21.55195" lon="-48.79481465999999">
        <ele>550.0</ele>
        <time>2019-01-27T07:00:42-02:00</time>
      </trkpt>
      <trkpt lat="-21.551928330000003" lon="-48.79481833">
        <ele>550.0</ele>
        <time>2019-01-27T07:00:43-02:00</time>
      </trkpt>
      <trkpt lat="-21.55190666" lon="-48.794822">
        <ele>550.0</ele>
        <time>2019-01-27T07:00:44-02:00</time>
      </trkpt>
      <trkpt lat="-21.55188666" lon="-48.79482566">
        <ele>550.0</ele>
        <time>2019-01-27T07:00:45-02:00</time>
      </trkpt>
      <trkpt lat="-21.551865" lon="-48.794829660000005">
        <ele>550.0</ele>
        <time>2019-01-27T07:00:46-02:00</time>
      </trkpt>
      <trkpt lat="-21.551843330000004" lon="-48.79483366000001">
        <ele>550.0</ele>
        <time>2019-01-27T07:00:47-02:00</time>
      </trkpt>
      <trkpt lat="-21.55182166" lon="-48.79483766">
        <ele>550.0</ele>
        <time>2019-01-27T07:00:48-02:00</time>
      </trkpt>
      <trkpt lat="-21.551798330000004" lon="-48.794842">
        <ele>550.0</ele>
        <time>2019-01-27T07:00:49-02:00</time>
      </trkpt>
      <trkpt lat="-21.551775000000003" lon="-48.79484632999999">
        <ele>550.0</ele>
        <time>2019-01-27T07:00:50-02:00</time>
      </trkpt>
      <trkpt lat="-21.551750000000002" lon="-48.79485066000001">
        <ele>550.0</ele>
        <time>2019-01-27T07:00:51-02:00</time>
      </trkpt>
      <trkpt lat="-21.55172833" lon="-48.794852999999996">
        <ele>550.0</ele>
        <time>2019-01-27T07:00:52-02:00</time>
      </trkpt>
      <trkpt lat="-21.551703330000002" lon="-48.79485733">
        <ele>550.0</ele>
        <time>2019-01-27T07:00:53-02:00</time>
      </trkpt>
      <trkpt lat="-21.55168" lon="-48.794862">
        <ele>550.0</ele>
        <time>2019-01-27T07:00:54-02:00</time>
      </trkpt>
      <trkpt lat="-21.551658330000002" lon="-48.79486633">
        <ele>550.0</ele>
        <time>2019-01-27T07:00:55-02:00</time>
      </trkpt>
      <trkpt lat="-21.55163666" lon="-48.79487066">
        <ele>550.0</ele>
        <time>2019-01-27T07:00:56-02:00</time>
      </trkpt>
      <trkpt lat="-21.551614999999998" lon="-48.794872999999995">
        <ele>550.0</ele>
        <time>2019-01-27T07:00:57-02:00</time>
      </trkpt>
      <trkpt lat="-21.551591660000003" lon="-48.79487766000001">
        <ele>550.0</ele>
        <time>2019-01-27T07:00:58-02:00</time>
      </trkpt>
      <trkpt lat="-21.55157" lon="-48.79488233">
        <ele>550.0</ele>
        <time>2019-01-27T07:00:59-02:00</time>
      </trkpt>
      <trkpt lat="-21.55154833" lon="-48.794884659999994">
        <ele>550.0</ele>
        <time>2019-01-27T07:01:00-02:00</time>
      </trkpt>
      <trkpt lat="-21.551525" lon="-48.79488966">
        <ele>550.0</ele>
        <time>2019-01-27T07:01:01-02:00</time>
      </trkpt>
      <trkpt lat="-21.55150333" lon="-48.79489233">
        <ele>550.0</ele>
        <time>2019-01-27T07:01:02-02:00</time>
      </trkpt>
      <trkpt lat="-21.551478330000002" lon="-48.794898">
        <ele>550.0</ele>
        <time>2019-01-27T07:01:03-02:00</time>
      </trkpt>
      <trkpt lat="-21.55145833" lon="-48.794900330000004">
        <ele>550.0</ele>
        <time>2019-01-27T07:01:04-02:00</time>
      </trkpt>
      <trkpt lat="-21.55143666" lon="-48.79490333">
        <ele>550.0</ele>
        <time>2019-01-27T07:01:05-02:00</time>
      </trkpt>
      <trkpt lat="-21.551415000000002" lon="-48.79490599999999">
        <ele>550.0</ele>
        <time>2019-01-27T07:01:06-02:00</time>
      </trkpt>
      <trkpt lat="-21.551393330000003" lon="-48.794909">
        <ele>550.0</ele>
        <time>2019-01-27T07:01:07-02:00</time>
      </trkpt>
      <trkpt lat="-21.551370000000002" lon="-48.79491233">
        <ele>550.0</ele>
        <time>2019-01-27T07:01:08-02:00</time>
      </trkpt>
      <trkpt lat="-21.551348330000003" lon="-48.79491533">
        <ele>550.0</ele>
        <time>2019-01-27T07:01:09-02:00</time>
      </trkpt>
      <trkpt lat="-21.551325000000002" lon="-48.79491833">
        <ele>550.0</ele>
        <time>2019-01-27T07:01:10-02:00</time>
      </trkpt>
      <trkpt lat="-21.551303330000003" lon="-48.79492133">
        <ele>550.0</ele>
        <time>2019-01-27T07:01:11-02:00</time>
      </trkpt>
      <trkpt lat="-21.55128166" lon="-48.79492400000001">
        <ele>550.0</ele>
        <time>2019-01-27T07:01:12-02:00</time>
      </trkpt>
      <trkpt lat="-21.551260000000003" lon="-48.79492700000001">
        <ele>550.0</ele>
        <time>2019-01-27T07:01:13-02:00</time>
      </trkpt>
      <trkpt lat="-21.551236660000004" lon="-48.794928">
        <ele>550.0</ele>
        <time>2019-01-27T07:01:14-02:00</time>
      </trkpt>
      <trkpt lat="-21.551213330000003" lon="-48.79493132999999">
        <ele>551.0</ele>
        <time>2019-01-27T07:01:15-02:00</time>
      </trkpt>
      <trkpt lat="-21.551191660000004" lon="-48.794934">
        <ele>551.0</ele>
        <time>2019-01-27T07:01:16-02:00</time>
      </trkpt>
      <trkpt lat="-21.551166660000003" lon="-48.79493733">
        <ele>551.0</ele>
        <time>2019-01-27T07:01:17-02:00</time>
      </trkpt>
      <trkpt lat="-21.55114333" lon="-48.794938">
        <ele>551.0</ele>
        <time>2019-01-27T07:01:18-02:00</time>
      </trkpt>
      <trkpt lat="-21.55111833" lon="-48.79494132999999">
        <ele>551.0</ele>
        <time>2019-01-27T07:01:19-02:00</time>
      </trkpt>
      <trkpt lat="-21.551096660000002" lon="-48.79494366000001">
        <ele>551.0</ele>
        <time>2019-01-27T07:01:20-02:00</time>
      </trkpt>
      <trkpt lat="-21.551075" lon="-48.79494666000001">
        <ele>551.0</ele>
        <time>2019-01-27T07:01:21-02:00</time>
      </trkpt>
      <trkpt lat="-21.551056660000004" lon="-48.794947">
        <ele>551.0</ele>
        <time>2019-01-27T07:01:22-02:00</time>
      </trkpt>
      <trkpt lat="-21.551035000000002" lon="-48.79494966">
        <ele>551.0</ele>
        <time>2019-01-27T07:01:23-02:00</time>
      </trkpt>
      <trkpt lat="-21.55101333" lon="-48.79495266000001">
        <ele>551.0</ele>
        <time>2019-01-27T07:01:24-02:00</time>
      </trkpt>
      <trkpt lat="-21.550991660000005" lon="-48.79495566000001">
        <ele>551.0</ele>
        <time>2019-01-27T07:01:25-02:00</time>
      </trkpt>
      <trkpt lat="-21.55096833" lon="-48.794958660000006">
        <ele>551.0</ele>
        <time>2019-01-27T07:01:26-02:00</time>
      </trkpt>
      <trkpt lat="-21.550945000000002" lon="-48.79496166">
        <ele>551.0</ele>
        <time>2019-01-27T07:01:27-02:00</time>
      </trkpt>
      <trkpt lat="-21.55092333" lon="-48.79496233">
        <ele>552.0</ele>
        <time>2019-01-27T07:01:28-02:00</time>
      </trkpt>
      <trkpt lat="-21.550900000000002" lon="-48.79496533">
        <ele>552.0</ele>
        <time>2019-01-27T07:01:29-02:00</time>
      </trkpt>
      <trkpt lat="-21.55088" lon="-48.79496766000001">
        <ele>552.0</ele>
        <time>2019-01-27T07:01:30-02:00</time>
      </trkpt>
      <trkpt lat="-21.55085666" lon="-48.794971">
        <ele>552.0</ele>
        <time>2019-01-27T07:01:31-02:00</time>
      </trkpt>
      <trkpt lat="-21.550835" lon="-48.79497132999999">
        <ele>552.0</ele>
        <time>2019-01-27T07:01:32-02:00</time>
      </trkpt>
      <trkpt lat="-21.55081166" lon="-48.794974">
        <ele>552.0</ele>
        <time>2019-01-27T07:01:33-02:00</time>
      </trkpt>
      <trkpt lat="-21.550788330000007" lon="-48.79497733">
        <ele>552.0</ele>
        <time>2019-01-27T07:01:34-02:00</time>
      </trkpt>
      <trkpt lat="-21.55076666" lon="-48.79498233">
        <ele>552.0</ele>
        <time>2019-01-27T07:01:35-02:00</time>
      </trkpt>
      <trkpt lat="-21.550745" lon="-48.79498466">
        <ele>552.0</ele>
        <time>2019-01-27T07:01:36-02:00</time>
      </trkpt>
      <trkpt lat="-21.550721660000004" lon="-48.794988">
        <ele>552.0</ele>
        <time>2019-01-27T07:01:37-02:00</time>
      </trkpt>
      <trkpt lat="-21.550701660000005" lon="-48.79499066">
        <ele>552.0</ele>
        <time>2019-01-27T07:01:38-02:00</time>
      </trkpt>
      <trkpt lat="-21.550680000000003" lon="-48.794995660000005">
        <ele>552.0</ele>
        <time>2019-01-27T07:01:39-02:00</time>
      </trkpt>
      <trkpt lat="-21.550658329999997" lon="-48.79499866">
        <ele>552.0</ele>
        <time>2019-01-27T07:01:40-02:00</time>
      </trkpt>
      <trkpt lat="-21.55063833" lon="-48.795003660000006">
        <ele>552.0</ele>
        <time>2019-01-27T07:01:41-02:00</time>
      </trkpt>
      <trkpt lat="-21.550615" lon="-48.795007">
        <ele>552.0</ele>
        <time>2019-01-27T07:01:42-02:00</time>
      </trkpt>
      <trkpt lat="-21.550595000000005" lon="-48.79500999999999">
        <ele>552.0</ele>
        <time>2019-01-27T07:01:43-02:00</time>
      </trkpt>
      <trkpt lat="-21.550575" lon="-48.79501466">
        <ele>552.0</ele>
        <time>2019-01-27T07:01:44-02:00</time>
      </trkpt>
      <trkpt lat="-21.550553330000003" lon="-48.795018">
        <ele>552.0</ele>
        <time>2019-01-27T07:01:45-02:00</time>
      </trkpt>
      <trkpt lat="-21.55053" lon="-48.79502133">
        <ele>552.0</ele>
        <time>2019-01-27T07:01:46-02:00</time>
      </trkpt>
      <trkpt lat="-21.550506660000003" lon="-48.795026660000005">
        <ele>552.0</ele>
        <time>2019-01-27T07:01:47-02:00</time>
      </trkpt>
      <trkpt lat="-21.550485" lon="-48.795032000000006">
        <ele>552.0</ele>
        <time>2019-01-27T07:01:48-02:00</time>
      </trkpt>
      <trkpt lat="-21.550459999999998" lon="-48.79503566000001">
        <ele>552.0</ele>
        <time>2019-01-27T07:01:49-02:00</time>
      </trkpt>
      <trkpt lat="-21.550438330000002" lon="-48.795041000000005">
        <ele>552.0</ele>
        <time>2019-01-27T07:01:50-02:00</time>
      </trkpt>
      <trkpt lat="-21.550416660000003" lon="-48.79504433">
        <ele>552.0</ele>
        <time>2019-01-27T07:01:51-02:00</time>
      </trkpt>
      <trkpt lat="-21.550371660000003" lon="-48.79505533">
        <ele>552.0</ele>
        <time>2019-01-27T07:01:52-02:00</time>
      </trkpt>
      <trkpt lat="-21.550348330000002" lon="-48.79505866000001">
        <ele>552.0</ele>
        <time>2019-01-27T07:01:53-02:00</time>
      </trkpt>
      <trkpt lat="-21.550328330000003" lon="-48.795064">
        <ele>552.0</ele>
        <time>2019-01-27T07:01:54-02:00</time>
      </trkpt>
      <trkpt lat="-21.55030666" lon="-48.79506733">
        <ele>552.0</ele>
        <time>2019-01-27T07:01:55-02:00</time>
      </trkpt>
      <trkpt lat="-21.550283329999996" lon="-48.79507299999999">
        <ele>552.0</ele>
        <time>2019-01-27T07:01:56-02:00</time>
      </trkpt>
      <trkpt lat="-21.55026" lon="-48.795079">
        <ele>552.0</ele>
        <time>2019-01-27T07:01:57-02:00</time>
      </trkpt>
      <trkpt lat="-21.550238330000003" lon="-48.795082660000006">
        <ele>552.0</ele>
        <time>2019-01-27T07:01:58-02:00</time>
      </trkpt>
      <trkpt lat="-21.550214999999998" lon="-48.79508866">
        <ele>552.0</ele>
        <time>2019-01-27T07:01:59-02:00</time>
      </trkpt>
      <trkpt lat="-21.550195" lon="-48.795094000000006">
        <ele>552.0</ele>
        <time>2019-01-27T07:02:00-02:00</time>
      </trkpt>
      <trkpt lat="-21.55017333" lon="-48.795100000000005">
        <ele>552.0</ele>
        <time>2019-01-27T07:02:01-02:00</time>
      </trkpt>
      <trkpt lat="-21.550150000000002" lon="-48.795106329999996">
        <ele>552.0</ele>
        <time>2019-01-27T07:02:02-02:00</time>
      </trkpt>
      <trkpt lat="-21.55012833" lon="-48.795112329999995">
        <ele>552.0</ele>
        <time>2019-01-27T07:02:03-02:00</time>
      </trkpt>
      <trkpt lat="-21.55010666" lon="-48.79511866">
        <ele>552.0</ele>
        <time>2019-01-27T07:02:04-02:00</time>
      </trkpt>
      <trkpt lat="-21.55008333" lon="-48.79512532999999">
        <ele>552.0</ele>
        <time>2019-01-27T07:02:05-02:00</time>
      </trkpt>
      <trkpt lat="-21.550060000000002" lon="-48.795131999999995">
        <ele>552.0</ele>
        <time>2019-01-27T07:02:06-02:00</time>
      </trkpt>
      <trkpt lat="-21.55003833" lon="-48.795138660000006">
        <ele>552.0</ele>
        <time>2019-01-27T07:02:07-02:00</time>
      </trkpt>
      <trkpt lat="-21.550018329999997" lon="-48.795142999999996">
        <ele>552.0</ele>
        <time>2019-01-27T07:02:08-02:00</time>
      </trkpt>
      <trkpt lat="-21.54999666" lon="-48.79514966000001">
        <ele>552.0</ele>
        <time>2019-01-27T07:02:09-02:00</time>
      </trkpt>
      <trkpt lat="-21.549973330000004" lon="-48.79515666">
        <ele>552.0</ele>
        <time>2019-01-27T07:02:10-02:00</time>
      </trkpt>
      <trkpt lat="-21.54995166" lon="-48.79516366000001">
        <ele>552.0</ele>
        <time>2019-01-27T07:02:11-02:00</time>
      </trkpt>
      <trkpt lat="-21.54993" lon="-48.795170330000005">
        <ele>552.0</ele>
        <time>2019-01-27T07:02:12-02:00</time>
      </trkpt>
      <trkpt lat="-21.549905" lon="-48.79517766000001">
        <ele>552.0</ele>
        <time>2019-01-27T07:02:13-02:00</time>
      </trkpt>
      <trkpt lat="-21.54988166" lon="-48.79518466">
        <ele>552.0</ele>
        <time>2019-01-27T07:02:14-02:00</time>
      </trkpt>
      <trkpt lat="-21.54986" lon="-48.79519166">
        <ele>552.0</ele>
        <time>2019-01-27T07:02:15-02:00</time>
      </trkpt>
      <trkpt lat="-21.54983666" lon="-48.79519900000001">
        <ele>552.0</ele>
        <time>2019-01-27T07:02:16-02:00</time>
      </trkpt>
      <trkpt lat="-21.549815" lon="-48.79520433">
        <ele>552.0</ele>
        <time>2019-01-27T07:02:17-02:00</time>
      </trkpt>
      <trkpt lat="-21.54979166" lon="-48.79521166000001">
        <ele>552.0</ele>
        <time>2019-01-27T07:02:18-02:00</time>
      </trkpt>
      <trkpt lat="-21.54977166" lon="-48.79521900000001">
        <ele>552.0</ele>
        <time>2019-01-27T07:02:19-02:00</time>
      </trkpt>
      <trkpt lat="-21.54975" lon="-48.79522666">
        <ele>552.0</ele>
        <time>2019-01-27T07:02:20-02:00</time>
      </trkpt>
      <trkpt lat="-21.54972833" lon="-48.79523433000001">
        <ele>552.0</ele>
        <time>2019-01-27T07:02:21-02:00</time>
      </trkpt>
      <trkpt lat="-21.549706660000002" lon="-48.79524200000001">
        <ele>552.0</ele>
        <time>2019-01-27T07:02:22-02:00</time>
      </trkpt>
      <trkpt lat="-21.549685" lon="-48.795249999999996">
        <ele>552.0</ele>
        <time>2019-01-27T07:02:23-02:00</time>
      </trkpt>
      <trkpt lat="-21.549664999999997" lon="-48.795257330000005">
        <ele>552.0</ele>
        <time>2019-01-27T07:02:24-02:00</time>
      </trkpt>
      <trkpt lat="-21.549641660000002" lon="-48.79526766000001">
        <ele>552.0</ele>
        <time>2019-01-27T07:02:25-02:00</time>
      </trkpt>
      <trkpt lat="-21.549620000000004" lon="-48.795275999999994">
        <ele>552.0</ele>
        <time>2019-01-27T07:02:26-02:00</time>
      </trkpt>
      <trkpt lat="-21.5496" lon="-48.795284">
        <ele>552.0</ele>
        <time>2019-01-27T07:02:27-02:00</time>
      </trkpt>
      <trkpt lat="-21.549581660000005" lon="-48.795293660000006">
        <ele>552.0</ele>
        <time>2019-01-27T07:02:28-02:00</time>
      </trkpt>
      <trkpt lat="-21.549561660000002" lon="-48.795303329999996">
        <ele>552.0</ele>
        <time>2019-01-27T07:02:29-02:00</time>
      </trkpt>
      <trkpt lat="-21.54954" lon="-48.795312329999994">
        <ele>552.0</ele>
        <time>2019-01-27T07:02:30-02:00</time>
      </trkpt>
      <trkpt lat="-21.54951833" lon="-48.795322999999996">
        <ele>552.0</ele>
        <time>2019-01-27T07:02:31-02:00</time>
      </trkpt>
      <trkpt lat="-21.54949666" lon="-48.795334000000004">
        <ele>552.0</ele>
        <time>2019-01-27T07:02:32-02:00</time>
      </trkpt>
      <trkpt lat="-21.549476660000003" lon="-48.795345">
        <ele>552.0</ele>
        <time>2019-01-27T07:02:33-02:00</time>
      </trkpt>
      <trkpt lat="-21.549455" lon="-48.79535632999999">
        <ele>552.0</ele>
        <time>2019-01-27T07:02:34-02:00</time>
      </trkpt>
      <trkpt lat="-21.549433330000003" lon="-48.79536766">
        <ele>552.0</ele>
        <time>2019-01-27T07:02:35-02:00</time>
      </trkpt>
      <trkpt lat="-21.549415" lon="-48.79537832999999">
        <ele>552.0</ele>
        <time>2019-01-27T07:02:36-02:00</time>
      </trkpt>
      <trkpt lat="-21.549393329999997" lon="-48.79539033">
        <ele>552.0</ele>
        <time>2019-01-27T07:02:37-02:00</time>
      </trkpt>
      <trkpt lat="-21.549371660000002" lon="-48.795402329999995">
        <ele>552.0</ele>
        <time>2019-01-27T07:02:38-02:00</time>
      </trkpt>
      <trkpt lat="-21.549348330000004" lon="-48.79541733">
        <ele>552.0</ele>
        <time>2019-01-27T07:02:39-02:00</time>
      </trkpt>
      <trkpt lat="-21.549325" lon="-48.795429999999996">
        <ele>552.0</ele>
        <time>2019-01-27T07:02:40-02:00</time>
      </trkpt>
      <trkpt lat="-21.549303330000004" lon="-48.795442660000006">
        <ele>552.0</ele>
        <time>2019-01-27T07:02:41-02:00</time>
      </trkpt>
      <trkpt lat="-21.549281660000002" lon="-48.795455329999996">
        <ele>552.0</ele>
        <time>2019-01-27T07:02:42-02:00</time>
      </trkpt>
      <trkpt lat="-21.549261660000003" lon="-48.795467660000014">
        <ele>552.0</ele>
        <time>2019-01-27T07:02:43-02:00</time>
      </trkpt>
      <trkpt lat="-21.549238329999998" lon="-48.79548366000001">
        <ele>552.0</ele>
        <time>2019-01-27T07:02:44-02:00</time>
      </trkpt>
      <trkpt lat="-21.549216660000003" lon="-48.79549666000001">
        <ele>552.0</ele>
        <time>2019-01-27T07:02:45-02:00</time>
      </trkpt>
      <trkpt lat="-21.54919666" lon="-48.79550933">
        <ele>552.0</ele>
        <time>2019-01-27T07:02:46-02:00</time>
      </trkpt>
      <trkpt lat="-21.549174999999998" lon="-48.795523">
        <ele>552.0</ele>
        <time>2019-01-27T07:02:47-02:00</time>
      </trkpt>
      <trkpt lat="-21.54915333" lon="-48.795536659999996">
        <ele>552.0</ele>
        <time>2019-01-27T07:02:48-02:00</time>
      </trkpt>
      <trkpt lat="-21.549129999999998" lon="-48.795550999999996">
        <ele>552.0</ele>
        <time>2019-01-27T07:02:49-02:00</time>
      </trkpt>
      <trkpt lat="-21.549110000000002" lon="-48.79556433">
        <ele>552.0</ele>
        <time>2019-01-27T07:02:50-02:00</time>
      </trkpt>
      <trkpt lat="-21.549091660000006" lon="-48.79557666000001">
        <ele>552.0</ele>
        <time>2019-01-27T07:02:51-02:00</time>
      </trkpt>
      <trkpt lat="-21.54907166" lon="-48.795590000000004">
        <ele>552.0</ele>
        <time>2019-01-27T07:02:52-02:00</time>
      </trkpt>
      <trkpt lat="-21.54905333" lon="-48.795604659999995">
        <ele>552.0</ele>
        <time>2019-01-27T07:02:53-02:00</time>
      </trkpt>
      <trkpt lat="-21.54903166" lon="-48.79561933">
        <ele>552.0</ele>
        <time>2019-01-27T07:02:54-02:00</time>
      </trkpt>
      <trkpt lat="-21.54901166" lon="-48.795635329999996">
        <ele>552.0</ele>
        <time>2019-01-27T07:02:55-02:00</time>
      </trkpt>
      <trkpt lat="-21.548991660000002" lon="-48.795649329999996">
        <ele>552.0</ele>
        <time>2019-01-27T07:02:56-02:00</time>
      </trkpt>
      <trkpt lat="-21.54897166" lon="-48.795665660000004">
        <ele>552.0</ele>
        <time>2019-01-27T07:02:57-02:00</time>
      </trkpt>
      <trkpt lat="-21.54895333" lon="-48.795679">
        <ele>552.0</ele>
        <time>2019-01-27T07:02:58-02:00</time>
      </trkpt>
      <trkpt lat="-21.548935" lon="-48.79569433">
        <ele>552.0</ele>
        <time>2019-01-27T07:02:59-02:00</time>
      </trkpt>
      <trkpt lat="-21.548916660000003" lon="-48.79570833">
        <ele>552.0</ele>
        <time>2019-01-27T07:03:00-02:00</time>
      </trkpt>
      <trkpt lat="-21.548898330000004" lon="-48.795724">
        <ele>552.0</ele>
        <time>2019-01-27T07:03:01-02:00</time>
      </trkpt>
      <trkpt lat="-21.548878329999997" lon="-48.795739329999996">
        <ele>552.0</ele>
        <time>2019-01-27T07:03:02-02:00</time>
      </trkpt>
      <trkpt lat="-21.548858329999998" lon="-48.795755">
        <ele>552.0</ele>
        <time>2019-01-27T07:03:03-02:00</time>
      </trkpt>
      <trkpt lat="-21.548838330000002" lon="-48.79577066">
        <ele>552.0</ele>
        <time>2019-01-27T07:03:04-02:00</time>
      </trkpt>
      <trkpt lat="-21.54882" lon="-48.79578733">
        <ele>552.0</ele>
        <time>2019-01-27T07:03:05-02:00</time>
      </trkpt>
      <trkpt lat="-21.548803330000002" lon="-48.795801329999996">
        <ele>552.0</ele>
        <time>2019-01-27T07:03:06-02:00</time>
      </trkpt>
      <trkpt lat="-21.54878166" lon="-48.79581832999999">
        <ele>552.0</ele>
        <time>2019-01-27T07:03:07-02:00</time>
      </trkpt>
      <trkpt lat="-21.548763330000003" lon="-48.795834">
        <ele>552.0</ele>
        <time>2019-01-27T07:03:08-02:00</time>
      </trkpt>
      <trkpt lat="-21.54874333" lon="-48.79585033">
        <ele>552.0</ele>
        <time>2019-01-27T07:03:09-02:00</time>
      </trkpt>
      <trkpt lat="-21.548728330000003" lon="-48.795864">
        <ele>552.0</ele>
        <time>2019-01-27T07:03:10-02:00</time>
      </trkpt>
      <trkpt lat="-21.54871" lon="-48.79588166">
        <ele>552.0</ele>
        <time>2019-01-27T07:03:11-02:00</time>
      </trkpt>
      <trkpt lat="-21.548688329999997" lon="-48.79589966">
        <ele>552.0</ele>
        <time>2019-01-27T07:03:12-02:00</time>
      </trkpt>
      <trkpt lat="-21.548665" lon="-48.79591900000001">
        <ele>552.0</ele>
        <time>2019-01-27T07:03:13-02:00</time>
      </trkpt>
      <trkpt lat="-21.548643329999997" lon="-48.795936999999995">
        <ele>552.0</ele>
        <time>2019-01-27T07:03:14-02:00</time>
      </trkpt>
      <trkpt lat="-21.54862333" lon="-48.79595466000001">
        <ele>552.0</ele>
        <time>2019-01-27T07:03:15-02:00</time>
      </trkpt>
      <trkpt lat="-21.54860333" lon="-48.795972330000005">
        <ele>552.0</ele>
        <time>2019-01-27T07:03:16-02:00</time>
      </trkpt>
      <trkpt lat="-21.54858666" lon="-48.79598532999999">
        <ele>552.0</ele>
        <time>2019-01-27T07:03:17-02:00</time>
      </trkpt>
      <trkpt lat="-21.548566660000006" lon="-48.79600333">
        <ele>552.0</ele>
        <time>2019-01-27T07:03:18-02:00</time>
      </trkpt>
      <trkpt lat="-21.548546660000003" lon="-48.79602066">
        <ele>552.0</ele>
        <time>2019-01-27T07:03:19-02:00</time>
      </trkpt>
      <trkpt lat="-21.548525" lon="-48.79603966">
        <ele>552.0</ele>
        <time>2019-01-27T07:03:20-02:00</time>
      </trkpt>
      <trkpt lat="-21.54850333" lon="-48.79605733">
        <ele>552.0</ele>
        <time>2019-01-27T07:03:21-02:00</time>
      </trkpt>
      <trkpt lat="-21.548485" lon="-48.79607400000001">
        <ele>552.0</ele>
        <time>2019-01-27T07:03:22-02:00</time>
      </trkpt>
      <trkpt lat="-21.548465" lon="-48.79609000000001">
        <ele>552.0</ele>
        <time>2019-01-27T07:03:23-02:00</time>
      </trkpt>
      <trkpt lat="-21.54844333" lon="-48.79610966">
        <ele>551.0</ele>
        <time>2019-01-27T07:03:24-02:00</time>
      </trkpt>
      <trkpt lat="-21.548424999999998" lon="-48.796124660000004">
        <ele>551.0</ele>
        <time>2019-01-27T07:03:25-02:00</time>
      </trkpt>
      <trkpt lat="-21.54840666" lon="-48.79614200000001">
        <ele>551.0</ele>
        <time>2019-01-27T07:03:26-02:00</time>
      </trkpt>
      <trkpt lat="-21.54839" lon="-48.796155660000004">
        <ele>551.0</ele>
        <time>2019-01-27T07:03:27-02:00</time>
      </trkpt>
      <trkpt lat="-21.548370000000006" lon="-48.796174660000005">
        <ele>551.0</ele>
        <time>2019-01-27T07:03:28-02:00</time>
      </trkpt>
      <trkpt lat="-21.54834833" lon="-48.796194660000005">
        <ele>551.0</ele>
        <time>2019-01-27T07:03:29-02:00</time>
      </trkpt>
      <trkpt lat="-21.548328329999997" lon="-48.79621132999999">
        <ele>551.0</ele>
        <time>2019-01-27T07:03:30-02:00</time>
      </trkpt>
      <trkpt lat="-21.54830833" lon="-48.79622866000001">
        <ele>551.0</ele>
        <time>2019-01-27T07:03:31-02:00</time>
      </trkpt>
      <trkpt lat="-21.548288330000005" lon="-48.79624732999999">
        <ele>551.0</ele>
        <time>2019-01-27T07:03:32-02:00</time>
      </trkpt>
      <trkpt lat="-21.548268330000003" lon="-48.796265000000005">
        <ele>551.0</ele>
        <time>2019-01-27T07:03:33-02:00</time>
      </trkpt>
      <trkpt lat="-21.54824833" lon="-48.796281660000005">
        <ele>551.0</ele>
        <time>2019-01-27T07:03:34-02:00</time>
      </trkpt>
      <trkpt lat="-21.548229999999997" lon="-48.796296">
        <ele>552.0</ele>
        <time>2019-01-27T07:03:35-02:00</time>
      </trkpt>
      <trkpt lat="-21.54821166" lon="-48.796312">
        <ele>552.0</ele>
        <time>2019-01-27T07:03:36-02:00</time>
      </trkpt>
      <trkpt lat="-21.548195" lon="-48.796324659999996">
        <ele>552.0</ele>
        <time>2019-01-27T07:03:37-02:00</time>
      </trkpt>
      <trkpt lat="-21.548178330000002" lon="-48.79634033000001">
        <ele>552.0</ele>
        <time>2019-01-27T07:03:38-02:00</time>
      </trkpt>
      <trkpt lat="-21.54816" lon="-48.79635433">
        <ele>552.0</ele>
        <time>2019-01-27T07:03:39-02:00</time>
      </trkpt>
      <trkpt lat="-21.548141660000002" lon="-48.796369000000006">
        <ele>552.0</ele>
        <time>2019-01-27T07:03:40-02:00</time>
      </trkpt>
      <trkpt lat="-21.548123330000003" lon="-48.79638366000001">
        <ele>552.0</ele>
        <time>2019-01-27T07:03:41-02:00</time>
      </trkpt>
      <trkpt lat="-21.548105" lon="-48.796397999999996">
        <ele>552.0</ele>
        <time>2019-01-27T07:03:42-02:00</time>
      </trkpt>
      <trkpt lat="-21.54808666" lon="-48.796413">
        <ele>552.0</ele>
        <time>2019-01-27T07:03:43-02:00</time>
      </trkpt>
      <trkpt lat="-21.54806833" lon="-48.79642732999999">
        <ele>552.0</ele>
        <time>2019-01-27T07:03:44-02:00</time>
      </trkpt>
      <trkpt lat="-21.54804833" lon="-48.79644366000001">
        <ele>552.0</ele>
        <time>2019-01-27T07:03:45-02:00</time>
      </trkpt>
      <trkpt lat="-21.54803" lon="-48.79645632999999">
        <ele>552.0</ele>
        <time>2019-01-27T07:03:46-02:00</time>
      </trkpt>
      <trkpt lat="-21.548008330000002" lon="-48.79647332999999">
        <ele>552.0</ele>
        <time>2019-01-27T07:03:47-02:00</time>
      </trkpt>
      <trkpt lat="-21.54798833" lon="-48.79648966">
        <ele>552.0</ele>
        <time>2019-01-27T07:03:48-02:00</time>
      </trkpt>
      <trkpt lat="-21.547968329999996" lon="-48.79650366">
        <ele>552.0</ele>
        <time>2019-01-27T07:03:49-02:00</time>
      </trkpt>
      <trkpt lat="-21.54795" lon="-48.79651833">
        <ele>552.0</ele>
        <time>2019-01-27T07:03:50-02:00</time>
      </trkpt>
      <trkpt lat="-21.54793" lon="-48.796534">
        <ele>552.0</ele>
        <time>2019-01-27T07:03:51-02:00</time>
      </trkpt>
      <trkpt lat="-21.547908330000002" lon="-48.79654933">
        <ele>552.0</ele>
        <time>2019-01-27T07:03:52-02:00</time>
      </trkpt>
      <trkpt lat="-21.547891659999998" lon="-48.796562660000006">
        <ele>552.0</ele>
        <time>2019-01-27T07:03:53-02:00</time>
      </trkpt>
      <trkpt lat="-21.547871660000002" lon="-48.79657866000001">
        <ele>552.0</ele>
        <time>2019-01-27T07:03:54-02:00</time>
      </trkpt>
      <trkpt lat="-21.547853330000002" lon="-48.796593">
        <ele>552.0</ele>
        <time>2019-01-27T07:03:55-02:00</time>
      </trkpt>
      <trkpt lat="-21.547829999999998" lon="-48.79660966">
        <ele>552.0</ele>
        <time>2019-01-27T07:03:56-02:00</time>
      </trkpt>
      <trkpt lat="-21.54781333" lon="-48.796623">
        <ele>552.0</ele>
        <time>2019-01-27T07:03:57-02:00</time>
      </trkpt>
      <trkpt lat="-21.547795" lon="-48.79663766">
        <ele>552.0</ele>
        <time>2019-01-27T07:03:58-02:00</time>
      </trkpt>
      <trkpt lat="-21.547773330000005" lon="-48.79665466">
        <ele>552.0</ele>
        <time>2019-01-27T07:03:59-02:00</time>
      </trkpt>
      <trkpt lat="-21.547755" lon="-48.79666900000001">
        <ele>552.0</ele>
        <time>2019-01-27T07:04:00-02:00</time>
      </trkpt>
      <trkpt lat="-21.54773666" lon="-48.79668332999999">
        <ele>552.0</ele>
        <time>2019-01-27T07:04:01-02:00</time>
      </trkpt>
      <trkpt lat="-21.54771833" lon="-48.79669733000001">
        <ele>552.0</ele>
        <time>2019-01-27T07:04:02-02:00</time>
      </trkpt>
      <trkpt lat="-21.547698330000003" lon="-48.79671333">
        <ele>552.0</ele>
        <time>2019-01-27T07:04:03-02:00</time>
      </trkpt>
      <trkpt lat="-21.54768" lon="-48.796727660000016">
        <ele>552.0</ele>
        <time>2019-01-27T07:04:04-02:00</time>
      </trkpt>
      <trkpt lat="-21.54766" lon="-48.79674333">
        <ele>552.0</ele>
        <time>2019-01-27T07:04:05-02:00</time>
      </trkpt>
      <trkpt lat="-21.54764" lon="-48.79675933">
        <ele>552.0</ele>
        <time>2019-01-27T07:04:06-02:00</time>
      </trkpt>
      <trkpt lat="-21.547621659999997" lon="-48.79677366000001">
        <ele>552.0</ele>
        <time>2019-01-27T07:04:07-02:00</time>
      </trkpt>
      <trkpt lat="-21.547601660000005" lon="-48.796789659999995">
        <ele>552.0</ele>
        <time>2019-01-27T07:04:08-02:00</time>
      </trkpt>
      <trkpt lat="-21.547583330000002" lon="-48.79680200000001">
        <ele>552.0</ele>
        <time>2019-01-27T07:04:09-02:00</time>
      </trkpt>
      <trkpt lat="-21.547563330000003" lon="-48.79681733">
        <ele>552.0</ele>
        <time>2019-01-27T07:04:10-02:00</time>
      </trkpt>
      <trkpt lat="-21.547545" lon="-48.79683">
        <ele>552.0</ele>
        <time>2019-01-27T07:04:11-02:00</time>
      </trkpt>
      <trkpt lat="-21.547525" lon="-48.79684566000001">
        <ele>552.0</ele>
        <time>2019-01-27T07:04:12-02:00</time>
      </trkpt>
      <trkpt lat="-21.547506660000003" lon="-48.79685833">
        <ele>553.0</ele>
        <time>2019-01-27T07:04:13-02:00</time>
      </trkpt>
      <trkpt lat="-21.54748833" lon="-48.796872">
        <ele>553.0</ele>
        <time>2019-01-27T07:04:14-02:00</time>
      </trkpt>
      <trkpt lat="-21.54746833" lon="-48.79688599999999">
        <ele>553.0</ele>
        <time>2019-01-27T07:04:15-02:00</time>
      </trkpt>
      <trkpt lat="-21.547449999999998" lon="-48.79690033">
        <ele>553.0</ele>
        <time>2019-01-27T07:04:16-02:00</time>
      </trkpt>
      <trkpt lat="-21.54743" lon="-48.796915330000004">
        <ele>553.0</ele>
        <time>2019-01-27T07:04:17-02:00</time>
      </trkpt>
      <trkpt lat="-21.547413330000005" lon="-48.79692633">
        <ele>553.0</ele>
        <time>2019-01-27T07:04:18-02:00</time>
      </trkpt>
      <trkpt lat="-21.547395" lon="-48.796940000000006">
        <ele>553.0</ele>
        <time>2019-01-27T07:04:19-02:00</time>
      </trkpt>
      <trkpt lat="-21.547375000000002" lon="-48.79695533">
        <ele>553.0</ele>
        <time>2019-01-27T07:04:20-02:00</time>
      </trkpt>
      <trkpt lat="-21.54735666" lon="-48.79696933000001">
        <ele>553.0</ele>
        <time>2019-01-27T07:04:21-02:00</time>
      </trkpt>
      <trkpt lat="-21.547338330000002" lon="-48.796983329999996">
        <ele>553.0</ele>
        <time>2019-01-27T07:04:22-02:00</time>
      </trkpt>
      <trkpt lat="-21.54732" lon="-48.79699766">
        <ele>553.0</ele>
        <time>2019-01-27T07:04:23-02:00</time>
      </trkpt>
      <trkpt lat="-21.547303330000005" lon="-48.79700900000001">
        <ele>553.0</ele>
        <time>2019-01-27T07:04:24-02:00</time>
      </trkpt>
      <trkpt lat="-21.547285000000002" lon="-48.79702266">
        <ele>553.0</ele>
        <time>2019-01-27T07:04:25-02:00</time>
      </trkpt>
      <trkpt lat="-21.547268329999998" lon="-48.79703566000001">
        <ele>553.0</ele>
        <time>2019-01-27T07:04:26-02:00</time>
      </trkpt>
      <trkpt lat="-21.54725" lon="-48.797049660000006">
        <ele>553.0</ele>
        <time>2019-01-27T07:04:27-02:00</time>
      </trkpt>
      <trkpt lat="-21.54723166" lon="-48.797064">
        <ele>553.0</ele>
        <time>2019-01-27T07:04:28-02:00</time>
      </trkpt>
      <trkpt lat="-21.547211660000002" lon="-48.79707733">
        <ele>553.0</ele>
        <time>2019-01-27T07:04:29-02:00</time>
      </trkpt>
      <trkpt lat="-21.54719333" lon="-48.797091">
        <ele>553.0</ele>
        <time>2019-01-27T07:04:30-02:00</time>
      </trkpt>
      <trkpt lat="-21.547175" lon="-48.797104999999995">
        <ele>554.0</ele>
        <time>2019-01-27T07:04:31-02:00</time>
      </trkpt>
      <trkpt lat="-21.547156660000002" lon="-48.797119">
        <ele>554.0</ele>
        <time>2019-01-27T07:04:32-02:00</time>
      </trkpt>
      <trkpt lat="-21.547138330000003" lon="-48.79713266">
        <ele>554.0</ele>
        <time>2019-01-27T07:04:33-02:00</time>
      </trkpt>
      <trkpt lat="-21.547114999999998" lon="-48.797148660000005">
        <ele>554.0</ele>
        <time>2019-01-27T07:04:34-02:00</time>
      </trkpt>
      <trkpt lat="-21.547095" lon="-48.79716333">
        <ele>554.0</ele>
        <time>2019-01-27T07:04:35-02:00</time>
      </trkpt>
      <trkpt lat="-21.547075" lon="-48.79717632999999">
        <ele>554.0</ele>
        <time>2019-01-27T07:04:36-02:00</time>
      </trkpt>
      <trkpt lat="-21.547053330000004" lon="-48.79719032999999">
        <ele>554.0</ele>
        <time>2019-01-27T07:04:37-02:00</time>
      </trkpt>
      <trkpt lat="-21.547031660000002" lon="-48.79720266000001">
        <ele>554.0</ele>
        <time>2019-01-27T07:04:38-02:00</time>
      </trkpt>
      <trkpt lat="-21.54701166" lon="-48.79721500000001">
        <ele>554.0</ele>
        <time>2019-01-27T07:04:39-02:00</time>
      </trkpt>
      <trkpt lat="-21.546989999999997" lon="-48.79722866000001">
        <ele>554.0</ele>
        <time>2019-01-27T07:04:40-02:00</time>
      </trkpt>
      <trkpt lat="-21.54696833" lon="-48.79724033000001">
        <ele>554.0</ele>
        <time>2019-01-27T07:04:41-02:00</time>
      </trkpt>
      <trkpt lat="-21.546950000000002" lon="-48.79724966">
        <ele>554.0</ele>
        <time>2019-01-27T07:04:42-02:00</time>
      </trkpt>
      <trkpt lat="-21.54692833" lon="-48.79726266000001">
        <ele>554.0</ele>
        <time>2019-01-27T07:04:43-02:00</time>
      </trkpt>
      <trkpt lat="-21.546909999999997" lon="-48.79727166000001">
        <ele>554.0</ele>
        <time>2019-01-27T07:04:44-02:00</time>
      </trkpt>
      <trkpt lat="-21.54688833" lon="-48.797282329999994">
        <ele>554.0</ele>
        <time>2019-01-27T07:04:45-02:00</time>
      </trkpt>
      <trkpt lat="-21.546868330000002" lon="-48.79729233">
        <ele>554.0</ele>
        <time>2019-01-27T07:04:46-02:00</time>
      </trkpt>
      <trkpt lat="-21.546845" lon="-48.797304000000004">
        <ele>554.0</ele>
        <time>2019-01-27T07:04:47-02:00</time>
      </trkpt>
      <trkpt lat="-21.546823330000002" lon="-48.79731433">
        <ele>554.0</ele>
        <time>2019-01-27T07:04:48-02:00</time>
      </trkpt>
      <trkpt lat="-21.546803330000003" lon="-48.79732366000001">
        <ele>554.0</ele>
        <time>2019-01-27T07:04:49-02:00</time>
      </trkpt>
      <trkpt lat="-21.54678166" lon="-48.79733166">
        <ele>554.0</ele>
        <time>2019-01-27T07:04:50-02:00</time>
      </trkpt>
      <trkpt lat="-21.546763330000005" lon="-48.79733933000001">
        <ele>554.0</ele>
        <time>2019-01-27T07:04:51-02:00</time>
      </trkpt>
      <trkpt lat="-21.546743329999998" lon="-48.797348">
        <ele>554.0</ele>
        <time>2019-01-27T07:04:52-02:00</time>
      </trkpt>
      <trkpt lat="-21.546721660000003" lon="-48.79735599999999">
        <ele>554.0</ele>
        <time>2019-01-27T07:04:53-02:00</time>
      </trkpt>
      <trkpt lat="-21.5467" lon="-48.797365000000006">
        <ele>554.0</ele>
        <time>2019-01-27T07:04:54-02:00</time>
      </trkpt>
      <trkpt lat="-21.546676660000003" lon="-48.79737332999999">
        <ele>554.0</ele>
        <time>2019-01-27T07:04:55-02:00</time>
      </trkpt>
      <trkpt lat="-21.546655" lon="-48.79738233">
        <ele>554.0</ele>
        <time>2019-01-27T07:04:56-02:00</time>
      </trkpt>
      <trkpt lat="-21.54663333" lon="-48.79738866000001">
        <ele>554.0</ele>
        <time>2019-01-27T07:04:57-02:00</time>
      </trkpt>
      <trkpt lat="-21.546614999999996" lon="-48.79739332999999">
        <ele>555.0</ele>
        <time>2019-01-27T07:04:58-02:00</time>
      </trkpt>
      <trkpt lat="-21.546595000000003" lon="-48.79740066000001">
        <ele>555.0</ele>
        <time>2019-01-27T07:04:59-02:00</time>
      </trkpt>
      <trkpt lat="-21.54657666" lon="-48.797405">
        <ele>555.0</ele>
        <time>2019-01-27T07:05:00-02:00</time>
      </trkpt>
      <trkpt lat="-21.546554999999998" lon="-48.797413660000004">
        <ele>555.0</ele>
        <time>2019-01-27T07:05:01-02:00</time>
      </trkpt>
      <trkpt lat="-21.546535" lon="-48.797419000000005">
        <ele>555.0</ele>
        <time>2019-01-27T07:05:02-02:00</time>
      </trkpt>
      <trkpt lat="-21.546515" lon="-48.797425999999994">
        <ele>555.0</ele>
        <time>2019-01-27T07:05:03-02:00</time>
      </trkpt>
      <trkpt lat="-21.546493330000004" lon="-48.797434">
        <ele>555.0</ele>
        <time>2019-01-27T07:05:04-02:00</time>
      </trkpt>
      <trkpt lat="-21.546473329999998" lon="-48.797439">
        <ele>555.0</ele>
        <time>2019-01-27T07:05:05-02:00</time>
      </trkpt>
      <trkpt lat="-21.54645333" lon="-48.79744566000001">
        <ele>555.0</ele>
        <time>2019-01-27T07:05:06-02:00</time>
      </trkpt>
      <trkpt lat="-21.54643333" lon="-48.79745266000001">
        <ele>556.0</ele>
        <time>2019-01-27T07:05:07-02:00</time>
      </trkpt>
      <trkpt lat="-21.546411660000004" lon="-48.79745966">
        <ele>556.0</ele>
        <time>2019-01-27T07:05:08-02:00</time>
      </trkpt>
      <trkpt lat="-21.54639166" lon="-48.79746633">
        <ele>556.0</ele>
        <time>2019-01-27T07:05:09-02:00</time>
      </trkpt>
      <trkpt lat="-21.54637166" lon="-48.797472">
        <ele>556.0</ele>
        <time>2019-01-27T07:05:10-02:00</time>
      </trkpt>
      <trkpt lat="-21.546351660000006" lon="-48.79748033">
        <ele>556.0</ele>
        <time>2019-01-27T07:05:11-02:00</time>
      </trkpt>
      <trkpt lat="-21.546329999999998" lon="-48.797487000000004">
        <ele>556.0</ele>
        <time>2019-01-27T07:05:12-02:00</time>
      </trkpt>
      <trkpt lat="-21.546310000000002" lon="-48.79749466">
        <ele>556.0</ele>
        <time>2019-01-27T07:05:13-02:00</time>
      </trkpt>
      <trkpt lat="-21.546293329999997" lon="-48.797501">
        <ele>556.0</ele>
        <time>2019-01-27T07:05:14-02:00</time>
      </trkpt>
      <trkpt lat="-21.546275" lon="-48.797508">
        <ele>556.0</ele>
        <time>2019-01-27T07:05:15-02:00</time>
      </trkpt>
      <trkpt lat="-21.546256660000005" lon="-48.79751466">
        <ele>556.0</ele>
        <time>2019-01-27T07:05:16-02:00</time>
      </trkpt>
      <trkpt lat="-21.546236660000005" lon="-48.79752233000001">
        <ele>556.0</ele>
        <time>2019-01-27T07:05:17-02:00</time>
      </trkpt>
      <trkpt lat="-21.546218330000002" lon="-48.797531">
        <ele>557.0</ele>
        <time>2019-01-27T07:05:18-02:00</time>
      </trkpt>
      <trkpt lat="-21.5462" lon="-48.79754">
        <ele>557.0</ele>
        <time>2019-01-27T07:05:19-02:00</time>
      </trkpt>
      <trkpt lat="-21.546181660000002" lon="-48.79754666000001">
        <ele>557.0</ele>
        <time>2019-01-27T07:05:20-02:00</time>
      </trkpt>
      <trkpt lat="-21.546165000000002" lon="-48.797554330000004">
        <ele>557.0</ele>
        <time>2019-01-27T07:05:21-02:00</time>
      </trkpt>
      <trkpt lat="-21.546146660000005" lon="-48.797565000000006">
        <ele>557.0</ele>
        <time>2019-01-27T07:05:22-02:00</time>
      </trkpt>
      <trkpt lat="-21.546129999999998" lon="-48.797574659999995">
        <ele>558.0</ele>
        <time>2019-01-27T07:05:23-02:00</time>
      </trkpt>
      <trkpt lat="-21.546113329999997" lon="-48.79758233">
        <ele>558.0</ele>
        <time>2019-01-27T07:05:24-02:00</time>
      </trkpt>
      <trkpt lat="-21.546096660000003" lon="-48.797592">
        <ele>558.0</ele>
        <time>2019-01-27T07:05:25-02:00</time>
      </trkpt>
      <trkpt lat="-21.546079999999996" lon="-48.797602">
        <ele>558.0</ele>
        <time>2019-01-27T07:05:26-02:00</time>
      </trkpt>
      <trkpt lat="-21.546063330000003" lon="-48.797612">
        <ele>558.0</ele>
        <time>2019-01-27T07:05:27-02:00</time>
      </trkpt>
      <trkpt lat="-21.546045000000003" lon="-48.79762266000001">
        <ele>558.0</ele>
        <time>2019-01-27T07:05:28-02:00</time>
      </trkpt>
      <trkpt lat="-21.54602833" lon="-48.79763465999999">
        <ele>558.0</ele>
        <time>2019-01-27T07:05:29-02:00</time>
      </trkpt>
      <trkpt lat="-21.54601333" lon="-48.79764566">
        <ele>559.0</ele>
        <time>2019-01-27T07:05:30-02:00</time>
      </trkpt>
      <trkpt lat="-21.545998330000003" lon="-48.79765566">
        <ele>559.0</ele>
        <time>2019-01-27T07:05:31-02:00</time>
      </trkpt>
      <trkpt lat="-21.54598" lon="-48.79766866">
        <ele>559.0</ele>
        <time>2019-01-27T07:05:32-02:00</time>
      </trkpt>
      <trkpt lat="-21.545965000000002" lon="-48.79768166">
        <ele>559.0</ele>
        <time>2019-01-27T07:05:33-02:00</time>
      </trkpt>
      <trkpt lat="-21.54595" lon="-48.797693329999994">
        <ele>559.0</ele>
        <time>2019-01-27T07:05:34-02:00</time>
      </trkpt>
      <trkpt lat="-21.545933329999997" lon="-48.797707329999994">
        <ele>559.0</ele>
        <time>2019-01-27T07:05:35-02:00</time>
      </trkpt>
      <trkpt lat="-21.54591833" lon="-48.79771900000001">
        <ele>559.0</ele>
        <time>2019-01-27T07:05:36-02:00</time>
      </trkpt>
      <trkpt lat="-21.54590333" lon="-48.79773299999999">
        <ele>559.0</ele>
        <time>2019-01-27T07:05:37-02:00</time>
      </trkpt>
      <trkpt lat="-21.545888330000004" lon="-48.79774666">
        <ele>559.0</ele>
        <time>2019-01-27T07:05:38-02:00</time>
      </trkpt>
      <trkpt lat="-21.545871660000003" lon="-48.79776132999999">
        <ele>559.0</ele>
        <time>2019-01-27T07:05:39-02:00</time>
      </trkpt>
      <trkpt lat="-21.54585333" lon="-48.79777666">
        <ele>559.0</ele>
        <time>2019-01-27T07:05:40-02:00</time>
      </trkpt>
      <trkpt lat="-21.54583666" lon="-48.79778966">
        <ele>559.0</ele>
        <time>2019-01-27T07:05:41-02:00</time>
      </trkpt>
      <trkpt lat="-21.545825" lon="-48.797800660000014">
        <ele>559.0</ele>
        <time>2019-01-27T07:05:42-02:00</time>
      </trkpt>
      <trkpt lat="-21.54582" lon="-48.79779832999999">
        <ele>559.0</ele>
        <time>2019-01-27T07:05:43-02:00</time>
      </trkpt>
      <trkpt lat="-21.54582333" lon="-48.79777633">
        <ele>559.0</ele>
        <time>2019-01-27T07:05:44-02:00</time>
      </trkpt>
      <trkpt lat="-21.54582833" lon="-48.797752660000015">
        <ele>559.0</ele>
        <time>2019-01-27T07:05:45-02:00</time>
      </trkpt>
      <trkpt lat="-21.545829999999995" lon="-48.79773166000001">
        <ele>559.0</ele>
        <time>2019-01-27T07:05:46-02:00</time>
      </trkpt>
      <trkpt lat="-21.54583333" lon="-48.79770666">
        <ele>559.0</ele>
        <time>2019-01-27T07:05:47-02:00</time>
      </trkpt>
      <trkpt lat="-21.54583366" lon="-48.79768166">
        <ele>559.0</ele>
        <time>2019-01-27T07:05:48-02:00</time>
      </trkpt>
      <trkpt lat="-21.54583366" lon="-48.79765833">
        <ele>559.0</ele>
        <time>2019-01-27T07:05:49-02:00</time>
      </trkpt>
      <trkpt lat="-21.545833" lon="-48.79763333">
        <ele>559.0</ele>
        <time>2019-01-27T07:05:50-02:00</time>
      </trkpt>
      <trkpt lat="-21.545831" lon="-48.79761166">
        <ele>559.0</ele>
        <time>2019-01-27T07:05:51-02:00</time>
      </trkpt>
      <trkpt lat="-21.54582833" lon="-48.797588329999996">
        <ele>559.0</ele>
        <time>2019-01-27T07:05:52-02:00</time>
      </trkpt>
      <trkpt lat="-21.545824330000006" lon="-48.797565000000006">
        <ele>559.0</ele>
        <time>2019-01-27T07:05:53-02:00</time>
      </trkpt>
      <trkpt lat="-21.54582" lon="-48.79754166000001">
        <ele>560.0</ele>
        <time>2019-01-27T07:05:54-02:00</time>
      </trkpt>
      <trkpt lat="-21.545814330000002" lon="-48.79751666">
        <ele>560.0</ele>
        <time>2019-01-27T07:05:55-02:00</time>
      </trkpt>
      <trkpt lat="-21.54580866" lon="-48.797493329999995">
        <ele>560.0</ele>
        <time>2019-01-27T07:05:56-02:00</time>
      </trkpt>
      <trkpt lat="-21.545801330000003" lon="-48.797470000000004">
        <ele>560.0</ele>
        <time>2019-01-27T07:05:57-02:00</time>
      </trkpt>
      <trkpt lat="-21.545793659999998" lon="-48.797448329999995">
        <ele>560.0</ele>
        <time>2019-01-27T07:05:58-02:00</time>
      </trkpt>
      <trkpt lat="-21.54578433" lon="-48.79742832999999">
        <ele>560.0</ele>
        <time>2019-01-27T07:05:59-02:00</time>
      </trkpt>
      <trkpt lat="-21.54577466" lon="-48.79740832999999">
        <ele>560.0</ele>
        <time>2019-01-27T07:06:00-02:00</time>
      </trkpt>
      <trkpt lat="-21.545762999999997" lon="-48.79738666">
        <ele>560.0</ele>
        <time>2019-01-27T07:06:01-02:00</time>
      </trkpt>
      <trkpt lat="-21.54575133000001" lon="-48.79736666">
        <ele>560.0</ele>
        <time>2019-01-27T07:06:02-02:00</time>
      </trkpt>
      <trkpt lat="-21.545739330000007" lon="-48.79734666">
        <ele>560.0</ele>
        <time>2019-01-27T07:06:03-02:00</time>
      </trkpt>
      <trkpt lat="-21.545727999999993" lon="-48.797333329999994">
        <ele>560.0</ele>
        <time>2019-01-27T07:06:04-02:00</time>
      </trkpt>
      <trkpt lat="-21.545715660000003" lon="-48.79732166">
        <ele>560.0</ele>
        <time>2019-01-27T07:06:05-02:00</time>
      </trkpt>
      <trkpt lat="-21.54565333" lon="-48.79730833">
        <ele>560.0</ele>
        <time>2019-01-27T07:06:06-02:00</time>
      </trkpt>
      <trkpt lat="-21.545611660000002" lon="-48.79727832999999">
        <ele>560.0</ele>
        <time>2019-01-27T07:06:07-02:00</time>
      </trkpt>
      <trkpt lat="-21.54559166" lon="-48.797264999999996">
        <ele>560.0</ele>
        <time>2019-01-27T07:06:08-02:00</time>
      </trkpt>
      <trkpt lat="-21.545569999999998" lon="-48.79725266000001">
        <ele>560.0</ele>
        <time>2019-01-27T07:06:09-02:00</time>
      </trkpt>
      <trkpt lat="-21.54555" lon="-48.79724133">
        <ele>560.0</ele>
        <time>2019-01-27T07:06:10-02:00</time>
      </trkpt>
      <trkpt lat="-21.54553166" lon="-48.79722566000002">
        <ele>560.0</ele>
        <time>2019-01-27T07:06:11-02:00</time>
      </trkpt>
      <trkpt lat="-21.545515" lon="-48.797207660000005">
        <ele>560.0</ele>
        <time>2019-01-27T07:06:12-02:00</time>
      </trkpt>
      <trkpt lat="-21.5455" lon="-48.79719133">
        <ele>560.0</ele>
        <time>2019-01-27T07:06:13-02:00</time>
      </trkpt>
      <trkpt lat="-21.545483329999996" lon="-48.797171">
        <ele>560.0</ele>
        <time>2019-01-27T07:06:14-02:00</time>
      </trkpt>
      <trkpt lat="-21.54546833" lon="-48.79715166">
        <ele>560.0</ele>
        <time>2019-01-27T07:06:15-02:00</time>
      </trkpt>
      <trkpt lat="-21.54545" lon="-48.797118329999996">
        <ele>560.0</ele>
        <time>2019-01-27T07:06:16-02:00</time>
      </trkpt>
      <trkpt lat="-21.54543666" lon="-48.79709666000001">
        <ele>561.0</ele>
        <time>2019-01-27T07:06:17-02:00</time>
      </trkpt>
      <trkpt lat="-21.545420330000002" lon="-48.79707499999999">
        <ele>561.0</ele>
        <time>2019-01-27T07:06:18-02:00</time>
      </trkpt>
      <trkpt lat="-21.54540566" lon="-48.797055">
        <ele>561.0</ele>
        <time>2019-01-27T07:06:19-02:00</time>
      </trkpt>
      <trkpt lat="-21.54539166" lon="-48.79703166">
        <ele>561.0</ele>
        <time>2019-01-27T07:06:20-02:00</time>
      </trkpt>
      <trkpt lat="-21.545378659999997" lon="-48.797009999999986">
        <ele>561.0</ele>
        <time>2019-01-27T07:06:21-02:00</time>
      </trkpt>
      <trkpt lat="-21.545366330000007" lon="-48.796988330000005">
        <ele>561.0</ele>
        <time>2019-01-27T07:06:22-02:00</time>
      </trkpt>
      <trkpt lat="-21.545353330000005" lon="-48.796965">
        <ele>561.0</ele>
        <time>2019-01-27T07:06:23-02:00</time>
      </trkpt>
      <trkpt lat="-21.545341330000003" lon="-48.796941659999995">
        <ele>561.0</ele>
        <time>2019-01-27T07:06:24-02:00</time>
      </trkpt>
      <trkpt lat="-21.545329329999998" lon="-48.79691833">
        <ele>561.0</ele>
        <time>2019-01-27T07:06:25-02:00</time>
      </trkpt>
      <trkpt lat="-21.545317000000004" lon="-48.79689166">
        <ele>561.0</ele>
        <time>2019-01-27T07:06:26-02:00</time>
      </trkpt>
      <trkpt lat="-21.54530733" lon="-48.79687">
        <ele>561.0</ele>
        <time>2019-01-27T07:06:27-02:00</time>
      </trkpt>
      <trkpt lat="-21.545296999999998" lon="-48.79684666">
        <ele>561.0</ele>
        <time>2019-01-27T07:06:28-02:00</time>
      </trkpt>
      <trkpt lat="-21.54528733" lon="-48.796821660000006">
        <ele>561.0</ele>
        <time>2019-01-27T07:06:29-02:00</time>
      </trkpt>
      <trkpt lat="-21.545279" lon="-48.796796660000005">
        <ele>561.0</ele>
        <time>2019-01-27T07:06:30-02:00</time>
      </trkpt>
      <trkpt lat="-21.54527066" lon="-48.79677">
        <ele>561.0</ele>
        <time>2019-01-27T07:06:31-02:00</time>
      </trkpt>
      <trkpt lat="-21.54526533" lon="-48.79674666000001">
        <ele>561.0</ele>
        <time>2019-01-27T07:06:32-02:00</time>
      </trkpt>
      <trkpt lat="-21.545258999999994" lon="-48.796724999999995">
        <ele>561.0</ele>
        <time>2019-01-27T07:06:33-02:00</time>
      </trkpt>
      <trkpt lat="-21.545252999999995" lon="-48.79670666">
        <ele>561.0</ele>
        <time>2019-01-27T07:06:34-02:00</time>
      </trkpt>
      <trkpt lat="-21.545247330000002" lon="-48.79669333">
        <ele>561.0</ele>
        <time>2019-01-27T07:06:35-02:00</time>
      </trkpt>
      <trkpt lat="-21.545239" lon="-48.796679999999995">
        <ele>561.0</ele>
        <time>2019-01-27T07:06:36-02:00</time>
      </trkpt>
      <trkpt lat="-21.54520833" lon="-48.796665000000004">
        <ele>561.0</ele>
        <time>2019-01-27T07:06:37-02:00</time>
      </trkpt>
      <trkpt lat="-21.545188330000002" lon="-48.79665">
        <ele>561.0</ele>
        <time>2019-01-27T07:06:38-02:00</time>
      </trkpt>
      <trkpt lat="-21.545170000000002" lon="-48.79663166">
        <ele>561.0</ele>
        <time>2019-01-27T07:06:39-02:00</time>
      </trkpt>
      <trkpt lat="-21.54515266" lon="-48.796611659999996">
        <ele>561.0</ele>
        <time>2019-01-27T07:06:40-02:00</time>
      </trkpt>
      <trkpt lat="-21.545137330000003" lon="-48.79659166">
        <ele>561.0</ele>
        <time>2019-01-27T07:06:41-02:00</time>
      </trkpt>
      <trkpt lat="-21.54512533" lon="-48.79656832999999">
        <ele>561.0</ele>
        <time>2019-01-27T07:06:42-02:00</time>
      </trkpt>
      <trkpt lat="-21.545115330000005" lon="-48.796543330000006">
        <ele>561.0</ele>
        <time>2019-01-27T07:06:43-02:00</time>
      </trkpt>
      <trkpt lat="-21.545108" lon="-48.796516659999995">
        <ele>561.0</ele>
        <time>2019-01-27T07:06:44-02:00</time>
      </trkpt>
      <trkpt lat="-21.545104000000002" lon="-48.79649166">
        <ele>561.0</ele>
        <time>2019-01-27T07:06:45-02:00</time>
      </trkpt>
      <trkpt lat="-21.545111660000003" lon="-48.796463329999995">
        <ele>561.0</ele>
        <time>2019-01-27T07:06:46-02:00</time>
      </trkpt>
      <trkpt lat="-21.545108329999998" lon="-48.79643833">
        <ele>561.0</ele>
        <time>2019-01-27T07:06:47-02:00</time>
      </trkpt>
      <trkpt lat="-21.545105" lon="-48.79641166">
        <ele>560.0</ele>
        <time>2019-01-27T07:06:48-02:00</time>
      </trkpt>
      <trkpt lat="-21.545100660000003" lon="-48.79638833">
        <ele>560.0</ele>
        <time>2019-01-27T07:06:49-02:00</time>
      </trkpt>
      <trkpt lat="-21.545095659999998" lon="-48.79636166">
        <ele>560.0</ele>
        <time>2019-01-27T07:06:50-02:00</time>
      </trkpt>
      <trkpt lat="-21.54509066" lon="-48.796335">
        <ele>560.0</ele>
        <time>2019-01-27T07:06:51-02:00</time>
      </trkpt>
      <trkpt lat="-21.545086330000004" lon="-48.79630666">
        <ele>560.0</ele>
        <time>2019-01-27T07:06:52-02:00</time>
      </trkpt>
      <trkpt lat="-21.545081660000005" lon="-48.79627832999999">
        <ele>560.0</ele>
        <time>2019-01-27T07:06:53-02:00</time>
      </trkpt>
      <trkpt lat="-21.545077659999997" lon="-48.796251659999996">
        <ele>560.0</ele>
        <time>2019-01-27T07:06:54-02:00</time>
      </trkpt>
      <trkpt lat="-21.545073330000005" lon="-48.79622833">
        <ele>560.0</ele>
        <time>2019-01-27T07:06:55-02:00</time>
      </trkpt>
      <trkpt lat="-21.545068330000003" lon="-48.79620166000001">
        <ele>560.0</ele>
        <time>2019-01-27T07:06:56-02:00</time>
      </trkpt>
      <trkpt lat="-21.54506266" lon="-48.79617333">
        <ele>560.0</ele>
        <time>2019-01-27T07:06:57-02:00</time>
      </trkpt>
      <trkpt lat="-21.545057000000003" lon="-48.79614500000001">
        <ele>560.0</ele>
        <time>2019-01-27T07:06:58-02:00</time>
      </trkpt>
      <trkpt lat="-21.545050999999997" lon="-48.796116659999996">
        <ele>560.0</ele>
        <time>2019-01-27T07:06:59-02:00</time>
      </trkpt>
      <trkpt lat="-21.54504566" lon="-48.79608666">
        <ele>559.0</ele>
        <time>2019-01-27T07:07:00-02:00</time>
      </trkpt>
      <trkpt lat="-21.54504233" lon="-48.79606166">
        <ele>559.0</ele>
        <time>2019-01-27T07:07:01-02:00</time>
      </trkpt>
      <trkpt lat="-21.545037999999995" lon="-48.796038329999995">
        <ele>559.0</ele>
        <time>2019-01-27T07:07:02-02:00</time>
      </trkpt>
      <trkpt lat="-21.545035" lon="-48.79601333000001">
        <ele>559.0</ele>
        <time>2019-01-27T07:07:03-02:00</time>
      </trkpt>
      <trkpt lat="-21.545031330000008" lon="-48.795985">
        <ele>559.0</ele>
        <time>2019-01-27T07:07:04-02:00</time>
      </trkpt>
      <trkpt lat="-21.54502766" lon="-48.795955000000006">
        <ele>559.0</ele>
        <time>2019-01-27T07:07:05-02:00</time>
      </trkpt>
      <trkpt lat="-21.545023330000003" lon="-48.795928329999995">
        <ele>559.0</ele>
        <time>2019-01-27T07:07:06-02:00</time>
      </trkpt>
      <trkpt lat="-21.545019659999998" lon="-48.7959">
        <ele>559.0</ele>
        <time>2019-01-27T07:07:07-02:00</time>
      </trkpt>
      <trkpt lat="-21.545014000000002" lon="-48.79587332999999">
        <ele>559.0</ele>
        <time>2019-01-27T07:07:08-02:00</time>
      </trkpt>
      <trkpt lat="-21.54501" lon="-48.79584832999999">
        <ele>559.0</ele>
        <time>2019-01-27T07:07:09-02:00</time>
      </trkpt>
      <trkpt lat="-21.545004999999996" lon="-48.795820000000006">
        <ele>559.0</ele>
        <time>2019-01-27T07:07:10-02:00</time>
      </trkpt>
      <trkpt lat="-21.544999660000002" lon="-48.795795">
        <ele>559.0</ele>
        <time>2019-01-27T07:07:11-02:00</time>
      </trkpt>
      <trkpt lat="-21.544995000000004" lon="-48.79576833">
        <ele>559.0</ele>
        <time>2019-01-27T07:07:12-02:00</time>
      </trkpt>
      <trkpt lat="-21.54499" lon="-48.795741660000004">
        <ele>559.0</ele>
        <time>2019-01-27T07:07:13-02:00</time>
      </trkpt>
      <trkpt lat="-21.54498566" lon="-48.795715">
        <ele>559.0</ele>
        <time>2019-01-27T07:07:14-02:00</time>
      </trkpt>
      <trkpt lat="-21.544981330000002" lon="-48.79569">
        <ele>559.0</ele>
        <time>2019-01-27T07:07:15-02:00</time>
      </trkpt>
      <trkpt lat="-21.544976660000003" lon="-48.79566333">
        <ele>559.0</ele>
        <time>2019-01-27T07:07:16-02:00</time>
      </trkpt>
      <trkpt lat="-21.544970330000005" lon="-48.79563499999999">
        <ele>559.0</ele>
        <time>2019-01-27T07:07:17-02:00</time>
      </trkpt>
      <trkpt lat="-21.544967000000003" lon="-48.795606660000004">
        <ele>559.0</ele>
        <time>2019-01-27T07:07:18-02:00</time>
      </trkpt>
      <trkpt lat="-21.54496066" lon="-48.79558">
        <ele>559.0</ele>
        <time>2019-01-27T07:07:19-02:00</time>
      </trkpt>
      <trkpt lat="-21.54495566" lon="-48.795550000000006">
        <ele>559.0</ele>
        <time>2019-01-27T07:07:20-02:00</time>
      </trkpt>
      <trkpt lat="-21.54495033" lon="-48.79552">
        <ele>559.0</ele>
        <time>2019-01-27T07:07:21-02:00</time>
      </trkpt>
      <trkpt lat="-21.544945660000003" lon="-48.795491659999996">
        <ele>559.0</ele>
        <time>2019-01-27T07:07:22-02:00</time>
      </trkpt>
      <trkpt lat="-21.54494066" lon="-48.795463330000004">
        <ele>559.0</ele>
        <time>2019-01-27T07:07:23-02:00</time>
      </trkpt>
      <trkpt lat="-21.544936330000006" lon="-48.79543665999999">
        <ele>559.0</ele>
        <time>2019-01-27T07:07:24-02:00</time>
      </trkpt>
      <trkpt lat="-21.544931330000004" lon="-48.79540999999999">
        <ele>559.0</ele>
        <time>2019-01-27T07:07:25-02:00</time>
      </trkpt>
      <trkpt lat="-21.544927" lon="-48.795384999999996">
        <ele>559.0</ele>
        <time>2019-01-27T07:07:26-02:00</time>
      </trkpt>
      <trkpt lat="-21.54492233" lon="-48.79535833">
        <ele>559.0</ele>
        <time>2019-01-27T07:07:27-02:00</time>
      </trkpt>
      <trkpt lat="-21.544917329999997" lon="-48.79533166">
        <ele>559.0</ele>
        <time>2019-01-27T07:07:28-02:00</time>
      </trkpt>
      <trkpt lat="-21.544912999999998" lon="-48.79530666000001">
        <ele>559.0</ele>
        <time>2019-01-27T07:07:29-02:00</time>
      </trkpt>
      <trkpt lat="-21.544908999999997" lon="-48.79528333">
        <ele>559.0</ele>
        <time>2019-01-27T07:07:30-02:00</time>
      </trkpt>
      <trkpt lat="-21.544901660000004" lon="-48.79525665999999">
        <ele>559.0</ele>
        <time>2019-01-27T07:07:31-02:00</time>
      </trkpt>
      <trkpt lat="-21.544897000000006" lon="-48.79522999999999">
        <ele>559.0</ele>
        <time>2019-01-27T07:07:32-02:00</time>
      </trkpt>
      <trkpt lat="-21.544892659999995" lon="-48.79520332999999">
        <ele>558.0</ele>
        <time>2019-01-27T07:07:33-02:00</time>
      </trkpt>
      <trkpt lat="-21.54488766" lon="-48.79517833">
        <ele>558.0</ele>
        <time>2019-01-27T07:07:34-02:00</time>
      </trkpt>
      <trkpt lat="-21.544883" lon="-48.79515166">
        <ele>558.0</ele>
        <time>2019-01-27T07:07:35-02:00</time>
      </trkpt>
      <trkpt lat="-21.544878" lon="-48.795125">
        <ele>558.0</ele>
        <time>2019-01-27T07:07:36-02:00</time>
      </trkpt>
      <trkpt lat="-21.54487333" lon="-48.79509832999999">
        <ele>558.0</ele>
        <time>2019-01-27T07:07:37-02:00</time>
      </trkpt>
      <trkpt lat="-21.544866330000005" lon="-48.795073329999994">
        <ele>558.0</ele>
        <time>2019-01-27T07:07:38-02:00</time>
      </trkpt>
      <trkpt lat="-21.544861" lon="-48.795045">
        <ele>558.0</ele>
        <time>2019-01-27T07:07:39-02:00</time>
      </trkpt>
      <trkpt lat="-21.54485633" lon="-48.795018330000005">
        <ele>558.0</ele>
        <time>2019-01-27T07:07:40-02:00</time>
      </trkpt>
      <trkpt lat="-21.544851660000003" lon="-48.79499333">
        <ele>558.0</ele>
        <time>2019-01-27T07:07:41-02:00</time>
      </trkpt>
      <trkpt lat="-21.54484666" lon="-48.79496666">
        <ele>558.0</ele>
        <time>2019-01-27T07:07:42-02:00</time>
      </trkpt>
      <trkpt lat="-21.544839330000006" lon="-48.794938329999994">
        <ele>558.0</ele>
        <time>2019-01-27T07:07:43-02:00</time>
      </trkpt>
      <trkpt lat="-21.54483466" lon="-48.79491333">
        <ele>558.0</ele>
        <time>2019-01-27T07:07:44-02:00</time>
      </trkpt>
      <trkpt lat="-21.544829659999998" lon="-48.79488666">
        <ele>558.0</ele>
        <time>2019-01-27T07:07:45-02:00</time>
      </trkpt>
      <trkpt lat="-21.544825" lon="-48.79486">
        <ele>558.0</ele>
        <time>2019-01-27T07:07:46-02:00</time>
      </trkpt>
      <trkpt lat="-21.54482033" lon="-48.794835">
        <ele>558.0</ele>
        <time>2019-01-27T07:07:47-02:00</time>
      </trkpt>
      <trkpt lat="-21.544816" lon="-48.79481">
        <ele>558.0</ele>
        <time>2019-01-27T07:07:48-02:00</time>
      </trkpt>
      <trkpt lat="-21.544811" lon="-48.79478332999999">
        <ele>558.0</ele>
        <time>2019-01-27T07:07:49-02:00</time>
      </trkpt>
      <trkpt lat="-21.544803999999992" lon="-48.79475832999999">
        <ele>558.0</ele>
        <time>2019-01-27T07:07:50-02:00</time>
      </trkpt>
      <trkpt lat="-21.544798999999998" lon="-48.79473166000001">
        <ele>558.0</ele>
        <time>2019-01-27T07:07:51-02:00</time>
      </trkpt>
      <trkpt lat="-21.544794659999997" lon="-48.79470666">
        <ele>558.0</ele>
        <time>2019-01-27T07:07:52-02:00</time>
      </trkpt>
      <trkpt lat="-21.54478966" lon="-48.79468">
        <ele>558.0</ele>
        <time>2019-01-27T07:07:53-02:00</time>
      </trkpt>
      <trkpt lat="-21.544785" lon="-48.79465666">
        <ele>558.0</ele>
        <time>2019-01-27T07:07:54-02:00</time>
      </trkpt>
      <trkpt lat="-21.54478" lon="-48.79463">
        <ele>558.0</ele>
        <time>2019-01-27T07:07:55-02:00</time>
      </trkpt>
      <trkpt lat="-21.544774999999998" lon="-48.79460499999999">
        <ele>558.0</ele>
        <time>2019-01-27T07:07:56-02:00</time>
      </trkpt>
      <trkpt lat="-21.544769659999996" lon="-48.79457832999999">
        <ele>558.0</ele>
        <time>2019-01-27T07:07:57-02:00</time>
      </trkpt>
      <trkpt lat="-21.544764999999998" lon="-48.79455333">
        <ele>558.0</ele>
        <time>2019-01-27T07:07:58-02:00</time>
      </trkpt>
      <trkpt lat="-21.544760000000004" lon="-48.79452666">
        <ele>558.0</ele>
        <time>2019-01-27T07:07:59-02:00</time>
      </trkpt>
      <trkpt lat="-21.54475466" lon="-48.794498329999996">
        <ele>558.0</ele>
        <time>2019-01-27T07:08:00-02:00</time>
      </trkpt>
      <trkpt lat="-21.54475" lon="-48.794473329999995">
        <ele>558.0</ele>
        <time>2019-01-27T07:08:01-02:00</time>
      </trkpt>
      <trkpt lat="-21.54474533" lon="-48.794446660000006">
        <ele>558.0</ele>
        <time>2019-01-27T07:08:02-02:00</time>
      </trkpt>
      <trkpt lat="-21.544739999999997" lon="-48.79442">
        <ele>558.0</ele>
        <time>2019-01-27T07:08:03-02:00</time>
      </trkpt>
      <trkpt lat="-21.544735" lon="-48.794393330000005">
        <ele>558.0</ele>
        <time>2019-01-27T07:08:04-02:00</time>
      </trkpt>
      <trkpt lat="-21.544729999999998" lon="-48.794366659999994">
        <ele>558.0</ele>
        <time>2019-01-27T07:08:05-02:00</time>
      </trkpt>
      <trkpt lat="-21.544725330000006" lon="-48.79434166">
        <ele>558.0</ele>
        <time>2019-01-27T07:08:06-02:00</time>
      </trkpt>
      <trkpt lat="-21.54471933" lon="-48.794309999999996">
        <ele>558.0</ele>
        <time>2019-01-27T07:08:07-02:00</time>
      </trkpt>
      <trkpt lat="-21.544713660000003" lon="-48.79428">
        <ele>558.0</ele>
        <time>2019-01-27T07:08:08-02:00</time>
      </trkpt>
      <trkpt lat="-21.544708330000002" lon="-48.79425">
        <ele>558.0</ele>
        <time>2019-01-27T07:08:09-02:00</time>
      </trkpt>
      <trkpt lat="-21.54470366" lon="-48.794225">
        <ele>558.0</ele>
        <time>2019-01-27T07:08:10-02:00</time>
      </trkpt>
      <trkpt lat="-21.544699" lon="-48.794200000000004">
        <ele>558.0</ele>
        <time>2019-01-27T07:08:11-02:00</time>
      </trkpt>
      <trkpt lat="-21.544694330000002" lon="-48.794176660000005">
        <ele>557.0</ele>
        <time>2019-01-27T07:08:12-02:00</time>
      </trkpt>
      <trkpt lat="-21.54468933" lon="-48.79415">
        <ele>557.0</ele>
        <time>2019-01-27T07:08:13-02:00</time>
      </trkpt>
      <trkpt lat="-21.54468766" lon="-48.79412832999999">
        <ele>557.0</ele>
        <time>2019-01-27T07:08:14-02:00</time>
      </trkpt>
      <trkpt lat="-21.54468266" lon="-48.794101659999995">
        <ele>557.0</ele>
        <time>2019-01-27T07:08:15-02:00</time>
      </trkpt>
      <trkpt lat="-21.54467866" lon="-48.79407832999999">
        <ele>557.0</ele>
        <time>2019-01-27T07:08:16-02:00</time>
      </trkpt>
      <trkpt lat="-21.544673659999997" lon="-48.79405333">
        <ele>557.0</ele>
        <time>2019-01-27T07:08:17-02:00</time>
      </trkpt>
      <trkpt lat="-21.544669000000006" lon="-48.79402832999999">
        <ele>557.0</ele>
        <time>2019-01-27T07:08:18-02:00</time>
      </trkpt>
      <trkpt lat="-21.544661" lon="-48.794001660000006">
        <ele>557.0</ele>
        <time>2019-01-27T07:08:19-02:00</time>
      </trkpt>
      <trkpt lat="-21.544656330000006" lon="-48.79397666">
        <ele>557.0</ele>
        <time>2019-01-27T07:08:20-02:00</time>
      </trkpt>
      <trkpt lat="-21.544651330000004" lon="-48.793951660000005">
        <ele>557.0</ele>
        <time>2019-01-27T07:08:21-02:00</time>
      </trkpt>
      <trkpt lat="-21.544646000000004" lon="-48.79392333">
        <ele>557.0</ele>
        <time>2019-01-27T07:08:22-02:00</time>
      </trkpt>
      <trkpt lat="-21.54464066" lon="-48.79389666000001">
        <ele>557.0</ele>
        <time>2019-01-27T07:08:23-02:00</time>
      </trkpt>
      <trkpt lat="-21.54463566" lon="-48.79387166">
        <ele>557.0</ele>
        <time>2019-01-27T07:08:24-02:00</time>
      </trkpt>
      <trkpt lat="-21.544630660000003" lon="-48.793845">
        <ele>557.0</ele>
        <time>2019-01-27T07:08:25-02:00</time>
      </trkpt>
      <trkpt lat="-21.544622330000003" lon="-48.79381665999999">
        <ele>557.0</ele>
        <time>2019-01-27T07:08:26-02:00</time>
      </trkpt>
      <trkpt lat="-21.544618" lon="-48.79379333">
        <ele>557.0</ele>
        <time>2019-01-27T07:08:27-02:00</time>
      </trkpt>
      <trkpt lat="-21.54461266" lon="-48.793765">
        <ele>557.0</ele>
        <time>2019-01-27T07:08:28-02:00</time>
      </trkpt>
      <trkpt lat="-21.544607000000003" lon="-48.793735">
        <ele>557.0</ele>
        <time>2019-01-27T07:08:29-02:00</time>
      </trkpt>
      <trkpt lat="-21.544601330000006" lon="-48.79370666000001">
        <ele>557.0</ele>
        <time>2019-01-27T07:08:30-02:00</time>
      </trkpt>
      <trkpt lat="-21.544596330000005" lon="-48.79368000000001">
        <ele>557.0</ele>
        <time>2019-01-27T07:08:31-02:00</time>
      </trkpt>
      <trkpt lat="-21.544592" lon="-48.793656659999996">
        <ele>557.0</ele>
        <time>2019-01-27T07:08:32-02:00</time>
      </trkpt>
      <trkpt lat="-21.544584" lon="-48.79362832999999">
        <ele>557.0</ele>
        <time>2019-01-27T07:08:33-02:00</time>
      </trkpt>
      <trkpt lat="-21.544579" lon="-48.793603329999996">
        <ele>557.0</ele>
        <time>2019-01-27T07:08:34-02:00</time>
      </trkpt>
      <trkpt lat="-21.544573330000002" lon="-48.793575">
        <ele>557.0</ele>
        <time>2019-01-27T07:08:35-02:00</time>
      </trkpt>
      <trkpt lat="-21.544567999999998" lon="-48.79354666000001">
        <ele>557.0</ele>
        <time>2019-01-27T07:08:36-02:00</time>
      </trkpt>
      <trkpt lat="-21.544562660000004" lon="-48.79352000000001">
        <ele>557.0</ele>
        <time>2019-01-27T07:08:37-02:00</time>
      </trkpt>
      <trkpt lat="-21.54455866" lon="-48.79349832999999">
        <ele>557.0</ele>
        <time>2019-01-27T07:08:38-02:00</time>
      </trkpt>
      <trkpt lat="-21.544553330000003" lon="-48.79347166000001">
        <ele>557.0</ele>
        <time>2019-01-27T07:08:39-02:00</time>
      </trkpt>
      <trkpt lat="-21.544548330000005" lon="-48.79344666">
        <ele>557.0</ele>
        <time>2019-01-27T07:08:40-02:00</time>
      </trkpt>
      <trkpt lat="-21.544542999999997" lon="-48.79341833">
        <ele>557.0</ele>
        <time>2019-01-27T07:08:41-02:00</time>
      </trkpt>
      <trkpt lat="-21.544537659999996" lon="-48.79339166">
        <ele>557.0</ele>
        <time>2019-01-27T07:08:42-02:00</time>
      </trkpt>
      <trkpt lat="-21.54453233" lon="-48.79336333">
        <ele>557.0</ele>
        <time>2019-01-27T07:08:43-02:00</time>
      </trkpt>
      <trkpt lat="-21.544526660000002" lon="-48.793335">
        <ele>557.0</ele>
        <time>2019-01-27T07:08:44-02:00</time>
      </trkpt>
      <trkpt lat="-21.544521330000002" lon="-48.79330666">
        <ele>555.0</ele>
        <time>2019-01-27T07:08:45-02:00</time>
      </trkpt>
      <trkpt lat="-21.544515999999998" lon="-48.79327832999999">
        <ele>555.0</ele>
        <time>2019-01-27T07:08:46-02:00</time>
      </trkpt>
      <trkpt lat="-21.544511000000004" lon="-48.79325166">
        <ele>555.0</ele>
        <time>2019-01-27T07:08:47-02:00</time>
      </trkpt>
      <trkpt lat="-21.544505660000006" lon="-48.79322332999999">
        <ele>555.0</ele>
        <time>2019-01-27T07:08:48-02:00</time>
      </trkpt>
      <trkpt lat="-21.544500660000004" lon="-48.79319666">
        <ele>555.0</ele>
        <time>2019-01-27T07:08:49-02:00</time>
      </trkpt>
      <trkpt lat="-21.544496000000002" lon="-48.793171660000006">
        <ele>555.0</ele>
        <time>2019-01-27T07:08:50-02:00</time>
      </trkpt>
      <trkpt lat="-21.54449333" lon="-48.79314333000001">
        <ele>555.0</ele>
        <time>2019-01-27T07:08:51-02:00</time>
      </trkpt>
      <trkpt lat="-21.54448833" lon="-48.793116659999995">
        <ele>555.0</ele>
        <time>2019-01-27T07:08:52-02:00</time>
      </trkpt>
      <trkpt lat="-21.54448333" lon="-48.79309">
        <ele>555.0</ele>
        <time>2019-01-27T07:08:53-02:00</time>
      </trkpt>
      <trkpt lat="-21.544477999999994" lon="-48.793063329999995">
        <ele>555.0</ele>
        <time>2019-01-27T07:08:54-02:00</time>
      </trkpt>
      <trkpt lat="-21.544473" lon="-48.79303666">
        <ele>555.0</ele>
        <time>2019-01-27T07:08:55-02:00</time>
      </trkpt>
      <trkpt lat="-21.544468000000002" lon="-48.793011660000005">
        <ele>555.0</ele>
        <time>2019-01-27T07:08:56-02:00</time>
      </trkpt>
      <trkpt lat="-21.54446566" lon="-48.792985">
        <ele>555.0</ele>
        <time>2019-01-27T07:08:57-02:00</time>
      </trkpt>
      <trkpt lat="-21.544461000000002" lon="-48.79296166">
        <ele>555.0</ele>
        <time>2019-01-27T07:08:58-02:00</time>
      </trkpt>
      <trkpt lat="-21.544456660000005" lon="-48.79294">
        <ele>555.0</ele>
        <time>2019-01-27T07:08:59-02:00</time>
      </trkpt>
      <trkpt lat="-21.54445233" lon="-48.79291666">
        <ele>555.0</ele>
        <time>2019-01-27T07:09:00-02:00</time>
      </trkpt>
      <trkpt lat="-21.544447999999996" lon="-48.79289500000001">
        <ele>555.0</ele>
        <time>2019-01-27T07:09:01-02:00</time>
      </trkpt>
      <trkpt lat="-21.544445330000002" lon="-48.79286833">
        <ele>555.0</ele>
        <time>2019-01-27T07:09:02-02:00</time>
      </trkpt>
      <trkpt lat="-21.54444" lon="-48.79284165999999">
        <ele>555.0</ele>
        <time>2019-01-27T07:09:03-02:00</time>
      </trkpt>
      <trkpt lat="-21.544435330000002" lon="-48.79281666">
        <ele>555.0</ele>
        <time>2019-01-27T07:09:04-02:00</time>
      </trkpt>
      <trkpt lat="-21.544431" lon="-48.79279333000001">
        <ele>555.0</ele>
        <time>2019-01-27T07:09:05-02:00</time>
      </trkpt>
      <trkpt lat="-21.54442866" lon="-48.79276833">
        <ele>555.0</ele>
        <time>2019-01-27T07:09:06-02:00</time>
      </trkpt>
      <trkpt lat="-21.544424330000002" lon="-48.792745000000004">
        <ele>555.0</ele>
        <time>2019-01-27T07:09:07-02:00</time>
      </trkpt>
      <trkpt lat="-21.54442" lon="-48.792721660000005">
        <ele>555.0</ele>
        <time>2019-01-27T07:09:08-02:00</time>
      </trkpt>
      <trkpt lat="-21.54441533" lon="-48.79269833">
        <ele>555.0</ele>
        <time>2019-01-27T07:09:09-02:00</time>
      </trkpt>
      <trkpt lat="-21.54440866" lon="-48.792676660000005">
        <ele>555.0</ele>
        <time>2019-01-27T07:09:10-02:00</time>
      </trkpt>
      <trkpt lat="-21.544404" lon="-48.792651660000004">
        <ele>555.0</ele>
        <time>2019-01-27T07:09:11-02:00</time>
      </trkpt>
      <trkpt lat="-21.544398659999995" lon="-48.79262333">
        <ele>555.0</ele>
        <time>2019-01-27T07:09:12-02:00</time>
      </trkpt>
      <trkpt lat="-21.544393659999997" lon="-48.79259666">
        <ele>555.0</ele>
        <time>2019-01-27T07:09:13-02:00</time>
      </trkpt>
      <trkpt lat="-21.544389000000002" lon="-48.79257">
        <ele>555.0</ele>
        <time>2019-01-27T07:09:14-02:00</time>
      </trkpt>
      <trkpt lat="-21.544385000000002" lon="-48.79254833">
        <ele>555.0</ele>
        <time>2019-01-27T07:09:15-02:00</time>
      </trkpt>
      <trkpt lat="-21.54438066" lon="-48.792525000000005">
        <ele>555.0</ele>
        <time>2019-01-27T07:09:16-02:00</time>
      </trkpt>
      <trkpt lat="-21.544376660000005" lon="-48.79250166">
        <ele>555.0</ele>
        <time>2019-01-27T07:09:17-02:00</time>
      </trkpt>
      <trkpt lat="-21.544371660000003" lon="-48.792474999999996">
        <ele>555.0</ele>
        <time>2019-01-27T07:09:18-02:00</time>
      </trkpt>
      <trkpt lat="-21.544369330000002" lon="-48.792449999999995">
        <ele>555.0</ele>
        <time>2019-01-27T07:09:19-02:00</time>
      </trkpt>
      <trkpt lat="-21.544365" lon="-48.792426660000004">
        <ele>555.0</ele>
        <time>2019-01-27T07:09:20-02:00</time>
      </trkpt>
      <trkpt lat="-21.544361" lon="-48.79240166000001">
        <ele>555.0</ele>
        <time>2019-01-27T07:09:21-02:00</time>
      </trkpt>
      <trkpt lat="-21.54435633" lon="-48.79237666">
        <ele>555.0</ele>
        <time>2019-01-27T07:09:22-02:00</time>
      </trkpt>
      <trkpt lat="-21.54435166" lon="-48.79235166">
        <ele>555.0</ele>
        <time>2019-01-27T07:09:23-02:00</time>
      </trkpt>
      <trkpt lat="-21.54434733" lon="-48.792325">
        <ele>555.0</ele>
        <time>2019-01-27T07:09:24-02:00</time>
      </trkpt>
      <trkpt lat="-21.544342999999998" lon="-48.79230166000001">
        <ele>555.0</ele>
        <time>2019-01-27T07:09:25-02:00</time>
      </trkpt>
      <trkpt lat="-21.54433833" lon="-48.792276660000006">
        <ele>555.0</ele>
        <time>2019-01-27T07:09:26-02:00</time>
      </trkpt>
      <trkpt lat="-21.54433433" lon="-48.792253329999994">
        <ele>555.0</ele>
        <time>2019-01-27T07:09:27-02:00</time>
      </trkpt>
      <trkpt lat="-21.54432966" lon="-48.79222833">
        <ele>555.0</ele>
        <time>2019-01-27T07:09:28-02:00</time>
      </trkpt>
      <trkpt lat="-21.54432533" lon="-48.792205">
        <ele>555.0</ele>
        <time>2019-01-27T07:09:29-02:00</time>
      </trkpt>
      <trkpt lat="-21.544321330000002" lon="-48.792181660000004">
        <ele>555.0</ele>
        <time>2019-01-27T07:09:30-02:00</time>
      </trkpt>
      <trkpt lat="-21.54431733" lon="-48.79215832999999">
        <ele>555.0</ele>
        <time>2019-01-27T07:09:31-02:00</time>
      </trkpt>
      <trkpt lat="-21.544312999999995" lon="-48.792134999999995">
        <ele>555.0</ele>
        <time>2019-01-27T07:09:32-02:00</time>
      </trkpt>
      <trkpt lat="-21.54430933" lon="-48.79211333">
        <ele>555.0</ele>
        <time>2019-01-27T07:09:33-02:00</time>
      </trkpt>
      <trkpt lat="-21.544305330000004" lon="-48.79209000000001">
        <ele>555.0</ele>
        <time>2019-01-27T07:09:34-02:00</time>
      </trkpt>
      <trkpt lat="-21.544301330000007" lon="-48.79206832999999">
        <ele>555.0</ele>
        <time>2019-01-27T07:09:35-02:00</time>
      </trkpt>
      <trkpt lat="-21.544297" lon="-48.792044999999995">
        <ele>555.0</ele>
        <time>2019-01-27T07:09:36-02:00</time>
      </trkpt>
      <trkpt lat="-21.544293" lon="-48.79202332999999">
        <ele>555.0</ele>
        <time>2019-01-27T07:09:37-02:00</time>
      </trkpt>
      <trkpt lat="-21.54428866" lon="-48.792001660000004">
        <ele>555.0</ele>
        <time>2019-01-27T07:09:38-02:00</time>
      </trkpt>
      <trkpt lat="-21.54428433" lon="-48.79197833">
        <ele>555.0</ele>
        <time>2019-01-27T07:09:39-02:00</time>
      </trkpt>
      <trkpt lat="-21.54428033" lon="-48.79195833">
        <ele>555.0</ele>
        <time>2019-01-27T07:09:40-02:00</time>
      </trkpt>
      <trkpt lat="-21.544276330000002" lon="-48.79193666">
        <ele>555.0</ele>
        <time>2019-01-27T07:09:41-02:00</time>
      </trkpt>
      <trkpt lat="-21.544269330000002" lon="-48.79191333">
        <ele>555.0</ele>
        <time>2019-01-27T07:09:42-02:00</time>
      </trkpt>
      <trkpt lat="-21.54426433" lon="-48.79188666">
        <ele>555.0</ele>
        <time>2019-01-27T07:09:43-02:00</time>
      </trkpt>
      <trkpt lat="-21.544259659999998" lon="-48.79186166000001">
        <ele>555.0</ele>
        <time>2019-01-27T07:09:44-02:00</time>
      </trkpt>
      <trkpt lat="-21.544254659999996" lon="-48.791835000000006">
        <ele>555.0</ele>
        <time>2019-01-27T07:09:45-02:00</time>
      </trkpt>
      <trkpt lat="-21.54425" lon="-48.79181">
        <ele>555.0</ele>
        <time>2019-01-27T07:09:46-02:00</time>
      </trkpt>
      <trkpt lat="-21.544246000000005" lon="-48.79178666">
        <ele>555.0</ele>
        <time>2019-01-27T07:09:47-02:00</time>
      </trkpt>
      <trkpt lat="-21.544241000000003" lon="-48.79176">
        <ele>555.0</ele>
        <time>2019-01-27T07:09:48-02:00</time>
      </trkpt>
      <trkpt lat="-21.544236660000003" lon="-48.791736660000005">
        <ele>555.0</ele>
        <time>2019-01-27T07:09:49-02:00</time>
      </trkpt>
      <trkpt lat="-21.54423166" lon="-48.79171">
        <ele>555.0</ele>
        <time>2019-01-27T07:09:50-02:00</time>
      </trkpt>
      <trkpt lat="-21.544227330000005" lon="-48.791684999999994">
        <ele>555.0</ele>
        <time>2019-01-27T07:09:51-02:00</time>
      </trkpt>
      <trkpt lat="-21.54422266" lon="-48.79165999999999">
        <ele>555.0</ele>
        <time>2019-01-27T07:09:52-02:00</time>
      </trkpt>
      <trkpt lat="-21.544218" lon="-48.791635">
        <ele>555.0</ele>
        <time>2019-01-27T07:09:53-02:00</time>
      </trkpt>
      <trkpt lat="-21.54421333" lon="-48.79161166">
        <ele>555.0</ele>
        <time>2019-01-27T07:09:54-02:00</time>
      </trkpt>
      <trkpt lat="-21.544208659999995" lon="-48.791585">
        <ele>555.0</ele>
        <time>2019-01-27T07:09:55-02:00</time>
      </trkpt>
      <trkpt lat="-21.544204" lon="-48.79156166">
        <ele>555.0</ele>
        <time>2019-01-27T07:09:56-02:00</time>
      </trkpt>
      <trkpt lat="-21.544199660000004" lon="-48.791538329999995">
        <ele>555.0</ele>
        <time>2019-01-27T07:09:57-02:00</time>
      </trkpt>
      <trkpt lat="-21.544193" lon="-48.791515">
        <ele>555.0</ele>
        <time>2019-01-27T07:09:58-02:00</time>
      </trkpt>
      <trkpt lat="-21.544188999999996" lon="-48.791493329999994">
        <ele>555.0</ele>
        <time>2019-01-27T07:09:59-02:00</time>
      </trkpt>
      <trkpt lat="-21.54418433" lon="-48.79146833">
        <ele>555.0</ele>
        <time>2019-01-27T07:10:00-02:00</time>
      </trkpt>
      <trkpt lat="-21.544177659999995" lon="-48.791445">
        <ele>556.0</ele>
        <time>2019-01-27T07:10:01-02:00</time>
      </trkpt>
      <trkpt lat="-21.544173330000003" lon="-48.791421660000005">
        <ele>556.0</ele>
        <time>2019-01-27T07:10:02-02:00</time>
      </trkpt>
      <trkpt lat="-21.544169000000004" lon="-48.79139832999999">
        <ele>556.0</ele>
        <time>2019-01-27T07:10:03-02:00</time>
      </trkpt>
      <trkpt lat="-21.544164330000005" lon="-48.79137333">
        <ele>556.0</ele>
        <time>2019-01-27T07:10:04-02:00</time>
      </trkpt>
      <trkpt lat="-21.544157329999997" lon="-48.79135">
        <ele>556.0</ele>
        <time>2019-01-27T07:10:05-02:00</time>
      </trkpt>
      <trkpt lat="-21.54415266" lon="-48.79132499999999">
        <ele>556.0</ele>
        <time>2019-01-27T07:10:06-02:00</time>
      </trkpt>
      <trkpt lat="-21.544147999999996" lon="-48.79130166000001">
        <ele>556.0</ele>
        <time>2019-01-27T07:10:07-02:00</time>
      </trkpt>
      <trkpt lat="-21.544143" lon="-48.791275000000006">
        <ele>556.0</ele>
        <time>2019-01-27T07:10:08-02:00</time>
      </trkpt>
      <trkpt lat="-21.544138659999998" lon="-48.79125166">
        <ele>556.0</ele>
        <time>2019-01-27T07:10:09-02:00</time>
      </trkpt>
      <trkpt lat="-21.544133659999996" lon="-48.79122666">
        <ele>556.0</ele>
        <time>2019-01-27T07:10:10-02:00</time>
      </trkpt>
      <trkpt lat="-21.544129330000004" lon="-48.791203329999995">
        <ele>556.0</ele>
        <time>2019-01-27T07:10:11-02:00</time>
      </trkpt>
      <trkpt lat="-21.544124000000004" lon="-48.791176660000005">
        <ele>556.0</ele>
        <time>2019-01-27T07:10:12-02:00</time>
      </trkpt>
      <trkpt lat="-21.54411966" lon="-48.79115333">
        <ele>556.0</ele>
        <time>2019-01-27T07:10:13-02:00</time>
      </trkpt>
      <trkpt lat="-21.544114659999998" lon="-48.79112832999999">
        <ele>556.0</ele>
        <time>2019-01-27T07:10:14-02:00</time>
      </trkpt>
      <trkpt lat="-21.54411" lon="-48.791105">
        <ele>556.0</ele>
        <time>2019-01-27T07:10:15-02:00</time>
      </trkpt>
      <trkpt lat="-21.544108" lon="-48.791081659999996">
        <ele>556.0</ele>
        <time>2019-01-27T07:10:16-02:00</time>
      </trkpt>
      <trkpt lat="-21.544102999999996" lon="-48.79105666">
        <ele>556.0</ele>
        <time>2019-01-27T07:10:17-02:00</time>
      </trkpt>
      <trkpt lat="-21.544097999999998" lon="-48.79103166">
        <ele>556.0</ele>
        <time>2019-01-27T07:10:18-02:00</time>
      </trkpt>
      <trkpt lat="-21.544093659999998" lon="-48.79100666000001">
        <ele>556.0</ele>
        <time>2019-01-27T07:10:19-02:00</time>
      </trkpt>
      <trkpt lat="-21.54409133" lon="-48.79098333">
        <ele>556.0</ele>
        <time>2019-01-27T07:10:20-02:00</time>
      </trkpt>
      <trkpt lat="-21.54408666" lon="-48.79096">
        <ele>557.0</ele>
        <time>2019-01-27T07:10:21-02:00</time>
      </trkpt>
      <trkpt lat="-21.544078" lon="-48.790913329999995">
        <ele>557.0</ele>
        <time>2019-01-27T07:10:22-02:00</time>
      </trkpt>
      <trkpt lat="-21.544075660000004" lon="-48.790888329999994">
        <ele>557.0</ele>
        <time>2019-01-27T07:10:23-02:00</time>
      </trkpt>
      <trkpt lat="-21.544071000000002" lon="-48.79086333">
        <ele>557.0</ele>
        <time>2019-01-27T07:10:24-02:00</time>
      </trkpt>
      <trkpt lat="-21.544066660000006" lon="-48.79084166">
        <ele>557.0</ele>
        <time>2019-01-27T07:10:25-02:00</time>
      </trkpt>
      <trkpt lat="-21.544062330000003" lon="-48.790816660000004">
        <ele>557.0</ele>
        <time>2019-01-27T07:10:26-02:00</time>
      </trkpt>
      <trkpt lat="-21.54405733" lon="-48.79079">
        <ele>557.0</ele>
        <time>2019-01-27T07:10:27-02:00</time>
      </trkpt>
      <trkpt lat="-21.544052999999995" lon="-48.790765">
        <ele>557.0</ele>
        <time>2019-01-27T07:10:28-02:00</time>
      </trkpt>
      <trkpt lat="-21.544050660000003" lon="-48.79074000000001">
        <ele>557.0</ele>
        <time>2019-01-27T07:10:29-02:00</time>
      </trkpt>
      <trkpt lat="-21.544044000000003" lon="-48.79071666">
        <ele>557.0</ele>
        <time>2019-01-27T07:10:30-02:00</time>
      </trkpt>
      <trkpt lat="-21.544039660000003" lon="-48.79069165999999">
        <ele>557.0</ele>
        <time>2019-01-27T07:10:31-02:00</time>
      </trkpt>
      <trkpt lat="-21.544035330000003" lon="-48.79066666000001">
        <ele>557.0</ele>
        <time>2019-01-27T07:10:32-02:00</time>
      </trkpt>
      <trkpt lat="-21.54403" lon="-48.79064">
        <ele>557.0</ele>
        <time>2019-01-27T07:10:33-02:00</time>
      </trkpt>
      <trkpt lat="-21.544025" lon="-48.79061333">
        <ele>557.0</ele>
        <time>2019-01-27T07:10:34-02:00</time>
      </trkpt>
      <trkpt lat="-21.544023" lon="-48.790588330000006">
        <ele>557.0</ele>
        <time>2019-01-27T07:10:35-02:00</time>
      </trkpt>
      <trkpt lat="-21.544018" lon="-48.79056166">
        <ele>557.0</ele>
        <time>2019-01-27T07:10:36-02:00</time>
      </trkpt>
      <trkpt lat="-21.544013330000002" lon="-48.79053833">
        <ele>557.0</ele>
        <time>2019-01-27T07:10:37-02:00</time>
      </trkpt>
      <trkpt lat="-21.54400866" lon="-48.79051333">
        <ele>557.0</ele>
        <time>2019-01-27T07:10:38-02:00</time>
      </trkpt>
      <trkpt lat="-21.544003999999994" lon="-48.79048833">
        <ele>557.0</ele>
        <time>2019-01-27T07:10:39-02:00</time>
      </trkpt>
      <trkpt lat="-21.543998330000004" lon="-48.79045832999999">
        <ele>557.0</ele>
        <time>2019-01-27T07:10:40-02:00</time>
      </trkpt>
      <trkpt lat="-21.543993330000003" lon="-48.79043166">
        <ele>557.0</ele>
        <time>2019-01-27T07:10:41-02:00</time>
      </trkpt>
      <trkpt lat="-21.54398833" lon="-48.790406659999995">
        <ele>557.0</ele>
        <time>2019-01-27T07:10:42-02:00</time>
      </trkpt>
      <trkpt lat="-21.54398333" lon="-48.79037999999999">
        <ele>557.0</ele>
        <time>2019-01-27T07:10:43-02:00</time>
      </trkpt>
      <trkpt lat="-21.543979330000003" lon="-48.79035666000001">
        <ele>557.0</ele>
        <time>2019-01-27T07:10:44-02:00</time>
      </trkpt>
      <trkpt lat="-21.543974330000005" lon="-48.790330000000004">
        <ele>557.0</ele>
        <time>2019-01-27T07:10:45-02:00</time>
      </trkpt>
      <trkpt lat="-21.543969999999998" lon="-48.790306660000006">
        <ele>557.0</ele>
        <time>2019-01-27T07:10:46-02:00</time>
      </trkpt>
      <trkpt lat="-21.543963330000004" lon="-48.79028666000001">
        <ele>557.0</ele>
        <time>2019-01-27T07:10:47-02:00</time>
      </trkpt>
      <trkpt lat="-21.54395933" lon="-48.790265">
        <ele>557.0</ele>
        <time>2019-01-27T07:10:48-02:00</time>
      </trkpt>
      <trkpt lat="-21.543955330000003" lon="-48.790245000000006">
        <ele>557.0</ele>
        <time>2019-01-27T07:10:49-02:00</time>
      </trkpt>
      <trkpt lat="-21.54394866" lon="-48.79022166000001">
        <ele>557.0</ele>
        <time>2019-01-27T07:10:50-02:00</time>
      </trkpt>
      <trkpt lat="-21.543943659999996" lon="-48.79019833">
        <ele>557.0</ele>
        <time>2019-01-27T07:10:51-02:00</time>
      </trkpt>
      <trkpt lat="-21.543937" lon="-48.790175">
        <ele>557.0</ele>
        <time>2019-01-27T07:10:52-02:00</time>
      </trkpt>
      <trkpt lat="-21.543932" lon="-48.790150000000004">
        <ele>557.0</ele>
        <time>2019-01-27T07:10:53-02:00</time>
      </trkpt>
      <trkpt lat="-21.543924999999998" lon="-48.79012832999999">
        <ele>557.0</ele>
        <time>2019-01-27T07:10:54-02:00</time>
      </trkpt>
      <trkpt lat="-21.543917659999998" lon="-48.79010333">
        <ele>557.0</ele>
        <time>2019-01-27T07:10:55-02:00</time>
      </trkpt>
      <trkpt lat="-21.543912659999997" lon="-48.79008">
        <ele>557.0</ele>
        <time>2019-01-27T07:10:56-02:00</time>
      </trkpt>
      <trkpt lat="-21.54390533" lon="-48.79005666">
        <ele>557.0</ele>
        <time>2019-01-27T07:10:57-02:00</time>
      </trkpt>
      <trkpt lat="-21.54389766" lon="-48.790031660000004">
        <ele>557.0</ele>
        <time>2019-01-27T07:10:58-02:00</time>
      </trkpt>
      <trkpt lat="-21.543890330000004" lon="-48.79000666">
        <ele>557.0</ele>
        <time>2019-01-27T07:10:59-02:00</time>
      </trkpt>
      <trkpt lat="-21.54388433" lon="-48.78998">
        <ele>557.0</ele>
        <time>2019-01-27T07:11:00-02:00</time>
      </trkpt>
      <trkpt lat="-21.543876" lon="-48.789953329999996">
        <ele>557.0</ele>
        <time>2019-01-27T07:11:01-02:00</time>
      </trkpt>
      <trkpt lat="-21.543867659999997" lon="-48.789926660000006">
        <ele>557.0</ele>
        <time>2019-01-27T07:11:02-02:00</time>
      </trkpt>
      <trkpt lat="-21.543860000000002" lon="-48.78990333">
        <ele>557.0</ele>
        <time>2019-01-27T07:11:03-02:00</time>
      </trkpt>
      <trkpt lat="-21.54385233" lon="-48.78987832999999">
        <ele>557.0</ele>
        <time>2019-01-27T07:11:04-02:00</time>
      </trkpt>
      <trkpt lat="-21.543844659999998" lon="-48.789855">
        <ele>557.0</ele>
        <time>2019-01-27T07:11:05-02:00</time>
      </trkpt>
      <trkpt lat="-21.543836330000005" lon="-48.78983166">
        <ele>557.0</ele>
        <time>2019-01-27T07:11:06-02:00</time>
      </trkpt>
      <trkpt lat="-21.543828330000004" lon="-48.78980666">
        <ele>557.0</ele>
        <time>2019-01-27T07:11:07-02:00</time>
      </trkpt>
      <trkpt lat="-21.543820330000003" lon="-48.78978332999999">
        <ele>557.0</ele>
        <time>2019-01-27T07:11:08-02:00</time>
      </trkpt>
      <trkpt lat="-21.543813330000003" lon="-48.78975666">
        <ele>557.0</ele>
        <time>2019-01-27T07:11:09-02:00</time>
      </trkpt>
      <trkpt lat="-21.543805000000003" lon="-48.78973166000001">
        <ele>557.0</ele>
        <time>2019-01-27T07:11:10-02:00</time>
      </trkpt>
      <trkpt lat="-21.543796659999998" lon="-48.789708329999996">
        <ele>557.0</ele>
        <time>2019-01-27T07:11:11-02:00</time>
      </trkpt>
      <trkpt lat="-21.54378833" lon="-48.789685">
        <ele>557.0</ele>
        <time>2019-01-27T07:11:12-02:00</time>
      </trkpt>
      <trkpt lat="-21.54377933" lon="-48.78965999999999">
        <ele>557.0</ele>
        <time>2019-01-27T07:11:13-02:00</time>
      </trkpt>
      <trkpt lat="-21.543771" lon="-48.789636660000006">
        <ele>557.0</ele>
        <time>2019-01-27T07:11:14-02:00</time>
      </trkpt>
      <trkpt lat="-21.54376233" lon="-48.78961333">
        <ele>557.0</ele>
        <time>2019-01-27T07:11:15-02:00</time>
      </trkpt>
      <trkpt lat="-21.543751000000004" lon="-48.78958833">
        <ele>557.0</ele>
        <time>2019-01-27T07:11:16-02:00</time>
      </trkpt>
      <trkpt lat="-21.54374433" lon="-48.78956333">
        <ele>557.0</ele>
        <time>2019-01-27T07:11:17-02:00</time>
      </trkpt>
      <trkpt lat="-21.54373566" lon="-48.78954">
        <ele>557.0</ele>
        <time>2019-01-27T07:11:18-02:00</time>
      </trkpt>
      <trkpt lat="-21.54372666" lon="-48.78951666">
        <ele>557.0</ele>
        <time>2019-01-27T07:11:19-02:00</time>
      </trkpt>
      <trkpt lat="-21.543715330000005" lon="-48.78949332999999">
        <ele>557.0</ele>
        <time>2019-01-27T07:11:20-02:00</time>
      </trkpt>
      <trkpt lat="-21.54370566" lon="-48.78946833">
        <ele>557.0</ele>
        <time>2019-01-27T07:11:21-02:00</time>
      </trkpt>
      <trkpt lat="-21.54369866" lon="-48.78944333">
        <ele>558.0</ele>
        <time>2019-01-27T07:11:22-02:00</time>
      </trkpt>
      <trkpt lat="-21.543689" lon="-48.789418330000004">
        <ele>558.0</ele>
        <time>2019-01-27T07:11:23-02:00</time>
      </trkpt>
      <trkpt lat="-21.543680000000002" lon="-48.789395">
        <ele>558.0</ele>
        <time>2019-01-27T07:11:24-02:00</time>
      </trkpt>
      <trkpt lat="-21.543670659999997" lon="-48.78937166000001">
        <ele>558.0</ele>
        <time>2019-01-27T07:11:25-02:00</time>
      </trkpt>
      <trkpt lat="-21.54366366" lon="-48.78934666">
        <ele>558.0</ele>
        <time>2019-01-27T07:11:26-02:00</time>
      </trkpt>
      <trkpt lat="-21.54365433" lon="-48.789323329999995">
        <ele>558.0</ele>
        <time>2019-01-27T07:11:27-02:00</time>
      </trkpt>
      <trkpt lat="-21.543645660000003" lon="-48.789303329999996">
        <ele>558.0</ele>
        <time>2019-01-27T07:11:28-02:00</time>
      </trkpt>
      <trkpt lat="-21.54363966" lon="-48.78928332999999">
        <ele>558.0</ele>
        <time>2019-01-27T07:11:29-02:00</time>
      </trkpt>
      <trkpt lat="-21.543629330000005" lon="-48.789258329999996">
        <ele>558.0</ele>
        <time>2019-01-27T07:11:30-02:00</time>
      </trkpt>
      <trkpt lat="-21.54362233" lon="-48.789235">
        <ele>558.0</ele>
        <time>2019-01-27T07:11:31-02:00</time>
      </trkpt>
      <trkpt lat="-21.543612330000002" lon="-48.789210000000004">
        <ele>558.0</ele>
        <time>2019-01-27T07:11:32-02:00</time>
      </trkpt>
      <trkpt lat="-21.54360533" lon="-48.78918666">
        <ele>558.0</ele>
        <time>2019-01-27T07:11:33-02:00</time>
      </trkpt>
      <trkpt lat="-21.54359766" lon="-48.789161660000005">
        <ele>558.0</ele>
        <time>2019-01-27T07:11:34-02:00</time>
      </trkpt>
      <trkpt lat="-21.543589660000002" lon="-48.789136660000004">
        <ele>558.0</ele>
        <time>2019-01-27T07:11:35-02:00</time>
      </trkpt>
      <trkpt lat="-21.543581330000006" lon="-48.78911">
        <ele>558.0</ele>
        <time>2019-01-27T07:11:36-02:00</time>
      </trkpt>
      <trkpt lat="-21.543574330000002" lon="-48.78908666">
        <ele>558.0</ele>
        <time>2019-01-27T07:11:37-02:00</time>
      </trkpt>
      <trkpt lat="-21.543566330000004" lon="-48.78906166">
        <ele>558.0</ele>
        <time>2019-01-27T07:11:38-02:00</time>
      </trkpt>
      <trkpt lat="-21.54355866" lon="-48.78903666">
        <ele>558.0</ele>
        <time>2019-01-27T07:11:39-02:00</time>
      </trkpt>
      <trkpt lat="-21.543553999999993" lon="-48.78901333">
        <ele>558.0</ele>
        <time>2019-01-27T07:11:40-02:00</time>
      </trkpt>
      <trkpt lat="-21.54354533" lon="-48.78898666">
        <ele>558.0</ele>
        <time>2019-01-27T07:11:41-02:00</time>
      </trkpt>
      <trkpt lat="-21.54353766" lon="-48.788961660000005">
        <ele>558.0</ele>
        <time>2019-01-27T07:11:42-02:00</time>
      </trkpt>
      <trkpt lat="-21.543532" lon="-48.788935">
        <ele>558.0</ele>
        <time>2019-01-27T07:11:43-02:00</time>
      </trkpt>
      <trkpt lat="-21.54352533" lon="-48.78891166">
        <ele>558.0</ele>
        <time>2019-01-27T07:11:44-02:00</time>
      </trkpt>
      <trkpt lat="-21.543520660000006" lon="-48.78888833">
        <ele>558.0</ele>
        <time>2019-01-27T07:11:45-02:00</time>
      </trkpt>
      <trkpt lat="-21.543515660000004" lon="-48.788863330000005">
        <ele>558.0</ele>
        <time>2019-01-27T07:11:46-02:00</time>
      </trkpt>
      <trkpt lat="-21.543508659999997" lon="-48.78884">
        <ele>558.0</ele>
        <time>2019-01-27T07:11:47-02:00</time>
      </trkpt>
      <trkpt lat="-21.543504" lon="-48.78881500000001">
        <ele>558.0</ele>
        <time>2019-01-27T07:11:48-02:00</time>
      </trkpt>
      <trkpt lat="-21.543499660000002" lon="-48.78879166">
        <ele>558.0</ele>
        <time>2019-01-27T07:11:49-02:00</time>
      </trkpt>
      <trkpt lat="-21.543494000000003" lon="-48.788765">
        <ele>558.0</ele>
        <time>2019-01-27T07:11:50-02:00</time>
      </trkpt>
      <trkpt lat="-21.54349" lon="-48.78874165999999">
        <ele>558.0</ele>
        <time>2019-01-27T07:11:51-02:00</time>
      </trkpt>
      <trkpt lat="-21.543486" lon="-48.78872">
        <ele>558.0</ele>
        <time>2019-01-27T07:11:52-02:00</time>
      </trkpt>
      <trkpt lat="-21.54348066" lon="-48.788693329999994">
        <ele>558.0</ele>
        <time>2019-01-27T07:11:53-02:00</time>
      </trkpt>
      <trkpt lat="-21.543475660000006" lon="-48.788666660000004">
        <ele>558.0</ele>
        <time>2019-01-27T07:11:54-02:00</time>
      </trkpt>
      <trkpt lat="-21.543470659999997" lon="-48.78864">
        <ele>558.0</ele>
        <time>2019-01-27T07:11:55-02:00</time>
      </trkpt>
      <trkpt lat="-21.543466660000004" lon="-48.78861500000001">
        <ele>558.0</ele>
        <time>2019-01-27T07:11:56-02:00</time>
      </trkpt>
      <trkpt lat="-21.543462330000004" lon="-48.78859166">
        <ele>558.0</ele>
        <time>2019-01-27T07:11:57-02:00</time>
      </trkpt>
      <trkpt lat="-21.543460330000002" lon="-48.788565">
        <ele>558.0</ele>
        <time>2019-01-27T07:11:58-02:00</time>
      </trkpt>
      <trkpt lat="-21.543456" lon="-48.78854">
        <ele>558.0</ele>
        <time>2019-01-27T07:11:59-02:00</time>
      </trkpt>
      <trkpt lat="-21.543452000000002" lon="-48.788515">
        <ele>558.0</ele>
        <time>2019-01-27T07:12:00-02:00</time>
      </trkpt>
      <trkpt lat="-21.543448660000003" lon="-48.78849333">
        <ele>558.0</ele>
        <time>2019-01-27T07:12:01-02:00</time>
      </trkpt>
      <trkpt lat="-21.543445330000004" lon="-48.78847">
        <ele>558.0</ele>
        <time>2019-01-27T07:12:02-02:00</time>
      </trkpt>
      <trkpt lat="-21.543441330000004" lon="-48.788445">
        <ele>558.0</ele>
        <time>2019-01-27T07:12:03-02:00</time>
      </trkpt>
      <trkpt lat="-21.543438" lon="-48.788421660000004">
        <ele>558.0</ele>
        <time>2019-01-27T07:12:04-02:00</time>
      </trkpt>
      <trkpt lat="-21.543434" lon="-48.788396660000004">
        <ele>559.0</ele>
        <time>2019-01-27T07:12:05-02:00</time>
      </trkpt>
      <trkpt lat="-21.54343033" lon="-48.78837166">
        <ele>559.0</ele>
        <time>2019-01-27T07:12:06-02:00</time>
      </trkpt>
      <trkpt lat="-21.543424999999996" lon="-48.78835">
        <ele>559.0</ele>
        <time>2019-01-27T07:12:07-02:00</time>
      </trkpt>
      <trkpt lat="-21.54342166" lon="-48.78832666">
        <ele>559.0</ele>
        <time>2019-01-27T07:12:08-02:00</time>
      </trkpt>
      <trkpt lat="-21.543419000000004" lon="-48.788305">
        <ele>559.0</ele>
        <time>2019-01-27T07:12:09-02:00</time>
      </trkpt>
      <trkpt lat="-21.543413659999995" lon="-48.78828">
        <ele>559.0</ele>
        <time>2019-01-27T07:12:10-02:00</time>
      </trkpt>
      <trkpt lat="-21.54341" lon="-48.788255">
        <ele>559.0</ele>
        <time>2019-01-27T07:12:11-02:00</time>
      </trkpt>
      <trkpt lat="-21.54340733" lon="-48.78823166">
        <ele>559.0</ele>
        <time>2019-01-27T07:12:12-02:00</time>
      </trkpt>
      <trkpt lat="-21.543401660000004" lon="-48.78820666">
        <ele>560.0</ele>
        <time>2019-01-27T07:12:13-02:00</time>
      </trkpt>
      <trkpt lat="-21.543398330000006" lon="-48.78818">
        <ele>560.0</ele>
        <time>2019-01-27T07:12:14-02:00</time>
      </trkpt>
      <trkpt lat="-21.543395" lon="-48.788154999999996">
        <ele>560.0</ele>
        <time>2019-01-27T07:12:15-02:00</time>
      </trkpt>
      <trkpt lat="-21.543392329999996" lon="-48.78813166">
        <ele>560.0</ele>
        <time>2019-01-27T07:12:16-02:00</time>
      </trkpt>
      <trkpt lat="-21.54338566" lon="-48.7881">
        <ele>560.0</ele>
        <time>2019-01-27T07:12:17-02:00</time>
      </trkpt>
      <trkpt lat="-21.543380330000005" lon="-48.788075">
        <ele>560.0</ele>
        <time>2019-01-27T07:12:18-02:00</time>
      </trkpt>
      <trkpt lat="-21.543375660000002" lon="-48.78805166">
        <ele>560.0</ele>
        <time>2019-01-27T07:12:19-02:00</time>
      </trkpt>
      <trkpt lat="-21.543371" lon="-48.788028329999996">
        <ele>560.0</ele>
        <time>2019-01-27T07:12:20-02:00</time>
      </trkpt>
      <trkpt lat="-21.543369" lon="-48.78800832999999">
        <ele>560.0</ele>
        <time>2019-01-27T07:12:21-02:00</time>
      </trkpt>
      <trkpt lat="-21.543363" lon="-48.78797833">
        <ele>560.0</ele>
        <time>2019-01-27T07:12:22-02:00</time>
      </trkpt>
      <trkpt lat="-21.543357659999998" lon="-48.78795166000001">
        <ele>560.0</ele>
        <time>2019-01-27T07:12:23-02:00</time>
      </trkpt>
      <trkpt lat="-21.54335233" lon="-48.78792500000001">
        <ele>560.0</ele>
        <time>2019-01-27T07:12:24-02:00</time>
      </trkpt>
      <trkpt lat="-21.54335" lon="-48.7879">
        <ele>560.0</ele>
        <time>2019-01-27T07:12:25-02:00</time>
      </trkpt>
      <trkpt lat="-21.543344659999995" lon="-48.78787166">
        <ele>560.0</ele>
        <time>2019-01-27T07:12:26-02:00</time>
      </trkpt>
      <trkpt lat="-21.543342000000003" lon="-48.787845">
        <ele>560.0</ele>
        <time>2019-01-27T07:12:27-02:00</time>
      </trkpt>
      <trkpt lat="-21.543337" lon="-48.78781666">
        <ele>560.0</ele>
        <time>2019-01-27T07:12:28-02:00</time>
      </trkpt>
      <trkpt lat="-21.54333466" lon="-48.78779000000001">
        <ele>560.0</ele>
        <time>2019-01-27T07:12:29-02:00</time>
      </trkpt>
      <trkpt lat="-21.54332966" lon="-48.78776166000001">
        <ele>560.0</ele>
        <time>2019-01-27T07:12:30-02:00</time>
      </trkpt>
      <trkpt lat="-21.543324660000003" lon="-48.787733329999995">
        <ele>560.0</ele>
        <time>2019-01-27T07:12:31-02:00</time>
      </trkpt>
      <trkpt lat="-21.543322330000002" lon="-48.787706660000005">
        <ele>560.0</ele>
        <time>2019-01-27T07:12:32-02:00</time>
      </trkpt>
      <trkpt lat="-21.543317659999996" lon="-48.78768">
        <ele>560.0</ele>
        <time>2019-01-27T07:12:33-02:00</time>
      </trkpt>
      <trkpt lat="-21.543315999999997" lon="-48.787654999999994">
        <ele>560.0</ele>
        <time>2019-01-27T07:12:34-02:00</time>
      </trkpt>
      <trkpt lat="-21.543314000000002" lon="-48.78762832999999">
        <ele>560.0</ele>
        <time>2019-01-27T07:12:35-02:00</time>
      </trkpt>
      <trkpt lat="-21.54331" lon="-48.78760333">
        <ele>560.0</ele>
        <time>2019-01-27T07:12:36-02:00</time>
      </trkpt>
      <trkpt lat="-21.543307999999996" lon="-48.787578329999995">
        <ele>560.0</ele>
        <time>2019-01-27T07:12:37-02:00</time>
      </trkpt>
      <trkpt lat="-21.543304" lon="-48.787553329999994">
        <ele>560.0</ele>
        <time>2019-01-27T07:12:38-02:00</time>
      </trkpt>
      <trkpt lat="-21.543302329999996" lon="-48.787526660000005">
        <ele>560.0</ele>
        <time>2019-01-27T07:12:39-02:00</time>
      </trkpt>
      <trkpt lat="-21.54330066" lon="-48.7875">
        <ele>560.0</ele>
        <time>2019-01-27T07:12:40-02:00</time>
      </trkpt>
      <trkpt lat="-21.543296330000004" lon="-48.78747333">
        <ele>560.0</ele>
        <time>2019-01-27T07:12:41-02:00</time>
      </trkpt>
      <trkpt lat="-21.54329466" lon="-48.78744666000001">
        <ele>560.0</ele>
        <time>2019-01-27T07:12:42-02:00</time>
      </trkpt>
      <trkpt lat="-21.543293" lon="-48.787420000000004">
        <ele>560.0</ele>
        <time>2019-01-27T07:12:43-02:00</time>
      </trkpt>
      <trkpt lat="-21.543288999999994" lon="-48.78739333">
        <ele>560.0</ele>
        <time>2019-01-27T07:12:44-02:00</time>
      </trkpt>
      <trkpt lat="-21.543287999999997" lon="-48.787371660000005">
        <ele>560.0</ele>
        <time>2019-01-27T07:12:45-02:00</time>
      </trkpt>
      <trkpt lat="-21.543287000000003" lon="-48.787346660000004">
        <ele>560.0</ele>
        <time>2019-01-27T07:12:46-02:00</time>
      </trkpt>
      <trkpt lat="-21.543285660000002" lon="-48.78732333">
        <ele>560.0</ele>
        <time>2019-01-27T07:12:47-02:00</time>
      </trkpt>
      <trkpt lat="-21.543281999999998" lon="-48.78729832999999">
        <ele>560.0</ele>
        <time>2019-01-27T07:12:48-02:00</time>
      </trkpt>
      <trkpt lat="-21.543281330000006" lon="-48.78727333">
        <ele>560.0</ele>
        <time>2019-01-27T07:12:49-02:00</time>
      </trkpt>
      <trkpt lat="-21.54328" lon="-48.78724833">
        <ele>559.0</ele>
        <time>2019-01-27T07:12:50-02:00</time>
      </trkpt>
      <trkpt lat="-21.54327666" lon="-48.787223329999996">
        <ele>559.0</ele>
        <time>2019-01-27T07:12:51-02:00</time>
      </trkpt>
      <trkpt lat="-21.543275660000003" lon="-48.7872">
        <ele>559.0</ele>
        <time>2019-01-27T07:12:52-02:00</time>
      </trkpt>
      <trkpt lat="-21.54327166" lon="-48.787173329999995">
        <ele>559.0</ele>
        <time>2019-01-27T07:12:53-02:00</time>
      </trkpt>
      <trkpt lat="-21.54327066" lon="-48.78714833">
        <ele>559.0</ele>
        <time>2019-01-27T07:12:54-02:00</time>
      </trkpt>
      <trkpt lat="-21.543267" lon="-48.787121660000004">
        <ele>559.0</ele>
        <time>2019-01-27T07:12:55-02:00</time>
      </trkpt>
      <trkpt lat="-21.543266" lon="-48.787095">
        <ele>559.0</ele>
        <time>2019-01-27T07:12:56-02:00</time>
      </trkpt>
      <trkpt lat="-21.54326266" lon="-48.78707166">
        <ele>559.0</ele>
        <time>2019-01-27T07:12:57-02:00</time>
      </trkpt>
      <trkpt lat="-21.54325933" lon="-48.787045">
        <ele>559.0</ele>
        <time>2019-01-27T07:12:58-02:00</time>
      </trkpt>
      <trkpt lat="-21.543256000000003" lon="-48.78702">
        <ele>559.0</ele>
        <time>2019-01-27T07:12:59-02:00</time>
      </trkpt>
      <trkpt lat="-21.543255" lon="-48.786995000000005">
        <ele>559.0</ele>
        <time>2019-01-27T07:13:00-02:00</time>
      </trkpt>
      <trkpt lat="-21.543252000000003" lon="-48.78697166">
        <ele>559.0</ele>
        <time>2019-01-27T07:13:01-02:00</time>
      </trkpt>
      <trkpt lat="-21.543249" lon="-48.78694666">
        <ele>559.0</ele>
        <time>2019-01-27T07:13:02-02:00</time>
      </trkpt>
      <trkpt lat="-21.543245660000004" lon="-48.786921660000004">
        <ele>559.0</ele>
        <time>2019-01-27T07:13:03-02:00</time>
      </trkpt>
      <trkpt lat="-21.54324466" lon="-48.786896660000004">
        <ele>559.0</ele>
        <time>2019-01-27T07:13:04-02:00</time>
      </trkpt>
      <trkpt lat="-21.543241660000003" lon="-48.78687166000001">
        <ele>559.0</ele>
        <time>2019-01-27T07:13:05-02:00</time>
      </trkpt>
      <trkpt lat="-21.54323833" lon="-48.78684832999999">
        <ele>559.0</ele>
        <time>2019-01-27T07:13:06-02:00</time>
      </trkpt>
      <trkpt lat="-21.54323566" lon="-48.78682333">
        <ele>559.0</ele>
        <time>2019-01-27T07:13:07-02:00</time>
      </trkpt>
      <trkpt lat="-21.543232330000002" lon="-48.786798329999996">
        <ele>559.0</ele>
        <time>2019-01-27T07:13:08-02:00</time>
      </trkpt>
      <trkpt lat="-21.543226660000006" lon="-48.78677166000001">
        <ele>559.0</ele>
        <time>2019-01-27T07:13:09-02:00</time>
      </trkpt>
      <trkpt lat="-21.54322366" lon="-48.786745">
        <ele>559.0</ele>
        <time>2019-01-27T07:13:10-02:00</time>
      </trkpt>
      <trkpt lat="-21.54322" lon="-48.78671833">
        <ele>559.0</ele>
        <time>2019-01-27T07:13:11-02:00</time>
      </trkpt>
      <trkpt lat="-21.543217" lon="-48.786691659999995">
        <ele>559.0</ele>
        <time>2019-01-27T07:13:12-02:00</time>
      </trkpt>
      <trkpt lat="-21.543211330000002" lon="-48.786665000000006">
        <ele>559.0</ele>
        <time>2019-01-27T07:13:13-02:00</time>
      </trkpt>
      <trkpt lat="-21.543208330000002" lon="-48.78663833">
        <ele>559.0</ele>
        <time>2019-01-27T07:13:14-02:00</time>
      </trkpt>
      <trkpt lat="-21.543205330000006" lon="-48.78661333">
        <ele>559.0</ele>
        <time>2019-01-27T07:13:15-02:00</time>
      </trkpt>
      <trkpt lat="-21.543201660000005" lon="-48.786584999999995">
        <ele>559.0</ele>
        <time>2019-01-27T07:13:16-02:00</time>
      </trkpt>
      <trkpt lat="-21.543198999999998" lon="-48.78656166">
        <ele>558.0</ele>
        <time>2019-01-27T07:13:17-02:00</time>
      </trkpt>
      <trkpt lat="-21.543193000000002" lon="-48.78653332999999">
        <ele>558.0</ele>
        <time>2019-01-27T07:13:18-02:00</time>
      </trkpt>
      <trkpt lat="-21.54319" lon="-48.78650833">
        <ele>558.0</ele>
        <time>2019-01-27T07:13:19-02:00</time>
      </trkpt>
      <trkpt lat="-21.543186330000005" lon="-48.78648">
        <ele>558.0</ele>
        <time>2019-01-27T07:13:20-02:00</time>
      </trkpt>
      <trkpt lat="-21.543183" lon="-48.786455000000004">
        <ele>558.0</ele>
        <time>2019-01-27T07:13:21-02:00</time>
      </trkpt>
      <trkpt lat="-21.54318" lon="-48.78642833">
        <ele>558.0</ele>
        <time>2019-01-27T07:13:22-02:00</time>
      </trkpt>
      <trkpt lat="-21.543174330000003" lon="-48.78640333">
        <ele>558.0</ele>
        <time>2019-01-27T07:13:23-02:00</time>
      </trkpt>
      <trkpt lat="-21.54317066" lon="-48.78637666000001">
        <ele>558.0</ele>
        <time>2019-01-27T07:13:24-02:00</time>
      </trkpt>
      <trkpt lat="-21.543167999999998" lon="-48.78635166">
        <ele>558.0</ele>
        <time>2019-01-27T07:13:25-02:00</time>
      </trkpt>
      <trkpt lat="-21.543164660000002" lon="-48.78632666">
        <ele>557.0</ele>
        <time>2019-01-27T07:13:26-02:00</time>
      </trkpt>
      <trkpt lat="-21.543161330000004" lon="-48.78629833">
        <ele>557.0</ele>
        <time>2019-01-27T07:13:27-02:00</time>
      </trkpt>
      <trkpt lat="-21.543158" lon="-48.78627332999999">
        <ele>557.0</ele>
        <time>2019-01-27T07:13:28-02:00</time>
      </trkpt>
      <trkpt lat="-21.54315466" lon="-48.78624833">
        <ele>557.0</ele>
        <time>2019-01-27T07:13:29-02:00</time>
      </trkpt>
      <trkpt lat="-21.543151660000003" lon="-48.78622166">
        <ele>557.0</ele>
        <time>2019-01-27T07:13:30-02:00</time>
      </trkpt>
      <trkpt lat="-21.54314833" lon="-48.78619666000001">
        <ele>557.0</ele>
        <time>2019-01-27T07:13:31-02:00</time>
      </trkpt>
      <trkpt lat="-21.543145" lon="-48.78617166000001">
        <ele>557.0</ele>
        <time>2019-01-27T07:13:32-02:00</time>
      </trkpt>
      <trkpt lat="-21.543142330000002" lon="-48.786148329999996">
        <ele>557.0</ele>
        <time>2019-01-27T07:13:33-02:00</time>
      </trkpt>
      <trkpt lat="-21.54313866" lon="-48.786121660000006">
        <ele>557.0</ele>
        <time>2019-01-27T07:13:34-02:00</time>
      </trkpt>
      <trkpt lat="-21.543135330000002" lon="-48.786095">
        <ele>557.0</ele>
        <time>2019-01-27T07:13:35-02:00</time>
      </trkpt>
      <trkpt lat="-21.543132" lon="-48.78606833">
        <ele>557.0</ele>
        <time>2019-01-27T07:13:36-02:00</time>
      </trkpt>
      <trkpt lat="-21.543128659999997" lon="-48.78604333">
        <ele>557.0</ele>
        <time>2019-01-27T07:13:37-02:00</time>
      </trkpt>
      <trkpt lat="-21.543125" lon="-48.78601833">
        <ele>557.0</ele>
        <time>2019-01-27T07:13:38-02:00</time>
      </trkpt>
      <trkpt lat="-21.543121660000004" lon="-48.78599166">
        <ele>557.0</ele>
        <time>2019-01-27T07:13:39-02:00</time>
      </trkpt>
      <trkpt lat="-21.543118" lon="-48.785965000000004">
        <ele>557.0</ele>
        <time>2019-01-27T07:13:40-02:00</time>
      </trkpt>
      <trkpt lat="-21.54311466" lon="-48.78594">
        <ele>556.0</ele>
        <time>2019-01-27T07:13:41-02:00</time>
      </trkpt>
      <trkpt lat="-21.543111" lon="-48.78591166">
        <ele>556.0</ele>
        <time>2019-01-27T07:13:42-02:00</time>
      </trkpt>
      <trkpt lat="-21.543107329999998" lon="-48.78588499999999">
        <ele>556.0</ele>
        <time>2019-01-27T07:13:43-02:00</time>
      </trkpt>
      <trkpt lat="-21.543104" lon="-48.78586">
        <ele>556.0</ele>
        <time>2019-01-27T07:13:44-02:00</time>
      </trkpt>
      <trkpt lat="-21.54310033000001" lon="-48.78583166">
        <ele>556.0</ele>
        <time>2019-01-27T07:13:45-02:00</time>
      </trkpt>
      <trkpt lat="-21.54309666" lon="-48.78580333">
        <ele>555.0</ele>
        <time>2019-01-27T07:13:46-02:00</time>
      </trkpt>
      <trkpt lat="-21.543093" lon="-48.785775">
        <ele>555.0</ele>
        <time>2019-01-27T07:13:47-02:00</time>
      </trkpt>
      <trkpt lat="-21.543089000000002" lon="-48.78574833">
        <ele>555.0</ele>
        <time>2019-01-27T07:13:48-02:00</time>
      </trkpt>
      <trkpt lat="-21.543086000000002" lon="-48.78572332999999">
        <ele>555.0</ele>
        <time>2019-01-27T07:13:49-02:00</time>
      </trkpt>
      <trkpt lat="-21.543082000000005" lon="-48.785695">
        <ele>555.0</ele>
        <time>2019-01-27T07:13:50-02:00</time>
      </trkpt>
      <trkpt lat="-21.543078329999997" lon="-48.78566833">
        <ele>555.0</ele>
        <time>2019-01-27T07:13:51-02:00</time>
      </trkpt>
      <trkpt lat="-21.543074660000002" lon="-48.78564">
        <ele>555.0</ele>
        <time>2019-01-27T07:13:52-02:00</time>
      </trkpt>
      <trkpt lat="-21.54306833" lon="-48.78561333">
        <ele>555.0</ele>
        <time>2019-01-27T07:13:53-02:00</time>
      </trkpt>
      <trkpt lat="-21.54306466" lon="-48.78558666">
        <ele>555.0</ele>
        <time>2019-01-27T07:13:54-02:00</time>
      </trkpt>
      <trkpt lat="-21.543061" lon="-48.78556">
        <ele>555.0</ele>
        <time>2019-01-27T07:13:55-02:00</time>
      </trkpt>
      <trkpt lat="-21.543057330000003" lon="-48.785533329999986">
        <ele>555.0</ele>
        <time>2019-01-27T07:13:56-02:00</time>
      </trkpt>
      <trkpt lat="-21.543053659999995" lon="-48.78550832999999">
        <ele>555.0</ele>
        <time>2019-01-27T07:13:57-02:00</time>
      </trkpt>
      <trkpt lat="-21.54304733" lon="-48.78547999999999">
        <ele>555.0</ele>
        <time>2019-01-27T07:13:58-02:00</time>
      </trkpt>
      <trkpt lat="-21.54304366" lon="-48.78545333">
        <ele>555.0</ele>
        <time>2019-01-27T07:13:59-02:00</time>
      </trkpt>
      <trkpt lat="-21.543036660000002" lon="-48.785425000000004">
        <ele>555.0</ele>
        <time>2019-01-27T07:14:00-02:00</time>
      </trkpt>
      <trkpt lat="-21.543033329999997" lon="-48.785399999999996">
        <ele>555.0</ele>
        <time>2019-01-27T07:14:01-02:00</time>
      </trkpt>
      <trkpt lat="-21.543028999999997" lon="-48.785371659999996">
        <ele>555.0</ele>
        <time>2019-01-27T07:14:02-02:00</time>
      </trkpt>
      <trkpt lat="-21.54302266" lon="-48.78534666">
        <ele>555.0</ele>
        <time>2019-01-27T07:14:03-02:00</time>
      </trkpt>
      <trkpt lat="-21.543018659999998" lon="-48.78531832999999">
        <ele>555.0</ele>
        <time>2019-01-27T07:14:04-02:00</time>
      </trkpt>
      <trkpt lat="-21.54301466" lon="-48.78529166">
        <ele>555.0</ele>
        <time>2019-01-27T07:14:05-02:00</time>
      </trkpt>
      <trkpt lat="-21.54300866" lon="-48.785268329999994">
        <ele>555.0</ele>
        <time>2019-01-27T07:14:06-02:00</time>
      </trkpt>
      <trkpt lat="-21.543004330000002" lon="-48.78524">
        <ele>554.0</ele>
        <time>2019-01-27T07:14:07-02:00</time>
      </trkpt>
      <trkpt lat="-21.543000330000005" lon="-48.78521333">
        <ele>554.0</ele>
        <time>2019-01-27T07:14:08-02:00</time>
      </trkpt>
      <trkpt lat="-21.542993329999998" lon="-48.785185">
        <ele>554.0</ele>
        <time>2019-01-27T07:14:09-02:00</time>
      </trkpt>
      <trkpt lat="-21.542989659999996" lon="-48.78516165999999">
        <ele>554.0</ele>
        <time>2019-01-27T07:14:10-02:00</time>
      </trkpt>
      <trkpt lat="-21.54298566" lon="-48.785133329999994">
        <ele>554.0</ele>
        <time>2019-01-27T07:14:11-02:00</time>
      </trkpt>
      <trkpt lat="-21.54297933" lon="-48.78510832999999">
        <ele>554.0</ele>
        <time>2019-01-27T07:14:12-02:00</time>
      </trkpt>
      <trkpt lat="-21.542975330000004" lon="-48.78508333">
        <ele>553.0</ele>
        <time>2019-01-27T07:14:13-02:00</time>
      </trkpt>
      <trkpt lat="-21.54296933" lon="-48.785059999999994">
        <ele>553.0</ele>
        <time>2019-01-27T07:14:14-02:00</time>
      </trkpt>
      <trkpt lat="-21.54296533" lon="-48.785035">
        <ele>553.0</ele>
        <time>2019-01-27T07:14:15-02:00</time>
      </trkpt>
      <trkpt lat="-21.542961330000004" lon="-48.78500999999999">
        <ele>553.0</ele>
        <time>2019-01-27T07:14:16-02:00</time>
      </trkpt>
      <trkpt lat="-21.54295466" lon="-48.78498499999999">
        <ele>553.0</ele>
        <time>2019-01-27T07:14:17-02:00</time>
      </trkpt>
      <trkpt lat="-21.542950330000004" lon="-48.78495832999999">
        <ele>553.0</ele>
        <time>2019-01-27T07:14:18-02:00</time>
      </trkpt>
      <trkpt lat="-21.54294566" lon="-48.78493166">
        <ele>553.0</ele>
        <time>2019-01-27T07:14:19-02:00</time>
      </trkpt>
      <trkpt lat="-21.542938659999997" lon="-48.784904999999995">
        <ele>553.0</ele>
        <time>2019-01-27T07:14:20-02:00</time>
      </trkpt>
      <trkpt lat="-21.54293366" lon="-48.784876659999995">
        <ele>553.0</ele>
        <time>2019-01-27T07:14:21-02:00</time>
      </trkpt>
      <trkpt lat="-21.542926660000003" lon="-48.78484999999999">
        <ele>553.0</ele>
        <time>2019-01-27T07:14:22-02:00</time>
      </trkpt>
      <trkpt lat="-21.542922000000004" lon="-48.784825">
        <ele>553.0</ele>
        <time>2019-01-27T07:14:23-02:00</time>
      </trkpt>
      <trkpt lat="-21.542915" lon="-48.784798329999994">
        <ele>552.0</ele>
        <time>2019-01-27T07:14:24-02:00</time>
      </trkpt>
      <trkpt lat="-21.54291" lon="-48.78477000000001">
        <ele>552.0</ele>
        <time>2019-01-27T07:14:25-02:00</time>
      </trkpt>
      <trkpt lat="-21.542904659999998" lon="-48.784741659999995">
        <ele>552.0</ele>
        <time>2019-01-27T07:14:26-02:00</time>
      </trkpt>
      <trkpt lat="-21.542897000000004" lon="-48.784713329999995">
        <ele>552.0</ele>
        <time>2019-01-27T07:14:27-02:00</time>
      </trkpt>
      <trkpt lat="-21.542892000000002" lon="-48.78468666">
        <ele>552.0</ele>
        <time>2019-01-27T07:14:28-02:00</time>
      </trkpt>
      <trkpt lat="-21.54288466" lon="-48.78465832999999">
        <ele>552.0</ele>
        <time>2019-01-27T07:14:29-02:00</time>
      </trkpt>
      <trkpt lat="-21.54287966" lon="-48.784631659999995">
        <ele>552.0</ele>
        <time>2019-01-27T07:14:30-02:00</time>
      </trkpt>
      <trkpt lat="-21.542874660000003" lon="-48.784603329999996">
        <ele>552.0</ele>
        <time>2019-01-27T07:14:31-02:00</time>
      </trkpt>
      <trkpt lat="-21.54286733" lon="-48.784578329999995">
        <ele>551.0</ele>
        <time>2019-01-27T07:14:32-02:00</time>
      </trkpt>
      <trkpt lat="-21.54286233" lon="-48.784551660000005">
        <ele>551.0</ele>
        <time>2019-01-27T07:14:33-02:00</time>
      </trkpt>
      <trkpt lat="-21.542857329999997" lon="-48.784525">
        <ele>551.0</ele>
        <time>2019-01-27T07:14:34-02:00</time>
      </trkpt>
      <trkpt lat="-21.542849999999998" lon="-48.78449833">
        <ele>551.0</ele>
        <time>2019-01-27T07:14:35-02:00</time>
      </trkpt>
      <trkpt lat="-21.54284466" lon="-48.78447">
        <ele>551.0</ele>
        <time>2019-01-27T07:14:36-02:00</time>
      </trkpt>
      <trkpt lat="-21.542834" lon="-48.784416660000005">
        <ele>550.0</ele>
        <time>2019-01-27T07:14:37-02:00</time>
      </trkpt>
      <trkpt lat="-21.54282933" lon="-48.78439166">
        <ele>550.0</ele>
        <time>2019-01-27T07:14:38-02:00</time>
      </trkpt>
      <trkpt lat="-21.542824330000002" lon="-48.78436500000001">
        <ele>550.0</ele>
        <time>2019-01-27T07:14:39-02:00</time>
      </trkpt>
      <trkpt lat="-21.54281966" lon="-48.78434">
        <ele>550.0</ele>
        <time>2019-01-27T07:14:40-02:00</time>
      </trkpt>
      <trkpt lat="-21.542814659999998" lon="-48.784313329999996">
        <ele>550.0</ele>
        <time>2019-01-27T07:14:41-02:00</time>
      </trkpt>
      <trkpt lat="-21.54281" lon="-48.784288329999995">
        <ele>550.0</ele>
        <time>2019-01-27T07:14:42-02:00</time>
      </trkpt>
      <trkpt lat="-21.54280466" lon="-48.784259999999996">
        <ele>550.0</ele>
        <time>2019-01-27T07:14:43-02:00</time>
      </trkpt>
      <trkpt lat="-21.54279966" lon="-48.78423332999999">
        <ele>550.0</ele>
        <time>2019-01-27T07:14:44-02:00</time>
      </trkpt>
      <trkpt lat="-21.54279433" lon="-48.784205">
        <ele>550.0</ele>
        <time>2019-01-27T07:14:45-02:00</time>
      </trkpt>
      <trkpt lat="-21.542788659999996" lon="-48.784175000000005">
        <ele>550.0</ele>
        <time>2019-01-27T07:14:46-02:00</time>
      </trkpt>
      <trkpt lat="-21.54278333" lon="-48.784146660000005">
        <ele>550.0</ele>
        <time>2019-01-27T07:14:47-02:00</time>
      </trkpt>
      <trkpt lat="-21.542777660000002" lon="-48.78411666">
        <ele>550.0</ele>
        <time>2019-01-27T07:14:48-02:00</time>
      </trkpt>
      <trkpt lat="-21.54277266" lon="-48.784090000000006">
        <ele>550.0</ele>
        <time>2019-01-27T07:14:49-02:00</time>
      </trkpt>
      <trkpt lat="-21.542767329999997" lon="-48.78406166">
        <ele>550.0</ele>
        <time>2019-01-27T07:14:50-02:00</time>
      </trkpt>
      <trkpt lat="-21.54276266" lon="-48.784036660000005">
        <ele>550.0</ele>
        <time>2019-01-27T07:14:51-02:00</time>
      </trkpt>
      <trkpt lat="-21.542758" lon="-48.784011660000004">
        <ele>550.0</ele>
        <time>2019-01-27T07:14:52-02:00</time>
      </trkpt>
      <trkpt lat="-21.54275333" lon="-48.78398666">
        <ele>550.0</ele>
        <time>2019-01-27T07:14:53-02:00</time>
      </trkpt>
      <trkpt lat="-21.542748330000002" lon="-48.78395999999999">
        <ele>550.0</ele>
        <time>2019-01-27T07:14:54-02:00</time>
      </trkpt>
      <trkpt lat="-21.542743" lon="-48.78393332999999">
        <ele>550.0</ele>
        <time>2019-01-27T07:14:55-02:00</time>
      </trkpt>
      <trkpt lat="-21.542740660000003" lon="-48.78390666">
        <ele>549.0</ele>
        <time>2019-01-27T07:14:56-02:00</time>
      </trkpt>
      <trkpt lat="-21.542735659999998" lon="-48.783879999999996">
        <ele>549.0</ele>
        <time>2019-01-27T07:14:57-02:00</time>
      </trkpt>
      <trkpt lat="-21.54273" lon="-48.783851659999996">
        <ele>549.0</ele>
        <time>2019-01-27T07:14:58-02:00</time>
      </trkpt>
      <trkpt lat="-21.542725" lon="-48.78382499999999">
        <ele>549.0</ele>
        <time>2019-01-27T07:14:59-02:00</time>
      </trkpt>
      <trkpt lat="-21.54272" lon="-48.78379833">
        <ele>549.0</ele>
        <time>2019-01-27T07:15:00-02:00</time>
      </trkpt>
      <trkpt lat="-21.54271733" lon="-48.783770000000004">
        <ele>549.0</ele>
        <time>2019-01-27T07:15:01-02:00</time>
      </trkpt>
      <trkpt lat="-21.54271266" lon="-48.783744999999996">
        <ele>548.0</ele>
        <time>2019-01-27T07:15:02-02:00</time>
      </trkpt>
      <trkpt lat="-21.54270733" lon="-48.78371832999999">
        <ele>548.0</ele>
        <time>2019-01-27T07:15:03-02:00</time>
      </trkpt>
      <trkpt lat="-21.542704999999994" lon="-48.783691659999995">
        <ele>548.0</ele>
        <time>2019-01-27T07:15:04-02:00</time>
      </trkpt>
      <trkpt lat="-21.542699660000004" lon="-48.783665">
        <ele>548.0</ele>
        <time>2019-01-27T07:15:05-02:00</time>
      </trkpt>
      <trkpt lat="-21.542694330000003" lon="-48.78363833">
        <ele>548.0</ele>
        <time>2019-01-27T07:15:06-02:00</time>
      </trkpt>
      <trkpt lat="-21.54269" lon="-48.78361500000001">
        <ele>548.0</ele>
        <time>2019-01-27T07:15:07-02:00</time>
      </trkpt>
      <trkpt lat="-21.54268533" lon="-48.783590000000004">
        <ele>548.0</ele>
        <time>2019-01-27T07:15:08-02:00</time>
      </trkpt>
      <trkpt lat="-21.542680330000003" lon="-48.783564999999996">
        <ele>548.0</ele>
        <time>2019-01-27T07:15:09-02:00</time>
      </trkpt>
      <trkpt lat="-21.542675330000005" lon="-48.78353832999999">
        <ele>547.0</ele>
        <time>2019-01-27T07:15:10-02:00</time>
      </trkpt>
      <trkpt lat="-21.542671000000002" lon="-48.783515">
        <ele>547.0</ele>
        <time>2019-01-27T07:15:11-02:00</time>
      </trkpt>
      <trkpt lat="-21.54266366" lon="-48.78349">
        <ele>547.0</ele>
        <time>2019-01-27T07:15:12-02:00</time>
      </trkpt>
      <trkpt lat="-21.542658999999997" lon="-48.78346500000001">
        <ele>547.0</ele>
        <time>2019-01-27T07:15:13-02:00</time>
      </trkpt>
      <trkpt lat="-21.542654329999998" lon="-48.78344">
        <ele>547.0</ele>
        <time>2019-01-27T07:15:14-02:00</time>
      </trkpt>
      <trkpt lat="-21.542650000000002" lon="-48.78341666">
        <ele>547.0</ele>
        <time>2019-01-27T07:15:15-02:00</time>
      </trkpt>
      <trkpt lat="-21.542644659999997" lon="-48.783388329999994">
        <ele>546.0</ele>
        <time>2019-01-27T07:15:16-02:00</time>
      </trkpt>
      <trkpt lat="-21.54263733" lon="-48.78336333">
        <ele>546.0</ele>
        <time>2019-01-27T07:15:17-02:00</time>
      </trkpt>
      <trkpt lat="-21.54263233" lon="-48.78333666">
        <ele>546.0</ele>
        <time>2019-01-27T07:15:18-02:00</time>
      </trkpt>
      <trkpt lat="-21.54262733" lon="-48.78331">
        <ele>546.0</ele>
        <time>2019-01-27T07:15:19-02:00</time>
      </trkpt>
      <trkpt lat="-21.542622330000004" lon="-48.783283329999996">
        <ele>546.0</ele>
        <time>2019-01-27T07:15:20-02:00</time>
      </trkpt>
      <trkpt lat="-21.542617" lon="-48.78325665999999">
        <ele>545.0</ele>
        <time>2019-01-27T07:15:21-02:00</time>
      </trkpt>
      <trkpt lat="-21.54261266" lon="-48.78323166">
        <ele>545.0</ele>
        <time>2019-01-27T07:15:22-02:00</time>
      </trkpt>
      <trkpt lat="-21.542607330000003" lon="-48.78320333">
        <ele>545.0</ele>
        <time>2019-01-27T07:15:23-02:00</time>
      </trkpt>
      <trkpt lat="-21.542602000000002" lon="-48.783175">
        <ele>545.0</ele>
        <time>2019-01-27T07:15:24-02:00</time>
      </trkpt>
      <trkpt lat="-21.542594330000004" lon="-48.78314666">
        <ele>545.0</ele>
        <time>2019-01-27T07:15:25-02:00</time>
      </trkpt>
      <trkpt lat="-21.542589330000002" lon="-48.78312">
        <ele>545.0</ele>
        <time>2019-01-27T07:15:26-02:00</time>
      </trkpt>
      <trkpt lat="-21.542584660000003" lon="-48.783095">
        <ele>545.0</ele>
        <time>2019-01-27T07:15:27-02:00</time>
      </trkpt>
      <trkpt lat="-21.54257966" lon="-48.78306833">
        <ele>545.0</ele>
        <time>2019-01-27T07:15:28-02:00</time>
      </trkpt>
      <trkpt lat="-21.54257466" lon="-48.78304333">
        <ele>545.0</ele>
        <time>2019-01-27T07:15:29-02:00</time>
      </trkpt>
      <trkpt lat="-21.542569659999998" lon="-48.78301666">
        <ele>545.0</ele>
        <time>2019-01-27T07:15:30-02:00</time>
      </trkpt>
      <trkpt lat="-21.542564329999998" lon="-48.782990000000005">
        <ele>545.0</ele>
        <time>2019-01-27T07:15:31-02:00</time>
      </trkpt>
      <trkpt lat="-21.54255933" lon="-48.78296333">
        <ele>545.0</ele>
        <time>2019-01-27T07:15:32-02:00</time>
      </trkpt>
      <trkpt lat="-21.542551330000006" lon="-48.78293666">
        <ele>545.0</ele>
        <time>2019-01-27T07:15:33-02:00</time>
      </trkpt>
      <trkpt lat="-21.542546330000004" lon="-48.782909999999994">
        <ele>544.0</ele>
        <time>2019-01-27T07:15:34-02:00</time>
      </trkpt>
      <trkpt lat="-21.542541" lon="-48.78288166">
        <ele>544.0</ele>
        <time>2019-01-27T07:15:35-02:00</time>
      </trkpt>
      <trkpt lat="-21.542535660000006" lon="-48.782855">
        <ele>544.0</ele>
        <time>2019-01-27T07:15:36-02:00</time>
      </trkpt>
      <trkpt lat="-21.542529999999996" lon="-48.78282499999999">
        <ele>544.0</ele>
        <time>2019-01-27T07:15:37-02:00</time>
      </trkpt>
      <trkpt lat="-21.542523659999997" lon="-48.782795">
        <ele>543.0</ele>
        <time>2019-01-27T07:15:38-02:00</time>
      </trkpt>
      <trkpt lat="-21.542518659999995" lon="-48.78277">
        <ele>543.0</ele>
        <time>2019-01-27T07:15:39-02:00</time>
      </trkpt>
      <trkpt lat="-21.54251166" lon="-48.782745000000006">
        <ele>543.0</ele>
        <time>2019-01-27T07:15:40-02:00</time>
      </trkpt>
      <trkpt lat="-21.54250566" lon="-48.78271665999999">
        <ele>543.0</ele>
        <time>2019-01-27T07:15:41-02:00</time>
      </trkpt>
      <trkpt lat="-21.54250066" lon="-48.78269166">
        <ele>543.0</ele>
        <time>2019-01-27T07:15:42-02:00</time>
      </trkpt>
      <trkpt lat="-21.54249566" lon="-48.782666660000004">
        <ele>543.0</ele>
        <time>2019-01-27T07:15:43-02:00</time>
      </trkpt>
      <trkpt lat="-21.542491000000002" lon="-48.78264166">
        <ele>543.0</ele>
        <time>2019-01-27T07:15:44-02:00</time>
      </trkpt>
      <trkpt lat="-21.54248833" lon="-48.78261666">
        <ele>543.0</ele>
        <time>2019-01-27T07:15:45-02:00</time>
      </trkpt>
      <trkpt lat="-21.542483" lon="-48.782588329999996">
        <ele>543.0</ele>
        <time>2019-01-27T07:15:46-02:00</time>
      </trkpt>
      <trkpt lat="-21.542477999999996" lon="-48.78256166">
        <ele>542.0</ele>
        <time>2019-01-27T07:15:47-02:00</time>
      </trkpt>
      <trkpt lat="-21.542473" lon="-48.78253665999999">
        <ele>542.0</ele>
        <time>2019-01-27T07:15:48-02:00</time>
      </trkpt>
      <trkpt lat="-21.542468" lon="-48.78251166">
        <ele>542.0</ele>
        <time>2019-01-27T07:15:49-02:00</time>
      </trkpt>
      <trkpt lat="-21.542462999999998" lon="-48.782486660000004">
        <ele>541.0</ele>
        <time>2019-01-27T07:15:50-02:00</time>
      </trkpt>
      <trkpt lat="-21.542457659999997" lon="-48.78246">
        <ele>541.0</ele>
        <time>2019-01-27T07:15:51-02:00</time>
      </trkpt>
      <trkpt lat="-21.542452000000004" lon="-48.78243332999999">
        <ele>541.0</ele>
        <time>2019-01-27T07:15:52-02:00</time>
      </trkpt>
      <trkpt lat="-21.54244633" lon="-48.782405">
        <ele>541.0</ele>
        <time>2019-01-27T07:15:53-02:00</time>
      </trkpt>
      <trkpt lat="-21.542441" lon="-48.78237666">
        <ele>541.0</ele>
        <time>2019-01-27T07:15:54-02:00</time>
      </trkpt>
      <trkpt lat="-21.542435660000002" lon="-48.782349999999994">
        <ele>541.0</ele>
        <time>2019-01-27T07:15:55-02:00</time>
      </trkpt>
      <trkpt lat="-21.54243066" lon="-48.78232333">
        <ele>541.0</ele>
        <time>2019-01-27T07:15:56-02:00</time>
      </trkpt>
      <trkpt lat="-21.542424999999998" lon="-48.78229499999999">
        <ele>541.0</ele>
        <time>2019-01-27T07:15:57-02:00</time>
      </trkpt>
      <trkpt lat="-21.54242" lon="-48.782270000000004">
        <ele>541.0</ele>
        <time>2019-01-27T07:15:58-02:00</time>
      </trkpt>
      <trkpt lat="-21.542415" lon="-48.782245">
        <ele>541.0</ele>
        <time>2019-01-27T07:15:59-02:00</time>
      </trkpt>
      <trkpt lat="-21.542409659999997" lon="-48.782216659999996">
        <ele>541.0</ele>
        <time>2019-01-27T07:16:00-02:00</time>
      </trkpt>
      <trkpt lat="-21.54240433" lon="-48.78218833">
        <ele>541.0</ele>
        <time>2019-01-27T07:16:01-02:00</time>
      </trkpt>
      <trkpt lat="-21.542398999999996" lon="-48.78216166">
        <ele>541.0</ele>
        <time>2019-01-27T07:16:02-02:00</time>
      </trkpt>
      <trkpt lat="-21.542396330000003" lon="-48.78213333">
        <ele>541.0</ele>
        <time>2019-01-27T07:16:03-02:00</time>
      </trkpt>
      <trkpt lat="-21.542391660000003" lon="-48.78210832999999">
        <ele>541.0</ele>
        <time>2019-01-27T07:16:04-02:00</time>
      </trkpt>
      <trkpt lat="-21.542386660000002" lon="-48.78208166">
        <ele>541.0</ele>
        <time>2019-01-27T07:16:05-02:00</time>
      </trkpt>
      <trkpt lat="-21.54238166" lon="-48.78205666">
        <ele>541.0</ele>
        <time>2019-01-27T07:16:06-02:00</time>
      </trkpt>
      <trkpt lat="-21.542377000000002" lon="-48.78203166">
        <ele>541.0</ele>
        <time>2019-01-27T07:16:07-02:00</time>
      </trkpt>
      <trkpt lat="-21.542371659999997" lon="-48.78200665999999">
        <ele>541.0</ele>
        <time>2019-01-27T07:16:08-02:00</time>
      </trkpt>
      <trkpt lat="-21.542366660000003" lon="-48.78197999999999">
        <ele>541.0</ele>
        <time>2019-01-27T07:16:09-02:00</time>
      </trkpt>
      <trkpt lat="-21.54236166" lon="-48.781954999999996">
        <ele>541.0</ele>
        <time>2019-01-27T07:16:10-02:00</time>
      </trkpt>
      <trkpt lat="-21.542356660000003" lon="-48.78192832999999">
        <ele>541.0</ele>
        <time>2019-01-27T07:16:11-02:00</time>
      </trkpt>
      <trkpt lat="-21.542351330000006" lon="-48.78190166">
        <ele>541.0</ele>
        <time>2019-01-27T07:16:12-02:00</time>
      </trkpt>
      <trkpt lat="-21.542346000000002" lon="-48.781875">
        <ele>541.0</ele>
        <time>2019-01-27T07:16:13-02:00</time>
      </trkpt>
      <trkpt lat="-21.542341" lon="-48.78184832999999">
        <ele>540.0</ele>
        <time>2019-01-27T07:16:14-02:00</time>
      </trkpt>
      <trkpt lat="-21.54233566" lon="-48.781821660000006">
        <ele>540.0</ele>
        <time>2019-01-27T07:16:15-02:00</time>
      </trkpt>
      <trkpt lat="-21.542330659999998" lon="-48.781795">
        <ele>540.0</ele>
        <time>2019-01-27T07:16:16-02:00</time>
      </trkpt>
      <trkpt lat="-21.54232766" lon="-48.78176832999999">
        <ele>540.0</ele>
        <time>2019-01-27T07:16:17-02:00</time>
      </trkpt>
      <trkpt lat="-21.54232266" lon="-48.78174166">
        <ele>540.0</ele>
        <time>2019-01-27T07:16:18-02:00</time>
      </trkpt>
      <trkpt lat="-21.542317329999996" lon="-48.78171333">
        <ele>540.0</ele>
        <time>2019-01-27T07:16:19-02:00</time>
      </trkpt>
      <trkpt lat="-21.542312329999998" lon="-48.78168666">
        <ele>539.0</ele>
        <time>2019-01-27T07:16:20-02:00</time>
      </trkpt>
      <trkpt lat="-21.54230733" lon="-48.781659999999995">
        <ele>539.0</ele>
        <time>2019-01-27T07:16:21-02:00</time>
      </trkpt>
      <trkpt lat="-21.542302659999997" lon="-48.781634999999994">
        <ele>539.0</ele>
        <time>2019-01-27T07:16:22-02:00</time>
      </trkpt>
      <trkpt lat="-21.542297330000004" lon="-48.78160666000001">
        <ele>539.0</ele>
        <time>2019-01-27T07:16:23-02:00</time>
      </trkpt>
      <trkpt lat="-21.54229566" lon="-48.78158166">
        <ele>539.0</ele>
        <time>2019-01-27T07:16:24-02:00</time>
      </trkpt>
      <trkpt lat="-21.542290660000003" lon="-48.781555">
        <ele>539.0</ele>
        <time>2019-01-27T07:16:25-02:00</time>
      </trkpt>
      <trkpt lat="-21.542285330000006" lon="-48.78152666">
        <ele>539.0</ele>
        <time>2019-01-27T07:16:26-02:00</time>
      </trkpt>
      <trkpt lat="-21.542280330000004" lon="-48.781499999999994">
        <ele>539.0</ele>
        <time>2019-01-27T07:16:27-02:00</time>
      </trkpt>
      <trkpt lat="-21.542275330000002" lon="-48.78147332999999">
        <ele>538.0</ele>
        <time>2019-01-27T07:16:28-02:00</time>
      </trkpt>
      <trkpt lat="-21.542271" lon="-48.78144833">
        <ele>538.0</ele>
        <time>2019-01-27T07:16:29-02:00</time>
      </trkpt>
      <trkpt lat="-21.542266330000007" lon="-48.781423329999996">
        <ele>538.0</ele>
        <time>2019-01-27T07:16:30-02:00</time>
      </trkpt>
      <trkpt lat="-21.54226166" lon="-48.78139832999999">
        <ele>538.0</ele>
        <time>2019-01-27T07:16:31-02:00</time>
      </trkpt>
      <trkpt lat="-21.542256660000003" lon="-48.781371660000005">
        <ele>538.0</ele>
        <time>2019-01-27T07:16:32-02:00</time>
      </trkpt>
      <trkpt lat="-21.54225166" lon="-48.781345">
        <ele>538.0</ele>
        <time>2019-01-27T07:16:33-02:00</time>
      </trkpt>
      <trkpt lat="-21.542246330000005" lon="-48.78131832999999">
        <ele>538.0</ele>
        <time>2019-01-27T07:16:34-02:00</time>
      </trkpt>
      <trkpt lat="-21.542241330000007" lon="-48.78129166000001">
        <ele>538.0</ele>
        <time>2019-01-27T07:16:35-02:00</time>
      </trkpt>
      <trkpt lat="-21.542236660000004" lon="-48.78126666">
        <ele>538.0</ele>
        <time>2019-01-27T07:16:36-02:00</time>
      </trkpt>
      <trkpt lat="-21.542231330000003" lon="-48.78124000000001">
        <ele>538.0</ele>
        <time>2019-01-27T07:16:37-02:00</time>
      </trkpt>
      <trkpt lat="-21.542226660000004" lon="-48.781215">
        <ele>537.0</ele>
        <time>2019-01-27T07:16:38-02:00</time>
      </trkpt>
      <trkpt lat="-21.542221" lon="-48.781184999999994">
        <ele>537.0</ele>
        <time>2019-01-27T07:16:39-02:00</time>
      </trkpt>
      <trkpt lat="-21.542215660000004" lon="-48.78115666">
        <ele>537.0</ele>
        <time>2019-01-27T07:16:40-02:00</time>
      </trkpt>
      <trkpt lat="-21.542210660000002" lon="-48.78113">
        <ele>537.0</ele>
        <time>2019-01-27T07:16:41-02:00</time>
      </trkpt>
      <trkpt lat="-21.54220566" lon="-48.78110332999999">
        <ele>537.0</ele>
        <time>2019-01-27T07:16:42-02:00</time>
      </trkpt>
      <trkpt lat="-21.542200330000007" lon="-48.781075">
        <ele>537.0</ele>
        <time>2019-01-27T07:16:43-02:00</time>
      </trkpt>
      <trkpt lat="-21.54219233" lon="-48.78104666000001">
        <ele>537.0</ele>
        <time>2019-01-27T07:16:44-02:00</time>
      </trkpt>
      <trkpt lat="-21.542189999999998" lon="-48.781020000000005">
        <ele>537.0</ele>
        <time>2019-01-27T07:16:45-02:00</time>
      </trkpt>
      <trkpt lat="-21.542185330000002" lon="-48.78099333">
        <ele>537.0</ele>
        <time>2019-01-27T07:16:46-02:00</time>
      </trkpt>
      <trkpt lat="-21.542180660000003" lon="-48.78096832999999">
        <ele>536.0</ele>
        <time>2019-01-27T07:16:47-02:00</time>
      </trkpt>
      <trkpt lat="-21.542175660000005" lon="-48.780941659999996">
        <ele>536.0</ele>
        <time>2019-01-27T07:16:48-02:00</time>
      </trkpt>
      <trkpt lat="-21.542171000000003" lon="-48.78091666">
        <ele>536.0</ele>
        <time>2019-01-27T07:16:49-02:00</time>
      </trkpt>
      <trkpt lat="-21.542166" lon="-48.780888329999996">
        <ele>536.0</ele>
        <time>2019-01-27T07:16:50-02:00</time>
      </trkpt>
      <trkpt lat="-21.542161" lon="-48.78086333">
        <ele>536.0</ele>
        <time>2019-01-27T07:16:51-02:00</time>
      </trkpt>
      <trkpt lat="-21.54215566" lon="-48.780834999999996">
        <ele>536.0</ele>
        <time>2019-01-27T07:16:52-02:00</time>
      </trkpt>
      <trkpt lat="-21.54215066" lon="-48.780806659999996">
        <ele>536.0</ele>
        <time>2019-01-27T07:16:53-02:00</time>
      </trkpt>
      <trkpt lat="-21.542146000000002" lon="-48.78078166">
        <ele>535.0</ele>
        <time>2019-01-27T07:16:54-02:00</time>
      </trkpt>
      <trkpt lat="-21.542141330000003" lon="-48.780756659999994">
        <ele>535.0</ele>
        <time>2019-01-27T07:16:55-02:00</time>
      </trkpt>
      <trkpt lat="-21.54213633" lon="-48.78072999999999">
        <ele>535.0</ele>
        <time>2019-01-27T07:16:56-02:00</time>
      </trkpt>
      <trkpt lat="-21.54213133" lon="-48.780703329999994">
        <ele>535.0</ele>
        <time>2019-01-27T07:16:57-02:00</time>
      </trkpt>
      <trkpt lat="-21.542127" lon="-48.780678329999986">
        <ele>535.0</ele>
        <time>2019-01-27T07:16:58-02:00</time>
      </trkpt>
      <trkpt lat="-21.54212233" lon="-48.78065332999999">
        <ele>535.0</ele>
        <time>2019-01-27T07:16:59-02:00</time>
      </trkpt>
      <trkpt lat="-21.542117659999995" lon="-48.780626659999996">
        <ele>535.0</ele>
        <time>2019-01-27T07:17:00-02:00</time>
      </trkpt>
      <trkpt lat="-21.542112000000003" lon="-48.78059832999999">
        <ele>535.0</ele>
        <time>2019-01-27T07:17:01-02:00</time>
      </trkpt>
      <trkpt lat="-21.542107659999996" lon="-48.780573329999996">
        <ele>535.0</ele>
        <time>2019-01-27T07:17:02-02:00</time>
      </trkpt>
      <trkpt lat="-21.542102659999994" lon="-48.78054666000001">
        <ele>535.0</ele>
        <time>2019-01-27T07:17:03-02:00</time>
      </trkpt>
      <trkpt lat="-21.542098329999998" lon="-48.780521660000005">
        <ele>535.0</ele>
        <time>2019-01-27T07:17:04-02:00</time>
      </trkpt>
      <trkpt lat="-21.542093329999997" lon="-48.78049333">
        <ele>535.0</ele>
        <time>2019-01-27T07:17:05-02:00</time>
      </trkpt>
      <trkpt lat="-21.542088330000002" lon="-48.78046666">
        <ele>534.0</ele>
        <time>2019-01-27T07:17:06-02:00</time>
      </trkpt>
      <trkpt lat="-21.542084" lon="-48.780441659999994">
        <ele>534.0</ele>
        <time>2019-01-27T07:17:07-02:00</time>
      </trkpt>
      <trkpt lat="-21.54207933" lon="-48.78041666">
        <ele>534.0</ele>
        <time>2019-01-27T07:17:08-02:00</time>
      </trkpt>
      <trkpt lat="-21.542074330000005" lon="-48.78039">
        <ele>534.0</ele>
        <time>2019-01-27T07:17:09-02:00</time>
      </trkpt>
      <trkpt lat="-21.542069" lon="-48.78036">
        <ele>534.0</ele>
        <time>2019-01-27T07:17:10-02:00</time>
      </trkpt>
      <trkpt lat="-21.542064330000002" lon="-48.780334999999994">
        <ele>534.0</ele>
        <time>2019-01-27T07:17:11-02:00</time>
      </trkpt>
      <trkpt lat="-21.542059000000002" lon="-48.78030666000001">
        <ele>534.0</ele>
        <time>2019-01-27T07:17:12-02:00</time>
      </trkpt>
      <trkpt lat="-21.542056330000005" lon="-48.780280000000005">
        <ele>534.0</ele>
        <time>2019-01-27T07:17:13-02:00</time>
      </trkpt>
      <trkpt lat="-21.542051330000003" lon="-48.780253329999994">
        <ele>534.0</ele>
        <time>2019-01-27T07:17:14-02:00</time>
      </trkpt>
      <trkpt lat="-21.54204633" lon="-48.780225">
        <ele>534.0</ele>
        <time>2019-01-27T07:17:15-02:00</time>
      </trkpt>
      <trkpt lat="-21.542041660000002" lon="-48.780199999999994">
        <ele>533.0</ele>
        <time>2019-01-27T07:17:16-02:00</time>
      </trkpt>
      <trkpt lat="-21.542036330000002" lon="-48.78017166000001">
        <ele>533.0</ele>
        <time>2019-01-27T07:17:17-02:00</time>
      </trkpt>
      <trkpt lat="-21.54203466" lon="-48.78014666000001">
        <ele>533.0</ele>
        <time>2019-01-27T07:17:18-02:00</time>
      </trkpt>
      <trkpt lat="-21.542029659999997" lon="-48.780120000000004">
        <ele>533.0</ele>
        <time>2019-01-27T07:17:19-02:00</time>
      </trkpt>
      <trkpt lat="-21.542025000000002" lon="-48.780095">
        <ele>533.0</ele>
        <time>2019-01-27T07:17:20-02:00</time>
      </trkpt>
      <trkpt lat="-21.54202" lon="-48.78006832999999">
        <ele>533.0</ele>
        <time>2019-01-27T07:17:21-02:00</time>
      </trkpt>
      <trkpt lat="-21.542015330000005" lon="-48.78004166000001">
        <ele>533.0</ele>
        <time>2019-01-27T07:17:22-02:00</time>
      </trkpt>
      <trkpt lat="-21.542013660000002" lon="-48.78001666">
        <ele>533.0</ele>
        <time>2019-01-27T07:17:23-02:00</time>
      </trkpt>
      <trkpt lat="-21.542009" lon="-48.77999165999999">
        <ele>533.0</ele>
        <time>2019-01-27T07:17:24-02:00</time>
      </trkpt>
      <trkpt lat="-21.542005330000002" lon="-48.77996832999999">
        <ele>533.0</ele>
        <time>2019-01-27T07:17:25-02:00</time>
      </trkpt>
      <trkpt lat="-21.542001" lon="-48.779943329999995">
        <ele>533.0</ele>
        <time>2019-01-27T07:17:26-02:00</time>
      </trkpt>
      <trkpt lat="-21.541996660000002" lon="-48.77991833">
        <ele>533.0</ele>
        <time>2019-01-27T07:17:27-02:00</time>
      </trkpt>
      <trkpt lat="-21.541992" lon="-48.779891660000004">
        <ele>533.0</ele>
        <time>2019-01-27T07:17:28-02:00</time>
      </trkpt>
      <trkpt lat="-21.54198766" lon="-48.779866659999996">
        <ele>533.0</ele>
        <time>2019-01-27T07:17:29-02:00</time>
      </trkpt>
      <trkpt lat="-21.54198333" lon="-48.77984">
        <ele>533.0</ele>
        <time>2019-01-27T07:17:30-02:00</time>
      </trkpt>
      <trkpt lat="-21.54198" lon="-48.77982">
        <ele>533.0</ele>
        <time>2019-01-27T07:17:31-02:00</time>
      </trkpt>
      <trkpt lat="-21.541975660000002" lon="-48.77979499999999">
        <ele>533.0</ele>
        <time>2019-01-27T07:17:32-02:00</time>
      </trkpt>
      <trkpt lat="-21.541971000000004" lon="-48.779768329999996">
        <ele>533.0</ele>
        <time>2019-01-27T07:17:33-02:00</time>
      </trkpt>
      <trkpt lat="-21.541966660000003" lon="-48.77974333">
        <ele>533.0</ele>
        <time>2019-01-27T07:17:34-02:00</time>
      </trkpt>
      <trkpt lat="-21.54196233" lon="-48.779718329999994">
        <ele>533.0</ele>
        <time>2019-01-27T07:17:35-02:00</time>
      </trkpt>
      <trkpt lat="-21.541958" lon="-48.77969332999999">
        <ele>533.0</ele>
        <time>2019-01-27T07:17:36-02:00</time>
      </trkpt>
      <trkpt lat="-21.541953999999997" lon="-48.779669999999996">
        <ele>533.0</ele>
        <time>2019-01-27T07:17:37-02:00</time>
      </trkpt>
      <trkpt lat="-21.541951660000002" lon="-48.779645">
        <ele>533.0</ele>
        <time>2019-01-27T07:17:38-02:00</time>
      </trkpt>
      <trkpt lat="-21.541947999999998" lon="-48.779621660000004">
        <ele>533.0</ele>
        <time>2019-01-27T07:17:39-02:00</time>
      </trkpt>
      <trkpt lat="-21.541943330000002" lon="-48.77959666">
        <ele>533.0</ele>
        <time>2019-01-27T07:17:40-02:00</time>
      </trkpt>
      <trkpt lat="-21.541938999999996" lon="-48.77957166">
        <ele>533.0</ele>
        <time>2019-01-27T07:17:41-02:00</time>
      </trkpt>
      <trkpt lat="-21.541934329999997" lon="-48.779545">
        <ele>533.0</ele>
        <time>2019-01-27T07:17:42-02:00</time>
      </trkpt>
      <trkpt lat="-21.541930660000002" lon="-48.779523329999996">
        <ele>533.0</ele>
        <time>2019-01-27T07:17:43-02:00</time>
      </trkpt>
      <trkpt lat="-21.541926330000006" lon="-48.779498329999996">
        <ele>533.0</ele>
        <time>2019-01-27T07:17:44-02:00</time>
      </trkpt>
      <trkpt lat="-21.541922330000002" lon="-48.779475000000005">
        <ele>533.0</ele>
        <time>2019-01-27T07:17:45-02:00</time>
      </trkpt>
      <trkpt lat="-21.541917999999995" lon="-48.77945">
        <ele>533.0</ele>
        <time>2019-01-27T07:17:46-02:00</time>
      </trkpt>
      <trkpt lat="-21.54191366" lon="-48.779425">
        <ele>533.0</ele>
        <time>2019-01-27T07:17:47-02:00</time>
      </trkpt>
      <trkpt lat="-21.541909330000003" lon="-48.779401660000005">
        <ele>533.0</ele>
        <time>2019-01-27T07:17:48-02:00</time>
      </trkpt>
      <trkpt lat="-21.541904999999996" lon="-48.77937666">
        <ele>533.0</ele>
        <time>2019-01-27T07:17:49-02:00</time>
      </trkpt>
      <trkpt lat="-21.541901000000003" lon="-48.77935166">
        <ele>533.0</ele>
        <time>2019-01-27T07:17:50-02:00</time>
      </trkpt>
      <trkpt lat="-21.541896330000004" lon="-48.779325">
        <ele>533.0</ele>
        <time>2019-01-27T07:17:51-02:00</time>
      </trkpt>
      <trkpt lat="-21.54189166" lon="-48.77929833">
        <ele>532.0</ele>
        <time>2019-01-27T07:17:52-02:00</time>
      </trkpt>
      <trkpt lat="-21.54188733" lon="-48.779273329999995">
        <ele>532.0</ele>
        <time>2019-01-27T07:17:53-02:00</time>
      </trkpt>
      <trkpt lat="-21.54188366" lon="-48.779250000000005">
        <ele>532.0</ele>
        <time>2019-01-27T07:17:54-02:00</time>
      </trkpt>
      <trkpt lat="-21.54188" lon="-48.779228329999995">
        <ele>532.0</ele>
        <time>2019-01-27T07:17:55-02:00</time>
      </trkpt>
      <trkpt lat="-21.541876000000002" lon="-48.779205000000005">
        <ele>532.0</ele>
        <time>2019-01-27T07:17:56-02:00</time>
      </trkpt>
      <trkpt lat="-21.541872000000005" lon="-48.779181660000006">
        <ele>532.0</ele>
        <time>2019-01-27T07:17:57-02:00</time>
      </trkpt>
      <trkpt lat="-21.541867659999998" lon="-48.77915832999999">
        <ele>532.0</ele>
        <time>2019-01-27T07:17:58-02:00</time>
      </trkpt>
      <trkpt lat="-21.54186333" lon="-48.77913332999999">
        <ele>532.0</ele>
        <time>2019-01-27T07:17:59-02:00</time>
      </trkpt>
      <trkpt lat="-21.54185966" lon="-48.77911">
        <ele>532.0</ele>
        <time>2019-01-27T07:18:00-02:00</time>
      </trkpt>
      <trkpt lat="-21.541855330000004" lon="-48.77908332999999">
        <ele>532.0</ele>
        <time>2019-01-27T07:18:01-02:00</time>
      </trkpt>
      <trkpt lat="-21.541850660000005" lon="-48.779058329999984">
        <ele>531.0</ele>
        <time>2019-01-27T07:18:02-02:00</time>
      </trkpt>
      <trkpt lat="-21.541844329999996" lon="-48.77903499999999">
        <ele>531.0</ele>
        <time>2019-01-27T07:18:03-02:00</time>
      </trkpt>
      <trkpt lat="-21.541840660000002" lon="-48.77901333">
        <ele>531.0</ele>
        <time>2019-01-27T07:18:04-02:00</time>
      </trkpt>
      <trkpt lat="-21.541836330000002" lon="-48.778988330000004">
        <ele>531.0</ele>
        <time>2019-01-27T07:18:05-02:00</time>
      </trkpt>
      <trkpt lat="-21.541832000000007" lon="-48.778963329999996">
        <ele>531.0</ele>
        <time>2019-01-27T07:18:06-02:00</time>
      </trkpt>
      <trkpt lat="-21.54182766" lon="-48.77894">
        <ele>531.0</ele>
        <time>2019-01-27T07:18:07-02:00</time>
      </trkpt>
      <trkpt lat="-21.541821000000006" lon="-48.778915">
        <ele>531.0</ele>
        <time>2019-01-27T07:18:08-02:00</time>
      </trkpt>
      <trkpt lat="-21.541817" lon="-48.77889166">
        <ele>531.0</ele>
        <time>2019-01-27T07:18:09-02:00</time>
      </trkpt>
      <trkpt lat="-21.541812659999998" lon="-48.778868329999995">
        <ele>531.0</ele>
        <time>2019-01-27T07:18:10-02:00</time>
      </trkpt>
      <trkpt lat="-21.54180833" lon="-48.778845000000004">
        <ele>531.0</ele>
        <time>2019-01-27T07:18:11-02:00</time>
      </trkpt>
      <trkpt lat="-21.54180333" lon="-48.77881666">
        <ele>531.0</ele>
        <time>2019-01-27T07:18:12-02:00</time>
      </trkpt>
      <trkpt lat="-21.54179866" lon="-48.77879">
        <ele>532.0</ele>
        <time>2019-01-27T07:18:13-02:00</time>
      </trkpt>
      <trkpt lat="-21.541791660000005" lon="-48.778763330000004">
        <ele>532.0</ele>
        <time>2019-01-27T07:18:14-02:00</time>
      </trkpt>
      <trkpt lat="-21.54178733" lon="-48.778740000000006">
        <ele>532.0</ele>
        <time>2019-01-27T07:18:15-02:00</time>
      </trkpt>
      <trkpt lat="-21.541783000000002" lon="-48.778715">
        <ele>532.0</ele>
        <time>2019-01-27T07:18:16-02:00</time>
      </trkpt>
      <trkpt lat="-21.541779" lon="-48.77869165999999">
        <ele>532.0</ele>
        <time>2019-01-27T07:18:17-02:00</time>
      </trkpt>
      <trkpt lat="-21.54177466" lon="-48.77867">
        <ele>532.0</ele>
        <time>2019-01-27T07:18:18-02:00</time>
      </trkpt>
      <trkpt lat="-21.541770330000002" lon="-48.778645000000004">
        <ele>532.0</ele>
        <time>2019-01-27T07:18:19-02:00</time>
      </trkpt>
      <trkpt lat="-21.541766" lon="-48.77862166000001">
        <ele>532.0</ele>
        <time>2019-01-27T07:18:20-02:00</time>
      </trkpt>
      <trkpt lat="-21.54176066" lon="-48.77859500000001">
        <ele>532.0</ele>
        <time>2019-01-27T07:18:21-02:00</time>
      </trkpt>
      <trkpt lat="-21.54175666" lon="-48.77857166">
        <ele>532.0</ele>
        <time>2019-01-27T07:18:22-02:00</time>
      </trkpt>
      <trkpt lat="-21.54174966" lon="-48.77854666000001">
        <ele>532.0</ele>
        <time>2019-01-27T07:18:23-02:00</time>
      </trkpt>
      <trkpt lat="-21.541745" lon="-48.77852166000001">
        <ele>532.0</ele>
        <time>2019-01-27T07:18:24-02:00</time>
      </trkpt>
      <trkpt lat="-21.541740330000003" lon="-48.77849666">
        <ele>532.0</ele>
        <time>2019-01-27T07:18:25-02:00</time>
      </trkpt>
      <trkpt lat="-21.54173533" lon="-48.77847">
        <ele>532.0</ele>
        <time>2019-01-27T07:18:26-02:00</time>
      </trkpt>
      <trkpt lat="-21.54173133" lon="-48.77844833">
        <ele>532.0</ele>
        <time>2019-01-27T07:18:27-02:00</time>
      </trkpt>
      <trkpt lat="-21.541726660000002" lon="-48.778423329999995">
        <ele>532.0</ele>
        <time>2019-01-27T07:18:28-02:00</time>
      </trkpt>
      <trkpt lat="-21.541720330000004" lon="-48.7784">
        <ele>532.0</ele>
        <time>2019-01-27T07:18:29-02:00</time>
      </trkpt>
      <trkpt lat="-21.541715330000002" lon="-48.778375">
        <ele>532.0</ele>
        <time>2019-01-27T07:18:30-02:00</time>
      </trkpt>
      <trkpt lat="-21.541711000000003" lon="-48.77835">
        <ele>532.0</ele>
        <time>2019-01-27T07:18:31-02:00</time>
      </trkpt>
      <trkpt lat="-21.541705999999998" lon="-48.77832333">
        <ele>532.0</ele>
        <time>2019-01-27T07:18:32-02:00</time>
      </trkpt>
      <trkpt lat="-21.541701000000003" lon="-48.77829833">
        <ele>532.0</ele>
        <time>2019-01-27T07:18:33-02:00</time>
      </trkpt>
      <trkpt lat="-21.541696330000004" lon="-48.77827332999999">
        <ele>532.0</ele>
        <time>2019-01-27T07:18:34-02:00</time>
      </trkpt>
      <trkpt lat="-21.541691660000005" lon="-48.77824666">
        <ele>532.0</ele>
        <time>2019-01-27T07:18:35-02:00</time>
      </trkpt>
      <trkpt lat="-21.54168733" lon="-48.77822332999999">
        <ele>532.0</ele>
        <time>2019-01-27T07:18:36-02:00</time>
      </trkpt>
      <trkpt lat="-21.541682" lon="-48.778196660000006">
        <ele>532.0</ele>
        <time>2019-01-27T07:18:37-02:00</time>
      </trkpt>
      <trkpt lat="-21.541677659999998" lon="-48.77817166000001">
        <ele>532.0</ele>
        <time>2019-01-27T07:18:38-02:00</time>
      </trkpt>
      <trkpt lat="-21.541670000000003" lon="-48.77814333">
        <ele>532.0</ele>
        <time>2019-01-27T07:18:39-02:00</time>
      </trkpt>
      <trkpt lat="-21.541665000000002" lon="-48.778116659999995">
        <ele>532.0</ele>
        <time>2019-01-27T07:18:40-02:00</time>
      </trkpt>
      <trkpt lat="-21.54166066" lon="-48.77809332999999">
        <ele>532.0</ele>
        <time>2019-01-27T07:18:41-02:00</time>
      </trkpt>
      <trkpt lat="-21.54165566" lon="-48.77806665999999">
        <ele>532.0</ele>
        <time>2019-01-27T07:18:42-02:00</time>
      </trkpt>
      <trkpt lat="-21.541650660000006" lon="-48.77804333">
        <ele>532.0</ele>
        <time>2019-01-27T07:18:43-02:00</time>
      </trkpt>
      <trkpt lat="-21.541645660000004" lon="-48.778016660000006">
        <ele>532.0</ele>
        <time>2019-01-27T07:18:44-02:00</time>
      </trkpt>
      <trkpt lat="-21.541641" lon="-48.77799333">
        <ele>532.0</ele>
        <time>2019-01-27T07:18:45-02:00</time>
      </trkpt>
      <trkpt lat="-21.54163633" lon="-48.77796832999999">
        <ele>532.0</ele>
        <time>2019-01-27T07:18:46-02:00</time>
      </trkpt>
      <trkpt lat="-21.541632" lon="-48.77794666">
        <ele>532.0</ele>
        <time>2019-01-27T07:18:47-02:00</time>
      </trkpt>
      <trkpt lat="-21.54162766" lon="-48.77792332999999">
        <ele>531.0</ele>
        <time>2019-01-27T07:18:48-02:00</time>
      </trkpt>
      <trkpt lat="-21.541625330000002" lon="-48.7779">
        <ele>531.0</ele>
        <time>2019-01-27T07:18:49-02:00</time>
      </trkpt>
      <trkpt lat="-21.541621000000003" lon="-48.777876660000004">
        <ele>531.0</ele>
        <time>2019-01-27T07:18:50-02:00</time>
      </trkpt>
      <trkpt lat="-21.541616330000004" lon="-48.777851659999996">
        <ele>531.0</ele>
        <time>2019-01-27T07:18:51-02:00</time>
      </trkpt>
      <trkpt lat="-21.54160466" lon="-48.777805">
        <ele>531.0</ele>
        <time>2019-01-27T07:18:52-02:00</time>
      </trkpt>
      <trkpt lat="-21.5416" lon="-48.77778">
        <ele>531.0</ele>
        <time>2019-01-27T07:18:53-02:00</time>
      </trkpt>
      <trkpt lat="-21.541595330000003" lon="-48.77775833">
        <ele>531.0</ele>
        <time>2019-01-27T07:18:54-02:00</time>
      </trkpt>
      <trkpt lat="-21.541590660000004" lon="-48.77773332999999">
        <ele>531.0</ele>
        <time>2019-01-27T07:18:55-02:00</time>
      </trkpt>
      <trkpt lat="-21.541586000000002" lon="-48.77771">
        <ele>531.0</ele>
        <time>2019-01-27T07:18:56-02:00</time>
      </trkpt>
      <trkpt lat="-21.541581330000003" lon="-48.777685000000005">
        <ele>531.0</ele>
        <time>2019-01-27T07:18:57-02:00</time>
      </trkpt>
      <trkpt lat="-21.541574330000003" lon="-48.777663329999996">
        <ele>531.0</ele>
        <time>2019-01-27T07:18:58-02:00</time>
      </trkpt>
      <trkpt lat="-21.54156966" lon="-48.77763833">
        <ele>531.0</ele>
        <time>2019-01-27T07:18:59-02:00</time>
      </trkpt>
      <trkpt lat="-21.541565" lon="-48.77761333">
        <ele>531.0</ele>
        <time>2019-01-27T07:19:00-02:00</time>
      </trkpt>
      <trkpt lat="-21.54156066" lon="-48.77759">
        <ele>531.0</ele>
        <time>2019-01-27T07:19:01-02:00</time>
      </trkpt>
      <trkpt lat="-21.541555660000004" lon="-48.777565">
        <ele>531.0</ele>
        <time>2019-01-27T07:19:02-02:00</time>
      </trkpt>
      <trkpt lat="-21.541551330000008" lon="-48.77754166000001">
        <ele>531.0</ele>
        <time>2019-01-27T07:19:03-02:00</time>
      </trkpt>
      <trkpt lat="-21.54154833" lon="-48.77751500000001">
        <ele>531.0</ele>
        <time>2019-01-27T07:19:04-02:00</time>
      </trkpt>
      <trkpt lat="-21.541542999999997" lon="-48.77749000000001">
        <ele>531.0</ele>
        <time>2019-01-27T07:19:05-02:00</time>
      </trkpt>
      <trkpt lat="-21.541538659999997" lon="-48.77746666">
        <ele>531.0</ele>
        <time>2019-01-27T07:19:06-02:00</time>
      </trkpt>
      <trkpt lat="-21.541533659999995" lon="-48.777441659999994">
        <ele>531.0</ele>
        <time>2019-01-27T07:19:07-02:00</time>
      </trkpt>
      <trkpt lat="-21.541526660000006" lon="-48.77741666">
        <ele>531.0</ele>
        <time>2019-01-27T07:19:08-02:00</time>
      </trkpt>
      <trkpt lat="-21.541521330000005" lon="-48.77739166">
        <ele>531.0</ele>
        <time>2019-01-27T07:19:09-02:00</time>
      </trkpt>
      <trkpt lat="-21.541516660000003" lon="-48.77736666">
        <ele>531.0</ele>
        <time>2019-01-27T07:19:10-02:00</time>
      </trkpt>
      <trkpt lat="-21.541512000000004" lon="-48.777343329999994">
        <ele>531.0</ele>
        <time>2019-01-27T07:19:11-02:00</time>
      </trkpt>
      <trkpt lat="-21.541507329999998" lon="-48.77731833">
        <ele>531.0</ele>
        <time>2019-01-27T07:19:12-02:00</time>
      </trkpt>
      <trkpt lat="-21.541502329999997" lon="-48.777294999999995">
        <ele>531.0</ele>
        <time>2019-01-27T07:19:13-02:00</time>
      </trkpt>
      <trkpt lat="-21.541497000000003" lon="-48.77726666">
        <ele>531.0</ele>
        <time>2019-01-27T07:19:14-02:00</time>
      </trkpt>
      <trkpt lat="-21.541492" lon="-48.77724">
        <ele>531.0</ele>
        <time>2019-01-27T07:19:15-02:00</time>
      </trkpt>
      <trkpt lat="-21.541487330000002" lon="-48.777215000000005">
        <ele>531.0</ele>
        <time>2019-01-27T07:19:16-02:00</time>
      </trkpt>
      <trkpt lat="-21.54148233" lon="-48.777190000000004">
        <ele>532.0</ele>
        <time>2019-01-27T07:19:17-02:00</time>
      </trkpt>
      <trkpt lat="-21.541480330000006" lon="-48.777165000000004">
        <ele>532.0</ele>
        <time>2019-01-27T07:19:18-02:00</time>
      </trkpt>
      <trkpt lat="-21.541475660000007" lon="-48.777139999999996">
        <ele>532.0</ele>
        <time>2019-01-27T07:19:19-02:00</time>
      </trkpt>
      <trkpt lat="-21.541471660000003" lon="-48.777116660000004">
        <ele>532.0</ele>
        <time>2019-01-27T07:19:20-02:00</time>
      </trkpt>
      <trkpt lat="-21.54146933" lon="-48.777091659999996">
        <ele>532.0</ele>
        <time>2019-01-27T07:19:21-02:00</time>
      </trkpt>
      <trkpt lat="-21.541465" lon="-48.77706666">
        <ele>532.0</ele>
        <time>2019-01-27T07:19:22-02:00</time>
      </trkpt>
      <trkpt lat="-21.541462999999993" lon="-48.77704166">
        <ele>532.0</ele>
        <time>2019-01-27T07:19:23-02:00</time>
      </trkpt>
      <trkpt lat="-21.541459" lon="-48.77702000000001">
        <ele>532.0</ele>
        <time>2019-01-27T07:19:24-02:00</time>
      </trkpt>
      <trkpt lat="-21.541457" lon="-48.77699500000001">
        <ele>532.0</ele>
        <time>2019-01-27T07:19:25-02:00</time>
      </trkpt>
      <trkpt lat="-21.541452999999997" lon="-48.77697166">
        <ele>532.0</ele>
        <time>2019-01-27T07:19:26-02:00</time>
      </trkpt>
      <trkpt lat="-21.541450660000002" lon="-48.776945">
        <ele>532.0</ele>
        <time>2019-01-27T07:19:27-02:00</time>
      </trkpt>
      <trkpt lat="-21.541446000000004" lon="-48.776920000000004">
        <ele>532.0</ele>
        <time>2019-01-27T07:19:28-02:00</time>
      </trkpt>
      <trkpt lat="-21.541444000000002" lon="-48.776895">
        <ele>532.0</ele>
        <time>2019-01-27T07:19:29-02:00</time>
      </trkpt>
      <trkpt lat="-21.541439999999998" lon="-48.776871660000005">
        <ele>532.0</ele>
        <time>2019-01-27T07:19:30-02:00</time>
      </trkpt>
      <trkpt lat="-21.541438" lon="-48.77684832999999">
        <ele>532.0</ele>
        <time>2019-01-27T07:19:31-02:00</time>
      </trkpt>
      <trkpt lat="-21.541434" lon="-48.77682333">
        <ele>533.0</ele>
        <time>2019-01-27T07:19:32-02:00</time>
      </trkpt>
      <trkpt lat="-21.54142933" lon="-48.776798330000005">
        <ele>533.0</ele>
        <time>2019-01-27T07:19:33-02:00</time>
      </trkpt>
      <trkpt lat="-21.541427000000006" lon="-48.77677166">
        <ele>533.0</ele>
        <time>2019-01-27T07:19:34-02:00</time>
      </trkpt>
      <trkpt lat="-21.541423330000004" lon="-48.77674832999999">
        <ele>533.0</ele>
        <time>2019-01-27T07:19:35-02:00</time>
      </trkpt>
      <trkpt lat="-21.54141933" lon="-48.776725">
        <ele>533.0</ele>
        <time>2019-01-27T07:19:36-02:00</time>
      </trkpt>
      <trkpt lat="-21.541417000000003" lon="-48.77669833">
        <ele>533.0</ele>
        <time>2019-01-27T07:19:37-02:00</time>
      </trkpt>
      <trkpt lat="-21.541413330000005" lon="-48.77667666000001">
        <ele>533.0</ele>
        <time>2019-01-27T07:19:38-02:00</time>
      </trkpt>
      <trkpt lat="-21.54141166" lon="-48.77665332999999">
        <ele>533.0</ele>
        <time>2019-01-27T07:19:39-02:00</time>
      </trkpt>
      <trkpt lat="-21.541408" lon="-48.77663">
        <ele>533.0</ele>
        <time>2019-01-27T07:19:40-02:00</time>
      </trkpt>
      <trkpt lat="-21.54140433" lon="-48.776606660000006">
        <ele>533.0</ele>
        <time>2019-01-27T07:19:41-02:00</time>
      </trkpt>
      <trkpt lat="-21.541402" lon="-48.77658">
        <ele>533.0</ele>
        <time>2019-01-27T07:19:42-02:00</time>
      </trkpt>
      <trkpt lat="-21.54139866" lon="-48.776556660000004">
        <ele>533.0</ele>
        <time>2019-01-27T07:19:43-02:00</time>
      </trkpt>
      <trkpt lat="-21.541395" lon="-48.776534999999996">
        <ele>533.0</ele>
        <time>2019-01-27T07:19:44-02:00</time>
      </trkpt>
      <trkpt lat="-21.54139166" lon="-48.776515">
        <ele>533.0</ele>
        <time>2019-01-27T07:19:45-02:00</time>
      </trkpt>
      <trkpt lat="-21.54138766" lon="-48.77649">
        <ele>533.0</ele>
        <time>2019-01-27T07:19:46-02:00</time>
      </trkpt>
      <trkpt lat="-21.541384" lon="-48.77646833">
        <ele>533.0</ele>
        <time>2019-01-27T07:19:47-02:00</time>
      </trkpt>
      <trkpt lat="-21.541380330000003" lon="-48.77644666">
        <ele>532.0</ele>
        <time>2019-01-27T07:19:48-02:00</time>
      </trkpt>
      <trkpt lat="-21.54137633000001" lon="-48.776421660000004">
        <ele>532.0</ele>
        <time>2019-01-27T07:19:49-02:00</time>
      </trkpt>
      <trkpt lat="-21.541372330000005" lon="-48.77639832999999">
        <ele>532.0</ele>
        <time>2019-01-27T07:19:50-02:00</time>
      </trkpt>
      <trkpt lat="-21.541366000000004" lon="-48.776374999999994">
        <ele>532.0</ele>
        <time>2019-01-27T07:19:51-02:00</time>
      </trkpt>
      <trkpt lat="-21.541361330000004" lon="-48.77634832999999">
        <ele>532.0</ele>
        <time>2019-01-27T07:19:52-02:00</time>
      </trkpt>
      <trkpt lat="-21.54135733" lon="-48.776325">
        <ele>532.0</ele>
        <time>2019-01-27T07:19:53-02:00</time>
      </trkpt>
      <trkpt lat="-21.54135366" lon="-48.77630332999999">
        <ele>532.0</ele>
        <time>2019-01-27T07:19:54-02:00</time>
      </trkpt>
      <trkpt lat="-21.541349999999998" lon="-48.77628166000001">
        <ele>532.0</ele>
        <time>2019-01-27T07:19:55-02:00</time>
      </trkpt>
      <trkpt lat="-21.54134366" lon="-48.776258330000005">
        <ele>532.0</ele>
        <time>2019-01-27T07:19:56-02:00</time>
      </trkpt>
      <trkpt lat="-21.541339660000002" lon="-48.776235">
        <ele>532.0</ele>
        <time>2019-01-27T07:19:57-02:00</time>
      </trkpt>
      <trkpt lat="-21.541333330000004" lon="-48.77621166">
        <ele>532.0</ele>
        <time>2019-01-27T07:19:58-02:00</time>
      </trkpt>
      <trkpt lat="-21.541327329999998" lon="-48.77619000000001">
        <ele>532.0</ele>
        <time>2019-01-27T07:19:59-02:00</time>
      </trkpt>
      <trkpt lat="-21.541320660000004" lon="-48.77616666">
        <ele>532.0</ele>
        <time>2019-01-27T07:20:00-02:00</time>
      </trkpt>
      <trkpt lat="-21.541314659999998" lon="-48.77614333">
        <ele>532.0</ele>
        <time>2019-01-27T07:20:01-02:00</time>
      </trkpt>
      <trkpt lat="-21.54130866" lon="-48.77612166000001">
        <ele>532.0</ele>
        <time>2019-01-27T07:20:02-02:00</time>
      </trkpt>
      <trkpt lat="-21.541301660000006" lon="-48.77609666">
        <ele>532.0</ele>
        <time>2019-01-27T07:20:03-02:00</time>
      </trkpt>
      <trkpt lat="-21.541294999999998" lon="-48.776073329999996">
        <ele>532.0</ele>
        <time>2019-01-27T07:20:04-02:00</time>
      </trkpt>
      <trkpt lat="-21.541288330000004" lon="-48.776050000000005">
        <ele>532.0</ele>
        <time>2019-01-27T07:20:05-02:00</time>
      </trkpt>
      <trkpt lat="-21.541284" lon="-48.77602666000001">
        <ele>532.0</ele>
        <time>2019-01-27T07:20:06-02:00</time>
      </trkpt>
      <trkpt lat="-21.541276330000006" lon="-48.776">
        <ele>532.0</ele>
        <time>2019-01-27T07:20:07-02:00</time>
      </trkpt>
      <trkpt lat="-21.541269330000006" lon="-48.775975">
        <ele>532.0</ele>
        <time>2019-01-27T07:20:08-02:00</time>
      </trkpt>
      <trkpt lat="-21.54126266" lon="-48.77595332999999">
        <ele>532.0</ele>
        <time>2019-01-27T07:20:09-02:00</time>
      </trkpt>
      <trkpt lat="-21.541257659999996" lon="-48.77593">
        <ele>532.0</ele>
        <time>2019-01-27T07:20:10-02:00</time>
      </trkpt>
      <trkpt lat="-21.541251000000003" lon="-48.77590666">
        <ele>532.0</ele>
        <time>2019-01-27T07:20:11-02:00</time>
      </trkpt>
      <trkpt lat="-21.54124433" lon="-48.775886660000005">
        <ele>532.0</ele>
        <time>2019-01-27T07:20:12-02:00</time>
      </trkpt>
      <trkpt lat="-21.541240330000004" lon="-48.775866660000005">
        <ele>532.0</ele>
        <time>2019-01-27T07:20:13-02:00</time>
      </trkpt>
      <trkpt lat="-21.541234" lon="-48.775846660000006">
        <ele>532.0</ele>
        <time>2019-01-27T07:20:14-02:00</time>
      </trkpt>
      <trkpt lat="-21.541228330000003" lon="-48.77582">
        <ele>532.0</ele>
        <time>2019-01-27T07:20:15-02:00</time>
      </trkpt>
      <trkpt lat="-21.541221330000003" lon="-48.775796660000005">
        <ele>532.0</ele>
        <time>2019-01-27T07:20:16-02:00</time>
      </trkpt>
      <trkpt lat="-21.541216" lon="-48.77577166000001">
        <ele>532.0</ele>
        <time>2019-01-27T07:20:17-02:00</time>
      </trkpt>
      <trkpt lat="-21.54120833" lon="-48.77574666">
        <ele>532.0</ele>
        <time>2019-01-27T07:20:18-02:00</time>
      </trkpt>
      <trkpt lat="-21.54120266" lon="-48.77572">
        <ele>532.0</ele>
        <time>2019-01-27T07:20:19-02:00</time>
      </trkpt>
      <trkpt lat="-21.541197330000006" lon="-48.775695">
        <ele>532.0</ele>
        <time>2019-01-27T07:20:20-02:00</time>
      </trkpt>
      <trkpt lat="-21.54118966" lon="-48.775670000000005">
        <ele>532.0</ele>
        <time>2019-01-27T07:20:21-02:00</time>
      </trkpt>
      <trkpt lat="-21.54118433" lon="-48.775645000000004">
        <ele>532.0</ele>
        <time>2019-01-27T07:20:22-02:00</time>
      </trkpt>
      <trkpt lat="-21.541178659999996" lon="-48.77561833">
        <ele>532.0</ele>
        <time>2019-01-27T07:20:23-02:00</time>
      </trkpt>
      <trkpt lat="-21.54117333" lon="-48.77559332999999">
        <ele>532.0</ele>
        <time>2019-01-27T07:20:24-02:00</time>
      </trkpt>
      <trkpt lat="-21.541168" lon="-48.77556833">
        <ele>532.0</ele>
        <time>2019-01-27T07:20:25-02:00</time>
      </trkpt>
      <trkpt lat="-21.54116266" lon="-48.77554333">
        <ele>532.0</ele>
        <time>2019-01-27T07:20:26-02:00</time>
      </trkpt>
      <trkpt lat="-21.541157" lon="-48.77551666000001">
        <ele>532.0</ele>
        <time>2019-01-27T07:20:27-02:00</time>
      </trkpt>
      <trkpt lat="-21.541152000000004" lon="-48.77549333">
        <ele>532.0</ele>
        <time>2019-01-27T07:20:28-02:00</time>
      </trkpt>
      <trkpt lat="-21.541150330000004" lon="-48.77547333">
        <ele>532.0</ele>
        <time>2019-01-27T07:20:29-02:00</time>
      </trkpt>
      <trkpt lat="-21.541145330000003" lon="-48.77545">
        <ele>532.0</ele>
        <time>2019-01-27T07:20:30-02:00</time>
      </trkpt>
      <trkpt lat="-21.541142329999996" lon="-48.775425000000006">
        <ele>532.0</ele>
        <time>2019-01-27T07:20:31-02:00</time>
      </trkpt>
      <trkpt lat="-21.541137000000003" lon="-48.775400000000005">
        <ele>532.0</ele>
        <time>2019-01-27T07:20:32-02:00</time>
      </trkpt>
      <trkpt lat="-21.54113433" lon="-48.77537666">
        <ele>532.0</ele>
        <time>2019-01-27T07:20:33-02:00</time>
      </trkpt>
      <trkpt lat="-21.54112866" lon="-48.77535166">
        <ele>532.0</ele>
        <time>2019-01-27T07:20:34-02:00</time>
      </trkpt>
      <trkpt lat="-21.541125660000002" lon="-48.775326660000005">
        <ele>532.0</ele>
        <time>2019-01-27T07:20:35-02:00</time>
      </trkpt>
      <trkpt lat="-21.54112066" lon="-48.77530333">
        <ele>532.0</ele>
        <time>2019-01-27T07:20:36-02:00</time>
      </trkpt>
      <trkpt lat="-21.541117999999997" lon="-48.77527832999999">
        <ele>532.0</ele>
        <time>2019-01-27T07:20:37-02:00</time>
      </trkpt>
      <trkpt lat="-21.541113329999998" lon="-48.775255">
        <ele>532.0</ele>
        <time>2019-01-27T07:20:38-02:00</time>
      </trkpt>
      <trkpt lat="-21.541110330000002" lon="-48.77522999999999">
        <ele>532.0</ele>
        <time>2019-01-27T07:20:39-02:00</time>
      </trkpt>
      <trkpt lat="-21.54110533" lon="-48.77520666">
        <ele>532.0</ele>
        <time>2019-01-27T07:20:40-02:00</time>
      </trkpt>
      <trkpt lat="-21.541102999999993" lon="-48.77518166">
        <ele>532.0</ele>
        <time>2019-01-27T07:20:41-02:00</time>
      </trkpt>
      <trkpt lat="-21.541099999999997" lon="-48.77515666000001">
        <ele>532.0</ele>
        <time>2019-01-27T07:20:42-02:00</time>
      </trkpt>
      <trkpt lat="-21.541097330000003" lon="-48.77513166">
        <ele>532.0</ele>
        <time>2019-01-27T07:20:43-02:00</time>
      </trkpt>
      <trkpt lat="-21.541092659999997" lon="-48.775108329999995">
        <ele>532.0</ele>
        <time>2019-01-27T07:20:44-02:00</time>
      </trkpt>
      <trkpt lat="-21.541090660000002" lon="-48.775085000000004">
        <ele>532.0</ele>
        <time>2019-01-27T07:20:45-02:00</time>
      </trkpt>
      <trkpt lat="-21.541086000000004" lon="-48.77506166">
        <ele>532.0</ele>
        <time>2019-01-27T07:20:46-02:00</time>
      </trkpt>
      <trkpt lat="-21.541083659999995" lon="-48.775038329999994">
        <ele>532.0</ele>
        <time>2019-01-27T07:20:47-02:00</time>
      </trkpt>
      <trkpt lat="-21.541081660000003" lon="-48.775015">
        <ele>532.0</ele>
        <time>2019-01-27T07:20:48-02:00</time>
      </trkpt>
      <trkpt lat="-21.541076660000005" lon="-48.77499000000001">
        <ele>532.0</ele>
        <time>2019-01-27T07:20:49-02:00</time>
      </trkpt>
      <trkpt lat="-21.541072000000003" lon="-48.774966660000004">
        <ele>532.0</ele>
        <time>2019-01-27T07:20:50-02:00</time>
      </trkpt>
      <trkpt lat="-21.541069999999998" lon="-48.77494333">
        <ele>532.0</ele>
        <time>2019-01-27T07:20:51-02:00</time>
      </trkpt>
      <trkpt lat="-21.541065659999997" lon="-48.774921660000004">
        <ele>532.0</ele>
        <time>2019-01-27T07:20:52-02:00</time>
      </trkpt>
      <trkpt lat="-21.54106133" lon="-48.77489833">
        <ele>532.0</ele>
        <time>2019-01-27T07:20:53-02:00</time>
      </trkpt>
      <trkpt lat="-21.54105633" lon="-48.77487166000001">
        <ele>532.0</ele>
        <time>2019-01-27T07:20:54-02:00</time>
      </trkpt>
      <trkpt lat="-21.541052000000004" lon="-48.77484833">
        <ele>532.0</ele>
        <time>2019-01-27T07:20:55-02:00</time>
      </trkpt>
      <trkpt lat="-21.541048" lon="-48.774825">
        <ele>532.0</ele>
        <time>2019-01-27T07:20:56-02:00</time>
      </trkpt>
      <trkpt lat="-21.541046" lon="-48.77480166">
        <ele>532.0</ele>
        <time>2019-01-27T07:20:57-02:00</time>
      </trkpt>
      <trkpt lat="-21.54104166" lon="-48.77477832999999">
        <ele>532.0</ele>
        <time>2019-01-27T07:20:58-02:00</time>
      </trkpt>
      <trkpt lat="-21.54103733" lon="-48.774753329999996">
        <ele>532.0</ele>
        <time>2019-01-27T07:20:59-02:00</time>
      </trkpt>
      <trkpt lat="-21.541033" lon="-48.77473">
        <ele>532.0</ele>
        <time>2019-01-27T07:21:00-02:00</time>
      </trkpt>
      <trkpt lat="-21.541028999999998" lon="-48.774708329999996">
        <ele>532.0</ele>
        <time>2019-01-27T07:21:01-02:00</time>
      </trkpt>
      <trkpt lat="-21.541024999999998" lon="-48.774685">
        <ele>532.0</ele>
        <time>2019-01-27T07:21:02-02:00</time>
      </trkpt>
      <trkpt lat="-21.541019999999996" lon="-48.77466">
        <ele>532.0</ele>
        <time>2019-01-27T07:21:03-02:00</time>
      </trkpt>
      <trkpt lat="-21.541015660000003" lon="-48.774635">
        <ele>532.0</ele>
        <time>2019-01-27T07:21:04-02:00</time>
      </trkpt>
      <trkpt lat="-21.54100933" lon="-48.77461333">
        <ele>532.0</ele>
        <time>2019-01-27T07:21:05-02:00</time>
      </trkpt>
      <trkpt lat="-21.54100533" lon="-48.77458832999999">
        <ele>532.0</ele>
        <time>2019-01-27T07:21:06-02:00</time>
      </trkpt>
      <trkpt lat="-21.541001330000007" lon="-48.77456666">
        <ele>532.0</ele>
        <time>2019-01-27T07:21:07-02:00</time>
      </trkpt>
      <trkpt lat="-21.540997" lon="-48.77454332999999">
        <ele>532.0</ele>
        <time>2019-01-27T07:21:08-02:00</time>
      </trkpt>
      <trkpt lat="-21.540990660000002" lon="-48.77452">
        <ele>532.0</ele>
        <time>2019-01-27T07:21:09-02:00</time>
      </trkpt>
      <trkpt lat="-21.540986660000005" lon="-48.77449832999999">
        <ele>532.0</ele>
        <time>2019-01-27T07:21:10-02:00</time>
      </trkpt>
      <trkpt lat="-21.54098233" lon="-48.774475">
        <ele>532.0</ele>
        <time>2019-01-27T07:21:11-02:00</time>
      </trkpt>
      <trkpt lat="-21.540976" lon="-48.774451660000004">
        <ele>532.0</ele>
        <time>2019-01-27T07:21:12-02:00</time>
      </trkpt>
      <trkpt lat="-21.540971" lon="-48.774425">
        <ele>532.0</ele>
        <time>2019-01-27T07:21:13-02:00</time>
      </trkpt>
      <trkpt lat="-21.540967000000002" lon="-48.77440166">
        <ele>532.0</ele>
        <time>2019-01-27T07:21:14-02:00</time>
      </trkpt>
      <trkpt lat="-21.540962659999998" lon="-48.77437832999999">
        <ele>532.0</ele>
        <time>2019-01-27T07:21:15-02:00</time>
      </trkpt>
      <trkpt lat="-21.540955330000006" lon="-48.77435166">
        <ele>532.0</ele>
        <time>2019-01-27T07:21:16-02:00</time>
      </trkpt>
      <trkpt lat="-21.540950660000004" lon="-48.77432666000001">
        <ele>532.0</ele>
        <time>2019-01-27T07:21:17-02:00</time>
      </trkpt>
      <trkpt lat="-21.540946" lon="-48.774301660000006">
        <ele>532.0</ele>
        <time>2019-01-27T07:21:18-02:00</time>
      </trkpt>
      <trkpt lat="-21.540941330000003" lon="-48.774276660000005">
        <ele>532.0</ele>
        <time>2019-01-27T07:21:19-02:00</time>
      </trkpt>
      <trkpt lat="-21.540936659999996" lon="-48.77425166">
        <ele>532.0</ele>
        <time>2019-01-27T07:21:20-02:00</time>
      </trkpt>
      <trkpt lat="-21.540931660000002" lon="-48.774226660000004">
        <ele>532.0</ele>
        <time>2019-01-27T07:21:21-02:00</time>
      </trkpt>
      <trkpt lat="-21.54092733" lon="-48.77420166">
        <ele>532.0</ele>
        <time>2019-01-27T07:21:22-02:00</time>
      </trkpt>
      <trkpt lat="-21.54092266" lon="-48.77417666">
        <ele>532.0</ele>
        <time>2019-01-27T07:21:23-02:00</time>
      </trkpt>
      <trkpt lat="-21.54091833" lon="-48.77415332999999">
        <ele>532.0</ele>
        <time>2019-01-27T07:21:24-02:00</time>
      </trkpt>
      <trkpt lat="-21.540913999999997" lon="-48.77413">
        <ele>532.0</ele>
        <time>2019-01-27T07:21:25-02:00</time>
      </trkpt>
      <trkpt lat="-21.540909330000005" lon="-48.774105">
        <ele>532.0</ele>
        <time>2019-01-27T07:21:26-02:00</time>
      </trkpt>
      <trkpt lat="-21.540905" lon="-48.77408166">
        <ele>532.0</ele>
        <time>2019-01-27T07:21:27-02:00</time>
      </trkpt>
      <trkpt lat="-21.540898" lon="-48.77405666000001">
        <ele>531.0</ele>
        <time>2019-01-27T07:21:28-02:00</time>
      </trkpt>
      <trkpt lat="-21.54089366" lon="-48.774033329999995">
        <ele>531.0</ele>
        <time>2019-01-27T07:21:29-02:00</time>
      </trkpt>
      <trkpt lat="-21.54088933" lon="-48.77401">
        <ele>531.0</ele>
        <time>2019-01-27T07:21:30-02:00</time>
      </trkpt>
      <trkpt lat="-21.540885000000003" lon="-48.77398833">
        <ele>531.0</ele>
        <time>2019-01-27T07:21:31-02:00</time>
      </trkpt>
      <trkpt lat="-21.54087966" lon="-48.773961660000005">
        <ele>531.0</ele>
        <time>2019-01-27T07:21:32-02:00</time>
      </trkpt>
      <trkpt lat="-21.540875" lon="-48.77393833">
        <ele>531.0</ele>
        <time>2019-01-27T07:21:33-02:00</time>
      </trkpt>
      <trkpt lat="-21.540870000000005" lon="-48.773915">
        <ele>531.0</ele>
        <time>2019-01-27T07:21:34-02:00</time>
      </trkpt>
      <trkpt lat="-21.540862999999998" lon="-48.77389">
        <ele>531.0</ele>
        <time>2019-01-27T07:21:35-02:00</time>
      </trkpt>
      <trkpt lat="-21.540857659999997" lon="-48.77386500000001">
        <ele>531.0</ele>
        <time>2019-01-27T07:21:36-02:00</time>
      </trkpt>
      <trkpt lat="-21.540852659999995" lon="-48.77384">
        <ele>531.0</ele>
        <time>2019-01-27T07:21:37-02:00</time>
      </trkpt>
      <trkpt lat="-21.540844999999997" lon="-48.773815">
        <ele>531.0</ele>
        <time>2019-01-27T07:21:38-02:00</time>
      </trkpt>
      <trkpt lat="-21.54083966" lon="-48.77379">
        <ele>531.0</ele>
        <time>2019-01-27T07:21:39-02:00</time>
      </trkpt>
      <trkpt lat="-21.540834999999998" lon="-48.77376666">
        <ele>531.0</ele>
        <time>2019-01-27T07:21:40-02:00</time>
      </trkpt>
      <trkpt lat="-21.540827330000003" lon="-48.77374166">
        <ele>531.0</ele>
        <time>2019-01-27T07:21:41-02:00</time>
      </trkpt>
      <trkpt lat="-21.54082233" lon="-48.773716660000005">
        <ele>531.0</ele>
        <time>2019-01-27T07:21:42-02:00</time>
      </trkpt>
      <trkpt lat="-21.540815" lon="-48.773695">
        <ele>531.0</ele>
        <time>2019-01-27T07:21:43-02:00</time>
      </trkpt>
      <trkpt lat="-21.54081" lon="-48.77367">
        <ele>531.0</ele>
        <time>2019-01-27T07:21:44-02:00</time>
      </trkpt>
      <trkpt lat="-21.54080266" lon="-48.773646660000004">
        <ele>531.0</ele>
        <time>2019-01-27T07:21:45-02:00</time>
      </trkpt>
      <trkpt lat="-21.54079733" lon="-48.77362166000001">
        <ele>531.0</ele>
        <time>2019-01-27T07:21:46-02:00</time>
      </trkpt>
      <trkpt lat="-21.540791660000004" lon="-48.77359666">
        <ele>531.0</ele>
        <time>2019-01-27T07:21:47-02:00</time>
      </trkpt>
      <trkpt lat="-21.54078333" lon="-48.77356833">
        <ele>531.0</ele>
        <time>2019-01-27T07:21:48-02:00</time>
      </trkpt>
      <trkpt lat="-21.540778" lon="-48.77354333">
        <ele>531.0</ele>
        <time>2019-01-27T07:21:49-02:00</time>
      </trkpt>
      <trkpt lat="-21.54077266" lon="-48.773518329999995">
        <ele>531.0</ele>
        <time>2019-01-27T07:21:50-02:00</time>
      </trkpt>
      <trkpt lat="-21.540767659999997" lon="-48.77349333">
        <ele>531.0</ele>
        <time>2019-01-27T07:21:51-02:00</time>
      </trkpt>
      <trkpt lat="-21.54076233" lon="-48.773469999999996">
        <ele>531.0</ele>
        <time>2019-01-27T07:21:52-02:00</time>
      </trkpt>
      <trkpt lat="-21.54075733" lon="-48.773445">
        <ele>531.0</ele>
        <time>2019-01-27T07:21:53-02:00</time>
      </trkpt>
      <trkpt lat="-21.54075233" lon="-48.77342">
        <ele>531.0</ele>
        <time>2019-01-27T07:21:54-02:00</time>
      </trkpt>
      <trkpt lat="-21.54074666" lon="-48.773395">
        <ele>531.0</ele>
        <time>2019-01-27T07:21:55-02:00</time>
      </trkpt>
      <trkpt lat="-21.540741330000007" lon="-48.77336833">
        <ele>531.0</ele>
        <time>2019-01-27T07:21:56-02:00</time>
      </trkpt>
      <trkpt lat="-21.540736000000003" lon="-48.77334333">
        <ele>531.0</ele>
        <time>2019-01-27T07:21:57-02:00</time>
      </trkpt>
      <trkpt lat="-21.540731330000003" lon="-48.77332166">
        <ele>531.0</ele>
        <time>2019-01-27T07:21:58-02:00</time>
      </trkpt>
      <trkpt lat="-21.540726330000005" lon="-48.77329666000001">
        <ele>531.0</ele>
        <time>2019-01-27T07:21:59-02:00</time>
      </trkpt>
      <trkpt lat="-21.540720659999998" lon="-48.773270000000004">
        <ele>531.0</ele>
        <time>2019-01-27T07:22:00-02:00</time>
      </trkpt>
      <trkpt lat="-21.54071566" lon="-48.77324500000001">
        <ele>531.0</ele>
        <time>2019-01-27T07:22:01-02:00</time>
      </trkpt>
      <trkpt lat="-21.54070766" lon="-48.77321833">
        <ele>531.0</ele>
        <time>2019-01-27T07:22:02-02:00</time>
      </trkpt>
      <trkpt lat="-21.540705330000005" lon="-48.773195">
        <ele>531.0</ele>
        <time>2019-01-27T07:22:03-02:00</time>
      </trkpt>
      <trkpt lat="-21.54069966" lon="-48.77317">
        <ele>531.0</ele>
        <time>2019-01-27T07:22:04-02:00</time>
      </trkpt>
      <trkpt lat="-21.54069466" lon="-48.77314500000001">
        <ele>531.0</ele>
        <time>2019-01-27T07:22:05-02:00</time>
      </trkpt>
      <trkpt lat="-21.54068933" lon="-48.77312">
        <ele>531.0</ele>
        <time>2019-01-27T07:22:06-02:00</time>
      </trkpt>
      <trkpt lat="-21.540684659999997" lon="-48.77309666">
        <ele>531.0</ele>
        <time>2019-01-27T07:22:07-02:00</time>
      </trkpt>
      <trkpt lat="-21.540680000000002" lon="-48.77307333">
        <ele>531.0</ele>
        <time>2019-01-27T07:22:08-02:00</time>
      </trkpt>
      <trkpt lat="-21.540677000000006" lon="-48.77304833">
        <ele>531.0</ele>
        <time>2019-01-27T07:22:09-02:00</time>
      </trkpt>
      <trkpt lat="-21.540672660000002" lon="-48.773026660000006">
        <ele>531.0</ele>
        <time>2019-01-27T07:22:10-02:00</time>
      </trkpt>
      <trkpt lat="-21.54066966" lon="-48.773">
        <ele>531.0</ele>
        <time>2019-01-27T07:22:11-02:00</time>
      </trkpt>
      <trkpt lat="-21.54066466" lon="-48.772976660000005">
        <ele>531.0</ele>
        <time>2019-01-27T07:22:12-02:00</time>
      </trkpt>
      <trkpt lat="-21.54066233" lon="-48.772955">
        <ele>531.0</ele>
        <time>2019-01-27T07:22:13-02:00</time>
      </trkpt>
      <trkpt lat="-21.540657659999997" lon="-48.772931660000005">
        <ele>531.0</ele>
        <time>2019-01-27T07:22:14-02:00</time>
      </trkpt>
      <trkpt lat="-21.540655660000002" lon="-48.77290832999999">
        <ele>531.0</ele>
        <time>2019-01-27T07:22:15-02:00</time>
      </trkpt>
      <trkpt lat="-21.540652330000004" lon="-48.77288166">
        <ele>531.0</ele>
        <time>2019-01-27T07:22:16-02:00</time>
      </trkpt>
      <trkpt lat="-21.540647330000002" lon="-48.77285666000001">
        <ele>531.0</ele>
        <time>2019-01-27T07:22:17-02:00</time>
      </trkpt>
      <trkpt lat="-21.540645" lon="-48.77283166">
        <ele>531.0</ele>
        <time>2019-01-27T07:22:18-02:00</time>
      </trkpt>
      <trkpt lat="-21.540642659999996" lon="-48.77280832999999">
        <ele>531.0</ele>
        <time>2019-01-27T07:22:19-02:00</time>
      </trkpt>
      <trkpt lat="-21.54063766" lon="-48.772783329999996">
        <ele>531.0</ele>
        <time>2019-01-27T07:22:20-02:00</time>
      </trkpt>
      <trkpt lat="-21.540635" lon="-48.77275833">
        <ele>531.0</ele>
        <time>2019-01-27T07:22:21-02:00</time>
      </trkpt>
      <trkpt lat="-21.540629999999997" lon="-48.77273166000001">
        <ele>531.0</ele>
        <time>2019-01-27T07:22:22-02:00</time>
      </trkpt>
      <trkpt lat="-21.540627" lon="-48.77270500000001">
        <ele>531.0</ele>
        <time>2019-01-27T07:22:23-02:00</time>
      </trkpt>
      <trkpt lat="-21.54062233" lon="-48.77268">
        <ele>531.0</ele>
        <time>2019-01-27T07:22:24-02:00</time>
      </trkpt>
      <trkpt lat="-21.54061766" lon="-48.772655">
        <ele>531.0</ele>
        <time>2019-01-27T07:22:25-02:00</time>
      </trkpt>
      <trkpt lat="-21.540615660000004" lon="-48.772631659999995">
        <ele>531.0</ele>
        <time>2019-01-27T07:22:26-02:00</time>
      </trkpt>
      <trkpt lat="-21.540611660000003" lon="-48.77261">
        <ele>531.0</ele>
        <time>2019-01-27T07:22:27-02:00</time>
      </trkpt>
      <trkpt lat="-21.540607659999996" lon="-48.77258833">
        <ele>531.0</ele>
        <time>2019-01-27T07:22:28-02:00</time>
      </trkpt>
      <trkpt lat="-21.540602999999997" lon="-48.772566659999995">
        <ele>531.0</ele>
        <time>2019-01-27T07:22:29-02:00</time>
      </trkpt>
      <trkpt lat="-21.540599659999998" lon="-48.77255">
        <ele>531.0</ele>
        <time>2019-01-27T07:22:30-02:00</time>
      </trkpt>
      <trkpt lat="-21.54059233" lon="-48.77252500000001">
        <ele>531.0</ele>
        <time>2019-01-27T07:22:31-02:00</time>
      </trkpt>
      <trkpt lat="-21.540585330000006" lon="-48.77250166">
        <ele>531.0</ele>
        <time>2019-01-27T07:22:32-02:00</time>
      </trkpt>
      <trkpt lat="-21.54058066" lon="-48.772479999999995">
        <ele>531.0</ele>
        <time>2019-01-27T07:22:33-02:00</time>
      </trkpt>
      <trkpt lat="-21.54057366" lon="-48.77245666">
        <ele>531.0</ele>
        <time>2019-01-27T07:22:34-02:00</time>
      </trkpt>
      <trkpt lat="-21.540566330000008" lon="-48.772434999999994">
        <ele>531.0</ele>
        <time>2019-01-27T07:22:35-02:00</time>
      </trkpt>
      <trkpt lat="-21.54055966" lon="-48.772415">
        <ele>531.0</ele>
        <time>2019-01-27T07:22:36-02:00</time>
      </trkpt>
      <trkpt lat="-21.54055066" lon="-48.772395">
        <ele>531.0</ele>
        <time>2019-01-27T07:22:37-02:00</time>
      </trkpt>
      <trkpt lat="-21.540544330000003" lon="-48.77237999999999">
        <ele>531.0</ele>
        <time>2019-01-27T07:22:38-02:00</time>
      </trkpt>
      <trkpt lat="-21.540536000000003" lon="-48.77236500000001">
        <ele>531.0</ele>
        <time>2019-01-27T07:22:39-02:00</time>
      </trkpt>
      <trkpt lat="-21.540529" lon="-48.772346660000004">
        <ele>531.0</ele>
        <time>2019-01-27T07:22:40-02:00</time>
      </trkpt>
      <trkpt lat="-21.540519" lon="-48.772325">
        <ele>531.0</ele>
        <time>2019-01-27T07:22:41-02:00</time>
      </trkpt>
      <trkpt lat="-21.540507" lon="-48.772304999999996">
        <ele>531.0</ele>
        <time>2019-01-27T07:22:42-02:00</time>
      </trkpt>
      <trkpt lat="-21.54049833" lon="-48.77229166">
        <ele>531.0</ele>
        <time>2019-01-27T07:22:43-02:00</time>
      </trkpt>
      <trkpt lat="-21.540490330000004" lon="-48.77228">
        <ele>531.0</ele>
        <time>2019-01-27T07:22:44-02:00</time>
      </trkpt>
      <trkpt lat="-21.540478659999998" lon="-48.772261660000005">
        <ele>531.0</ele>
        <time>2019-01-27T07:22:45-02:00</time>
      </trkpt>
      <trkpt lat="-21.540468" lon="-48.77224832999999">
        <ele>531.0</ele>
        <time>2019-01-27T07:22:46-02:00</time>
      </trkpt>
      <trkpt lat="-21.540456660000004" lon="-48.77223333">
        <ele>531.0</ele>
        <time>2019-01-27T07:22:47-02:00</time>
      </trkpt>
      <trkpt lat="-21.540445" lon="-48.77221665999999">
        <ele>531.0</ele>
        <time>2019-01-27T07:22:48-02:00</time>
      </trkpt>
      <trkpt lat="-21.540432329999998" lon="-48.77219666">
        <ele>531.0</ele>
        <time>2019-01-27T07:22:49-02:00</time>
      </trkpt>
      <trkpt lat="-21.540419000000004" lon="-48.77218166000001">
        <ele>531.0</ele>
        <time>2019-01-27T07:22:50-02:00</time>
      </trkpt>
      <trkpt lat="-21.540408659999997" lon="-48.772169999999996">
        <ele>531.0</ele>
        <time>2019-01-27T07:22:51-02:00</time>
      </trkpt>
      <trkpt lat="-21.540395660000005" lon="-48.77215666">
        <ele>531.0</ele>
        <time>2019-01-27T07:22:52-02:00</time>
      </trkpt>
      <trkpt lat="-21.540382330000003" lon="-48.77214166">
        <ele>531.0</ele>
        <time>2019-01-27T07:22:53-02:00</time>
      </trkpt>
      <trkpt lat="-21.540276660000004" lon="-48.77212833">
        <ele>531.0</ele>
        <time>2019-01-27T07:22:54-02:00</time>
      </trkpt>
      <trkpt lat="-21.540256660000004" lon="-48.772115">
        <ele>531.0</ele>
        <time>2019-01-27T07:22:55-02:00</time>
      </trkpt>
      <trkpt lat="-21.540236659999998" lon="-48.772105999999994">
        <ele>531.0</ele>
        <time>2019-01-27T07:22:56-02:00</time>
      </trkpt>
      <trkpt lat="-21.540214999999996" lon="-48.77209733000001">
        <ele>531.0</ele>
        <time>2019-01-27T07:22:57-02:00</time>
      </trkpt>
      <trkpt lat="-21.54019333" lon="-48.772088659999994">
        <ele>532.0</ele>
        <time>2019-01-27T07:22:58-02:00</time>
      </trkpt>
      <trkpt lat="-21.540171660000002" lon="-48.772077660000015">
        <ele>532.0</ele>
        <time>2019-01-27T07:22:59-02:00</time>
      </trkpt>
      <trkpt lat="-21.54015166" lon="-48.77206766000001">
        <ele>532.0</ele>
        <time>2019-01-27T07:23:00-02:00</time>
      </trkpt>
      <trkpt lat="-21.540129999999998" lon="-48.772059330000005">
        <ele>532.0</ele>
        <time>2019-01-27T07:23:01-02:00</time>
      </trkpt>
      <trkpt lat="-21.54010833" lon="-48.772052">
        <ele>532.0</ele>
        <time>2019-01-27T07:23:02-02:00</time>
      </trkpt>
      <trkpt lat="-21.54009" lon="-48.772045330000005">
        <ele>532.0</ele>
        <time>2019-01-27T07:23:03-02:00</time>
      </trkpt>
      <trkpt lat="-21.54007" lon="-48.77203733">
        <ele>532.0</ele>
        <time>2019-01-27T07:23:04-02:00</time>
      </trkpt>
      <trkpt lat="-21.540051660000003" lon="-48.77202933">
        <ele>532.0</ele>
        <time>2019-01-27T07:23:05-02:00</time>
      </trkpt>
      <trkpt lat="-21.54003166" lon="-48.772019000000014">
        <ele>532.0</ele>
        <time>2019-01-27T07:23:06-02:00</time>
      </trkpt>
      <trkpt lat="-21.539991660000005" lon="-48.77199900000001">
        <ele>532.0</ele>
        <time>2019-01-27T07:23:07-02:00</time>
      </trkpt>
      <trkpt lat="-21.53997166" lon="-48.771988660000005">
        <ele>533.0</ele>
        <time>2019-01-27T07:23:08-02:00</time>
      </trkpt>
      <trkpt lat="-21.539955" lon="-48.77197900000001">
        <ele>533.0</ele>
        <time>2019-01-27T07:23:09-02:00</time>
      </trkpt>
      <trkpt lat="-21.539938330000002" lon="-48.77196966">
        <ele>533.0</ele>
        <time>2019-01-27T07:23:10-02:00</time>
      </trkpt>
      <trkpt lat="-21.539921659999997" lon="-48.77195933">
        <ele>533.0</ele>
        <time>2019-01-27T07:23:11-02:00</time>
      </trkpt>
      <trkpt lat="-21.53990333" lon="-48.77194733">
        <ele>533.0</ele>
        <time>2019-01-27T07:23:12-02:00</time>
      </trkpt>
      <trkpt lat="-21.539885000000005" lon="-48.771935">
        <ele>533.0</ele>
        <time>2019-01-27T07:23:13-02:00</time>
      </trkpt>
      <trkpt lat="-21.53986666" lon="-48.771923">
        <ele>533.0</ele>
        <time>2019-01-27T07:23:14-02:00</time>
      </trkpt>
      <trkpt lat="-21.539846660000002" lon="-48.77191">
        <ele>533.0</ele>
        <time>2019-01-27T07:23:15-02:00</time>
      </trkpt>
      <trkpt lat="-21.53983" lon="-48.771899000000005">
        <ele>533.0</ele>
        <time>2019-01-27T07:23:16-02:00</time>
      </trkpt>
      <trkpt lat="-21.53981333" lon="-48.77188666">
        <ele>533.0</ele>
        <time>2019-01-27T07:23:17-02:00</time>
      </trkpt>
      <trkpt lat="-21.54065166" lon="-48.77239332999999">
        <ele>531.0</ele>
        <time>2019-01-27T07:26:10-02:00</time>
      </trkpt>
      <trkpt lat="-21.540654999999997" lon="-48.772406659999994">
        <ele>531.0</ele>
        <time>2019-01-27T07:26:11-02:00</time>
      </trkpt>
      <trkpt lat="-21.540654999999997" lon="-48.77241366">
        <ele>531.0</ele>
        <time>2019-01-27T07:26:12-02:00</time>
      </trkpt>
      <trkpt lat="-21.540659999999995" lon="-48.77244165999999">
        <ele>531.0</ele>
        <time>2019-01-27T07:26:13-02:00</time>
      </trkpt>
      <trkpt lat="-21.54066166" lon="-48.77245832999999">
        <ele>531.0</ele>
        <time>2019-01-27T07:26:14-02:00</time>
      </trkpt>
      <trkpt lat="-21.54066833" lon="-48.77248332999999">
        <ele>531.0</ele>
        <time>2019-01-27T07:26:15-02:00</time>
      </trkpt>
      <trkpt lat="-21.540675" lon="-48.772505">
        <ele>531.0</ele>
        <time>2019-01-27T07:26:16-02:00</time>
      </trkpt>
      <trkpt lat="-21.54067833" lon="-48.772529999999996">
        <ele>531.0</ele>
        <time>2019-01-27T07:26:17-02:00</time>
      </trkpt>
      <trkpt lat="-21.54068166" lon="-48.77255166000001">
        <ele>531.0</ele>
        <time>2019-01-27T07:26:18-02:00</time>
      </trkpt>
      <trkpt lat="-21.540685000000003" lon="-48.77258166">
        <ele>531.0</ele>
        <time>2019-01-27T07:26:19-02:00</time>
      </trkpt>
      <trkpt lat="-21.540688" lon="-48.77260499999999">
        <ele>530.0</ele>
        <time>2019-01-27T07:26:20-02:00</time>
      </trkpt>
      <trkpt lat="-21.54069166" lon="-48.772634999999994">
        <ele>530.0</ele>
        <time>2019-01-27T07:26:21-02:00</time>
      </trkpt>
      <trkpt lat="-21.540696000000004" lon="-48.77266332999999">
        <ele>530.0</ele>
        <time>2019-01-27T07:26:22-02:00</time>
      </trkpt>
      <trkpt lat="-21.5407" lon="-48.77268666">
        <ele>530.0</ele>
        <time>2019-01-27T07:26:23-02:00</time>
      </trkpt>
      <trkpt lat="-21.540703999999998" lon="-48.772715000000005">
        <ele>530.0</ele>
        <time>2019-01-27T07:26:24-02:00</time>
      </trkpt>
      <trkpt lat="-21.540707329999996" lon="-48.77273666">
        <ele>530.0</ele>
        <time>2019-01-27T07:26:25-02:00</time>
      </trkpt>
      <trkpt lat="-21.54070933" lon="-48.77276166">
        <ele>530.0</ele>
        <time>2019-01-27T07:26:26-02:00</time>
      </trkpt>
      <trkpt lat="-21.540713330000003" lon="-48.77279166">
        <ele>530.0</ele>
        <time>2019-01-27T07:26:27-02:00</time>
      </trkpt>
      <trkpt lat="-21.540716660000005" lon="-48.77281">
        <ele>530.0</ele>
        <time>2019-01-27T07:26:28-02:00</time>
      </trkpt>
      <trkpt lat="-21.540721660000003" lon="-48.77284000000001">
        <ele>530.0</ele>
        <time>2019-01-27T07:26:29-02:00</time>
      </trkpt>
      <trkpt lat="-21.540725660000003" lon="-48.77286">
        <ele>530.0</ele>
        <time>2019-01-27T07:26:30-02:00</time>
      </trkpt>
      <trkpt lat="-21.540730330000002" lon="-48.772886660000005">
        <ele>530.0</ele>
        <time>2019-01-27T07:26:31-02:00</time>
      </trkpt>
      <trkpt lat="-21.540736000000003" lon="-48.77291666">
        <ele>530.0</ele>
        <time>2019-01-27T07:26:32-02:00</time>
      </trkpt>
      <trkpt lat="-21.540741330000007" lon="-48.77293665999999">
        <ele>530.0</ele>
        <time>2019-01-27T07:26:33-02:00</time>
      </trkpt>
      <trkpt lat="-21.540746000000006" lon="-48.77296333">
        <ele>530.0</ele>
        <time>2019-01-27T07:26:34-02:00</time>
      </trkpt>
      <trkpt lat="-21.540750660000004" lon="-48.77298666">
        <ele>530.0</ele>
        <time>2019-01-27T07:26:35-02:00</time>
      </trkpt>
      <trkpt lat="-21.540757000000003" lon="-48.77301666">
        <ele>530.0</ele>
        <time>2019-01-27T07:26:36-02:00</time>
      </trkpt>
      <trkpt lat="-21.540763" lon="-48.77304333">
        <ele>530.0</ele>
        <time>2019-01-27T07:26:37-02:00</time>
      </trkpt>
      <trkpt lat="-21.540767659999997" lon="-48.77307">
        <ele>530.0</ele>
        <time>2019-01-27T07:26:38-02:00</time>
      </trkpt>
      <trkpt lat="-21.540772000000008" lon="-48.773095">
        <ele>530.0</ele>
        <time>2019-01-27T07:26:39-02:00</time>
      </trkpt>
      <trkpt lat="-21.540778" lon="-48.77312166">
        <ele>530.0</ele>
        <time>2019-01-27T07:26:40-02:00</time>
      </trkpt>
      <trkpt lat="-21.540782659999998" lon="-48.77314666">
        <ele>530.0</ele>
        <time>2019-01-27T07:26:41-02:00</time>
      </trkpt>
      <trkpt lat="-21.540785" lon="-48.77317">
        <ele>530.0</ele>
        <time>2019-01-27T07:26:42-02:00</time>
      </trkpt>
      <trkpt lat="-21.54078966" lon="-48.77319666">
        <ele>530.0</ele>
        <time>2019-01-27T07:26:43-02:00</time>
      </trkpt>
      <trkpt lat="-21.54079533" lon="-48.77323">
        <ele>530.0</ele>
        <time>2019-01-27T07:26:44-02:00</time>
      </trkpt>
      <trkpt lat="-21.540799" lon="-48.77325166000001">
        <ele>530.0</ele>
        <time>2019-01-27T07:26:45-02:00</time>
      </trkpt>
      <trkpt lat="-21.54080433" lon="-48.77328332999999">
        <ele>530.0</ele>
        <time>2019-01-27T07:26:46-02:00</time>
      </trkpt>
      <trkpt lat="-21.54080866" lon="-48.77330832999999">
        <ele>530.0</ele>
        <time>2019-01-27T07:26:47-02:00</time>
      </trkpt>
      <trkpt lat="-21.54081333" lon="-48.773334999999996">
        <ele>530.0</ele>
        <time>2019-01-27T07:26:48-02:00</time>
      </trkpt>
      <trkpt lat="-21.540817" lon="-48.773356660000005">
        <ele>530.0</ele>
        <time>2019-01-27T07:26:49-02:00</time>
      </trkpt>
      <trkpt lat="-21.540820330000003" lon="-48.77338666000001">
        <ele>530.0</ele>
        <time>2019-01-27T07:26:50-02:00</time>
      </trkpt>
      <trkpt lat="-21.54082366" lon="-48.773408329999995">
        <ele>530.0</ele>
        <time>2019-01-27T07:26:51-02:00</time>
      </trkpt>
      <trkpt lat="-21.540827659999998" lon="-48.77343332999999">
        <ele>530.0</ele>
        <time>2019-01-27T07:26:52-02:00</time>
      </trkpt>
      <trkpt lat="-21.540833" lon="-48.773465">
        <ele>530.0</ele>
        <time>2019-01-27T07:26:53-02:00</time>
      </trkpt>
      <trkpt lat="-21.540834999999998" lon="-48.77349">
        <ele>530.0</ele>
        <time>2019-01-27T07:26:54-02:00</time>
      </trkpt>
      <trkpt lat="-21.54083966" lon="-48.773516660000006">
        <ele>530.0</ele>
        <time>2019-01-27T07:26:55-02:00</time>
      </trkpt>
      <trkpt lat="-21.54084366" lon="-48.77354166">
        <ele>530.0</ele>
        <time>2019-01-27T07:26:56-02:00</time>
      </trkpt>
      <trkpt lat="-21.540847330000002" lon="-48.773563329999995">
        <ele>530.0</ele>
        <time>2019-01-27T07:26:57-02:00</time>
      </trkpt>
      <trkpt lat="-21.540852000000005" lon="-48.77359333">
        <ele>530.0</ele>
        <time>2019-01-27T07:26:58-02:00</time>
      </trkpt>
      <trkpt lat="-21.540857" lon="-48.77362166000001">
        <ele>530.0</ele>
        <time>2019-01-27T07:26:59-02:00</time>
      </trkpt>
      <trkpt lat="-21.54086333" lon="-48.773646660000004">
        <ele>530.0</ele>
        <time>2019-01-27T07:27:00-02:00</time>
      </trkpt>
      <trkpt lat="-21.540867659999996" lon="-48.773671660000005">
        <ele>530.0</ele>
        <time>2019-01-27T07:27:01-02:00</time>
      </trkpt>
      <trkpt lat="-21.540871000000003" lon="-48.77369166">
        <ele>530.0</ele>
        <time>2019-01-27T07:27:02-02:00</time>
      </trkpt>
      <trkpt lat="-21.540875" lon="-48.773715">
        <ele>530.0</ele>
        <time>2019-01-27T07:27:03-02:00</time>
      </trkpt>
      <trkpt lat="-21.540879330000003" lon="-48.77373833">
        <ele>530.0</ele>
        <time>2019-01-27T07:27:04-02:00</time>
      </trkpt>
      <trkpt lat="-21.540884" lon="-48.773765000000004">
        <ele>530.0</ele>
        <time>2019-01-27T07:27:05-02:00</time>
      </trkpt>
      <trkpt lat="-21.540888000000002" lon="-48.77379">
        <ele>530.0</ele>
        <time>2019-01-27T07:27:06-02:00</time>
      </trkpt>
      <trkpt lat="-21.54089466" lon="-48.77381166">
        <ele>530.0</ele>
        <time>2019-01-27T07:27:07-02:00</time>
      </trkpt>
      <trkpt lat="-21.540897660000002" lon="-48.77383">
        <ele>530.0</ele>
        <time>2019-01-27T07:27:08-02:00</time>
      </trkpt>
      <trkpt lat="-21.540902" lon="-48.77385333">
        <ele>530.0</ele>
        <time>2019-01-27T07:27:09-02:00</time>
      </trkpt>
      <trkpt lat="-21.540909659999997" lon="-48.773881659999994">
        <ele>530.0</ele>
        <time>2019-01-27T07:27:10-02:00</time>
      </trkpt>
      <trkpt lat="-21.540913999999997" lon="-48.77390666">
        <ele>530.0</ele>
        <time>2019-01-27T07:27:11-02:00</time>
      </trkpt>
      <trkpt lat="-21.540919000000002" lon="-48.77393332999999">
        <ele>530.0</ele>
        <time>2019-01-27T07:27:12-02:00</time>
      </trkpt>
      <trkpt lat="-21.54092633000001" lon="-48.77396">
        <ele>530.0</ele>
        <time>2019-01-27T07:27:13-02:00</time>
      </trkpt>
      <trkpt lat="-21.540930330000002" lon="-48.77398166000001">
        <ele>530.0</ele>
        <time>2019-01-27T07:27:14-02:00</time>
      </trkpt>
      <trkpt lat="-21.54093366" lon="-48.773999999999994">
        <ele>530.0</ele>
        <time>2019-01-27T07:27:15-02:00</time>
      </trkpt>
      <trkpt lat="-21.540938660000002" lon="-48.774025">
        <ele>530.0</ele>
        <time>2019-01-27T07:27:16-02:00</time>
      </trkpt>
      <trkpt lat="-21.540944" lon="-48.77405333">
        <ele>530.0</ele>
        <time>2019-01-27T07:27:17-02:00</time>
      </trkpt>
      <trkpt lat="-21.54094833" lon="-48.774078329999995">
        <ele>530.0</ele>
        <time>2019-01-27T07:27:18-02:00</time>
      </trkpt>
      <trkpt lat="-21.540955330000006" lon="-48.77410166">
        <ele>530.0</ele>
        <time>2019-01-27T07:27:19-02:00</time>
      </trkpt>
      <trkpt lat="-21.54095933" lon="-48.774121660000006">
        <ele>530.0</ele>
        <time>2019-01-27T07:27:20-02:00</time>
      </trkpt>
      <trkpt lat="-21.54096433" lon="-48.77415">
        <ele>530.0</ele>
        <time>2019-01-27T07:27:21-02:00</time>
      </trkpt>
      <trkpt lat="-21.540976660000005" lon="-48.77420166">
        <ele>530.0</ele>
        <time>2019-01-27T07:27:22-02:00</time>
      </trkpt>
      <trkpt lat="-21.540981330000005" lon="-48.774226660000004">
        <ele>530.0</ele>
        <time>2019-01-27T07:27:23-02:00</time>
      </trkpt>
      <trkpt lat="-21.540988" lon="-48.77425">
        <ele>529.0</ele>
        <time>2019-01-27T07:27:24-02:00</time>
      </trkpt>
      <trkpt lat="-21.54099233" lon="-48.774271660000004">
        <ele>529.0</ele>
        <time>2019-01-27T07:27:25-02:00</time>
      </trkpt>
      <trkpt lat="-21.540999660000004" lon="-48.77429833">
        <ele>529.0</ele>
        <time>2019-01-27T07:27:26-02:00</time>
      </trkpt>
      <trkpt lat="-21.541002999999996" lon="-48.77431666">
        <ele>529.0</ele>
        <time>2019-01-27T07:27:27-02:00</time>
      </trkpt>
      <trkpt lat="-21.541007330000003" lon="-48.77434">
        <ele>530.0</ele>
        <time>2019-01-27T07:27:28-02:00</time>
      </trkpt>
      <trkpt lat="-21.541014999999998" lon="-48.77436833">
        <ele>530.0</ele>
        <time>2019-01-27T07:27:29-02:00</time>
      </trkpt>
      <trkpt lat="-21.54101866" lon="-48.77438666">
        <ele>530.0</ele>
        <time>2019-01-27T07:27:30-02:00</time>
      </trkpt>
      <trkpt lat="-21.541024" lon="-48.774415">
        <ele>530.0</ele>
        <time>2019-01-27T07:27:31-02:00</time>
      </trkpt>
      <trkpt lat="-21.541031330000003" lon="-48.774440000000006">
        <ele>530.0</ele>
        <time>2019-01-27T07:27:32-02:00</time>
      </trkpt>
      <trkpt lat="-21.541036" lon="-48.774463329999996">
        <ele>530.0</ele>
        <time>2019-01-27T07:27:33-02:00</time>
      </trkpt>
      <trkpt lat="-21.541039330000004" lon="-48.77448">
        <ele>530.0</ele>
        <time>2019-01-27T07:27:34-02:00</time>
      </trkpt>
      <trkpt lat="-21.54104566" lon="-48.77451166000001">
        <ele>530.0</ele>
        <time>2019-01-27T07:27:35-02:00</time>
      </trkpt>
      <trkpt lat="-21.54105266" lon="-48.774535">
        <ele>530.0</ele>
        <time>2019-01-27T07:27:36-02:00</time>
      </trkpt>
      <trkpt lat="-21.541058" lon="-48.77456">
        <ele>530.0</ele>
        <time>2019-01-27T07:27:37-02:00</time>
      </trkpt>
      <trkpt lat="-21.541062659999998" lon="-48.77458333">
        <ele>530.0</ele>
        <time>2019-01-27T07:27:38-02:00</time>
      </trkpt>
      <trkpt lat="-21.541066660000006" lon="-48.774603330000005">
        <ele>530.0</ele>
        <time>2019-01-27T07:27:39-02:00</time>
      </trkpt>
      <trkpt lat="-21.541072330000002" lon="-48.774629999999995">
        <ele>530.0</ele>
        <time>2019-01-27T07:27:40-02:00</time>
      </trkpt>
      <trkpt lat="-21.541077" lon="-48.77465332999999">
        <ele>530.0</ele>
        <time>2019-01-27T07:27:41-02:00</time>
      </trkpt>
      <trkpt lat="-21.541083659999995" lon="-48.77468332999999">
        <ele>530.0</ele>
        <time>2019-01-27T07:27:42-02:00</time>
      </trkpt>
      <trkpt lat="-21.541089000000003" lon="-48.77470999999999">
        <ele>530.0</ele>
        <time>2019-01-27T07:27:43-02:00</time>
      </trkpt>
      <trkpt lat="-21.54109433" lon="-48.774736659999995">
        <ele>530.0</ele>
        <time>2019-01-27T07:27:44-02:00</time>
      </trkpt>
      <trkpt lat="-21.541099330000005" lon="-48.77475833">
        <ele>529.0</ele>
        <time>2019-01-27T07:27:45-02:00</time>
      </trkpt>
      <trkpt lat="-21.541105660000003" lon="-48.77479">
        <ele>529.0</ele>
        <time>2019-01-27T07:27:46-02:00</time>
      </trkpt>
      <trkpt lat="-21.541110659999998" lon="-48.774815000000004">
        <ele>529.0</ele>
        <time>2019-01-27T07:27:47-02:00</time>
      </trkpt>
      <trkpt lat="-21.54111366" lon="-48.77484166000001">
        <ele>529.0</ele>
        <time>2019-01-27T07:27:48-02:00</time>
      </trkpt>
      <trkpt lat="-21.541118660000002" lon="-48.77486666">
        <ele>529.0</ele>
        <time>2019-01-27T07:27:49-02:00</time>
      </trkpt>
      <trkpt lat="-21.541124330000002" lon="-48.77489333">
        <ele>529.0</ele>
        <time>2019-01-27T07:27:50-02:00</time>
      </trkpt>
      <trkpt lat="-21.541126" lon="-48.77491333">
        <ele>529.0</ele>
        <time>2019-01-27T07:27:51-02:00</time>
      </trkpt>
      <trkpt lat="-21.541132" lon="-48.77494333">
        <ele>529.0</ele>
        <time>2019-01-27T07:27:52-02:00</time>
      </trkpt>
      <trkpt lat="-21.541137000000003" lon="-48.77496832999999">
        <ele>529.0</ele>
        <time>2019-01-27T07:27:53-02:00</time>
      </trkpt>
      <trkpt lat="-21.541142329999996" lon="-48.774995000000004">
        <ele>529.0</ele>
        <time>2019-01-27T07:27:54-02:00</time>
      </trkpt>
      <trkpt lat="-21.541148" lon="-48.77502166000001">
        <ele>529.0</ele>
        <time>2019-01-27T07:27:55-02:00</time>
      </trkpt>
      <trkpt lat="-21.541153330000004" lon="-48.77504833">
        <ele>529.0</ele>
        <time>2019-01-27T07:27:56-02:00</time>
      </trkpt>
      <trkpt lat="-21.54115766" lon="-48.77506999999999">
        <ele>529.0</ele>
        <time>2019-01-27T07:27:57-02:00</time>
      </trkpt>
      <trkpt lat="-21.54116266" lon="-48.775095">
        <ele>529.0</ele>
        <time>2019-01-27T07:27:58-02:00</time>
      </trkpt>
      <trkpt lat="-21.541169" lon="-48.775126660000005">
        <ele>529.0</ele>
        <time>2019-01-27T07:27:59-02:00</time>
      </trkpt>
      <trkpt lat="-21.54117366" lon="-48.77515166">
        <ele>529.0</ele>
        <time>2019-01-27T07:28:00-02:00</time>
      </trkpt>
      <trkpt lat="-21.541175330000005" lon="-48.775171660000005">
        <ele>529.0</ele>
        <time>2019-01-27T07:28:01-02:00</time>
      </trkpt>
      <trkpt lat="-21.54118" lon="-48.775195000000004">
        <ele>529.0</ele>
        <time>2019-01-27T07:28:02-02:00</time>
      </trkpt>
      <trkpt lat="-21.541186000000003" lon="-48.775225">
        <ele>529.0</ele>
        <time>2019-01-27T07:28:03-02:00</time>
      </trkpt>
      <trkpt lat="-21.541192329999998" lon="-48.775243329999995">
        <ele>529.0</ele>
        <time>2019-01-27T07:28:04-02:00</time>
      </trkpt>
      <trkpt lat="-21.541197330000006" lon="-48.77526666">
        <ele>529.0</ele>
        <time>2019-01-27T07:28:05-02:00</time>
      </trkpt>
      <trkpt lat="-21.541199999999996" lon="-48.77529166000001">
        <ele>529.0</ele>
        <time>2019-01-27T07:28:06-02:00</time>
      </trkpt>
      <trkpt lat="-21.541205330000004" lon="-48.77531832999999">
        <ele>529.0</ele>
        <time>2019-01-27T07:28:07-02:00</time>
      </trkpt>
      <trkpt lat="-21.541212659999996" lon="-48.77534333">
        <ele>529.0</ele>
        <time>2019-01-27T07:28:08-02:00</time>
      </trkpt>
      <trkpt lat="-21.541217330000002" lon="-48.775365">
        <ele>529.0</ele>
        <time>2019-01-27T07:28:09-02:00</time>
      </trkpt>
      <trkpt lat="-21.54122266" lon="-48.775391660000004">
        <ele>529.0</ele>
        <time>2019-01-27T07:28:10-02:00</time>
      </trkpt>
      <trkpt lat="-21.54122733" lon="-48.775415">
        <ele>529.0</ele>
        <time>2019-01-27T07:28:11-02:00</time>
      </trkpt>
      <trkpt lat="-21.541233000000002" lon="-48.77544166">
        <ele>529.0</ele>
        <time>2019-01-27T07:28:12-02:00</time>
      </trkpt>
      <trkpt lat="-21.541237000000002" lon="-48.775461660000005">
        <ele>529.0</ele>
        <time>2019-01-27T07:28:13-02:00</time>
      </trkpt>
      <trkpt lat="-21.541242000000004" lon="-48.775486660000006">
        <ele>529.0</ele>
        <time>2019-01-27T07:28:14-02:00</time>
      </trkpt>
      <trkpt lat="-21.541248000000003" lon="-48.77551666000001">
        <ele>529.0</ele>
        <time>2019-01-27T07:28:15-02:00</time>
      </trkpt>
      <trkpt lat="-21.541252" lon="-48.77553833">
        <ele>529.0</ele>
        <time>2019-01-27T07:28:16-02:00</time>
      </trkpt>
      <trkpt lat="-21.541258329999998" lon="-48.77557">
        <ele>529.0</ele>
        <time>2019-01-27T07:28:17-02:00</time>
      </trkpt>
      <trkpt lat="-21.54126333" lon="-48.775595">
        <ele>529.0</ele>
        <time>2019-01-27T07:28:18-02:00</time>
      </trkpt>
      <trkpt lat="-21.54126566" lon="-48.77561833">
        <ele>529.0</ele>
        <time>2019-01-27T07:28:19-02:00</time>
      </trkpt>
      <trkpt lat="-21.541270660000002" lon="-48.77564333">
        <ele>529.0</ele>
        <time>2019-01-27T07:28:20-02:00</time>
      </trkpt>
      <trkpt lat="-21.54127533" lon="-48.775666660000006">
        <ele>529.0</ele>
        <time>2019-01-27T07:28:21-02:00</time>
      </trkpt>
      <trkpt lat="-21.54128033" lon="-48.775693329999996">
        <ele>529.0</ele>
        <time>2019-01-27T07:28:22-02:00</time>
      </trkpt>
      <trkpt lat="-21.541285660000003" lon="-48.77572">
        <ele>529.0</ele>
        <time>2019-01-27T07:28:23-02:00</time>
      </trkpt>
      <trkpt lat="-21.54128966" lon="-48.77574166000001">
        <ele>529.0</ele>
        <time>2019-01-27T07:28:24-02:00</time>
      </trkpt>
      <trkpt lat="-21.541292000000006" lon="-48.77576666">
        <ele>529.0</ele>
        <time>2019-01-27T07:28:25-02:00</time>
      </trkpt>
      <trkpt lat="-21.54129766" lon="-48.775796660000005">
        <ele>529.0</ele>
        <time>2019-01-27T07:28:26-02:00</time>
      </trkpt>
      <trkpt lat="-21.541302659999996" lon="-48.775821660000005">
        <ele>529.0</ele>
        <time>2019-01-27T07:28:27-02:00</time>
      </trkpt>
      <trkpt lat="-21.54130666" lon="-48.77584333">
        <ele>529.0</ele>
        <time>2019-01-27T07:28:28-02:00</time>
      </trkpt>
      <trkpt lat="-21.541311330000003" lon="-48.775868329999994">
        <ele>529.0</ele>
        <time>2019-01-27T07:28:29-02:00</time>
      </trkpt>
      <trkpt lat="-21.541317000000003" lon="-48.775898330000004">
        <ele>529.0</ele>
        <time>2019-01-27T07:28:30-02:00</time>
      </trkpt>
      <trkpt lat="-21.541322000000005" lon="-48.77592333">
        <ele>529.0</ele>
        <time>2019-01-27T07:28:31-02:00</time>
      </trkpt>
      <trkpt lat="-21.541327000000003" lon="-48.775949999999995">
        <ele>529.0</ele>
        <time>2019-01-27T07:28:32-02:00</time>
      </trkpt>
      <trkpt lat="-21.541331660000004" lon="-48.775975">
        <ele>529.0</ele>
        <time>2019-01-27T07:28:33-02:00</time>
      </trkpt>
      <trkpt lat="-21.541336330000004" lon="-48.776">
        <ele>529.0</ele>
        <time>2019-01-27T07:28:34-02:00</time>
      </trkpt>
      <trkpt lat="-21.541340330000004" lon="-48.776021660000005">
        <ele>529.0</ele>
        <time>2019-01-27T07:28:35-02:00</time>
      </trkpt>
      <trkpt lat="-21.541346330000003" lon="-48.776053329999996">
        <ele>529.0</ele>
        <time>2019-01-27T07:28:36-02:00</time>
      </trkpt>
      <trkpt lat="-21.54134866" lon="-48.776078330000004">
        <ele>529.0</ele>
        <time>2019-01-27T07:28:37-02:00</time>
      </trkpt>
      <trkpt lat="-21.54135366" lon="-48.77610166000001">
        <ele>529.0</ele>
        <time>2019-01-27T07:28:38-02:00</time>
      </trkpt>
      <trkpt lat="-21.541358" lon="-48.77612666">
        <ele>529.0</ele>
        <time>2019-01-27T07:28:39-02:00</time>
      </trkpt>
      <trkpt lat="-21.541362" lon="-48.77614500000001">
        <ele>529.0</ele>
        <time>2019-01-27T07:28:40-02:00</time>
      </trkpt>
      <trkpt lat="-21.541364330000004" lon="-48.77617">
        <ele>529.0</ele>
        <time>2019-01-27T07:28:41-02:00</time>
      </trkpt>
      <trkpt lat="-21.54137" lon="-48.7762">
        <ele>529.0</ele>
        <time>2019-01-27T07:28:42-02:00</time>
      </trkpt>
      <trkpt lat="-21.541373" lon="-48.77621666">
        <ele>529.0</ele>
        <time>2019-01-27T07:28:43-02:00</time>
      </trkpt>
      <trkpt lat="-21.541378329999997" lon="-48.776245">
        <ele>529.0</ele>
        <time>2019-01-27T07:28:44-02:00</time>
      </trkpt>
      <trkpt lat="-21.541382999999996" lon="-48.77626833000001">
        <ele>529.0</ele>
        <time>2019-01-27T07:28:45-02:00</time>
      </trkpt>
      <trkpt lat="-21.541386659999997" lon="-48.77628833">
        <ele>529.0</ele>
        <time>2019-01-27T07:28:46-02:00</time>
      </trkpt>
      <trkpt lat="-21.541392659999996" lon="-48.776318329999995">
        <ele>529.0</ele>
        <time>2019-01-27T07:28:47-02:00</time>
      </trkpt>
      <trkpt lat="-21.541397330000002" lon="-48.776343329999996">
        <ele>529.0</ele>
        <time>2019-01-27T07:28:48-02:00</time>
      </trkpt>
      <trkpt lat="-21.541402" lon="-48.77636666">
        <ele>529.0</ele>
        <time>2019-01-27T07:28:49-02:00</time>
      </trkpt>
      <trkpt lat="-21.54140666" lon="-48.776390000000006">
        <ele>529.0</ele>
        <time>2019-01-27T07:28:50-02:00</time>
      </trkpt>
      <trkpt lat="-21.54141133" lon="-48.77641333">
        <ele>529.0</ele>
        <time>2019-01-27T07:28:51-02:00</time>
      </trkpt>
      <trkpt lat="-21.541415330000003" lon="-48.77643166">
        <ele>529.0</ele>
        <time>2019-01-27T07:28:52-02:00</time>
      </trkpt>
      <trkpt lat="-21.54142266" lon="-48.77645833">
        <ele>529.0</ele>
        <time>2019-01-27T07:28:53-02:00</time>
      </trkpt>
      <trkpt lat="-21.54142766" lon="-48.77648332999999">
        <ele>529.0</ele>
        <time>2019-01-27T07:28:54-02:00</time>
      </trkpt>
      <trkpt lat="-21.541431660000004" lon="-48.77650333">
        <ele>529.0</ele>
        <time>2019-01-27T07:28:55-02:00</time>
      </trkpt>
      <trkpt lat="-21.54144066" lon="-48.77653666">
        <ele>529.0</ele>
        <time>2019-01-27T07:28:56-02:00</time>
      </trkpt>
      <trkpt lat="-21.54144566" lon="-48.77656166">
        <ele>529.0</ele>
        <time>2019-01-27T07:28:57-02:00</time>
      </trkpt>
      <trkpt lat="-21.541452659999997" lon="-48.77658666000001">
        <ele>529.0</ele>
        <time>2019-01-27T07:28:58-02:00</time>
      </trkpt>
      <trkpt lat="-21.54145766" lon="-48.77661166">
        <ele>529.0</ele>
        <time>2019-01-27T07:28:59-02:00</time>
      </trkpt>
      <trkpt lat="-21.541462000000003" lon="-48.776635">
        <ele>529.0</ele>
        <time>2019-01-27T07:29:00-02:00</time>
      </trkpt>
      <trkpt lat="-21.541469" lon="-48.77665666">
        <ele>529.0</ele>
        <time>2019-01-27T07:29:01-02:00</time>
      </trkpt>
      <trkpt lat="-21.541475330000004" lon="-48.77668833">
        <ele>529.0</ele>
        <time>2019-01-27T07:29:02-02:00</time>
      </trkpt>
      <trkpt lat="-21.54148166" lon="-48.77671">
        <ele>529.0</ele>
        <time>2019-01-27T07:29:03-02:00</time>
      </trkpt>
      <trkpt lat="-21.541487659999998" lon="-48.776740000000004">
        <ele>529.0</ele>
        <time>2019-01-27T07:29:04-02:00</time>
      </trkpt>
      <trkpt lat="-21.541491660000002" lon="-48.776759999999996">
        <ele>529.0</ele>
        <time>2019-01-27T07:29:05-02:00</time>
      </trkpt>
      <trkpt lat="-21.541498660000002" lon="-48.77678332999999">
        <ele>529.0</ele>
        <time>2019-01-27T07:29:06-02:00</time>
      </trkpt>
      <trkpt lat="-21.541503999999996" lon="-48.776808329999994">
        <ele>529.0</ele>
        <time>2019-01-27T07:29:07-02:00</time>
      </trkpt>
      <trkpt lat="-21.541508999999998" lon="-48.77683332999999">
        <ele>529.0</ele>
        <time>2019-01-27T07:29:08-02:00</time>
      </trkpt>
      <trkpt lat="-21.541514999999997" lon="-48.77686333">
        <ele>529.0</ele>
        <time>2019-01-27T07:29:09-02:00</time>
      </trkpt>
      <trkpt lat="-21.541522660000002" lon="-48.77688666">
        <ele>529.0</ele>
        <time>2019-01-27T07:29:10-02:00</time>
      </trkpt>
      <trkpt lat="-21.541528" lon="-48.776911659999996">
        <ele>529.0</ele>
        <time>2019-01-27T07:29:11-02:00</time>
      </trkpt>
      <trkpt lat="-21.54153333" lon="-48.77693832999999">
        <ele>529.0</ele>
        <time>2019-01-27T07:29:12-02:00</time>
      </trkpt>
      <trkpt lat="-21.541538999999997" lon="-48.776965000000004">
        <ele>529.0</ele>
        <time>2019-01-27T07:29:13-02:00</time>
      </trkpt>
      <trkpt lat="-21.54154666" lon="-48.77699166000001">
        <ele>529.0</ele>
        <time>2019-01-27T07:29:14-02:00</time>
      </trkpt>
      <trkpt lat="-21.54155233" lon="-48.77701833">
        <ele>529.0</ele>
        <time>2019-01-27T07:29:15-02:00</time>
      </trkpt>
      <trkpt lat="-21.54155733" lon="-48.77704333">
        <ele>529.0</ele>
        <time>2019-01-27T07:29:16-02:00</time>
      </trkpt>
      <trkpt lat="-21.541562999999996" lon="-48.77707">
        <ele>529.0</ele>
        <time>2019-01-27T07:29:17-02:00</time>
      </trkpt>
      <trkpt lat="-21.541565999999996" lon="-48.777096660000005">
        <ele>529.0</ele>
        <time>2019-01-27T07:29:18-02:00</time>
      </trkpt>
      <trkpt lat="-21.541571000000005" lon="-48.777120000000004">
        <ele>529.0</ele>
        <time>2019-01-27T07:29:19-02:00</time>
      </trkpt>
      <trkpt lat="-21.541575" lon="-48.777139999999996">
        <ele>529.0</ele>
        <time>2019-01-27T07:29:20-02:00</time>
      </trkpt>
      <trkpt lat="-21.541580999999997" lon="-48.77717">
        <ele>530.0</ele>
        <time>2019-01-27T07:29:21-02:00</time>
      </trkpt>
      <trkpt lat="-21.541585660000003" lon="-48.77719332999999">
        <ele>530.0</ele>
        <time>2019-01-27T07:29:22-02:00</time>
      </trkpt>
      <trkpt lat="-21.54158966" lon="-48.777213329999995">
        <ele>530.0</ele>
        <time>2019-01-27T07:29:23-02:00</time>
      </trkpt>
      <trkpt lat="-21.54159433" lon="-48.77723666">
        <ele>530.0</ele>
        <time>2019-01-27T07:29:24-02:00</time>
      </trkpt>
      <trkpt lat="-21.541599660000003" lon="-48.77726">
        <ele>530.0</ele>
        <time>2019-01-27T07:29:25-02:00</time>
      </trkpt>
      <trkpt lat="-21.541604999999997" lon="-48.77728499999999">
        <ele>530.0</ele>
        <time>2019-01-27T07:29:26-02:00</time>
      </trkpt>
      <trkpt lat="-21.54160766" lon="-48.77731">
        <ele>530.0</ele>
        <time>2019-01-27T07:29:27-02:00</time>
      </trkpt>
      <trkpt lat="-21.54161333" lon="-48.77733666">
        <ele>530.0</ele>
        <time>2019-01-27T07:29:28-02:00</time>
      </trkpt>
      <trkpt lat="-21.54161866" lon="-48.77736333">
        <ele>530.0</ele>
        <time>2019-01-27T07:29:29-02:00</time>
      </trkpt>
      <trkpt lat="-21.54162266" lon="-48.777393329999995">
        <ele>530.0</ele>
        <time>2019-01-27T07:29:30-02:00</time>
      </trkpt>
      <trkpt lat="-21.54162733" lon="-48.77741666">
        <ele>530.0</ele>
        <time>2019-01-27T07:29:31-02:00</time>
      </trkpt>
      <trkpt lat="-21.54163166" lon="-48.77743666">
        <ele>530.0</ele>
        <time>2019-01-27T07:29:32-02:00</time>
      </trkpt>
      <trkpt lat="-21.541634" lon="-48.777460000000005">
        <ele>530.0</ele>
        <time>2019-01-27T07:29:33-02:00</time>
      </trkpt>
      <trkpt lat="-21.541639" lon="-48.777483329999995">
        <ele>530.0</ele>
        <time>2019-01-27T07:29:34-02:00</time>
      </trkpt>
      <trkpt lat="-21.541643329999996" lon="-48.77750332999999">
        <ele>530.0</ele>
        <time>2019-01-27T07:29:35-02:00</time>
      </trkpt>
      <trkpt lat="-21.541649" lon="-48.77753">
        <ele>530.0</ele>
        <time>2019-01-27T07:29:36-02:00</time>
      </trkpt>
      <trkpt lat="-21.541651660000003" lon="-48.777555">
        <ele>530.0</ele>
        <time>2019-01-27T07:29:37-02:00</time>
      </trkpt>
      <trkpt lat="-21.541657999999998" lon="-48.77758666">
        <ele>530.0</ele>
        <time>2019-01-27T07:29:38-02:00</time>
      </trkpt>
      <trkpt lat="-21.541663" lon="-48.777611660000005">
        <ele>530.0</ele>
        <time>2019-01-27T07:29:39-02:00</time>
      </trkpt>
      <trkpt lat="-21.541665330000008" lon="-48.777636660000006">
        <ele>530.0</ele>
        <time>2019-01-27T07:29:40-02:00</time>
      </trkpt>
      <trkpt lat="-21.541669000000002" lon="-48.777654999999996">
        <ele>530.0</ele>
        <time>2019-01-27T07:29:41-02:00</time>
      </trkpt>
      <trkpt lat="-21.541673999999997" lon="-48.77768166">
        <ele>530.0</ele>
        <time>2019-01-27T07:29:42-02:00</time>
      </trkpt>
      <trkpt lat="-21.541680000000003" lon="-48.77771166000001">
        <ele>530.0</ele>
        <time>2019-01-27T07:29:43-02:00</time>
      </trkpt>
      <trkpt lat="-21.541683659999997" lon="-48.77773166000001">
        <ele>530.0</ele>
        <time>2019-01-27T07:29:44-02:00</time>
      </trkpt>
      <trkpt lat="-21.54168666" lon="-48.77776166">
        <ele>530.0</ele>
        <time>2019-01-27T07:29:45-02:00</time>
      </trkpt>
      <trkpt lat="-21.54169066" lon="-48.77778">
        <ele>530.0</ele>
        <time>2019-01-27T07:29:46-02:00</time>
      </trkpt>
      <trkpt lat="-21.541696" lon="-48.777808329999985">
        <ele>530.0</ele>
        <time>2019-01-27T07:29:47-02:00</time>
      </trkpt>
      <trkpt lat="-21.541701000000003" lon="-48.777834999999996">
        <ele>530.0</ele>
        <time>2019-01-27T07:29:48-02:00</time>
      </trkpt>
      <trkpt lat="-21.541705999999998" lon="-48.77785833">
        <ele>530.0</ele>
        <time>2019-01-27T07:29:49-02:00</time>
      </trkpt>
      <trkpt lat="-21.54171033" lon="-48.777881660000006">
        <ele>530.0</ele>
        <time>2019-01-27T07:29:50-02:00</time>
      </trkpt>
      <trkpt lat="-21.541716" lon="-48.77791166">
        <ele>530.0</ele>
        <time>2019-01-27T07:29:51-02:00</time>
      </trkpt>
      <trkpt lat="-21.54172" lon="-48.77793166">
        <ele>530.0</ele>
        <time>2019-01-27T07:29:52-02:00</time>
      </trkpt>
      <trkpt lat="-21.541724999999996" lon="-48.77795666">
        <ele>530.0</ele>
        <time>2019-01-27T07:29:53-02:00</time>
      </trkpt>
      <trkpt lat="-21.541730660000002" lon="-48.77798666">
        <ele>530.0</ele>
        <time>2019-01-27T07:29:54-02:00</time>
      </trkpt>
      <trkpt lat="-21.54173566" lon="-48.778011660000004">
        <ele>530.0</ele>
        <time>2019-01-27T07:29:55-02:00</time>
      </trkpt>
      <trkpt lat="-21.541740330000003" lon="-48.77803666">
        <ele>530.0</ele>
        <time>2019-01-27T07:29:56-02:00</time>
      </trkpt>
      <trkpt lat="-21.541744" lon="-48.778056660000004">
        <ele>530.0</ele>
        <time>2019-01-27T07:29:57-02:00</time>
      </trkpt>
      <trkpt lat="-21.541748660000003" lon="-48.77808">
        <ele>530.0</ele>
        <time>2019-01-27T07:29:58-02:00</time>
      </trkpt>
      <trkpt lat="-21.541753999999997" lon="-48.778108329999995">
        <ele>530.0</ele>
        <time>2019-01-27T07:29:59-02:00</time>
      </trkpt>
      <trkpt lat="-21.541758999999995" lon="-48.77813499999999">
        <ele>530.0</ele>
        <time>2019-01-27T07:30:00-02:00</time>
      </trkpt>
      <trkpt lat="-21.54176366" lon="-48.77816">
        <ele>530.0</ele>
        <time>2019-01-27T07:30:01-02:00</time>
      </trkpt>
      <trkpt lat="-21.541770660000005" lon="-48.77818499999999">
        <ele>530.0</ele>
        <time>2019-01-27T07:30:02-02:00</time>
      </trkpt>
      <trkpt lat="-21.541774330000003" lon="-48.77820333">
        <ele>530.0</ele>
        <time>2019-01-27T07:30:03-02:00</time>
      </trkpt>
      <trkpt lat="-21.541779660000003" lon="-48.77823166">
        <ele>530.0</ele>
        <time>2019-01-27T07:30:04-02:00</time>
      </trkpt>
      <trkpt lat="-21.541784" lon="-48.77825332999999">
        <ele>530.0</ele>
        <time>2019-01-27T07:30:05-02:00</time>
      </trkpt>
      <trkpt lat="-21.541789660000003" lon="-48.778281660000005">
        <ele>530.0</ele>
        <time>2019-01-27T07:30:06-02:00</time>
      </trkpt>
      <trkpt lat="-21.54179466" lon="-48.778308329999994">
        <ele>530.0</ele>
        <time>2019-01-27T07:30:07-02:00</time>
      </trkpt>
      <trkpt lat="-21.541799330000003" lon="-48.778333329999995">
        <ele>530.0</ele>
        <time>2019-01-27T07:30:08-02:00</time>
      </trkpt>
      <trkpt lat="-21.541804660000004" lon="-48.778363330000005">
        <ele>530.0</ele>
        <time>2019-01-27T07:30:09-02:00</time>
      </trkpt>
      <trkpt lat="-21.541806330000004" lon="-48.778385">
        <ele>530.0</ele>
        <time>2019-01-27T07:30:10-02:00</time>
      </trkpt>
      <trkpt lat="-21.541812330000003" lon="-48.778416660000005">
        <ele>530.0</ele>
        <time>2019-01-27T07:30:11-02:00</time>
      </trkpt>
      <trkpt lat="-21.541816330000007" lon="-48.77843833">
        <ele>530.0</ele>
        <time>2019-01-27T07:30:12-02:00</time>
      </trkpt>
      <trkpt lat="-21.541819" lon="-48.778468329999995">
        <ele>530.0</ele>
        <time>2019-01-27T07:30:13-02:00</time>
      </trkpt>
      <trkpt lat="-21.54182366" lon="-48.77849333">
        <ele>530.0</ele>
        <time>2019-01-27T07:30:14-02:00</time>
      </trkpt>
      <trkpt lat="-21.541828329999998" lon="-48.77852000000001">
        <ele>530.0</ele>
        <time>2019-01-27T07:30:15-02:00</time>
      </trkpt>
      <trkpt lat="-21.54183066" lon="-48.77854666000001">
        <ele>530.0</ele>
        <time>2019-01-27T07:30:16-02:00</time>
      </trkpt>
      <trkpt lat="-21.54183466" lon="-48.77857">
        <ele>530.0</ele>
        <time>2019-01-27T07:30:17-02:00</time>
      </trkpt>
      <trkpt lat="-21.541839330000002" lon="-48.778596660000005">
        <ele>530.0</ele>
        <time>2019-01-27T07:30:18-02:00</time>
      </trkpt>
      <trkpt lat="-21.54184466" lon="-48.778625">
        <ele>530.0</ele>
        <time>2019-01-27T07:30:19-02:00</time>
      </trkpt>
      <trkpt lat="-21.541847" lon="-48.77865166">
        <ele>530.0</ele>
        <time>2019-01-27T07:30:20-02:00</time>
      </trkpt>
      <trkpt lat="-21.541851660000003" lon="-48.77867832999999">
        <ele>530.0</ele>
        <time>2019-01-27T07:30:21-02:00</time>
      </trkpt>
      <trkpt lat="-21.541855330000004" lon="-48.77869833">
        <ele>530.0</ele>
        <time>2019-01-27T07:30:22-02:00</time>
      </trkpt>
      <trkpt lat="-21.54185966" lon="-48.77872332999999">
        <ele>530.0</ele>
        <time>2019-01-27T07:30:23-02:00</time>
      </trkpt>
      <trkpt lat="-21.541864999999998" lon="-48.77875166">
        <ele>530.0</ele>
        <time>2019-01-27T07:30:24-02:00</time>
      </trkpt>
      <trkpt lat="-21.541870000000003" lon="-48.77878">
        <ele>530.0</ele>
        <time>2019-01-27T07:30:25-02:00</time>
      </trkpt>
      <trkpt lat="-21.541875330000003" lon="-48.77880832999999">
        <ele>530.0</ele>
        <time>2019-01-27T07:30:26-02:00</time>
      </trkpt>
      <trkpt lat="-21.54187966" lon="-48.77883166">
        <ele>530.0</ele>
        <time>2019-01-27T07:30:27-02:00</time>
      </trkpt>
      <trkpt lat="-21.541884" lon="-48.77885499999999">
        <ele>530.0</ele>
        <time>2019-01-27T07:30:28-02:00</time>
      </trkpt>
      <trkpt lat="-21.54188733" lon="-48.778873329999996">
        <ele>530.0</ele>
        <time>2019-01-27T07:30:29-02:00</time>
      </trkpt>
      <trkpt lat="-21.54189166" lon="-48.77889666000001">
        <ele>530.0</ele>
        <time>2019-01-27T07:30:30-02:00</time>
      </trkpt>
      <trkpt lat="-21.541896660000003" lon="-48.778925">
        <ele>530.0</ele>
        <time>2019-01-27T07:30:31-02:00</time>
      </trkpt>
      <trkpt lat="-21.541900660000003" lon="-48.77894332999999">
        <ele>530.0</ele>
        <time>2019-01-27T07:30:32-02:00</time>
      </trkpt>
      <trkpt lat="-21.541905660000005" lon="-48.77897166000001">
        <ele>530.0</ele>
        <time>2019-01-27T07:30:33-02:00</time>
      </trkpt>
      <trkpt lat="-21.541910660000003" lon="-48.77899832999999">
        <ele>530.0</ele>
        <time>2019-01-27T07:30:34-02:00</time>
      </trkpt>
      <trkpt lat="-21.541915660000004" lon="-48.779025000000004">
        <ele>530.0</ele>
        <time>2019-01-27T07:30:35-02:00</time>
      </trkpt>
      <trkpt lat="-21.541919330000002" lon="-48.779046660000006">
        <ele>530.0</ele>
        <time>2019-01-27T07:30:36-02:00</time>
      </trkpt>
      <trkpt lat="-21.541922330000002" lon="-48.77907666000001">
        <ele>530.0</ele>
        <time>2019-01-27T07:30:37-02:00</time>
      </trkpt>
      <trkpt lat="-21.541926660000005" lon="-48.779101659999995">
        <ele>530.0</ele>
        <time>2019-01-27T07:30:38-02:00</time>
      </trkpt>
      <trkpt lat="-21.541930330000007" lon="-48.77912332999999">
        <ele>530.0</ele>
        <time>2019-01-27T07:30:39-02:00</time>
      </trkpt>
      <trkpt lat="-21.541934329999997" lon="-48.77914666">
        <ele>530.0</ele>
        <time>2019-01-27T07:30:40-02:00</time>
      </trkpt>
      <trkpt lat="-21.541938999999996" lon="-48.77917332999999">
        <ele>530.0</ele>
        <time>2019-01-27T07:30:41-02:00</time>
      </trkpt>
      <trkpt lat="-21.54194433" lon="-48.77920333">
        <ele>530.0</ele>
        <time>2019-01-27T07:30:42-02:00</time>
      </trkpt>
      <trkpt lat="-21.541948660000003" lon="-48.779228329999995">
        <ele>530.0</ele>
        <time>2019-01-27T07:30:43-02:00</time>
      </trkpt>
      <trkpt lat="-21.541953330000002" lon="-48.77925499999999">
        <ele>530.0</ele>
        <time>2019-01-27T07:30:44-02:00</time>
      </trkpt>
      <trkpt lat="-21.541957659999998" lon="-48.779281659999995">
        <ele>530.0</ele>
        <time>2019-01-27T07:30:45-02:00</time>
      </trkpt>
      <trkpt lat="-21.541962000000005" lon="-48.77930666">
        <ele>530.0</ele>
        <time>2019-01-27T07:30:46-02:00</time>
      </trkpt>
      <trkpt lat="-21.54196366" lon="-48.77933">
        <ele>530.0</ele>
        <time>2019-01-27T07:30:47-02:00</time>
      </trkpt>
      <trkpt lat="-21.54196766" lon="-48.779354999999995">
        <ele>530.0</ele>
        <time>2019-01-27T07:30:48-02:00</time>
      </trkpt>
      <trkpt lat="-21.541971000000004" lon="-48.779375">
        <ele>530.0</ele>
        <time>2019-01-27T07:30:49-02:00</time>
      </trkpt>
      <trkpt lat="-21.541975330000007" lon="-48.7794">
        <ele>530.0</ele>
        <time>2019-01-27T07:30:50-02:00</time>
      </trkpt>
      <trkpt lat="-21.54198066" lon="-48.77943166">
        <ele>530.0</ele>
        <time>2019-01-27T07:30:51-02:00</time>
      </trkpt>
      <trkpt lat="-21.541983659999996" lon="-48.77945166000001">
        <ele>530.0</ele>
        <time>2019-01-27T07:30:52-02:00</time>
      </trkpt>
      <trkpt lat="-21.541987999999996" lon="-48.77947999999999">
        <ele>530.0</ele>
        <time>2019-01-27T07:30:53-02:00</time>
      </trkpt>
      <trkpt lat="-21.54199466" lon="-48.77950332999999">
        <ele>530.0</ele>
        <time>2019-01-27T07:30:54-02:00</time>
      </trkpt>
      <trkpt lat="-21.541998330000002" lon="-48.77952832999999">
        <ele>530.0</ele>
        <time>2019-01-27T07:30:55-02:00</time>
      </trkpt>
      <trkpt lat="-21.542002999999994" lon="-48.779555">
        <ele>530.0</ele>
        <time>2019-01-27T07:30:56-02:00</time>
      </trkpt>
      <trkpt lat="-21.54200733" lon="-48.77958">
        <ele>530.0</ele>
        <time>2019-01-27T07:30:57-02:00</time>
      </trkpt>
      <trkpt lat="-21.54201133" lon="-48.77960333">
        <ele>530.0</ele>
        <time>2019-01-27T07:30:58-02:00</time>
      </trkpt>
      <trkpt lat="-21.542015330000005" lon="-48.779628329999994">
        <ele>530.0</ele>
        <time>2019-01-27T07:30:59-02:00</time>
      </trkpt>
      <trkpt lat="-21.542016659999998" lon="-48.779650000000004">
        <ele>530.0</ele>
        <time>2019-01-27T07:31:00-02:00</time>
      </trkpt>
      <trkpt lat="-21.542021" lon="-48.77967500000001">
        <ele>530.0</ele>
        <time>2019-01-27T07:31:01-02:00</time>
      </trkpt>
      <trkpt lat="-21.542025660000004" lon="-48.77969999999999">
        <ele>530.0</ele>
        <time>2019-01-27T07:31:02-02:00</time>
      </trkpt>
      <trkpt lat="-21.542028999999996" lon="-48.779718329999994">
        <ele>530.0</ele>
        <time>2019-01-27T07:31:03-02:00</time>
      </trkpt>
      <trkpt lat="-21.542033659999998" lon="-48.77974333">
        <ele>530.0</ele>
        <time>2019-01-27T07:31:04-02:00</time>
      </trkpt>
      <trkpt lat="-21.542037999999998" lon="-48.779768329999996">
        <ele>530.0</ele>
        <time>2019-01-27T07:31:05-02:00</time>
      </trkpt>
      <trkpt lat="-21.542043330000002" lon="-48.77979666000001">
        <ele>530.0</ele>
        <time>2019-01-27T07:31:06-02:00</time>
      </trkpt>
      <trkpt lat="-21.542047000000004" lon="-48.779816659999994">
        <ele>530.0</ele>
        <time>2019-01-27T07:31:07-02:00</time>
      </trkpt>
      <trkpt lat="-21.542051660000006" lon="-48.77984166">
        <ele>530.0</ele>
        <time>2019-01-27T07:31:08-02:00</time>
      </trkpt>
      <trkpt lat="-21.54205866" lon="-48.779866659999996">
        <ele>530.0</ele>
        <time>2019-01-27T07:31:09-02:00</time>
      </trkpt>
      <trkpt lat="-21.54206366" lon="-48.77989332999999">
        <ele>530.0</ele>
        <time>2019-01-27T07:31:10-02:00</time>
      </trkpt>
      <trkpt lat="-21.54206833" lon="-48.77991833">
        <ele>530.0</ele>
        <time>2019-01-27T07:31:11-02:00</time>
      </trkpt>
      <trkpt lat="-21.542075330000003" lon="-48.77994">
        <ele>530.0</ele>
        <time>2019-01-27T07:31:12-02:00</time>
      </trkpt>
      <trkpt lat="-21.542079999999995" lon="-48.779965000000004">
        <ele>530.0</ele>
        <time>2019-01-27T07:31:13-02:00</time>
      </trkpt>
      <trkpt lat="-21.542086000000005" lon="-48.77999666000001">
        <ele>530.0</ele>
        <time>2019-01-27T07:31:14-02:00</time>
      </trkpt>
      <trkpt lat="-21.542092659999998" lon="-48.78002">
        <ele>530.0</ele>
        <time>2019-01-27T07:31:15-02:00</time>
      </trkpt>
      <trkpt lat="-21.54209733" lon="-48.780045">
        <ele>530.0</ele>
        <time>2019-01-27T07:31:16-02:00</time>
      </trkpt>
      <trkpt lat="-21.54210433" lon="-48.780069999999995">
        <ele>530.0</ele>
        <time>2019-01-27T07:31:17-02:00</time>
      </trkpt>
      <trkpt lat="-21.542109" lon="-48.780095">
        <ele>530.0</ele>
        <time>2019-01-27T07:31:18-02:00</time>
      </trkpt>
      <trkpt lat="-21.542115" lon="-48.78011500000001">
        <ele>530.0</ele>
        <time>2019-01-27T07:31:19-02:00</time>
      </trkpt>
      <trkpt lat="-21.542120330000003" lon="-48.78014333">
        <ele>530.0</ele>
        <time>2019-01-27T07:31:20-02:00</time>
      </trkpt>
      <trkpt lat="-21.542127" lon="-48.780168329999995">
        <ele>530.0</ele>
        <time>2019-01-27T07:31:21-02:00</time>
      </trkpt>
      <trkpt lat="-21.54213133" lon="-48.78019166">
        <ele>530.0</ele>
        <time>2019-01-27T07:31:22-02:00</time>
      </trkpt>
      <trkpt lat="-21.542138330000004" lon="-48.780216659999994">
        <ele>530.0</ele>
        <time>2019-01-27T07:31:23-02:00</time>
      </trkpt>
      <trkpt lat="-21.54214266" lon="-48.780240000000006">
        <ele>530.0</ele>
        <time>2019-01-27T07:31:24-02:00</time>
      </trkpt>
      <trkpt lat="-21.542146000000002" lon="-48.780258329999995">
        <ele>530.0</ele>
        <time>2019-01-27T07:31:25-02:00</time>
      </trkpt>
      <trkpt lat="-21.54215366" lon="-48.78028499999999">
        <ele>530.0</ele>
        <time>2019-01-27T07:31:26-02:00</time>
      </trkpt>
      <trkpt lat="-21.542157659999997" lon="-48.78030666000001">
        <ele>530.0</ele>
        <time>2019-01-27T07:31:27-02:00</time>
      </trkpt>
      <trkpt lat="-21.54216166" lon="-48.78032666000001">
        <ele>530.0</ele>
        <time>2019-01-27T07:31:28-02:00</time>
      </trkpt>
      <trkpt lat="-21.542170000000002" lon="-48.78035666000001">
        <ele>530.0</ele>
        <time>2019-01-27T07:31:29-02:00</time>
      </trkpt>
      <trkpt lat="-21.542174" lon="-48.78037500000001">
        <ele>530.0</ele>
        <time>2019-01-27T07:31:30-02:00</time>
      </trkpt>
      <trkpt lat="-21.54218166" lon="-48.78040166000001">
        <ele>530.0</ele>
        <time>2019-01-27T07:31:31-02:00</time>
      </trkpt>
      <trkpt lat="-21.54218666" lon="-48.78042666">
        <ele>530.0</ele>
        <time>2019-01-27T07:31:32-02:00</time>
      </trkpt>
      <trkpt lat="-21.54219233" lon="-48.78044333">
        <ele>530.0</ele>
        <time>2019-01-27T07:31:33-02:00</time>
      </trkpt>
      <trkpt lat="-21.542197000000005" lon="-48.78046500000001">
        <ele>530.0</ele>
        <time>2019-01-27T07:31:34-02:00</time>
      </trkpt>
      <trkpt lat="-21.542204329999997" lon="-48.78048833">
        <ele>530.0</ele>
        <time>2019-01-27T07:31:35-02:00</time>
      </trkpt>
      <trkpt lat="-21.542210330000003" lon="-48.78051666">
        <ele>530.0</ele>
        <time>2019-01-27T07:31:36-02:00</time>
      </trkpt>
      <trkpt lat="-21.542222000000002" lon="-48.780559999999994">
        <ele>530.0</ele>
        <time>2019-01-27T07:31:37-02:00</time>
      </trkpt>
      <trkpt lat="-21.542227000000004" lon="-48.78058166000001">
        <ele>530.0</ele>
        <time>2019-01-27T07:31:38-02:00</time>
      </trkpt>
      <trkpt lat="-21.542234330000003" lon="-48.780604999999994">
        <ele>530.0</ele>
        <time>2019-01-27T07:31:39-02:00</time>
      </trkpt>
      <trkpt lat="-21.542239000000002" lon="-48.780626659999996">
        <ele>530.0</ele>
        <time>2019-01-27T07:31:40-02:00</time>
      </trkpt>
      <trkpt lat="-21.542244330000003" lon="-48.78064833">
        <ele>530.0</ele>
        <time>2019-01-27T07:31:41-02:00</time>
      </trkpt>
      <trkpt lat="-21.542251" lon="-48.78066833">
        <ele>530.0</ele>
        <time>2019-01-27T07:31:42-02:00</time>
      </trkpt>
      <trkpt lat="-21.542256330000004" lon="-48.78069165999999">
        <ele>530.0</ele>
        <time>2019-01-27T07:31:43-02:00</time>
      </trkpt>
      <trkpt lat="-21.542261330000002" lon="-48.78071333">
        <ele>530.0</ele>
        <time>2019-01-27T07:31:44-02:00</time>
      </trkpt>
      <trkpt lat="-21.54226766" lon="-48.78074">
        <ele>531.0</ele>
        <time>2019-01-27T07:31:45-02:00</time>
      </trkpt>
      <trkpt lat="-21.542272000000004" lon="-48.780759999999994">
        <ele>531.0</ele>
        <time>2019-01-27T07:31:46-02:00</time>
      </trkpt>
      <trkpt lat="-21.54227833" lon="-48.78078832999999">
        <ele>531.0</ele>
        <time>2019-01-27T07:31:47-02:00</time>
      </trkpt>
      <trkpt lat="-21.54228366" lon="-48.78081166">
        <ele>531.0</ele>
        <time>2019-01-27T07:31:48-02:00</time>
      </trkpt>
      <trkpt lat="-21.542288999999997" lon="-48.780834999999996">
        <ele>531.0</ele>
        <time>2019-01-27T07:31:49-02:00</time>
      </trkpt>
      <trkpt lat="-21.54229333" lon="-48.780856660000005">
        <ele>531.0</ele>
        <time>2019-01-27T07:31:50-02:00</time>
      </trkpt>
      <trkpt lat="-21.54229533" lon="-48.780874999999995">
        <ele>531.0</ele>
        <time>2019-01-27T07:31:51-02:00</time>
      </trkpt>
      <trkpt lat="-21.542300660000002" lon="-48.78089833">
        <ele>531.0</ele>
        <time>2019-01-27T07:31:52-02:00</time>
      </trkpt>
      <trkpt lat="-21.542305660000004" lon="-48.780919999999995">
        <ele>532.0</ele>
        <time>2019-01-27T07:31:53-02:00</time>
      </trkpt>
      <trkpt lat="-21.54231066" lon="-48.780941659999996">
        <ele>532.0</ele>
        <time>2019-01-27T07:31:54-02:00</time>
      </trkpt>
      <trkpt lat="-21.542316" lon="-48.780965">
        <ele>532.0</ele>
        <time>2019-01-27T07:31:55-02:00</time>
      </trkpt>
      <trkpt lat="-21.542321330000004" lon="-48.78098833">
        <ele>532.0</ele>
        <time>2019-01-27T07:31:56-02:00</time>
      </trkpt>
      <trkpt lat="-21.542326330000005" lon="-48.781011660000004">
        <ele>532.0</ele>
        <time>2019-01-27T07:31:57-02:00</time>
      </trkpt>
      <trkpt lat="-21.542331660000006" lon="-48.78103499999999">
        <ele>532.0</ele>
        <time>2019-01-27T07:31:58-02:00</time>
      </trkpt>
      <trkpt lat="-21.54233833" lon="-48.781056660000004">
        <ele>532.0</ele>
        <time>2019-01-27T07:31:59-02:00</time>
      </trkpt>
      <trkpt lat="-21.54234333" lon="-48.78108">
        <ele>532.0</ele>
        <time>2019-01-27T07:32:00-02:00</time>
      </trkpt>
      <trkpt lat="-21.542347999999997" lon="-48.781099999999995">
        <ele>532.0</ele>
        <time>2019-01-27T07:32:01-02:00</time>
      </trkpt>
      <trkpt lat="-21.542351000000004" lon="-48.781115000000014">
        <ele>532.0</ele>
        <time>2019-01-27T07:32:02-02:00</time>
      </trkpt>
      <trkpt lat="-21.54235633" lon="-48.781138330000005">
        <ele>532.0</ele>
        <time>2019-01-27T07:32:03-02:00</time>
      </trkpt>
      <trkpt lat="-21.542361330000002" lon="-48.78116">
        <ele>532.0</ele>
        <time>2019-01-27T07:32:04-02:00</time>
      </trkpt>
      <trkpt lat="-21.542365330000003" lon="-48.781178329999996">
        <ele>533.0</ele>
        <time>2019-01-27T07:32:05-02:00</time>
      </trkpt>
      <trkpt lat="-21.54237" lon="-48.7812">
        <ele>533.0</ele>
        <time>2019-01-27T07:32:06-02:00</time>
      </trkpt>
      <trkpt lat="-21.542375330000006" lon="-48.781223329999996">
        <ele>533.0</ele>
        <time>2019-01-27T07:32:07-02:00</time>
      </trkpt>
      <trkpt lat="-21.542380330000007" lon="-48.78124666000001">
        <ele>533.0</ele>
        <time>2019-01-27T07:32:08-02:00</time>
      </trkpt>
      <trkpt lat="-21.54238566" lon="-48.78126833">
        <ele>533.0</ele>
        <time>2019-01-27T07:32:09-02:00</time>
      </trkpt>
      <trkpt lat="-21.54239" lon="-48.781288329999995">
        <ele>533.0</ele>
        <time>2019-01-27T07:32:10-02:00</time>
      </trkpt>
      <trkpt lat="-21.542393" lon="-48.78131166">
        <ele>533.0</ele>
        <time>2019-01-27T07:32:11-02:00</time>
      </trkpt>
      <trkpt lat="-21.54239766" lon="-48.78133">
        <ele>533.0</ele>
        <time>2019-01-27T07:32:12-02:00</time>
      </trkpt>
      <trkpt lat="-21.542403" lon="-48.78135333">
        <ele>533.0</ele>
        <time>2019-01-27T07:32:13-02:00</time>
      </trkpt>
      <trkpt lat="-21.542406999999997" lon="-48.78138">
        <ele>533.0</ele>
        <time>2019-01-27T07:32:14-02:00</time>
      </trkpt>
      <trkpt lat="-21.542411" lon="-48.78139832999999">
        <ele>533.0</ele>
        <time>2019-01-27T07:32:15-02:00</time>
      </trkpt>
      <trkpt lat="-21.542416660000004" lon="-48.781423329999996">
        <ele>533.0</ele>
        <time>2019-01-27T07:32:16-02:00</time>
      </trkpt>
      <trkpt lat="-21.54242" lon="-48.78144666">
        <ele>534.0</ele>
        <time>2019-01-27T07:32:17-02:00</time>
      </trkpt>
      <trkpt lat="-21.542424660000002" lon="-48.781468329999996">
        <ele>534.0</ele>
        <time>2019-01-27T07:32:18-02:00</time>
      </trkpt>
      <trkpt lat="-21.54243" lon="-48.78149166">
        <ele>534.0</ele>
        <time>2019-01-27T07:32:19-02:00</time>
      </trkpt>
      <trkpt lat="-21.54243333" lon="-48.78151833">
        <ele>534.0</ele>
        <time>2019-01-27T07:32:20-02:00</time>
      </trkpt>
      <trkpt lat="-21.54243833" lon="-48.78154166">
        <ele>534.0</ele>
        <time>2019-01-27T07:32:21-02:00</time>
      </trkpt>
      <trkpt lat="-21.542443" lon="-48.781565">
        <ele>534.0</ele>
        <time>2019-01-27T07:32:22-02:00</time>
      </trkpt>
      <trkpt lat="-21.542447330000005" lon="-48.78158499999999">
        <ele>534.0</ele>
        <time>2019-01-27T07:32:23-02:00</time>
      </trkpt>
      <trkpt lat="-21.54245" lon="-48.78160833">
        <ele>534.0</ele>
        <time>2019-01-27T07:32:24-02:00</time>
      </trkpt>
      <trkpt lat="-21.542455330000003" lon="-48.781634999999994">
        <ele>534.0</ele>
        <time>2019-01-27T07:32:25-02:00</time>
      </trkpt>
      <trkpt lat="-21.542457659999997" lon="-48.781656659999996">
        <ele>534.0</ele>
        <time>2019-01-27T07:32:26-02:00</time>
      </trkpt>
      <trkpt lat="-21.542461330000002" lon="-48.78167666">
        <ele>535.0</ele>
        <time>2019-01-27T07:32:27-02:00</time>
      </trkpt>
      <trkpt lat="-21.54246566" lon="-48.78169666">
        <ele>535.0</ele>
        <time>2019-01-27T07:32:28-02:00</time>
      </trkpt>
      <trkpt lat="-21.54246733" lon="-48.78171666">
        <ele>535.0</ele>
        <time>2019-01-27T07:32:29-02:00</time>
      </trkpt>
      <trkpt lat="-21.542472330000003" lon="-48.78174166">
        <ele>535.0</ele>
        <time>2019-01-27T07:32:30-02:00</time>
      </trkpt>
      <trkpt lat="-21.542476660000002" lon="-48.781763330000004">
        <ele>535.0</ele>
        <time>2019-01-27T07:32:31-02:00</time>
      </trkpt>
      <trkpt lat="-21.542481" lon="-48.78178666">
        <ele>535.0</ele>
        <time>2019-01-27T07:32:32-02:00</time>
      </trkpt>
      <trkpt lat="-21.542483" lon="-48.78180833">
        <ele>535.0</ele>
        <time>2019-01-27T07:32:33-02:00</time>
      </trkpt>
      <trkpt lat="-21.542486330000003" lon="-48.781825">
        <ele>535.0</ele>
        <time>2019-01-27T07:32:34-02:00</time>
      </trkpt>
      <trkpt lat="-21.542491660000003" lon="-48.78185333">
        <ele>535.0</ele>
        <time>2019-01-27T07:32:35-02:00</time>
      </trkpt>
      <trkpt lat="-21.542493999999998" lon="-48.78187666">
        <ele>535.0</ele>
        <time>2019-01-27T07:32:36-02:00</time>
      </trkpt>
      <trkpt lat="-21.542498000000002" lon="-48.78190000000001">
        <ele>535.0</ele>
        <time>2019-01-27T07:32:37-02:00</time>
      </trkpt>
      <trkpt lat="-21.54250066" lon="-48.78192333">
        <ele>535.0</ele>
        <time>2019-01-27T07:32:38-02:00</time>
      </trkpt>
      <trkpt lat="-21.542502999999996" lon="-48.78194666">
        <ele>535.0</ele>
        <time>2019-01-27T07:32:39-02:00</time>
      </trkpt>
      <trkpt lat="-21.542506330000005" lon="-48.78196666">
        <ele>535.0</ele>
        <time>2019-01-27T07:32:40-02:00</time>
      </trkpt>
      <trkpt lat="-21.54251" lon="-48.781996660000004">
        <ele>535.0</ele>
        <time>2019-01-27T07:32:41-02:00</time>
      </trkpt>
      <trkpt lat="-21.542512000000002" lon="-48.78202">
        <ele>535.0</ele>
        <time>2019-01-27T07:32:42-02:00</time>
      </trkpt>
      <trkpt lat="-21.542516330000005" lon="-48.78204333">
        <ele>536.0</ele>
        <time>2019-01-27T07:32:43-02:00</time>
      </trkpt>
      <trkpt lat="-21.54251833" lon="-48.782068329999994">
        <ele>536.0</ele>
        <time>2019-01-27T07:32:44-02:00</time>
      </trkpt>
      <trkpt lat="-21.54252266" lon="-48.78209166">
        <ele>536.0</ele>
        <time>2019-01-27T07:32:45-02:00</time>
      </trkpt>
      <trkpt lat="-21.542524660000005" lon="-48.782115000000005">
        <ele>536.0</ele>
        <time>2019-01-27T07:32:46-02:00</time>
      </trkpt>
      <trkpt lat="-21.54252833" lon="-48.782136660000006">
        <ele>536.0</ele>
        <time>2019-01-27T07:32:47-02:00</time>
      </trkpt>
      <trkpt lat="-21.542529999999996" lon="-48.78215999999999">
        <ele>536.0</ele>
        <time>2019-01-27T07:32:48-02:00</time>
      </trkpt>
      <trkpt lat="-21.542533329999998" lon="-48.78217833">
        <ele>536.0</ele>
        <time>2019-01-27T07:32:49-02:00</time>
      </trkpt>
      <trkpt lat="-21.542537000000003" lon="-48.782199999999996">
        <ele>537.0</ele>
        <time>2019-01-27T07:32:50-02:00</time>
      </trkpt>
      <trkpt lat="-21.542538999999998" lon="-48.782221660000005">
        <ele>537.0</ele>
        <time>2019-01-27T07:32:51-02:00</time>
      </trkpt>
      <trkpt lat="-21.542542999999995" lon="-48.782245">
        <ele>537.0</ele>
        <time>2019-01-27T07:32:52-02:00</time>
      </trkpt>
      <trkpt lat="-21.54254666" lon="-48.78226833">
        <ele>537.0</ele>
        <time>2019-01-27T07:32:53-02:00</time>
      </trkpt>
      <trkpt lat="-21.542550999999996" lon="-48.78229166">
        <ele>537.0</ele>
        <time>2019-01-27T07:32:54-02:00</time>
      </trkpt>
      <trkpt lat="-21.54255566" lon="-48.782318329999995">
        <ele>537.0</ele>
        <time>2019-01-27T07:32:55-02:00</time>
      </trkpt>
      <trkpt lat="-21.54255866" lon="-48.78233833">
        <ele>537.0</ele>
        <time>2019-01-27T07:32:56-02:00</time>
      </trkpt>
      <trkpt lat="-21.54256066" lon="-48.78236500000001">
        <ele>537.0</ele>
        <time>2019-01-27T07:32:57-02:00</time>
      </trkpt>
      <trkpt lat="-21.54256466" lon="-48.78238833">
        <ele>538.0</ele>
        <time>2019-01-27T07:32:58-02:00</time>
      </trkpt>
      <trkpt lat="-21.542567329999997" lon="-48.78240333">
        <ele>538.0</ele>
        <time>2019-01-27T07:32:59-02:00</time>
      </trkpt>
      <trkpt lat="-21.542572000000003" lon="-48.78243166">
        <ele>538.0</ele>
        <time>2019-01-27T07:33:00-02:00</time>
      </trkpt>
      <trkpt lat="-21.542575000000003" lon="-48.78245166000001">
        <ele>538.0</ele>
        <time>2019-01-27T07:33:01-02:00</time>
      </trkpt>
      <trkpt lat="-21.542578" lon="-48.78247166">
        <ele>538.0</ele>
        <time>2019-01-27T07:33:02-02:00</time>
      </trkpt>
      <trkpt lat="-21.542582000000003" lon="-48.78249666000001">
        <ele>538.0</ele>
        <time>2019-01-27T07:33:03-02:00</time>
      </trkpt>
      <trkpt lat="-21.542585" lon="-48.782515000000004">
        <ele>538.0</ele>
        <time>2019-01-27T07:33:04-02:00</time>
      </trkpt>
      <trkpt lat="-21.542589" lon="-48.78254166000001">
        <ele>538.0</ele>
        <time>2019-01-27T07:33:05-02:00</time>
      </trkpt>
      <trkpt lat="-21.542590330000003" lon="-48.782563329999995">
        <ele>538.0</ele>
        <time>2019-01-27T07:33:06-02:00</time>
      </trkpt>
      <trkpt lat="-21.542594" lon="-48.78258666">
        <ele>538.0</ele>
        <time>2019-01-27T07:33:07-02:00</time>
      </trkpt>
      <trkpt lat="-21.542596330000006" lon="-48.78260333">
        <ele>538.0</ele>
        <time>2019-01-27T07:33:08-02:00</time>
      </trkpt>
      <trkpt lat="-21.54260066" lon="-48.78263">
        <ele>538.0</ele>
        <time>2019-01-27T07:33:09-02:00</time>
      </trkpt>
      <trkpt lat="-21.54260366" lon="-48.78265166">
        <ele>538.0</ele>
        <time>2019-01-27T07:33:10-02:00</time>
      </trkpt>
      <trkpt lat="-21.54260666" lon="-48.782671660000005">
        <ele>538.0</ele>
        <time>2019-01-27T07:33:11-02:00</time>
      </trkpt>
      <trkpt lat="-21.54260966" lon="-48.78269166">
        <ele>538.0</ele>
        <time>2019-01-27T07:33:12-02:00</time>
      </trkpt>
      <trkpt lat="-21.542613330000002" lon="-48.78271500000001">
        <ele>538.0</ele>
        <time>2019-01-27T07:33:13-02:00</time>
      </trkpt>
      <trkpt lat="-21.542617330000002" lon="-48.78274166">
        <ele>539.0</ele>
        <time>2019-01-27T07:33:14-02:00</time>
      </trkpt>
      <trkpt lat="-21.542620660000004" lon="-48.782761660000006">
        <ele>539.0</ele>
        <time>2019-01-27T07:33:15-02:00</time>
      </trkpt>
      <trkpt lat="-21.542624" lon="-48.782785">
        <ele>539.0</ele>
        <time>2019-01-27T07:33:16-02:00</time>
      </trkpt>
      <trkpt lat="-21.54262733" lon="-48.782804999999996">
        <ele>539.0</ele>
        <time>2019-01-27T07:33:17-02:00</time>
      </trkpt>
      <trkpt lat="-21.54263166" lon="-48.782833329999995">
        <ele>539.0</ele>
        <time>2019-01-27T07:33:18-02:00</time>
      </trkpt>
      <trkpt lat="-21.542635330000003" lon="-48.78285666000001">
        <ele>540.0</ele>
        <time>2019-01-27T07:33:19-02:00</time>
      </trkpt>
      <trkpt lat="-21.54263866" lon="-48.78287999999999">
        <ele>540.0</ele>
        <time>2019-01-27T07:33:20-02:00</time>
      </trkpt>
      <trkpt lat="-21.542642" lon="-48.7829">
        <ele>540.0</ele>
        <time>2019-01-27T07:33:21-02:00</time>
      </trkpt>
      <trkpt lat="-21.54264566" lon="-48.782921660000014">
        <ele>540.0</ele>
        <time>2019-01-27T07:33:22-02:00</time>
      </trkpt>
      <trkpt lat="-21.54264866" lon="-48.78294333">
        <ele>540.0</ele>
        <time>2019-01-27T07:33:23-02:00</time>
      </trkpt>
      <trkpt lat="-21.542654" lon="-48.78296333">
        <ele>540.0</ele>
        <time>2019-01-27T07:33:24-02:00</time>
      </trkpt>
      <trkpt lat="-21.542658659999997" lon="-48.78299166">
        <ele>540.0</ele>
        <time>2019-01-27T07:33:25-02:00</time>
      </trkpt>
      <trkpt lat="-21.54266133" lon="-48.783008329999994">
        <ele>540.0</ele>
        <time>2019-01-27T07:33:26-02:00</time>
      </trkpt>
      <trkpt lat="-21.542665660000004" lon="-48.783035">
        <ele>540.0</ele>
        <time>2019-01-27T07:33:27-02:00</time>
      </trkpt>
      <trkpt lat="-21.54266933" lon="-48.783058329999996">
        <ele>540.0</ele>
        <time>2019-01-27T07:33:28-02:00</time>
      </trkpt>
      <trkpt lat="-21.542673330000003" lon="-48.78308166000001">
        <ele>540.0</ele>
        <time>2019-01-27T07:33:29-02:00</time>
      </trkpt>
      <trkpt lat="-21.542676" lon="-48.783098329999994">
        <ele>540.0</ele>
        <time>2019-01-27T07:33:30-02:00</time>
      </trkpt>
      <trkpt lat="-21.542680330000003" lon="-48.78312333">
        <ele>541.0</ele>
        <time>2019-01-27T07:33:31-02:00</time>
      </trkpt>
      <trkpt lat="-21.54268733" lon="-48.78315332999999">
        <ele>541.0</ele>
        <time>2019-01-27T07:33:32-02:00</time>
      </trkpt>
      <trkpt lat="-21.542690659999998" lon="-48.783175">
        <ele>541.0</ele>
        <time>2019-01-27T07:33:33-02:00</time>
      </trkpt>
      <trkpt lat="-21.542694660000002" lon="-48.78319832999999">
        <ele>541.0</ele>
        <time>2019-01-27T07:33:34-02:00</time>
      </trkpt>
      <trkpt lat="-21.542699000000002" lon="-48.783225">
        <ele>541.0</ele>
        <time>2019-01-27T07:33:35-02:00</time>
      </trkpt>
      <trkpt lat="-21.542701" lon="-48.783251660000005">
        <ele>541.0</ele>
        <time>2019-01-27T07:33:36-02:00</time>
      </trkpt>
      <trkpt lat="-21.54270466" lon="-48.783275">
        <ele>541.0</ele>
        <time>2019-01-27T07:33:37-02:00</time>
      </trkpt>
      <trkpt lat="-21.54271033" lon="-48.783296660000005">
        <ele>541.0</ele>
        <time>2019-01-27T07:33:38-02:00</time>
      </trkpt>
      <trkpt lat="-21.542712999999996" lon="-48.78331333">
        <ele>541.0</ele>
        <time>2019-01-27T07:33:39-02:00</time>
      </trkpt>
      <trkpt lat="-21.542717000000003" lon="-48.78333666">
        <ele>541.0</ele>
        <time>2019-01-27T07:33:40-02:00</time>
      </trkpt>
      <trkpt lat="-21.54272166" lon="-48.78336333">
        <ele>541.0</ele>
        <time>2019-01-27T07:33:41-02:00</time>
      </trkpt>
      <trkpt lat="-21.542727659999997" lon="-48.783388329999994">
        <ele>541.0</ele>
        <time>2019-01-27T07:33:42-02:00</time>
      </trkpt>
      <trkpt lat="-21.54273" lon="-48.783405">
        <ele>541.0</ele>
        <time>2019-01-27T07:33:43-02:00</time>
      </trkpt>
      <trkpt lat="-21.542734659999997" lon="-48.783433329999994">
        <ele>541.0</ele>
        <time>2019-01-27T07:33:44-02:00</time>
      </trkpt>
      <trkpt lat="-21.542738" lon="-48.783455000000004">
        <ele>541.0</ele>
        <time>2019-01-27T07:33:45-02:00</time>
      </trkpt>
      <trkpt lat="-21.542742000000004" lon="-48.783478329999994">
        <ele>541.0</ele>
        <time>2019-01-27T07:33:46-02:00</time>
      </trkpt>
      <trkpt lat="-21.542748" lon="-48.783500000000004">
        <ele>542.0</ele>
        <time>2019-01-27T07:33:47-02:00</time>
      </trkpt>
      <trkpt lat="-21.542751330000005" lon="-48.78352000000001">
        <ele>542.0</ele>
        <time>2019-01-27T07:33:48-02:00</time>
      </trkpt>
      <trkpt lat="-21.54275466" lon="-48.783541660000004">
        <ele>542.0</ele>
        <time>2019-01-27T07:33:49-02:00</time>
      </trkpt>
      <trkpt lat="-21.542758" lon="-48.78356166">
        <ele>542.0</ele>
        <time>2019-01-27T07:33:50-02:00</time>
      </trkpt>
      <trkpt lat="-21.54276066" lon="-48.78357666000001">
        <ele>542.0</ele>
        <time>2019-01-27T07:33:51-02:00</time>
      </trkpt>
      <trkpt lat="-21.542764660000003" lon="-48.78360166">
        <ele>542.0</ele>
        <time>2019-01-27T07:33:52-02:00</time>
      </trkpt>
      <trkpt lat="-21.542771660000003" lon="-48.78362832999999">
        <ele>543.0</ele>
        <time>2019-01-27T07:33:53-02:00</time>
      </trkpt>
      <trkpt lat="-21.54277566" lon="-48.783651660000004">
        <ele>543.0</ele>
        <time>2019-01-27T07:33:54-02:00</time>
      </trkpt>
      <trkpt lat="-21.542779330000002" lon="-48.78367333">
        <ele>543.0</ele>
        <time>2019-01-27T07:33:55-02:00</time>
      </trkpt>
      <trkpt lat="-21.54278233" lon="-48.783691659999995">
        <ele>543.0</ele>
        <time>2019-01-27T07:33:56-02:00</time>
      </trkpt>
      <trkpt lat="-21.54278666" lon="-48.783715">
        <ele>543.0</ele>
        <time>2019-01-27T07:33:57-02:00</time>
      </trkpt>
      <trkpt lat="-21.542791330000007" lon="-48.78374333">
        <ele>543.0</ele>
        <time>2019-01-27T07:33:58-02:00</time>
      </trkpt>
      <trkpt lat="-21.542795" lon="-48.78376333">
        <ele>543.0</ele>
        <time>2019-01-27T07:33:59-02:00</time>
      </trkpt>
      <trkpt lat="-21.542799" lon="-48.78378666">
        <ele>543.0</ele>
        <time>2019-01-27T07:34:00-02:00</time>
      </trkpt>
      <trkpt lat="-21.54280333" lon="-48.783809999999995">
        <ele>543.0</ele>
        <time>2019-01-27T07:34:01-02:00</time>
      </trkpt>
      <trkpt lat="-21.542807000000003" lon="-48.783831660000004">
        <ele>543.0</ele>
        <time>2019-01-27T07:34:02-02:00</time>
      </trkpt>
      <trkpt lat="-21.542811" lon="-48.783854999999996">
        <ele>543.0</ele>
        <time>2019-01-27T07:34:03-02:00</time>
      </trkpt>
      <trkpt lat="-21.542814" lon="-48.78387332999999">
        <ele>543.0</ele>
        <time>2019-01-27T07:34:04-02:00</time>
      </trkpt>
      <trkpt lat="-21.542819" lon="-48.783901660000005">
        <ele>543.0</ele>
        <time>2019-01-27T07:34:05-02:00</time>
      </trkpt>
      <trkpt lat="-21.542822000000008" lon="-48.78392">
        <ele>543.0</ele>
        <time>2019-01-27T07:34:06-02:00</time>
      </trkpt>
      <trkpt lat="-21.542827000000003" lon="-48.78394999999999">
        <ele>543.0</ele>
        <time>2019-01-27T07:34:07-02:00</time>
      </trkpt>
      <trkpt lat="-21.54282866" lon="-48.783973329999995">
        <ele>544.0</ele>
        <time>2019-01-27T07:34:08-02:00</time>
      </trkpt>
      <trkpt lat="-21.542833" lon="-48.783998329999996">
        <ele>544.0</ele>
        <time>2019-01-27T07:34:09-02:00</time>
      </trkpt>
      <trkpt lat="-21.542836660000003" lon="-48.78402">
        <ele>544.0</ele>
        <time>2019-01-27T07:34:10-02:00</time>
      </trkpt>
      <trkpt lat="-21.54283866" lon="-48.78404666">
        <ele>544.0</ele>
        <time>2019-01-27T07:34:11-02:00</time>
      </trkpt>
      <trkpt lat="-21.542841660000004" lon="-48.78406665999999">
        <ele>544.0</ele>
        <time>2019-01-27T07:34:12-02:00</time>
      </trkpt>
      <trkpt lat="-21.542844329999998" lon="-48.784083329999994">
        <ele>544.0</ele>
        <time>2019-01-27T07:34:13-02:00</time>
      </trkpt>
      <trkpt lat="-21.54284766" lon="-48.78410333">
        <ele>544.0</ele>
        <time>2019-01-27T07:34:14-02:00</time>
      </trkpt>
      <trkpt lat="-21.542850330000004" lon="-48.78413166">
        <ele>544.0</ele>
        <time>2019-01-27T07:34:15-02:00</time>
      </trkpt>
      <trkpt lat="-21.542853330000003" lon="-48.78415">
        <ele>544.0</ele>
        <time>2019-01-27T07:34:16-02:00</time>
      </trkpt>
      <trkpt lat="-21.54285666" lon="-48.784169999999996">
        <ele>544.0</ele>
        <time>2019-01-27T07:34:17-02:00</time>
      </trkpt>
      <trkpt lat="-21.542862999999997" lon="-48.784195">
        <ele>544.0</ele>
        <time>2019-01-27T07:34:18-02:00</time>
      </trkpt>
      <trkpt lat="-21.542866660000005" lon="-48.784216660000006">
        <ele>544.0</ele>
        <time>2019-01-27T07:34:19-02:00</time>
      </trkpt>
      <trkpt lat="-21.54287066" lon="-48.78424000000001">
        <ele>545.0</ele>
        <time>2019-01-27T07:34:20-02:00</time>
      </trkpt>
      <trkpt lat="-21.542875" lon="-48.78426499999999">
        <ele>545.0</ele>
        <time>2019-01-27T07:34:21-02:00</time>
      </trkpt>
      <trkpt lat="-21.542878659999996" lon="-48.784288329999995">
        <ele>545.0</ele>
        <time>2019-01-27T07:34:22-02:00</time>
      </trkpt>
      <trkpt lat="-21.542882330000005" lon="-48.784308329999995">
        <ele>545.0</ele>
        <time>2019-01-27T07:34:23-02:00</time>
      </trkpt>
      <trkpt lat="-21.54288766" lon="-48.784326660000005">
        <ele>545.0</ele>
        <time>2019-01-27T07:34:24-02:00</time>
      </trkpt>
      <trkpt lat="-21.54289266" lon="-48.784351660000006">
        <ele>546.0</ele>
        <time>2019-01-27T07:34:25-02:00</time>
      </trkpt>
      <trkpt lat="-21.542895660000006" lon="-48.78436832999999">
        <ele>546.0</ele>
        <time>2019-01-27T07:34:26-02:00</time>
      </trkpt>
      <trkpt lat="-21.542900330000002" lon="-48.78439333">
        <ele>546.0</ele>
        <time>2019-01-27T07:34:27-02:00</time>
      </trkpt>
      <trkpt lat="-21.54290666" lon="-48.784415">
        <ele>546.0</ele>
        <time>2019-01-27T07:34:28-02:00</time>
      </trkpt>
      <trkpt lat="-21.542913" lon="-48.78443832999999">
        <ele>546.0</ele>
        <time>2019-01-27T07:34:29-02:00</time>
      </trkpt>
      <trkpt lat="-21.542917000000003" lon="-48.78445832999999">
        <ele>546.0</ele>
        <time>2019-01-27T07:34:30-02:00</time>
      </trkpt>
      <trkpt lat="-21.54292333" lon="-48.784479999999995">
        <ele>546.0</ele>
        <time>2019-01-27T07:34:31-02:00</time>
      </trkpt>
      <trkpt lat="-21.542930000000002" lon="-48.784501660000004">
        <ele>547.0</ele>
        <time>2019-01-27T07:34:32-02:00</time>
      </trkpt>
      <trkpt lat="-21.542936660000002" lon="-48.784525">
        <ele>547.0</ele>
        <time>2019-01-27T07:34:33-02:00</time>
      </trkpt>
      <trkpt lat="-21.54294066" lon="-48.78454333">
        <ele>547.0</ele>
        <time>2019-01-27T07:34:34-02:00</time>
      </trkpt>
      <trkpt lat="-21.542947999999996" lon="-48.78456832999999">
        <ele>547.0</ele>
        <time>2019-01-27T07:34:35-02:00</time>
      </trkpt>
      <trkpt lat="-21.542955" lon="-48.78459166">
        <ele>547.0</ele>
        <time>2019-01-27T07:34:36-02:00</time>
      </trkpt>
      <trkpt lat="-21.542961330000004" lon="-48.78461166">
        <ele>547.0</ele>
        <time>2019-01-27T07:34:37-02:00</time>
      </trkpt>
      <trkpt lat="-21.542968000000002" lon="-48.78463333">
        <ele>547.0</ele>
        <time>2019-01-27T07:34:38-02:00</time>
      </trkpt>
      <trkpt lat="-21.542974330000007" lon="-48.784651659999994">
        <ele>547.0</ele>
        <time>2019-01-27T07:34:39-02:00</time>
      </trkpt>
      <trkpt lat="-21.54297933" lon="-48.784666660000006">
        <ele>547.0</ele>
        <time>2019-01-27T07:34:40-02:00</time>
      </trkpt>
      <trkpt lat="-21.542987000000004" lon="-48.78469166">
        <ele>547.0</ele>
        <time>2019-01-27T07:34:41-02:00</time>
      </trkpt>
      <trkpt lat="-21.542994" lon="-48.784713329999995">
        <ele>547.0</ele>
        <time>2019-01-27T07:34:42-02:00</time>
      </trkpt>
      <trkpt lat="-21.543000330000005" lon="-48.78473333">
        <ele>547.0</ele>
        <time>2019-01-27T07:34:43-02:00</time>
      </trkpt>
      <trkpt lat="-21.543006330000004" lon="-48.78475">
        <ele>547.0</ele>
        <time>2019-01-27T07:34:44-02:00</time>
      </trkpt>
      <trkpt lat="-21.543015660000002" lon="-48.784771660000004">
        <ele>547.0</ele>
        <time>2019-01-27T07:34:45-02:00</time>
      </trkpt>
      <trkpt lat="-21.54302266" lon="-48.78479333">
        <ele>547.0</ele>
        <time>2019-01-27T07:34:46-02:00</time>
      </trkpt>
      <trkpt lat="-21.54303066" lon="-48.78482">
        <ele>547.0</ele>
        <time>2019-01-27T07:34:47-02:00</time>
      </trkpt>
      <trkpt lat="-21.543037999999996" lon="-48.78484166">
        <ele>547.0</ele>
        <time>2019-01-27T07:34:48-02:00</time>
      </trkpt>
      <trkpt lat="-21.543045" lon="-48.784861660000004">
        <ele>547.0</ele>
        <time>2019-01-27T07:34:49-02:00</time>
      </trkpt>
      <trkpt lat="-21.543054330000004" lon="-48.78488332999999">
        <ele>547.0</ele>
        <time>2019-01-27T07:34:50-02:00</time>
      </trkpt>
      <trkpt lat="-21.54306166" lon="-48.784904999999995">
        <ele>547.0</ele>
        <time>2019-01-27T07:34:51-02:00</time>
      </trkpt>
      <trkpt lat="-21.54306766" lon="-48.78492166000001">
        <ele>547.0</ele>
        <time>2019-01-27T07:34:52-02:00</time>
      </trkpt>
      <trkpt lat="-21.543076660000004" lon="-48.78494833">
        <ele>548.0</ele>
        <time>2019-01-27T07:34:53-02:00</time>
      </trkpt>
      <trkpt lat="-21.543085" lon="-48.784971660000004">
        <ele>548.0</ele>
        <time>2019-01-27T07:34:54-02:00</time>
      </trkpt>
      <trkpt lat="-21.543092659999996" lon="-48.78499333">
        <ele>548.0</ele>
        <time>2019-01-27T07:34:55-02:00</time>
      </trkpt>
      <trkpt lat="-21.54309966" lon="-48.785013330000005">
        <ele>548.0</ele>
        <time>2019-01-27T07:34:56-02:00</time>
      </trkpt>
      <trkpt lat="-21.543105330000003" lon="-48.785035">
        <ele>548.0</ele>
        <time>2019-01-27T07:34:57-02:00</time>
      </trkpt>
      <trkpt lat="-21.543111330000002" lon="-48.78505">
        <ele>548.0</ele>
        <time>2019-01-27T07:34:58-02:00</time>
      </trkpt>
      <trkpt lat="-21.543118330000002" lon="-48.78507499999999">
        <ele>549.0</ele>
        <time>2019-01-27T07:34:59-02:00</time>
      </trkpt>
      <trkpt lat="-21.54312266" lon="-48.78509166">
        <ele>549.0</ele>
        <time>2019-01-27T07:35:00-02:00</time>
      </trkpt>
      <trkpt lat="-21.543130660000003" lon="-48.785120000000006">
        <ele>549.0</ele>
        <time>2019-01-27T07:35:01-02:00</time>
      </trkpt>
      <trkpt lat="-21.543137660000003" lon="-48.78513833">
        <ele>549.0</ele>
        <time>2019-01-27T07:35:02-02:00</time>
      </trkpt>
      <trkpt lat="-21.543144330000004" lon="-48.78516165999999">
        <ele>549.0</ele>
        <time>2019-01-27T07:35:03-02:00</time>
      </trkpt>
      <trkpt lat="-21.543151660000003" lon="-48.78518833">
        <ele>549.0</ele>
        <time>2019-01-27T07:35:04-02:00</time>
      </trkpt>
      <trkpt lat="-21.543155660000004" lon="-48.78521166">
        <ele>549.0</ele>
        <time>2019-01-27T07:35:05-02:00</time>
      </trkpt>
      <trkpt lat="-21.543161660000003" lon="-48.78523333">
        <ele>549.0</ele>
        <time>2019-01-27T07:35:06-02:00</time>
      </trkpt>
      <trkpt lat="-21.543166660000004" lon="-48.78525166000001">
        <ele>549.0</ele>
        <time>2019-01-27T07:35:07-02:00</time>
      </trkpt>
      <trkpt lat="-21.54317266" lon="-48.78527333">
        <ele>549.0</ele>
        <time>2019-01-27T07:35:08-02:00</time>
      </trkpt>
      <trkpt lat="-21.543176330000005" lon="-48.785295">
        <ele>549.0</ele>
        <time>2019-01-27T07:35:09-02:00</time>
      </trkpt>
      <trkpt lat="-21.54318333" lon="-48.78532">
        <ele>549.0</ele>
        <time>2019-01-27T07:35:10-02:00</time>
      </trkpt>
      <trkpt lat="-21.543187330000002" lon="-48.78534165999999">
        <ele>549.0</ele>
        <time>2019-01-27T07:35:11-02:00</time>
      </trkpt>
      <trkpt lat="-21.54319066" lon="-48.785354999999996">
        <ele>549.0</ele>
        <time>2019-01-27T07:35:12-02:00</time>
      </trkpt>
      <trkpt lat="-21.543195" lon="-48.785376660000004">
        <ele>550.0</ele>
        <time>2019-01-27T07:35:13-02:00</time>
      </trkpt>
      <trkpt lat="-21.543202" lon="-48.785401660000005">
        <ele>550.0</ele>
        <time>2019-01-27T07:35:14-02:00</time>
      </trkpt>
      <trkpt lat="-21.543205330000006" lon="-48.78542332999999">
        <ele>550.0</ele>
        <time>2019-01-27T07:35:15-02:00</time>
      </trkpt>
      <trkpt lat="-21.54321" lon="-48.78544666">
        <ele>550.0</ele>
        <time>2019-01-27T07:35:16-02:00</time>
      </trkpt>
      <trkpt lat="-21.543216" lon="-48.785470000000004">
        <ele>550.0</ele>
        <time>2019-01-27T07:35:17-02:00</time>
      </trkpt>
      <trkpt lat="-21.54322" lon="-48.785493329999994">
        <ele>550.0</ele>
        <time>2019-01-27T07:35:18-02:00</time>
      </trkpt>
      <trkpt lat="-21.543224000000002" lon="-48.78551666">
        <ele>550.0</ele>
        <time>2019-01-27T07:35:19-02:00</time>
      </trkpt>
      <trkpt lat="-21.54323" lon="-48.785540000000005">
        <ele>550.0</ele>
        <time>2019-01-27T07:35:20-02:00</time>
      </trkpt>
      <trkpt lat="-21.543233659999995" lon="-48.78556166">
        <ele>550.0</ele>
        <time>2019-01-27T07:35:21-02:00</time>
      </trkpt>
      <trkpt lat="-21.54323766" lon="-48.78558666">
        <ele>550.0</ele>
        <time>2019-01-27T07:35:22-02:00</time>
      </trkpt>
      <trkpt lat="-21.543241330000008" lon="-48.78561">
        <ele>550.0</ele>
        <time>2019-01-27T07:35:23-02:00</time>
      </trkpt>
      <trkpt lat="-21.543247" lon="-48.78563333">
        <ele>550.0</ele>
        <time>2019-01-27T07:35:24-02:00</time>
      </trkpt>
      <trkpt lat="-21.543251330000007" lon="-48.78565999999999">
        <ele>550.0</ele>
        <time>2019-01-27T07:35:25-02:00</time>
      </trkpt>
      <trkpt lat="-21.543253999999997" lon="-48.78568">
        <ele>551.0</ele>
        <time>2019-01-27T07:35:26-02:00</time>
      </trkpt>
      <trkpt lat="-21.543257000000004" lon="-48.78570166000001">
        <ele>551.0</ele>
        <time>2019-01-27T07:35:27-02:00</time>
      </trkpt>
      <trkpt lat="-21.543259659999997" lon="-48.78572166">
        <ele>551.0</ele>
        <time>2019-01-27T07:35:28-02:00</time>
      </trkpt>
      <trkpt lat="-21.54326366" lon="-48.785736660000005">
        <ele>551.0</ele>
        <time>2019-01-27T07:35:29-02:00</time>
      </trkpt>
      <trkpt lat="-21.543267659999998" lon="-48.785763329999995">
        <ele>551.0</ele>
        <time>2019-01-27T07:35:30-02:00</time>
      </trkpt>
      <trkpt lat="-21.543270999999997" lon="-48.78578666">
        <ele>551.0</ele>
        <time>2019-01-27T07:35:31-02:00</time>
      </trkpt>
      <trkpt lat="-21.54327666" lon="-48.785810000000005">
        <ele>552.0</ele>
        <time>2019-01-27T07:35:32-02:00</time>
      </trkpt>
      <trkpt lat="-21.543281999999998" lon="-48.785833329999996">
        <ele>552.0</ele>
        <time>2019-01-27T07:35:33-02:00</time>
      </trkpt>
      <trkpt lat="-21.543285" lon="-48.78585499999999">
        <ele>552.0</ele>
        <time>2019-01-27T07:35:34-02:00</time>
      </trkpt>
      <trkpt lat="-21.54328966" lon="-48.785875">
        <ele>552.0</ele>
        <time>2019-01-27T07:35:35-02:00</time>
      </trkpt>
      <trkpt lat="-21.543296330000004" lon="-48.78590332999999">
        <ele>552.0</ele>
        <time>2019-01-27T07:35:36-02:00</time>
      </trkpt>
      <trkpt lat="-21.543301000000003" lon="-48.785925000000006">
        <ele>552.0</ele>
        <time>2019-01-27T07:35:37-02:00</time>
      </trkpt>
      <trkpt lat="-21.543306" lon="-48.785945000000005">
        <ele>552.0</ele>
        <time>2019-01-27T07:35:38-02:00</time>
      </trkpt>
      <trkpt lat="-21.543310659999996" lon="-48.785965000000004">
        <ele>552.0</ele>
        <time>2019-01-27T07:35:39-02:00</time>
      </trkpt>
      <trkpt lat="-21.543315659999998" lon="-48.78598666">
        <ele>552.0</ele>
        <time>2019-01-27T07:35:40-02:00</time>
      </trkpt>
      <trkpt lat="-21.543319330000003" lon="-48.78600166">
        <ele>552.0</ele>
        <time>2019-01-27T07:35:41-02:00</time>
      </trkpt>
      <trkpt lat="-21.54332566" lon="-48.786028329999986">
        <ele>552.0</ele>
        <time>2019-01-27T07:35:42-02:00</time>
      </trkpt>
      <trkpt lat="-21.543332999999997" lon="-48.78605">
        <ele>552.0</ele>
        <time>2019-01-27T07:35:43-02:00</time>
      </trkpt>
      <trkpt lat="-21.543337999999995" lon="-48.78607166">
        <ele>552.0</ele>
        <time>2019-01-27T07:35:44-02:00</time>
      </trkpt>
      <trkpt lat="-21.54334233" lon="-48.78609">
        <ele>552.0</ele>
        <time>2019-01-27T07:35:45-02:00</time>
      </trkpt>
      <trkpt lat="-21.543350330000003" lon="-48.78611333">
        <ele>552.0</ele>
        <time>2019-01-27T07:35:46-02:00</time>
      </trkpt>
      <trkpt lat="-21.543355330000004" lon="-48.786134999999994">
        <ele>552.0</ele>
        <time>2019-01-27T07:35:47-02:00</time>
      </trkpt>
      <trkpt lat="-21.54336166" lon="-48.78615166000001">
        <ele>552.0</ele>
        <time>2019-01-27T07:35:48-02:00</time>
      </trkpt>
      <trkpt lat="-21.543367330000002" lon="-48.786175">
        <ele>552.0</ele>
        <time>2019-01-27T07:35:49-02:00</time>
      </trkpt>
      <trkpt lat="-21.543375330000003" lon="-48.786199999999994">
        <ele>552.0</ele>
        <time>2019-01-27T07:35:50-02:00</time>
      </trkpt>
      <trkpt lat="-21.54338433" lon="-48.78622832999999">
        <ele>552.0</ele>
        <time>2019-01-27T07:35:51-02:00</time>
      </trkpt>
      <trkpt lat="-21.543397999999996" lon="-48.786276660000006">
        <ele>552.0</ele>
        <time>2019-01-27T07:35:52-02:00</time>
      </trkpt>
      <trkpt lat="-21.54340366" lon="-48.78629833">
        <ele>552.0</ele>
        <time>2019-01-27T07:35:53-02:00</time>
      </trkpt>
      <trkpt lat="-21.543411330000005" lon="-48.786319999999996">
        <ele>552.0</ele>
        <time>2019-01-27T07:35:54-02:00</time>
      </trkpt>
      <trkpt lat="-21.54341833" lon="-48.78634">
        <ele>552.0</ele>
        <time>2019-01-27T07:35:55-02:00</time>
      </trkpt>
      <trkpt lat="-21.543425660000004" lon="-48.78636">
        <ele>552.0</ele>
        <time>2019-01-27T07:35:56-02:00</time>
      </trkpt>
      <trkpt lat="-21.543432999999997" lon="-48.78638833">
        <ele>552.0</ele>
        <time>2019-01-27T07:35:57-02:00</time>
      </trkpt>
      <trkpt lat="-21.543440330000003" lon="-48.78640832999999">
        <ele>552.0</ele>
        <time>2019-01-27T07:35:58-02:00</time>
      </trkpt>
      <trkpt lat="-21.54344833" lon="-48.78643166">
        <ele>552.0</ele>
        <time>2019-01-27T07:35:59-02:00</time>
      </trkpt>
      <trkpt lat="-21.543453330000002" lon="-48.78645166">
        <ele>552.0</ele>
        <time>2019-01-27T07:36:00-02:00</time>
      </trkpt>
      <trkpt lat="-21.543462659999996" lon="-48.78647833">
        <ele>553.0</ele>
        <time>2019-01-27T07:36:01-02:00</time>
      </trkpt>
      <trkpt lat="-21.543471" lon="-48.786501660000006">
        <ele>553.0</ele>
        <time>2019-01-27T07:36:02-02:00</time>
      </trkpt>
      <trkpt lat="-21.543478659999998" lon="-48.78652333">
        <ele>553.0</ele>
        <time>2019-01-27T07:36:03-02:00</time>
      </trkpt>
      <trkpt lat="-21.543485" lon="-48.78654">
        <ele>553.0</ele>
        <time>2019-01-27T07:36:04-02:00</time>
      </trkpt>
      <trkpt lat="-21.54349233" lon="-48.78656666">
        <ele>553.0</ele>
        <time>2019-01-27T07:36:05-02:00</time>
      </trkpt>
      <trkpt lat="-21.543499660000002" lon="-48.78658666">
        <ele>554.0</ele>
        <time>2019-01-27T07:36:06-02:00</time>
      </trkpt>
      <trkpt lat="-21.543506" lon="-48.786601659999995">
        <ele>554.0</ele>
        <time>2019-01-27T07:36:07-02:00</time>
      </trkpt>
      <trkpt lat="-21.54351166" lon="-48.78662166">
        <ele>554.0</ele>
        <time>2019-01-27T07:36:08-02:00</time>
      </trkpt>
      <trkpt lat="-21.543519999999997" lon="-48.78664333">
        <ele>554.0</ele>
        <time>2019-01-27T07:36:09-02:00</time>
      </trkpt>
      <trkpt lat="-21.543529330000002" lon="-48.786668330000005">
        <ele>554.0</ele>
        <time>2019-01-27T07:36:10-02:00</time>
      </trkpt>
      <trkpt lat="-21.543537999999998" lon="-48.78669">
        <ele>554.0</ele>
        <time>2019-01-27T07:36:11-02:00</time>
      </trkpt>
      <trkpt lat="-21.54354466" lon="-48.786713330000005">
        <ele>554.0</ele>
        <time>2019-01-27T07:36:12-02:00</time>
      </trkpt>
      <trkpt lat="-21.543552329999997" lon="-48.78673166">
        <ele>554.0</ele>
        <time>2019-01-27T07:36:13-02:00</time>
      </trkpt>
      <trkpt lat="-21.543559" lon="-48.786753329999996">
        <ele>554.0</ele>
        <time>2019-01-27T07:36:14-02:00</time>
      </trkpt>
      <trkpt lat="-21.543567000000003" lon="-48.78678">
        <ele>555.0</ele>
        <time>2019-01-27T07:36:15-02:00</time>
      </trkpt>
      <trkpt lat="-21.543575660000002" lon="-48.78680166">
        <ele>555.0</ele>
        <time>2019-01-27T07:36:16-02:00</time>
      </trkpt>
      <trkpt lat="-21.543580659999996" lon="-48.786818329999996">
        <ele>555.0</ele>
        <time>2019-01-27T07:36:17-02:00</time>
      </trkpt>
      <trkpt lat="-21.543591330000005" lon="-48.78684500000001">
        <ele>555.0</ele>
        <time>2019-01-27T07:36:18-02:00</time>
      </trkpt>
      <trkpt lat="-21.543598659999997" lon="-48.78687">
        <ele>555.0</ele>
        <time>2019-01-27T07:36:19-02:00</time>
      </trkpt>
      <trkpt lat="-21.543606660000002" lon="-48.78688833">
        <ele>555.0</ele>
        <time>2019-01-27T07:36:20-02:00</time>
      </trkpt>
      <trkpt lat="-21.543615" lon="-48.786915">
        <ele>555.0</ele>
        <time>2019-01-27T07:36:21-02:00</time>
      </trkpt>
      <trkpt lat="-21.543621" lon="-48.78693333">
        <ele>555.0</ele>
        <time>2019-01-27T07:36:22-02:00</time>
      </trkpt>
      <trkpt lat="-21.543628" lon="-48.786955">
        <ele>555.0</ele>
        <time>2019-01-27T07:36:23-02:00</time>
      </trkpt>
      <trkpt lat="-21.543638330000004" lon="-48.78698166">
        <ele>555.0</ele>
        <time>2019-01-27T07:36:24-02:00</time>
      </trkpt>
      <trkpt lat="-21.54364433" lon="-48.787">
        <ele>555.0</ele>
        <time>2019-01-27T07:36:25-02:00</time>
      </trkpt>
      <trkpt lat="-21.543651660000005" lon="-48.78702333">
        <ele>555.0</ele>
        <time>2019-01-27T07:36:26-02:00</time>
      </trkpt>
      <trkpt lat="-21.543659659999996" lon="-48.78704833">
        <ele>555.0</ele>
        <time>2019-01-27T07:36:27-02:00</time>
      </trkpt>
      <trkpt lat="-21.543667" lon="-48.78707166">
        <ele>555.0</ele>
        <time>2019-01-27T07:36:28-02:00</time>
      </trkpt>
      <trkpt lat="-21.543676660000006" lon="-48.787095">
        <ele>555.0</ele>
        <time>2019-01-27T07:36:29-02:00</time>
      </trkpt>
      <trkpt lat="-21.543685" lon="-48.78712333">
        <ele>554.0</ele>
        <time>2019-01-27T07:36:30-02:00</time>
      </trkpt>
      <trkpt lat="-21.543693330000004" lon="-48.787150000000004">
        <ele>554.0</ele>
        <time>2019-01-27T07:36:31-02:00</time>
      </trkpt>
      <trkpt lat="-21.543699" lon="-48.78716833">
        <ele>554.0</ele>
        <time>2019-01-27T07:36:32-02:00</time>
      </trkpt>
      <trkpt lat="-21.54370566" lon="-48.787189999999995">
        <ele>554.0</ele>
        <time>2019-01-27T07:36:33-02:00</time>
      </trkpt>
      <trkpt lat="-21.54371166" lon="-48.78721666">
        <ele>554.0</ele>
        <time>2019-01-27T07:36:34-02:00</time>
      </trkpt>
      <trkpt lat="-21.543720330000006" lon="-48.787245">
        <ele>554.0</ele>
        <time>2019-01-27T07:36:35-02:00</time>
      </trkpt>
      <trkpt lat="-21.543727999999994" lon="-48.78727000000001">
        <ele>554.0</ele>
        <time>2019-01-27T07:36:36-02:00</time>
      </trkpt>
      <trkpt lat="-21.543733330000002" lon="-48.78729499999999">
        <ele>554.0</ele>
        <time>2019-01-27T07:36:37-02:00</time>
      </trkpt>
      <trkpt lat="-21.54373866" lon="-48.787313329999996">
        <ele>554.0</ele>
        <time>2019-01-27T07:36:38-02:00</time>
      </trkpt>
      <trkpt lat="-21.543746330000005" lon="-48.78733833">
        <ele>554.0</ele>
        <time>2019-01-27T07:36:39-02:00</time>
      </trkpt>
      <trkpt lat="-21.54375066" lon="-48.78736">
        <ele>554.0</ele>
        <time>2019-01-27T07:36:40-02:00</time>
      </trkpt>
      <trkpt lat="-21.54375733" lon="-48.787389999999995">
        <ele>555.0</ele>
        <time>2019-01-27T07:36:41-02:00</time>
      </trkpt>
      <trkpt lat="-21.54376166" lon="-48.78741333">
        <ele>555.0</ele>
        <time>2019-01-27T07:36:42-02:00</time>
      </trkpt>
      <trkpt lat="-21.543769000000005" lon="-48.78743833">
        <ele>555.0</ele>
        <time>2019-01-27T07:36:43-02:00</time>
      </trkpt>
      <trkpt lat="-21.543773330000004" lon="-48.787459999999996">
        <ele>555.0</ele>
        <time>2019-01-27T07:36:44-02:00</time>
      </trkpt>
      <trkpt lat="-21.543777999999996" lon="-48.787485">
        <ele>555.0</ele>
        <time>2019-01-27T07:36:45-02:00</time>
      </trkpt>
      <trkpt lat="-21.543780660000003" lon="-48.78750332999999">
        <ele>555.0</ele>
        <time>2019-01-27T07:36:46-02:00</time>
      </trkpt>
      <trkpt lat="-21.543784659999996" lon="-48.787525">
        <ele>555.0</ele>
        <time>2019-01-27T07:36:47-02:00</time>
      </trkpt>
      <trkpt lat="-21.54378966" lon="-48.787549999999996">
        <ele>555.0</ele>
        <time>2019-01-27T07:36:48-02:00</time>
      </trkpt>
      <trkpt lat="-21.54379366" lon="-48.78757333">
        <ele>555.0</ele>
        <time>2019-01-27T07:36:49-02:00</time>
      </trkpt>
      <trkpt lat="-21.543798" lon="-48.787598329999994">
        <ele>555.0</ele>
        <time>2019-01-27T07:36:50-02:00</time>
      </trkpt>
      <trkpt lat="-21.543802000000007" lon="-48.787620000000004">
        <ele>555.0</ele>
        <time>2019-01-27T07:36:51-02:00</time>
      </trkpt>
      <trkpt lat="-21.543805660000004" lon="-48.78764166">
        <ele>555.0</ele>
        <time>2019-01-27T07:36:52-02:00</time>
      </trkpt>
      <trkpt lat="-21.54380933" lon="-48.78766333">
        <ele>555.0</ele>
        <time>2019-01-27T07:36:53-02:00</time>
      </trkpt>
      <trkpt lat="-21.543813330000003" lon="-48.78768666">
        <ele>555.0</ele>
        <time>2019-01-27T07:36:54-02:00</time>
      </trkpt>
      <trkpt lat="-21.543817000000004" lon="-48.78770833">
        <ele>555.0</ele>
        <time>2019-01-27T07:36:55-02:00</time>
      </trkpt>
      <trkpt lat="-21.54382066" lon="-48.787729999999996">
        <ele>555.0</ele>
        <time>2019-01-27T07:36:56-02:00</time>
      </trkpt>
      <trkpt lat="-21.543826660000004" lon="-48.78775333">
        <ele>555.0</ele>
        <time>2019-01-27T07:36:57-02:00</time>
      </trkpt>
      <trkpt lat="-21.543830659999998" lon="-48.78777666">
        <ele>555.0</ele>
        <time>2019-01-27T07:36:58-02:00</time>
      </trkpt>
      <trkpt lat="-21.543833999999997" lon="-48.78779833">
        <ele>555.0</ele>
        <time>2019-01-27T07:36:59-02:00</time>
      </trkpt>
      <trkpt lat="-21.54383933" lon="-48.78781832999999">
        <ele>555.0</ele>
        <time>2019-01-27T07:37:00-02:00</time>
      </trkpt>
      <trkpt lat="-21.543841330000003" lon="-48.787834999999994">
        <ele>555.0</ele>
        <time>2019-01-27T07:37:01-02:00</time>
      </trkpt>
      <trkpt lat="-21.543847" lon="-48.78785666">
        <ele>555.0</ele>
        <time>2019-01-27T07:37:02-02:00</time>
      </trkpt>
      <trkpt lat="-21.54385233" lon="-48.78787666">
        <ele>555.0</ele>
        <time>2019-01-27T07:37:03-02:00</time>
      </trkpt>
      <trkpt lat="-21.543856330000004" lon="-48.7879">
        <ele>555.0</ele>
        <time>2019-01-27T07:37:04-02:00</time>
      </trkpt>
      <trkpt lat="-21.54386166" lon="-48.78792166000001">
        <ele>555.0</ele>
        <time>2019-01-27T07:37:05-02:00</time>
      </trkpt>
      <trkpt lat="-21.543865330000003" lon="-48.787945">
        <ele>555.0</ele>
        <time>2019-01-27T07:37:06-02:00</time>
      </trkpt>
      <trkpt lat="-21.543870000000002" lon="-48.787963330000004">
        <ele>556.0</ele>
        <time>2019-01-27T07:37:07-02:00</time>
      </trkpt>
      <trkpt lat="-21.54387433" lon="-48.78799166">
        <ele>556.0</ele>
        <time>2019-01-27T07:37:08-02:00</time>
      </trkpt>
      <trkpt lat="-21.543879330000003" lon="-48.78801333">
        <ele>556.0</ele>
        <time>2019-01-27T07:37:09-02:00</time>
      </trkpt>
      <trkpt lat="-21.543882000000004" lon="-48.788035">
        <ele>556.0</ele>
        <time>2019-01-27T07:37:10-02:00</time>
      </trkpt>
      <trkpt lat="-21.543884659999996" lon="-48.78805833">
        <ele>556.0</ele>
        <time>2019-01-27T07:37:11-02:00</time>
      </trkpt>
      <trkpt lat="-21.543889" lon="-48.78807833">
        <ele>556.0</ele>
        <time>2019-01-27T07:37:12-02:00</time>
      </trkpt>
      <trkpt lat="-21.543892659999997" lon="-48.788104999999995">
        <ele>556.0</ele>
        <time>2019-01-27T07:37:13-02:00</time>
      </trkpt>
      <trkpt lat="-21.54389733" lon="-48.78812666">
        <ele>556.0</ele>
        <time>2019-01-27T07:37:14-02:00</time>
      </trkpt>
      <trkpt lat="-21.54389966" lon="-48.78814833">
        <ele>556.0</ele>
        <time>2019-01-27T07:37:15-02:00</time>
      </trkpt>
      <trkpt lat="-21.54390533" lon="-48.78817333">
        <ele>556.0</ele>
        <time>2019-01-27T07:37:16-02:00</time>
      </trkpt>
      <trkpt lat="-21.54390966" lon="-48.788194999999995">
        <ele>556.0</ele>
        <time>2019-01-27T07:37:17-02:00</time>
      </trkpt>
      <trkpt lat="-21.54391133" lon="-48.78821333">
        <ele>556.0</ele>
        <time>2019-01-27T07:37:18-02:00</time>
      </trkpt>
      <trkpt lat="-21.543917" lon="-48.788241660000004">
        <ele>556.0</ele>
        <time>2019-01-27T07:37:19-02:00</time>
      </trkpt>
      <trkpt lat="-21.543921660000002" lon="-48.788265">
        <ele>556.0</ele>
        <time>2019-01-27T07:37:20-02:00</time>
      </trkpt>
      <trkpt lat="-21.54392433" lon="-48.78828832999999">
        <ele>556.0</ele>
        <time>2019-01-27T07:37:21-02:00</time>
      </trkpt>
      <trkpt lat="-21.54392933" lon="-48.78831333">
        <ele>556.0</ele>
        <time>2019-01-27T07:37:22-02:00</time>
      </trkpt>
      <trkpt lat="-21.543934330000003" lon="-48.788336660000006">
        <ele>556.0</ele>
        <time>2019-01-27T07:37:23-02:00</time>
      </trkpt>
      <trkpt lat="-21.543936000000002" lon="-48.78835666000001">
        <ele>556.0</ele>
        <time>2019-01-27T07:37:24-02:00</time>
      </trkpt>
      <trkpt lat="-21.54394233" lon="-48.78838833">
        <ele>556.0</ele>
        <time>2019-01-27T07:37:25-02:00</time>
      </trkpt>
      <trkpt lat="-21.543947000000003" lon="-48.78841332999999">
        <ele>556.0</ele>
        <time>2019-01-27T07:37:26-02:00</time>
      </trkpt>
      <trkpt lat="-21.54395033" lon="-48.788441660000004">
        <ele>556.0</ele>
        <time>2019-01-27T07:37:27-02:00</time>
      </trkpt>
      <trkpt lat="-21.543952999999995" lon="-48.78847">
        <ele>556.0</ele>
        <time>2019-01-27T07:37:28-02:00</time>
      </trkpt>
      <trkpt lat="-21.543954330000002" lon="-48.78849">
        <ele>556.0</ele>
        <time>2019-01-27T07:37:29-02:00</time>
      </trkpt>
      <trkpt lat="-21.543959660000002" lon="-48.788520000000005">
        <ele>556.0</ele>
        <time>2019-01-27T07:37:30-02:00</time>
      </trkpt>
      <trkpt lat="-21.543961330000002" lon="-48.78854">
        <ele>556.0</ele>
        <time>2019-01-27T07:37:31-02:00</time>
      </trkpt>
      <trkpt lat="-21.543962999999994" lon="-48.78856333">
        <ele>556.0</ele>
        <time>2019-01-27T07:37:32-02:00</time>
      </trkpt>
      <trkpt lat="-21.543965660000005" lon="-48.788590000000006">
        <ele>556.0</ele>
        <time>2019-01-27T07:37:33-02:00</time>
      </trkpt>
      <trkpt lat="-21.543971000000003" lon="-48.78862">
        <ele>556.0</ele>
        <time>2019-01-27T07:37:34-02:00</time>
      </trkpt>
      <trkpt lat="-21.54397366" lon="-48.788648329999994">
        <ele>556.0</ele>
        <time>2019-01-27T07:37:35-02:00</time>
      </trkpt>
      <trkpt lat="-21.543976000000004" lon="-48.788675">
        <ele>556.0</ele>
        <time>2019-01-27T07:37:36-02:00</time>
      </trkpt>
      <trkpt lat="-21.543980330000004" lon="-48.7887">
        <ele>556.0</ele>
        <time>2019-01-27T07:37:37-02:00</time>
      </trkpt>
      <trkpt lat="-21.543982999999997" lon="-48.78872832999999">
        <ele>556.0</ele>
        <time>2019-01-27T07:37:38-02:00</time>
      </trkpt>
      <trkpt lat="-21.543985000000003" lon="-48.78875332999999">
        <ele>556.0</ele>
        <time>2019-01-27T07:37:39-02:00</time>
      </trkpt>
      <trkpt lat="-21.543989659999998" lon="-48.788781660000005">
        <ele>556.0</ele>
        <time>2019-01-27T07:37:40-02:00</time>
      </trkpt>
      <trkpt lat="-21.54399166" lon="-48.78880666">
        <ele>556.0</ele>
        <time>2019-01-27T07:37:41-02:00</time>
      </trkpt>
      <trkpt lat="-21.543993999999998" lon="-48.788835">
        <ele>556.0</ele>
        <time>2019-01-27T07:37:42-02:00</time>
      </trkpt>
      <trkpt lat="-21.543998000000002" lon="-48.78885833">
        <ele>555.0</ele>
        <time>2019-01-27T07:37:43-02:00</time>
      </trkpt>
      <trkpt lat="-21.54399966" lon="-48.78888333">
        <ele>555.0</ele>
        <time>2019-01-27T07:37:44-02:00</time>
      </trkpt>
      <trkpt lat="-21.544003330000002" lon="-48.78890499999999">
        <ele>555.0</ele>
        <time>2019-01-27T07:37:45-02:00</time>
      </trkpt>
      <trkpt lat="-21.544005" lon="-48.78893">
        <ele>555.0</ele>
        <time>2019-01-27T07:37:46-02:00</time>
      </trkpt>
      <trkpt lat="-21.54400866" lon="-48.78895332999999">
        <ele>555.0</ele>
        <time>2019-01-27T07:37:47-02:00</time>
      </trkpt>
      <trkpt lat="-21.54401266" lon="-48.788976659999996">
        <ele>555.0</ele>
        <time>2019-01-27T07:37:48-02:00</time>
      </trkpt>
      <trkpt lat="-21.544016000000003" lon="-48.789">
        <ele>555.0</ele>
        <time>2019-01-27T07:37:49-02:00</time>
      </trkpt>
      <trkpt lat="-21.54402" lon="-48.78902333">
        <ele>555.0</ele>
        <time>2019-01-27T07:37:50-02:00</time>
      </trkpt>
      <trkpt lat="-21.54402366" lon="-48.78904833">
        <ele>555.0</ele>
        <time>2019-01-27T07:37:51-02:00</time>
      </trkpt>
      <trkpt lat="-21.544027" lon="-48.78907">
        <ele>555.0</ele>
        <time>2019-01-27T07:37:52-02:00</time>
      </trkpt>
      <trkpt lat="-21.544033329999998" lon="-48.789096660000006">
        <ele>555.0</ele>
        <time>2019-01-27T07:37:53-02:00</time>
      </trkpt>
      <trkpt lat="-21.544037000000003" lon="-48.78912166">
        <ele>555.0</ele>
        <time>2019-01-27T07:37:54-02:00</time>
      </trkpt>
      <trkpt lat="-21.54404033" lon="-48.789143329999995">
        <ele>555.0</ele>
        <time>2019-01-27T07:37:55-02:00</time>
      </trkpt>
      <trkpt lat="-21.544044330000002" lon="-48.78917">
        <ele>555.0</ele>
        <time>2019-01-27T07:37:56-02:00</time>
      </trkpt>
      <trkpt lat="-21.544047999999997" lon="-48.78919333">
        <ele>555.0</ele>
        <time>2019-01-27T07:37:57-02:00</time>
      </trkpt>
      <trkpt lat="-21.544053999999996" lon="-48.78921833">
        <ele>555.0</ele>
        <time>2019-01-27T07:37:58-02:00</time>
      </trkpt>
      <trkpt lat="-21.54405533" lon="-48.78924333">
        <ele>555.0</ele>
        <time>2019-01-27T07:37:59-02:00</time>
      </trkpt>
      <trkpt lat="-21.54405866" lon="-48.78926666">
        <ele>555.0</ele>
        <time>2019-01-27T07:38:00-02:00</time>
      </trkpt>
      <trkpt lat="-21.544062000000004" lon="-48.789285">
        <ele>555.0</ele>
        <time>2019-01-27T07:38:01-02:00</time>
      </trkpt>
      <trkpt lat="-21.544066330000003" lon="-48.789315">
        <ele>555.0</ele>
        <time>2019-01-27T07:38:02-02:00</time>
      </trkpt>
      <trkpt lat="-21.54407" lon="-48.78934">
        <ele>555.0</ele>
        <time>2019-01-27T07:38:03-02:00</time>
      </trkpt>
      <trkpt lat="-21.544071000000002" lon="-48.78936500000001">
        <ele>555.0</ele>
        <time>2019-01-27T07:38:04-02:00</time>
      </trkpt>
      <trkpt lat="-21.54407466" lon="-48.78938833">
        <ele>555.0</ele>
        <time>2019-01-27T07:38:05-02:00</time>
      </trkpt>
      <trkpt lat="-21.54407766" lon="-48.78941166">
        <ele>555.0</ele>
        <time>2019-01-27T07:38:06-02:00</time>
      </trkpt>
      <trkpt lat="-21.544080330000007" lon="-48.789431660000005">
        <ele>555.0</ele>
        <time>2019-01-27T07:38:07-02:00</time>
      </trkpt>
      <trkpt lat="-21.544081" lon="-48.78945333">
        <ele>555.0</ele>
        <time>2019-01-27T07:38:08-02:00</time>
      </trkpt>
      <trkpt lat="-21.544085000000003" lon="-48.789483329999996">
        <ele>555.0</ele>
        <time>2019-01-27T07:38:09-02:00</time>
      </trkpt>
      <trkpt lat="-21.544088330000005" lon="-48.789508330000004">
        <ele>555.0</ele>
        <time>2019-01-27T07:38:10-02:00</time>
      </trkpt>
      <trkpt lat="-21.544092" lon="-48.789534999999994">
        <ele>555.0</ele>
        <time>2019-01-27T07:38:11-02:00</time>
      </trkpt>
      <trkpt lat="-21.544092" lon="-48.789555">
        <ele>555.0</ele>
        <time>2019-01-27T07:38:12-02:00</time>
      </trkpt>
      <trkpt lat="-21.544095000000002" lon="-48.78958000000001">
        <ele>555.0</ele>
        <time>2019-01-27T07:38:13-02:00</time>
      </trkpt>
      <trkpt lat="-21.544098999999996" lon="-48.78961">
        <ele>555.0</ele>
        <time>2019-01-27T07:38:14-02:00</time>
      </trkpt>
      <trkpt lat="-21.54409933" lon="-48.789635">
        <ele>555.0</ele>
        <time>2019-01-27T07:38:15-02:00</time>
      </trkpt>
      <trkpt lat="-21.54410233" lon="-48.78966166">
        <ele>555.0</ele>
        <time>2019-01-27T07:38:16-02:00</time>
      </trkpt>
      <trkpt lat="-21.54410266" lon="-48.789685">
        <ele>555.0</ele>
        <time>2019-01-27T07:38:17-02:00</time>
      </trkpt>
      <trkpt lat="-21.544103330000002" lon="-48.78971">
        <ele>555.0</ele>
        <time>2019-01-27T07:38:18-02:00</time>
      </trkpt>
      <trkpt lat="-21.54410366" lon="-48.78973">
        <ele>555.0</ele>
        <time>2019-01-27T07:38:19-02:00</time>
      </trkpt>
      <trkpt lat="-21.544104660000002" lon="-48.789759999999994">
        <ele>555.0</ele>
        <time>2019-01-27T07:38:20-02:00</time>
      </trkpt>
      <trkpt lat="-21.544105" lon="-48.789784999999995">
        <ele>555.0</ele>
        <time>2019-01-27T07:38:21-02:00</time>
      </trkpt>
      <trkpt lat="-21.54410533" lon="-48.78981">
        <ele>555.0</ele>
        <time>2019-01-27T07:38:22-02:00</time>
      </trkpt>
      <trkpt lat="-21.54410833" lon="-48.789835000000004">
        <ele>555.0</ele>
        <time>2019-01-27T07:38:23-02:00</time>
      </trkpt>
      <trkpt lat="-21.54410866" lon="-48.78986">
        <ele>555.0</ele>
        <time>2019-01-27T07:38:24-02:00</time>
      </trkpt>
      <trkpt lat="-21.54410866" lon="-48.789883329999995">
        <ele>555.0</ele>
        <time>2019-01-27T07:38:25-02:00</time>
      </trkpt>
      <trkpt lat="-21.544109" lon="-48.78990832999999">
        <ele>555.0</ele>
        <time>2019-01-27T07:38:26-02:00</time>
      </trkpt>
      <trkpt lat="-21.54410866" lon="-48.78993166">
        <ele>555.0</ele>
        <time>2019-01-27T07:38:27-02:00</time>
      </trkpt>
      <trkpt lat="-21.544109" lon="-48.78995666000001">
        <ele>555.0</ele>
        <time>2019-01-27T07:38:28-02:00</time>
      </trkpt>
      <trkpt lat="-21.54410866" lon="-48.78998">
        <ele>555.0</ele>
        <time>2019-01-27T07:38:29-02:00</time>
      </trkpt>
      <trkpt lat="-21.54410833" lon="-48.79">
        <ele>555.0</ele>
        <time>2019-01-27T07:38:30-02:00</time>
      </trkpt>
      <trkpt lat="-21.544111000000004" lon="-48.79002833">
        <ele>555.0</ele>
        <time>2019-01-27T07:38:31-02:00</time>
      </trkpt>
      <trkpt lat="-21.544111000000004" lon="-48.79005332999999">
        <ele>555.0</ele>
        <time>2019-01-27T07:38:32-02:00</time>
      </trkpt>
      <trkpt lat="-21.544111000000004" lon="-48.79007832999999">
        <ele>555.0</ele>
        <time>2019-01-27T07:38:33-02:00</time>
      </trkpt>
      <trkpt lat="-21.544110659999994" lon="-48.79010333">
        <ele>555.0</ele>
        <time>2019-01-27T07:38:34-02:00</time>
      </trkpt>
      <trkpt lat="-21.544113" lon="-48.79012832999999">
        <ele>555.0</ele>
        <time>2019-01-27T07:38:35-02:00</time>
      </trkpt>
      <trkpt lat="-21.544112660000003" lon="-48.790153329999995">
        <ele>555.0</ele>
        <time>2019-01-27T07:38:36-02:00</time>
      </trkpt>
      <trkpt lat="-21.544114999999998" lon="-48.79017666000001">
        <ele>555.0</ele>
        <time>2019-01-27T07:38:37-02:00</time>
      </trkpt>
      <trkpt lat="-21.54411733" lon="-48.79020333">
        <ele>555.0</ele>
        <time>2019-01-27T07:38:38-02:00</time>
      </trkpt>
      <trkpt lat="-21.544117" lon="-48.790229999999994">
        <ele>555.0</ele>
        <time>2019-01-27T07:38:39-02:00</time>
      </trkpt>
      <trkpt lat="-21.544119000000002" lon="-48.790254999999995">
        <ele>555.0</ele>
        <time>2019-01-27T07:38:40-02:00</time>
      </trkpt>
      <trkpt lat="-21.544120659999997" lon="-48.79028">
        <ele>555.0</ele>
        <time>2019-01-27T07:38:41-02:00</time>
      </trkpt>
      <trkpt lat="-21.544122660000003" lon="-48.790305000000004">
        <ele>555.0</ele>
        <time>2019-01-27T07:38:42-02:00</time>
      </trkpt>
      <trkpt lat="-21.544124330000006" lon="-48.790330000000004">
        <ele>555.0</ele>
        <time>2019-01-27T07:38:43-02:00</time>
      </trkpt>
      <trkpt lat="-21.544126330000008" lon="-48.79035666000001">
        <ele>555.0</ele>
        <time>2019-01-27T07:38:44-02:00</time>
      </trkpt>
      <trkpt lat="-21.54412833" lon="-48.79038333">
        <ele>554.0</ele>
        <time>2019-01-27T07:38:45-02:00</time>
      </trkpt>
      <trkpt lat="-21.544129999999996" lon="-48.79040832999999">
        <ele>554.0</ele>
        <time>2019-01-27T07:38:46-02:00</time>
      </trkpt>
      <trkpt lat="-21.544131999999998" lon="-48.79043333">
        <ele>554.0</ele>
        <time>2019-01-27T07:38:47-02:00</time>
      </trkpt>
      <trkpt lat="-21.544133659999996" lon="-48.790456660000004">
        <ele>554.0</ele>
        <time>2019-01-27T07:38:48-02:00</time>
      </trkpt>
      <trkpt lat="-21.54413533" lon="-48.790483329999994">
        <ele>554.0</ele>
        <time>2019-01-27T07:38:49-02:00</time>
      </trkpt>
      <trkpt lat="-21.544139" lon="-48.79050332999999">
        <ele>554.0</ele>
        <time>2019-01-27T07:38:50-02:00</time>
      </trkpt>
      <trkpt lat="-21.544141" lon="-48.790530000000004">
        <ele>554.0</ele>
        <time>2019-01-27T07:38:51-02:00</time>
      </trkpt>
      <trkpt lat="-21.544143" lon="-48.79055999999999">
        <ele>554.0</ele>
        <time>2019-01-27T07:38:52-02:00</time>
      </trkpt>
      <trkpt lat="-21.544144659999997" lon="-48.790586659999995">
        <ele>554.0</ele>
        <time>2019-01-27T07:38:53-02:00</time>
      </trkpt>
      <trkpt lat="-21.544146660000003" lon="-48.79061166">
        <ele>554.0</ele>
        <time>2019-01-27T07:38:54-02:00</time>
      </trkpt>
      <trkpt lat="-21.544148330000002" lon="-48.790634999999995">
        <ele>554.0</ele>
        <time>2019-01-27T07:38:55-02:00</time>
      </trkpt>
      <trkpt lat="-21.544152000000004" lon="-48.790655">
        <ele>554.0</ele>
        <time>2019-01-27T07:38:56-02:00</time>
      </trkpt>
      <trkpt lat="-21.54415433" lon="-48.79068332999999">
        <ele>554.0</ele>
        <time>2019-01-27T07:38:57-02:00</time>
      </trkpt>
      <trkpt lat="-21.544155330000002" lon="-48.79070166">
        <ele>554.0</ele>
        <time>2019-01-27T07:38:58-02:00</time>
      </trkpt>
      <trkpt lat="-21.54415966" lon="-48.790729999999996">
        <ele>554.0</ele>
        <time>2019-01-27T07:38:59-02:00</time>
      </trkpt>
      <trkpt lat="-21.54416133" lon="-48.790755000000004">
        <ele>554.0</ele>
        <time>2019-01-27T07:39:00-02:00</time>
      </trkpt>
      <trkpt lat="-21.54416366" lon="-48.79078499999999">
        <ele>554.0</ele>
        <time>2019-01-27T07:39:01-02:00</time>
      </trkpt>
      <trkpt lat="-21.54416733" lon="-48.790805">
        <ele>554.0</ele>
        <time>2019-01-27T07:39:02-02:00</time>
      </trkpt>
      <trkpt lat="-21.544169659999998" lon="-48.79083333">
        <ele>554.0</ele>
        <time>2019-01-27T07:39:03-02:00</time>
      </trkpt>
      <trkpt lat="-21.544171330000005" lon="-48.79085832999999">
        <ele>554.0</ele>
        <time>2019-01-27T07:39:04-02:00</time>
      </trkpt>
      <trkpt lat="-21.544173" lon="-48.790884999999996">
        <ele>554.0</ele>
        <time>2019-01-27T07:39:05-02:00</time>
      </trkpt>
      <trkpt lat="-21.54417466" lon="-48.79091">
        <ele>554.0</ele>
        <time>2019-01-27T07:39:06-02:00</time>
      </trkpt>
      <trkpt lat="-21.54417666" lon="-48.790935000000005">
        <ele>554.0</ele>
        <time>2019-01-27T07:39:07-02:00</time>
      </trkpt>
      <trkpt lat="-21.544178330000005" lon="-48.79095666">
        <ele>554.0</ele>
        <time>2019-01-27T07:39:08-02:00</time>
      </trkpt>
      <trkpt lat="-21.544180330000003" lon="-48.79098666">
        <ele>554.0</ele>
        <time>2019-01-27T07:39:09-02:00</time>
      </trkpt>
      <trkpt lat="-21.54417966" lon="-48.791013330000006">
        <ele>554.0</ele>
        <time>2019-01-27T07:39:10-02:00</time>
      </trkpt>
      <trkpt lat="-21.544181660000003" lon="-48.79103832999999">
        <ele>554.0</ele>
        <time>2019-01-27T07:39:11-02:00</time>
      </trkpt>
      <trkpt lat="-21.544183330000003" lon="-48.79106333">
        <ele>554.0</ele>
        <time>2019-01-27T07:39:12-02:00</time>
      </trkpt>
      <trkpt lat="-21.544185000000002" lon="-48.79108332999999">
        <ele>554.0</ele>
        <time>2019-01-27T07:39:13-02:00</time>
      </trkpt>
      <trkpt lat="-21.54418733" lon="-48.791113329999995">
        <ele>554.0</ele>
        <time>2019-01-27T07:39:14-02:00</time>
      </trkpt>
      <trkpt lat="-21.544189330000002" lon="-48.79114">
        <ele>554.0</ele>
        <time>2019-01-27T07:39:15-02:00</time>
      </trkpt>
      <trkpt lat="-21.544191330000004" lon="-48.79116666">
        <ele>554.0</ele>
        <time>2019-01-27T07:39:16-02:00</time>
      </trkpt>
      <trkpt lat="-21.544193659999998" lon="-48.79119333">
        <ele>554.0</ele>
        <time>2019-01-27T07:39:17-02:00</time>
      </trkpt>
      <trkpt lat="-21.54419566" lon="-48.791221660000005">
        <ele>554.0</ele>
        <time>2019-01-27T07:39:18-02:00</time>
      </trkpt>
      <trkpt lat="-21.544197999999998" lon="-48.791250000000005">
        <ele>554.0</ele>
        <time>2019-01-27T07:39:19-02:00</time>
      </trkpt>
      <trkpt lat="-21.544200330000002" lon="-48.791275000000006">
        <ele>554.0</ele>
        <time>2019-01-27T07:39:20-02:00</time>
      </trkpt>
      <trkpt lat="-21.544202660000003" lon="-48.79130332999999">
        <ele>554.0</ele>
        <time>2019-01-27T07:39:21-02:00</time>
      </trkpt>
      <trkpt lat="-21.54420466" lon="-48.79133">
        <ele>554.0</ele>
        <time>2019-01-27T07:39:22-02:00</time>
      </trkpt>
      <trkpt lat="-21.544207" lon="-48.791356660000005">
        <ele>554.0</ele>
        <time>2019-01-27T07:39:23-02:00</time>
      </trkpt>
      <trkpt lat="-21.54420966" lon="-48.79138499999999">
        <ele>554.0</ele>
        <time>2019-01-27T07:39:24-02:00</time>
      </trkpt>
      <trkpt lat="-21.544211660000002" lon="-48.791408329999996">
        <ele>554.0</ele>
        <time>2019-01-27T07:39:25-02:00</time>
      </trkpt>
      <trkpt lat="-21.54421666" lon="-48.791435">
        <ele>554.0</ele>
        <time>2019-01-27T07:39:26-02:00</time>
      </trkpt>
      <trkpt lat="-21.544219000000005" lon="-48.791459999999994">
        <ele>554.0</ele>
        <time>2019-01-27T07:39:27-02:00</time>
      </trkpt>
      <trkpt lat="-21.544223659999997" lon="-48.79148666">
        <ele>554.0</ele>
        <time>2019-01-27T07:39:28-02:00</time>
      </trkpt>
      <trkpt lat="-21.544226000000002" lon="-48.791511660000005">
        <ele>554.0</ele>
        <time>2019-01-27T07:39:29-02:00</time>
      </trkpt>
      <trkpt lat="-21.54423166" lon="-48.79154166">
        <ele>554.0</ele>
        <time>2019-01-27T07:39:30-02:00</time>
      </trkpt>
      <trkpt lat="-21.544234" lon="-48.79156832999999">
        <ele>554.0</ele>
        <time>2019-01-27T07:39:31-02:00</time>
      </trkpt>
      <trkpt lat="-21.544238999999997" lon="-48.791591659999995">
        <ele>554.0</ele>
        <time>2019-01-27T07:39:32-02:00</time>
      </trkpt>
      <trkpt lat="-21.544244" lon="-48.79161666">
        <ele>554.0</ele>
        <time>2019-01-27T07:39:33-02:00</time>
      </trkpt>
      <trkpt lat="-21.54424666" lon="-48.791639999999994">
        <ele>554.0</ele>
        <time>2019-01-27T07:39:34-02:00</time>
      </trkpt>
      <trkpt lat="-21.544251" lon="-48.79165832999999">
        <ele>554.0</ele>
        <time>2019-01-27T07:39:35-02:00</time>
      </trkpt>
      <trkpt lat="-21.544257" lon="-48.79168833">
        <ele>554.0</ele>
        <time>2019-01-27T07:39:36-02:00</time>
      </trkpt>
      <trkpt lat="-21.544262000000003" lon="-48.791715">
        <ele>554.0</ele>
        <time>2019-01-27T07:39:37-02:00</time>
      </trkpt>
      <trkpt lat="-21.54426466" lon="-48.791736660000005">
        <ele>554.0</ele>
        <time>2019-01-27T07:39:38-02:00</time>
      </trkpt>
      <trkpt lat="-21.544270660000002" lon="-48.79176666">
        <ele>554.0</ele>
        <time>2019-01-27T07:39:39-02:00</time>
      </trkpt>
      <trkpt lat="-21.544276330000002" lon="-48.79179166">
        <ele>554.0</ele>
        <time>2019-01-27T07:39:40-02:00</time>
      </trkpt>
      <trkpt lat="-21.544281660000003" lon="-48.79181500000001">
        <ele>554.0</ele>
        <time>2019-01-27T07:39:41-02:00</time>
      </trkpt>
      <trkpt lat="-21.544287329999996" lon="-48.79184166">
        <ele>554.0</ele>
        <time>2019-01-27T07:39:42-02:00</time>
      </trkpt>
      <trkpt lat="-21.544293" lon="-48.79186833">
        <ele>554.0</ele>
        <time>2019-01-27T07:39:43-02:00</time>
      </trkpt>
      <trkpt lat="-21.544296330000005" lon="-48.79189333000001">
        <ele>554.0</ele>
        <time>2019-01-27T07:39:44-02:00</time>
      </trkpt>
      <trkpt lat="-21.544301660000006" lon="-48.791915">
        <ele>554.0</ele>
        <time>2019-01-27T07:39:45-02:00</time>
      </trkpt>
      <trkpt lat="-21.544307330000002" lon="-48.79194165999999">
        <ele>554.0</ele>
        <time>2019-01-27T07:39:46-02:00</time>
      </trkpt>
      <trkpt lat="-21.54431333" lon="-48.791965">
        <ele>554.0</ele>
        <time>2019-01-27T07:39:47-02:00</time>
      </trkpt>
      <trkpt lat="-21.54431866" lon="-48.79198833">
        <ele>554.0</ele>
        <time>2019-01-27T07:39:48-02:00</time>
      </trkpt>
      <trkpt lat="-21.54432466" lon="-48.79201166000001">
        <ele>554.0</ele>
        <time>2019-01-27T07:39:49-02:00</time>
      </trkpt>
      <trkpt lat="-21.54433033" lon="-48.792035">
        <ele>554.0</ele>
        <time>2019-01-27T07:39:50-02:00</time>
      </trkpt>
      <trkpt lat="-21.544337659999997" lon="-48.792051660000006">
        <ele>554.0</ele>
        <time>2019-01-27T07:39:51-02:00</time>
      </trkpt>
      <trkpt lat="-21.544344329999998" lon="-48.792080000000006">
        <ele>554.0</ele>
        <time>2019-01-27T07:39:52-02:00</time>
      </trkpt>
      <trkpt lat="-21.544347000000002" lon="-48.7921">
        <ele>554.0</ele>
        <time>2019-01-27T07:39:53-02:00</time>
      </trkpt>
      <trkpt lat="-21.54435433" lon="-48.79213">
        <ele>554.0</ele>
        <time>2019-01-27T07:39:54-02:00</time>
      </trkpt>
      <trkpt lat="-21.54436066" lon="-48.792155">
        <ele>554.0</ele>
        <time>2019-01-27T07:39:55-02:00</time>
      </trkpt>
      <trkpt lat="-21.54436733" lon="-48.792179999999995">
        <ele>554.0</ele>
        <time>2019-01-27T07:39:56-02:00</time>
      </trkpt>
      <trkpt lat="-21.544373" lon="-48.792199999999994">
        <ele>554.0</ele>
        <time>2019-01-27T07:39:57-02:00</time>
      </trkpt>
      <trkpt lat="-21.54437833" lon="-48.792231660000006">
        <ele>554.0</ele>
        <time>2019-01-27T07:39:58-02:00</time>
      </trkpt>
      <trkpt lat="-21.544385659999996" lon="-48.792258329999996">
        <ele>554.0</ele>
        <time>2019-01-27T07:39:59-02:00</time>
      </trkpt>
      <trkpt lat="-21.544393" lon="-48.79228499999999">
        <ele>554.0</ele>
        <time>2019-01-27T07:40:00-02:00</time>
      </trkpt>
      <trkpt lat="-21.544397659999998" lon="-48.792311659999996">
        <ele>553.0</ele>
        <time>2019-01-27T07:40:01-02:00</time>
      </trkpt>
      <trkpt lat="-21.54440466" lon="-48.792336660000004">
        <ele>553.0</ele>
        <time>2019-01-27T07:40:02-02:00</time>
      </trkpt>
      <trkpt lat="-21.54440933" lon="-48.79236333">
        <ele>553.0</ele>
        <time>2019-01-27T07:40:03-02:00</time>
      </trkpt>
      <trkpt lat="-21.544416330000004" lon="-48.79238833000001">
        <ele>553.0</ele>
        <time>2019-01-27T07:40:04-02:00</time>
      </trkpt>
      <trkpt lat="-21.544421330000006" lon="-48.792415">
        <ele>553.0</ele>
        <time>2019-01-27T07:40:05-02:00</time>
      </trkpt>
      <trkpt lat="-21.544428999999997" lon="-48.792441659999994">
        <ele>553.0</ele>
        <time>2019-01-27T07:40:06-02:00</time>
      </trkpt>
      <trkpt lat="-21.544440330000008" lon="-48.79249000000001">
        <ele>553.0</ele>
        <time>2019-01-27T07:40:07-02:00</time>
      </trkpt>
      <trkpt lat="-21.54444466" lon="-48.792513330000006">
        <ele>553.0</ele>
        <time>2019-01-27T07:40:08-02:00</time>
      </trkpt>
      <trkpt lat="-21.54445" lon="-48.792539999999995">
        <ele>553.0</ele>
        <time>2019-01-27T07:40:09-02:00</time>
      </trkpt>
      <trkpt lat="-21.544454660000003" lon="-48.79256332999999">
        <ele>553.0</ele>
        <time>2019-01-27T07:40:10-02:00</time>
      </trkpt>
      <trkpt lat="-21.54445966" lon="-48.79258833">
        <ele>553.0</ele>
        <time>2019-01-27T07:40:11-02:00</time>
      </trkpt>
      <trkpt lat="-21.544464660000003" lon="-48.79261333000001">
        <ele>553.0</ele>
        <time>2019-01-27T07:40:12-02:00</time>
      </trkpt>
      <trkpt lat="-21.544469659999997" lon="-48.79263833">
        <ele>553.0</ele>
        <time>2019-01-27T07:40:13-02:00</time>
      </trkpt>
      <trkpt lat="-21.544474330000003" lon="-48.79266165999999">
        <ele>553.0</ele>
        <time>2019-01-27T07:40:14-02:00</time>
      </trkpt>
      <trkpt lat="-21.544481" lon="-48.79268332999999">
        <ele>553.0</ele>
        <time>2019-01-27T07:40:15-02:00</time>
      </trkpt>
      <trkpt lat="-21.544486999999997" lon="-48.79271500000001">
        <ele>552.0</ele>
        <time>2019-01-27T07:40:16-02:00</time>
      </trkpt>
      <trkpt lat="-21.544492330000004" lon="-48.792741660000004">
        <ele>552.0</ele>
        <time>2019-01-27T07:40:17-02:00</time>
      </trkpt>
      <trkpt lat="-21.544494" lon="-48.79276166000001">
        <ele>552.0</ele>
        <time>2019-01-27T07:40:18-02:00</time>
      </trkpt>
      <trkpt lat="-21.544498330000003" lon="-48.792784999999995">
        <ele>552.0</ele>
        <time>2019-01-27T07:40:19-02:00</time>
      </trkpt>
      <trkpt lat="-21.544503329999998" lon="-48.792809999999996">
        <ele>552.0</ele>
        <time>2019-01-27T07:40:20-02:00</time>
      </trkpt>
      <trkpt lat="-21.54450933" lon="-48.792840000000005">
        <ele>552.0</ele>
        <time>2019-01-27T07:40:21-02:00</time>
      </trkpt>
      <trkpt lat="-21.54451366" lon="-48.79286166">
        <ele>552.0</ele>
        <time>2019-01-27T07:40:22-02:00</time>
      </trkpt>
      <trkpt lat="-21.54451833" lon="-48.79288666000001">
        <ele>552.0</ele>
        <time>2019-01-27T07:40:23-02:00</time>
      </trkpt>
      <trkpt lat="-21.544520660000003" lon="-48.79290999999999">
        <ele>552.0</ele>
        <time>2019-01-27T07:40:24-02:00</time>
      </trkpt>
      <trkpt lat="-21.544525660000005" lon="-48.792935">
        <ele>552.0</ele>
        <time>2019-01-27T07:40:25-02:00</time>
      </trkpt>
      <trkpt lat="-21.544530330000004" lon="-48.79296000000001">
        <ele>552.0</ele>
        <time>2019-01-27T07:40:26-02:00</time>
      </trkpt>
      <trkpt lat="-21.544535000000003" lon="-48.79298333">
        <ele>552.0</ele>
        <time>2019-01-27T07:40:27-02:00</time>
      </trkpt>
      <trkpt lat="-21.544538330000005" lon="-48.79300166">
        <ele>552.0</ele>
        <time>2019-01-27T07:40:28-02:00</time>
      </trkpt>
      <trkpt lat="-21.544541660000004" lon="-48.79303">
        <ele>552.0</ele>
        <time>2019-01-27T07:40:29-02:00</time>
      </trkpt>
      <trkpt lat="-21.54454566" lon="-48.79305000000001">
        <ele>552.0</ele>
        <time>2019-01-27T07:40:30-02:00</time>
      </trkpt>
      <trkpt lat="-21.544551330000004" lon="-48.79307833">
        <ele>552.0</ele>
        <time>2019-01-27T07:40:31-02:00</time>
      </trkpt>
      <trkpt lat="-21.54455566" lon="-48.793099999999995">
        <ele>552.0</ele>
        <time>2019-01-27T07:40:32-02:00</time>
      </trkpt>
      <trkpt lat="-21.544559330000002" lon="-48.79312">
        <ele>552.0</ele>
        <time>2019-01-27T07:40:33-02:00</time>
      </trkpt>
      <trkpt lat="-21.544562329999998" lon="-48.793146660000005">
        <ele>552.0</ele>
        <time>2019-01-27T07:40:34-02:00</time>
      </trkpt>
      <trkpt lat="-21.54456766" lon="-48.79317333">
        <ele>552.0</ele>
        <time>2019-01-27T07:40:35-02:00</time>
      </trkpt>
      <trkpt lat="-21.54457233" lon="-48.793198329999996">
        <ele>552.0</ele>
        <time>2019-01-27T07:40:36-02:00</time>
      </trkpt>
      <trkpt lat="-21.54457566" lon="-48.79321666">
        <ele>552.0</ele>
        <time>2019-01-27T07:40:37-02:00</time>
      </trkpt>
      <trkpt lat="-21.544580330000002" lon="-48.793240000000004">
        <ele>552.0</ele>
        <time>2019-01-27T07:40:38-02:00</time>
      </trkpt>
      <trkpt lat="-21.544584999999998" lon="-48.793265000000005">
        <ele>552.0</ele>
        <time>2019-01-27T07:40:39-02:00</time>
      </trkpt>
      <trkpt lat="-21.544590660000004" lon="-48.79329333">
        <ele>552.0</ele>
        <time>2019-01-27T07:40:40-02:00</time>
      </trkpt>
      <trkpt lat="-21.544593" lon="-48.79331832999999">
        <ele>552.0</ele>
        <time>2019-01-27T07:40:41-02:00</time>
      </trkpt>
      <trkpt lat="-21.54459766" lon="-48.79334333">
        <ele>552.0</ele>
        <time>2019-01-27T07:40:42-02:00</time>
      </trkpt>
      <trkpt lat="-21.544602659999995" lon="-48.79336832999999">
        <ele>552.0</ele>
        <time>2019-01-27T07:40:43-02:00</time>
      </trkpt>
      <trkpt lat="-21.544607000000003" lon="-48.79339166">
        <ele>552.0</ele>
        <time>2019-01-27T07:40:44-02:00</time>
      </trkpt>
      <trkpt lat="-21.544611" lon="-48.793411660000004">
        <ele>552.0</ele>
        <time>2019-01-27T07:40:45-02:00</time>
      </trkpt>
      <trkpt lat="-21.544616" lon="-48.79343833">
        <ele>552.0</ele>
        <time>2019-01-27T07:40:46-02:00</time>
      </trkpt>
      <trkpt lat="-21.544621" lon="-48.793465000000005">
        <ele>552.0</ele>
        <time>2019-01-27T07:40:47-02:00</time>
      </trkpt>
      <trkpt lat="-21.54462566" lon="-48.793490000000006">
        <ele>552.0</ele>
        <time>2019-01-27T07:40:48-02:00</time>
      </trkpt>
      <trkpt lat="-21.544629999999998" lon="-48.79351333000001">
        <ele>552.0</ele>
        <time>2019-01-27T07:40:49-02:00</time>
      </trkpt>
      <trkpt lat="-21.544635000000003" lon="-48.79353832999999">
        <ele>552.0</ele>
        <time>2019-01-27T07:40:50-02:00</time>
      </trkpt>
      <trkpt lat="-21.544638999999997" lon="-48.793561659999995">
        <ele>552.0</ele>
        <time>2019-01-27T07:40:51-02:00</time>
      </trkpt>
      <trkpt lat="-21.54464366" lon="-48.793585">
        <ele>552.0</ele>
        <time>2019-01-27T07:40:52-02:00</time>
      </trkpt>
      <trkpt lat="-21.544647660000003" lon="-48.79360666000001">
        <ele>552.0</ele>
        <time>2019-01-27T07:40:53-02:00</time>
      </trkpt>
      <trkpt lat="-21.54465333" lon="-48.79362332999999">
        <ele>552.0</ele>
        <time>2019-01-27T07:40:54-02:00</time>
      </trkpt>
      <trkpt lat="-21.54465733" lon="-48.79364666">
        <ele>552.0</ele>
        <time>2019-01-27T07:40:55-02:00</time>
      </trkpt>
      <trkpt lat="-21.544662999999996" lon="-48.793675">
        <ele>552.0</ele>
        <time>2019-01-27T07:40:56-02:00</time>
      </trkpt>
      <trkpt lat="-21.544667330000003" lon="-48.79369833">
        <ele>552.0</ele>
        <time>2019-01-27T07:40:57-02:00</time>
      </trkpt>
      <trkpt lat="-21.54467166" lon="-48.79372166">
        <ele>552.0</ele>
        <time>2019-01-27T07:40:58-02:00</time>
      </trkpt>
      <trkpt lat="-21.544674999999998" lon="-48.79374000000001">
        <ele>552.0</ele>
        <time>2019-01-27T07:40:59-02:00</time>
      </trkpt>
      <trkpt lat="-21.54468" lon="-48.793765">
        <ele>552.0</ele>
        <time>2019-01-27T07:41:00-02:00</time>
      </trkpt>
      <trkpt lat="-21.54468533" lon="-48.793795">
        <ele>552.0</ele>
        <time>2019-01-27T07:41:01-02:00</time>
      </trkpt>
      <trkpt lat="-21.54469033" lon="-48.79382">
        <ele>552.0</ele>
        <time>2019-01-27T07:41:02-02:00</time>
      </trkpt>
      <trkpt lat="-21.544694" lon="-48.79384166">
        <ele>552.0</ele>
        <time>2019-01-27T07:41:03-02:00</time>
      </trkpt>
      <trkpt lat="-21.544701" lon="-48.793865000000004">
        <ele>552.0</ele>
        <time>2019-01-27T07:41:04-02:00</time>
      </trkpt>
      <trkpt lat="-21.544705659999998" lon="-48.79389">
        <ele>553.0</ele>
        <time>2019-01-27T07:41:05-02:00</time>
      </trkpt>
      <trkpt lat="-21.544708999999997" lon="-48.793906660000005">
        <ele>553.0</ele>
        <time>2019-01-27T07:41:06-02:00</time>
      </trkpt>
      <trkpt lat="-21.544714" lon="-48.79393166">
        <ele>553.0</ele>
        <time>2019-01-27T07:41:07-02:00</time>
      </trkpt>
      <trkpt lat="-21.54471933" lon="-48.79396">
        <ele>553.0</ele>
        <time>2019-01-27T07:41:08-02:00</time>
      </trkpt>
      <trkpt lat="-21.544723999999995" lon="-48.793985000000006">
        <ele>553.0</ele>
        <time>2019-01-27T07:41:09-02:00</time>
      </trkpt>
      <trkpt lat="-21.54472866" lon="-48.79400833">
        <ele>553.0</ele>
        <time>2019-01-27T07:41:10-02:00</time>
      </trkpt>
      <trkpt lat="-21.54473266" lon="-48.79403000000001">
        <ele>553.0</ele>
        <time>2019-01-27T07:41:11-02:00</time>
      </trkpt>
      <trkpt lat="-21.544737660000003" lon="-48.794055">
        <ele>553.0</ele>
        <time>2019-01-27T07:41:12-02:00</time>
      </trkpt>
      <trkpt lat="-21.54474233" lon="-48.79407832999999">
        <ele>553.0</ele>
        <time>2019-01-27T07:41:13-02:00</time>
      </trkpt>
      <trkpt lat="-21.54474666" lon="-48.7941">
        <ele>553.0</ele>
        <time>2019-01-27T07:41:14-02:00</time>
      </trkpt>
      <trkpt lat="-21.54475066" lon="-48.79412166">
        <ele>553.0</ele>
        <time>2019-01-27T07:41:15-02:00</time>
      </trkpt>
      <trkpt lat="-21.544755330000005" lon="-48.79414500000001">
        <ele>553.0</ele>
        <time>2019-01-27T07:41:16-02:00</time>
      </trkpt>
      <trkpt lat="-21.54476266" lon="-48.794169999999994">
        <ele>553.0</ele>
        <time>2019-01-27T07:41:17-02:00</time>
      </trkpt>
      <trkpt lat="-21.54476666" lon="-48.79419333">
        <ele>553.0</ele>
        <time>2019-01-27T07:41:18-02:00</time>
      </trkpt>
      <trkpt lat="-21.544771660000002" lon="-48.79421832999999">
        <ele>553.0</ele>
        <time>2019-01-27T07:41:19-02:00</time>
      </trkpt>
      <trkpt lat="-21.54477533" lon="-48.79423666000001">
        <ele>553.0</ele>
        <time>2019-01-27T07:41:20-02:00</time>
      </trkpt>
      <trkpt lat="-21.54478" lon="-48.794259999999994">
        <ele>553.0</ele>
        <time>2019-01-27T07:41:21-02:00</time>
      </trkpt>
      <trkpt lat="-21.544784659999998" lon="-48.794285">
        <ele>553.0</ele>
        <time>2019-01-27T07:41:22-02:00</time>
      </trkpt>
      <trkpt lat="-21.544789330000004" lon="-48.79430832999999">
        <ele>553.0</ele>
        <time>2019-01-27T07:41:23-02:00</time>
      </trkpt>
      <trkpt lat="-21.544795330000003" lon="-48.79433833">
        <ele>553.0</ele>
        <time>2019-01-27T07:41:24-02:00</time>
      </trkpt>
      <trkpt lat="-21.544800000000002" lon="-48.79436166000001">
        <ele>554.0</ele>
        <time>2019-01-27T07:41:25-02:00</time>
      </trkpt>
      <trkpt lat="-21.54480433" lon="-48.79438499999999">
        <ele>554.0</ele>
        <time>2019-01-27T07:41:26-02:00</time>
      </trkpt>
      <trkpt lat="-21.544808659999998" lon="-48.79440666000001">
        <ele>554.0</ele>
        <time>2019-01-27T07:41:27-02:00</time>
      </trkpt>
      <trkpt lat="-21.544812" lon="-48.79442333">
        <ele>554.0</ele>
        <time>2019-01-27T07:41:28-02:00</time>
      </trkpt>
      <trkpt lat="-21.54481766" lon="-48.79445166000001">
        <ele>554.0</ele>
        <time>2019-01-27T07:41:29-02:00</time>
      </trkpt>
      <trkpt lat="-21.544821330000005" lon="-48.79447166">
        <ele>554.0</ele>
        <time>2019-01-27T07:41:30-02:00</time>
      </trkpt>
      <trkpt lat="-21.54482566" lon="-48.794493329999995">
        <ele>554.0</ele>
        <time>2019-01-27T07:41:31-02:00</time>
      </trkpt>
      <trkpt lat="-21.544830330000003" lon="-48.79451666">
        <ele>554.0</ele>
        <time>2019-01-27T07:41:32-02:00</time>
      </trkpt>
      <trkpt lat="-21.544834" lon="-48.794534999999996">
        <ele>554.0</ele>
        <time>2019-01-27T07:41:33-02:00</time>
      </trkpt>
      <trkpt lat="-21.544839330000006" lon="-48.79456166">
        <ele>554.0</ele>
        <time>2019-01-27T07:41:34-02:00</time>
      </trkpt>
      <trkpt lat="-21.544845000000002" lon="-48.794591659999995">
        <ele>554.0</ele>
        <time>2019-01-27T07:41:35-02:00</time>
      </trkpt>
      <trkpt lat="-21.544849330000005" lon="-48.79461500000001">
        <ele>554.0</ele>
        <time>2019-01-27T07:41:36-02:00</time>
      </trkpt>
      <trkpt lat="-21.544853659999998" lon="-48.79463666">
        <ele>554.0</ele>
        <time>2019-01-27T07:41:37-02:00</time>
      </trkpt>
      <trkpt lat="-21.544858329999997" lon="-48.79465999999999">
        <ele>554.0</ele>
        <time>2019-01-27T07:41:38-02:00</time>
      </trkpt>
      <trkpt lat="-21.54486266" lon="-48.794683329999984">
        <ele>554.0</ele>
        <time>2019-01-27T07:41:39-02:00</time>
      </trkpt>
      <trkpt lat="-21.544867000000004" lon="-48.79470500000001">
        <ele>554.0</ele>
        <time>2019-01-27T07:41:40-02:00</time>
      </trkpt>
      <trkpt lat="-21.544869" lon="-48.79472833">
        <ele>554.0</ele>
        <time>2019-01-27T07:41:41-02:00</time>
      </trkpt>
      <trkpt lat="-21.54487333" lon="-48.79475000000001">
        <ele>554.0</ele>
        <time>2019-01-27T07:41:42-02:00</time>
      </trkpt>
      <trkpt lat="-21.544878" lon="-48.79477333">
        <ele>554.0</ele>
        <time>2019-01-27T07:41:43-02:00</time>
      </trkpt>
      <trkpt lat="-21.544882659999992" lon="-48.79479832999999">
        <ele>554.0</ele>
        <time>2019-01-27T07:41:44-02:00</time>
      </trkpt>
      <trkpt lat="-21.54488733" lon="-48.79482166">
        <ele>554.0</ele>
        <time>2019-01-27T07:41:45-02:00</time>
      </trkpt>
      <trkpt lat="-21.54489233" lon="-48.794846660000005">
        <ele>554.0</ele>
        <time>2019-01-27T07:41:46-02:00</time>
      </trkpt>
      <trkpt lat="-21.544896660000003" lon="-48.79487">
        <ele>554.0</ele>
        <time>2019-01-27T07:41:47-02:00</time>
      </trkpt>
      <trkpt lat="-21.544900660000003" lon="-48.794891660000005">
        <ele>554.0</ele>
        <time>2019-01-27T07:41:48-02:00</time>
      </trkpt>
      <trkpt lat="-21.544905" lon="-48.79491333">
        <ele>554.0</ele>
        <time>2019-01-27T07:41:49-02:00</time>
      </trkpt>
      <trkpt lat="-21.54490966" lon="-48.794938329999994">
        <ele>554.0</ele>
        <time>2019-01-27T07:41:50-02:00</time>
      </trkpt>
      <trkpt lat="-21.544911660000004" lon="-48.79496">
        <ele>555.0</ele>
        <time>2019-01-27T07:41:51-02:00</time>
      </trkpt>
      <trkpt lat="-21.544916330000007" lon="-48.794985">
        <ele>555.0</ele>
        <time>2019-01-27T07:41:52-02:00</time>
      </trkpt>
      <trkpt lat="-21.54492033" lon="-48.79500666">
        <ele>555.0</ele>
        <time>2019-01-27T07:41:53-02:00</time>
      </trkpt>
      <trkpt lat="-21.544925" lon="-48.79503166000001">
        <ele>555.0</ele>
        <time>2019-01-27T07:41:54-02:00</time>
      </trkpt>
      <trkpt lat="-21.54492966" lon="-48.79505666">
        <ele>555.0</ele>
        <time>2019-01-27T07:41:55-02:00</time>
      </trkpt>
      <trkpt lat="-21.54493466" lon="-48.79508333">
        <ele>555.0</ele>
        <time>2019-01-27T07:41:56-02:00</time>
      </trkpt>
      <trkpt lat="-21.544936999999997" lon="-48.79510832999999">
        <ele>555.0</ele>
        <time>2019-01-27T07:41:57-02:00</time>
      </trkpt>
      <trkpt lat="-21.544941660000003" lon="-48.795131659999996">
        <ele>555.0</ele>
        <time>2019-01-27T07:41:58-02:00</time>
      </trkpt>
      <trkpt lat="-21.544946000000003" lon="-48.795154999999994">
        <ele>555.0</ele>
        <time>2019-01-27T07:41:59-02:00</time>
      </trkpt>
      <trkpt lat="-21.54495033" lon="-48.79517833">
        <ele>555.0</ele>
        <time>2019-01-27T07:42:00-02:00</time>
      </trkpt>
      <trkpt lat="-21.544954330000003" lon="-48.795199999999994">
        <ele>555.0</ele>
        <time>2019-01-27T07:42:01-02:00</time>
      </trkpt>
      <trkpt lat="-21.54495866" lon="-48.795223329999985">
        <ele>555.0</ele>
        <time>2019-01-27T07:42:02-02:00</time>
      </trkpt>
      <trkpt lat="-21.544962659999996" lon="-48.79524500000001">
        <ele>555.0</ele>
        <time>2019-01-27T07:42:03-02:00</time>
      </trkpt>
      <trkpt lat="-21.544965" lon="-48.79527">
        <ele>555.0</ele>
        <time>2019-01-27T07:42:04-02:00</time>
      </trkpt>
      <trkpt lat="-21.54496966" lon="-48.795294999999996">
        <ele>555.0</ele>
        <time>2019-01-27T07:42:05-02:00</time>
      </trkpt>
      <trkpt lat="-21.544973999999996" lon="-48.79531832999999">
        <ele>555.0</ele>
        <time>2019-01-27T07:42:06-02:00</time>
      </trkpt>
      <trkpt lat="-21.544978330000003" lon="-48.79534166">
        <ele>555.0</ele>
        <time>2019-01-27T07:42:07-02:00</time>
      </trkpt>
      <trkpt lat="-21.54498233" lon="-48.79536333">
        <ele>555.0</ele>
        <time>2019-01-27T07:42:08-02:00</time>
      </trkpt>
      <trkpt lat="-21.544987" lon="-48.79538833">
        <ele>555.0</ele>
        <time>2019-01-27T07:42:09-02:00</time>
      </trkpt>
      <trkpt lat="-21.544991330000002" lon="-48.79541166">
        <ele>555.0</ele>
        <time>2019-01-27T07:42:10-02:00</time>
      </trkpt>
      <trkpt lat="-21.544995000000004" lon="-48.795433329999994">
        <ele>555.0</ele>
        <time>2019-01-27T07:42:11-02:00</time>
      </trkpt>
      <trkpt lat="-21.544999330000003" lon="-48.79545666">
        <ele>555.0</ele>
        <time>2019-01-27T07:42:12-02:00</time>
      </trkpt>
      <trkpt lat="-21.545002999999998" lon="-48.795476660000006">
        <ele>555.0</ele>
        <time>2019-01-27T07:42:13-02:00</time>
      </trkpt>
      <trkpt lat="-21.545007329999997" lon="-48.795500000000004">
        <ele>555.0</ele>
        <time>2019-01-27T07:42:14-02:00</time>
      </trkpt>
      <trkpt lat="-21.54501166" lon="-48.795523329999995">
        <ele>555.0</ele>
        <time>2019-01-27T07:42:15-02:00</time>
      </trkpt>
      <trkpt lat="-21.545015659999997" lon="-48.795545000000004">
        <ele>555.0</ele>
        <time>2019-01-27T07:42:16-02:00</time>
      </trkpt>
      <trkpt lat="-21.545019330000006" lon="-48.795565">
        <ele>555.0</ele>
        <time>2019-01-27T07:42:17-02:00</time>
      </trkpt>
      <trkpt lat="-21.545024660000003" lon="-48.79559332999999">
        <ele>555.0</ele>
        <time>2019-01-27T07:42:18-02:00</time>
      </trkpt>
      <trkpt lat="-21.54502966" lon="-48.79562">
        <ele>555.0</ele>
        <time>2019-01-27T07:42:19-02:00</time>
      </trkpt>
      <trkpt lat="-21.545034330000004" lon="-48.795645">
        <ele>555.0</ele>
        <time>2019-01-27T07:42:20-02:00</time>
      </trkpt>
      <trkpt lat="-21.54503866" lon="-48.79567">
        <ele>555.0</ele>
        <time>2019-01-27T07:42:21-02:00</time>
      </trkpt>
      <trkpt lat="-21.545042999999996" lon="-48.795694999999995">
        <ele>555.0</ele>
        <time>2019-01-27T07:42:22-02:00</time>
      </trkpt>
      <trkpt lat="-21.545046330000005" lon="-48.79571333">
        <ele>555.0</ele>
        <time>2019-01-27T07:42:23-02:00</time>
      </trkpt>
      <trkpt lat="-21.545053999999997" lon="-48.79574000000001">
        <ele>555.0</ele>
        <time>2019-01-27T07:42:24-02:00</time>
      </trkpt>
      <trkpt lat="-21.54505833" lon="-48.79576333">
        <ele>555.0</ele>
        <time>2019-01-27T07:42:25-02:00</time>
      </trkpt>
      <trkpt lat="-21.54506266" lon="-48.79578665999999">
        <ele>555.0</ele>
        <time>2019-01-27T07:42:26-02:00</time>
      </trkpt>
      <trkpt lat="-21.545067000000003" lon="-48.79581">
        <ele>555.0</ele>
        <time>2019-01-27T07:42:27-02:00</time>
      </trkpt>
      <trkpt lat="-21.54507166" lon="-48.795833329999994">
        <ele>555.0</ele>
        <time>2019-01-27T07:42:28-02:00</time>
      </trkpt>
      <trkpt lat="-21.545075000000004" lon="-48.79585166">
        <ele>555.0</ele>
        <time>2019-01-27T07:42:29-02:00</time>
      </trkpt>
      <trkpt lat="-21.545082" lon="-48.795878329999994">
        <ele>555.0</ele>
        <time>2019-01-27T07:42:30-02:00</time>
      </trkpt>
      <trkpt lat="-21.545086660000003" lon="-48.79590166">
        <ele>555.0</ele>
        <time>2019-01-27T07:42:31-02:00</time>
      </trkpt>
      <trkpt lat="-21.54509066" lon="-48.795923329999994">
        <ele>555.0</ele>
        <time>2019-01-27T07:42:32-02:00</time>
      </trkpt>
      <trkpt lat="-21.545095330000002" lon="-48.79594833">
        <ele>555.0</ele>
        <time>2019-01-27T07:42:33-02:00</time>
      </trkpt>
      <trkpt lat="-21.545099330000003" lon="-48.79597">
        <ele>555.0</ele>
        <time>2019-01-27T07:42:34-02:00</time>
      </trkpt>
      <trkpt lat="-21.545105" lon="-48.79600000000001">
        <ele>556.0</ele>
        <time>2019-01-27T07:42:35-02:00</time>
      </trkpt>
      <trkpt lat="-21.545111330000005" lon="-48.79602333">
        <ele>556.0</ele>
        <time>2019-01-27T07:42:36-02:00</time>
      </trkpt>
      <trkpt lat="-21.54511366" lon="-48.79604833">
        <ele>556.0</ele>
        <time>2019-01-27T07:42:37-02:00</time>
      </trkpt>
      <trkpt lat="-21.545120660000002" lon="-48.796071659999996">
        <ele>556.0</ele>
        <time>2019-01-27T07:42:38-02:00</time>
      </trkpt>
      <trkpt lat="-21.545125" lon="-48.796095">
        <ele>556.0</ele>
        <time>2019-01-27T07:42:39-02:00</time>
      </trkpt>
      <trkpt lat="-21.545129659999997" lon="-48.79612">
        <ele>556.0</ele>
        <time>2019-01-27T07:42:40-02:00</time>
      </trkpt>
      <trkpt lat="-21.545133999999997" lon="-48.79614332999999">
        <ele>556.0</ele>
        <time>2019-01-27T07:42:41-02:00</time>
      </trkpt>
      <trkpt lat="-21.545139" lon="-48.796170000000004">
        <ele>556.0</ele>
        <time>2019-01-27T07:42:42-02:00</time>
      </trkpt>
      <trkpt lat="-21.545143330000002" lon="-48.796193329999994">
        <ele>556.0</ele>
        <time>2019-01-27T07:42:43-02:00</time>
      </trkpt>
      <trkpt lat="-21.545144330000003" lon="-48.79621166">
        <ele>556.0</ele>
        <time>2019-01-27T07:42:44-02:00</time>
      </trkpt>
      <trkpt lat="-21.545149330000005" lon="-48.796238329999994">
        <ele>556.0</ele>
        <time>2019-01-27T07:42:45-02:00</time>
      </trkpt>
      <trkpt lat="-21.54515433" lon="-48.79626666">
        <ele>556.0</ele>
        <time>2019-01-27T07:42:46-02:00</time>
      </trkpt>
      <trkpt lat="-21.545156330000005" lon="-48.79629166000001">
        <ele>556.0</ele>
        <time>2019-01-27T07:42:47-02:00</time>
      </trkpt>
      <trkpt lat="-21.545160330000005" lon="-48.79631332999999">
        <ele>556.0</ele>
        <time>2019-01-27T07:42:48-02:00</time>
      </trkpt>
      <trkpt lat="-21.545165000000004" lon="-48.79633833">
        <ele>557.0</ele>
        <time>2019-01-27T07:42:49-02:00</time>
      </trkpt>
      <trkpt lat="-21.545169" lon="-48.79636000000001">
        <ele>557.0</ele>
        <time>2019-01-27T07:42:50-02:00</time>
      </trkpt>
      <trkpt lat="-21.545173330000004" lon="-48.79638333">
        <ele>557.0</ele>
        <time>2019-01-27T07:42:51-02:00</time>
      </trkpt>
      <trkpt lat="-21.545177329999994" lon="-48.79640666">
        <ele>557.0</ele>
        <time>2019-01-27T07:42:52-02:00</time>
      </trkpt>
      <trkpt lat="-21.545179330000003" lon="-48.79643">
        <ele>557.0</ele>
        <time>2019-01-27T07:42:53-02:00</time>
      </trkpt>
      <trkpt lat="-21.545184" lon="-48.796455">
        <ele>557.0</ele>
        <time>2019-01-27T07:42:54-02:00</time>
      </trkpt>
      <trkpt lat="-21.545188330000002" lon="-48.79647833">
        <ele>557.0</ele>
        <time>2019-01-27T07:42:55-02:00</time>
      </trkpt>
      <trkpt lat="-21.545193" lon="-48.796501660000004">
        <ele>557.0</ele>
        <time>2019-01-27T07:42:56-02:00</time>
      </trkpt>
      <trkpt lat="-21.545196330000003" lon="-48.79652">
        <ele>557.0</ele>
        <time>2019-01-27T07:42:57-02:00</time>
      </trkpt>
      <trkpt lat="-21.545201000000002" lon="-48.796544999999995">
        <ele>557.0</ele>
        <time>2019-01-27T07:42:58-02:00</time>
      </trkpt>
      <trkpt lat="-21.545202999999997" lon="-48.79656832999999">
        <ele>557.0</ele>
        <time>2019-01-27T07:42:59-02:00</time>
      </trkpt>
      <trkpt lat="-21.54520833" lon="-48.796598329999995">
        <ele>557.0</ele>
        <time>2019-01-27T07:43:00-02:00</time>
      </trkpt>
      <trkpt lat="-21.545212" lon="-48.79661833">
        <ele>557.0</ele>
        <time>2019-01-27T07:43:01-02:00</time>
      </trkpt>
      <trkpt lat="-21.545217" lon="-48.796645000000005">
        <ele>557.0</ele>
        <time>2019-01-27T07:43:02-02:00</time>
      </trkpt>
      <trkpt lat="-21.545221330000004" lon="-48.79666999999999">
        <ele>557.0</ele>
        <time>2019-01-27T07:43:03-02:00</time>
      </trkpt>
      <trkpt lat="-21.545226000000003" lon="-48.79669333">
        <ele>557.0</ele>
        <time>2019-01-27T07:43:04-02:00</time>
      </trkpt>
      <trkpt lat="-21.545230330000003" lon="-48.79671666">
        <ele>557.0</ele>
        <time>2019-01-27T07:43:05-02:00</time>
      </trkpt>
      <trkpt lat="-21.545234" lon="-48.79673666000001">
        <ele>557.0</ele>
        <time>2019-01-27T07:43:06-02:00</time>
      </trkpt>
      <trkpt lat="-21.545239330000005" lon="-48.79676499999999">
        <ele>557.0</ele>
        <time>2019-01-27T07:43:07-02:00</time>
      </trkpt>
      <trkpt lat="-21.545243999999997" lon="-48.79679">
        <ele>557.0</ele>
        <time>2019-01-27T07:43:08-02:00</time>
      </trkpt>
      <trkpt lat="-21.545248" lon="-48.796809999999994">
        <ele>557.0</ele>
        <time>2019-01-27T07:43:09-02:00</time>
      </trkpt>
      <trkpt lat="-21.545254330000002" lon="-48.79683332999999">
        <ele>557.0</ele>
        <time>2019-01-27T07:43:10-02:00</time>
      </trkpt>
      <trkpt lat="-21.54525866" lon="-48.796854999999994">
        <ele>557.0</ele>
        <time>2019-01-27T07:43:11-02:00</time>
      </trkpt>
      <trkpt lat="-21.545262" lon="-48.79687166000001">
        <ele>557.0</ele>
        <time>2019-01-27T07:43:12-02:00</time>
      </trkpt>
      <trkpt lat="-21.54527" lon="-48.79690000000001">
        <ele>557.0</ele>
        <time>2019-01-27T07:43:13-02:00</time>
      </trkpt>
      <trkpt lat="-21.545277329999998" lon="-48.796925">
        <ele>557.0</ele>
        <time>2019-01-27T07:43:14-02:00</time>
      </trkpt>
      <trkpt lat="-21.545281999999997" lon="-48.79694833">
        <ele>557.0</ele>
        <time>2019-01-27T07:43:15-02:00</time>
      </trkpt>
      <trkpt lat="-21.545288999999997" lon="-48.79697166">
        <ele>557.0</ele>
        <time>2019-01-27T07:43:16-02:00</time>
      </trkpt>
      <trkpt lat="-21.54529566" lon="-48.79699000000001">
        <ele>557.0</ele>
        <time>2019-01-27T07:43:17-02:00</time>
      </trkpt>
      <trkpt lat="-21.545305" lon="-48.79701166000001">
        <ele>557.0</ele>
        <time>2019-01-27T07:43:18-02:00</time>
      </trkpt>
      <trkpt lat="-21.545312999999997" lon="-48.79703665999999">
        <ele>558.0</ele>
        <time>2019-01-27T07:43:19-02:00</time>
      </trkpt>
      <trkpt lat="-21.545322330000005" lon="-48.797056659999996">
        <ele>558.0</ele>
        <time>2019-01-27T07:43:20-02:00</time>
      </trkpt>
      <trkpt lat="-21.545331330000003" lon="-48.79707499999999">
        <ele>558.0</ele>
        <time>2019-01-27T07:43:21-02:00</time>
      </trkpt>
      <trkpt lat="-21.545341" lon="-48.797095">
        <ele>558.0</ele>
        <time>2019-01-27T07:43:22-02:00</time>
      </trkpt>
      <trkpt lat="-21.54535" lon="-48.79711166">
        <ele>558.0</ele>
        <time>2019-01-27T07:43:23-02:00</time>
      </trkpt>
      <trkpt lat="-21.54536" lon="-48.797129999999996">
        <ele>558.0</ele>
        <time>2019-01-27T07:43:24-02:00</time>
      </trkpt>
      <trkpt lat="-21.545371000000006" lon="-48.797145">
        <ele>558.0</ele>
        <time>2019-01-27T07:43:25-02:00</time>
      </trkpt>
      <trkpt lat="-21.545382330000002" lon="-48.79716">
        <ele>558.0</ele>
        <time>2019-01-27T07:43:26-02:00</time>
      </trkpt>
      <trkpt lat="-21.545393329999996" lon="-48.79717333">
        <ele>558.0</ele>
        <time>2019-01-27T07:43:27-02:00</time>
      </trkpt>
      <trkpt lat="-21.54540366" lon="-48.797185">
        <ele>558.0</ele>
        <time>2019-01-27T07:43:28-02:00</time>
      </trkpt>
      <trkpt lat="-21.545516660000004" lon="-48.79719999999999">
        <ele>558.0</ele>
        <time>2019-01-27T07:43:29-02:00</time>
      </trkpt>
      <trkpt lat="-21.54553" lon="-48.79720999999999">
        <ele>558.0</ele>
        <time>2019-01-27T07:43:30-02:00</time>
      </trkpt>
      <trkpt lat="-21.545548330000003" lon="-48.797221660000005">
        <ele>558.0</ele>
        <time>2019-01-27T07:43:31-02:00</time>
      </trkpt>
      <trkpt lat="-21.54557166" lon="-48.79723400000001">
        <ele>558.0</ele>
        <time>2019-01-27T07:43:32-02:00</time>
      </trkpt>
      <trkpt lat="-21.54559" lon="-48.797242999999995">
        <ele>558.0</ele>
        <time>2019-01-27T07:43:33-02:00</time>
      </trkpt>
      <trkpt lat="-21.545610000000003" lon="-48.797252">
        <ele>558.0</ele>
        <time>2019-01-27T07:43:34-02:00</time>
      </trkpt>
      <trkpt lat="-21.54562833" lon="-48.797259000000004">
        <ele>558.0</ele>
        <time>2019-01-27T07:43:35-02:00</time>
      </trkpt>
      <trkpt lat="-21.545648330000002" lon="-48.797267330000004">
        <ele>558.0</ele>
        <time>2019-01-27T07:43:36-02:00</time>
      </trkpt>
      <trkpt lat="-21.545668329999998" lon="-48.797275660000004">
        <ele>558.0</ele>
        <time>2019-01-27T07:43:37-02:00</time>
      </trkpt>
      <trkpt lat="-21.545691660000003" lon="-48.79728566000001">
        <ele>558.0</ele>
        <time>2019-01-27T07:43:38-02:00</time>
      </trkpt>
      <trkpt lat="-21.545715" lon="-48.797295999999996">
        <ele>558.0</ele>
        <time>2019-01-27T07:43:39-02:00</time>
      </trkpt>
      <trkpt lat="-21.545736660000003" lon="-48.797304659999995">
        <ele>558.0</ele>
        <time>2019-01-27T07:43:40-02:00</time>
      </trkpt>
      <trkpt lat="-21.54576" lon="-48.79731166">
        <ele>558.0</ele>
        <time>2019-01-27T07:43:41-02:00</time>
      </trkpt>
      <trkpt lat="-21.54578333" lon="-48.797318">
        <ele>558.0</ele>
        <time>2019-01-27T07:43:42-02:00</time>
      </trkpt>
      <trkpt lat="-21.545806660000004" lon="-48.79732299999999">
        <ele>558.0</ele>
        <time>2019-01-27T07:43:43-02:00</time>
      </trkpt>
      <trkpt lat="-21.545825" lon="-48.797324659999994">
        <ele>558.0</ele>
        <time>2019-01-27T07:43:44-02:00</time>
      </trkpt>
      <trkpt lat="-21.545846660000002" lon="-48.797328">
        <ele>558.0</ele>
        <time>2019-01-27T07:43:45-02:00</time>
      </trkpt>
      <trkpt lat="-21.545870000000004" lon="-48.797330329999994">
        <ele>558.0</ele>
        <time>2019-01-27T07:43:46-02:00</time>
      </trkpt>
      <trkpt lat="-21.5459" lon="-48.79733366000001">
        <ele>558.0</ele>
        <time>2019-01-27T07:43:47-02:00</time>
      </trkpt>
      <trkpt lat="-21.54592333" lon="-48.79733366000001">
        <ele>557.0</ele>
        <time>2019-01-27T07:43:48-02:00</time>
      </trkpt>
      <trkpt lat="-21.545945" lon="-48.79733366000001">
        <ele>557.0</ele>
        <time>2019-01-27T07:43:49-02:00</time>
      </trkpt>
      <trkpt lat="-21.545965000000002" lon="-48.79733166">
        <ele>557.0</ele>
        <time>2019-01-27T07:43:50-02:00</time>
      </trkpt>
      <trkpt lat="-21.545989999999996" lon="-48.797331">
        <ele>557.0</ele>
        <time>2019-01-27T07:43:51-02:00</time>
      </trkpt>
      <trkpt lat="-21.546006660000003" lon="-48.797329000000005">
        <ele>557.0</ele>
        <time>2019-01-27T07:43:52-02:00</time>
      </trkpt>
      <trkpt lat="-21.54603166" lon="-48.79732666000001">
        <ele>557.0</ele>
        <time>2019-01-27T07:43:53-02:00</time>
      </trkpt>
      <trkpt lat="-21.546053330000003" lon="-48.79732299999999">
        <ele>557.0</ele>
        <time>2019-01-27T07:43:54-02:00</time>
      </trkpt>
      <trkpt lat="-21.546068330000004" lon="-48.797318329999996">
        <ele>557.0</ele>
        <time>2019-01-27T07:43:55-02:00</time>
      </trkpt>
      <trkpt lat="-21.54609" lon="-48.79731466">
        <ele>557.0</ele>
        <time>2019-01-27T07:43:56-02:00</time>
      </trkpt>
      <trkpt lat="-21.54611" lon="-48.797311">
        <ele>557.0</ele>
        <time>2019-01-27T07:43:57-02:00</time>
      </trkpt>
      <trkpt lat="-21.546129999999998" lon="-48.797306">
        <ele>557.0</ele>
        <time>2019-01-27T07:43:58-02:00</time>
      </trkpt>
      <trkpt lat="-21.546148330000005" lon="-48.79729933">
        <ele>557.0</ele>
        <time>2019-01-27T07:43:59-02:00</time>
      </trkpt>
      <trkpt lat="-21.54616833" lon="-48.79729400000001">
        <ele>557.0</ele>
        <time>2019-01-27T07:44:00-02:00</time>
      </trkpt>
      <trkpt lat="-21.546189999999996" lon="-48.797287999999995">
        <ele>557.0</ele>
        <time>2019-01-27T07:44:01-02:00</time>
      </trkpt>
      <trkpt lat="-21.54621333" lon="-48.79728132999999">
        <ele>557.0</ele>
        <time>2019-01-27T07:44:02-02:00</time>
      </trkpt>
      <trkpt lat="-21.54623" lon="-48.797274">
        <ele>556.0</ele>
        <time>2019-01-27T07:44:03-02:00</time>
      </trkpt>
      <trkpt lat="-21.54625" lon="-48.79726966">
        <ele>556.0</ele>
        <time>2019-01-27T07:44:04-02:00</time>
      </trkpt>
      <trkpt lat="-21.54627" lon="-48.797261660000004">
        <ele>556.0</ele>
        <time>2019-01-27T07:44:05-02:00</time>
      </trkpt>
      <trkpt lat="-21.546288330000003" lon="-48.79725466">
        <ele>555.0</ele>
        <time>2019-01-27T07:44:06-02:00</time>
      </trkpt>
      <trkpt lat="-21.546310000000002" lon="-48.797248">
        <ele>555.0</ele>
        <time>2019-01-27T07:44:07-02:00</time>
      </trkpt>
      <trkpt lat="-21.546331660000003" lon="-48.797238660000005">
        <ele>555.0</ele>
        <time>2019-01-27T07:44:08-02:00</time>
      </trkpt>
      <trkpt lat="-21.54635666" lon="-48.797230660000004">
        <ele>555.0</ele>
        <time>2019-01-27T07:44:09-02:00</time>
      </trkpt>
      <trkpt lat="-21.54637833" lon="-48.797224330000006">
        <ele>555.0</ele>
        <time>2019-01-27T07:44:10-02:00</time>
      </trkpt>
      <trkpt lat="-21.54639333" lon="-48.797216">
        <ele>555.0</ele>
        <time>2019-01-27T07:44:11-02:00</time>
      </trkpt>
      <trkpt lat="-21.546411660000004" lon="-48.79720966">
        <ele>555.0</ele>
        <time>2019-01-27T07:44:12-02:00</time>
      </trkpt>
      <trkpt lat="-21.547254999999996" lon="-48.796741659999995">
        <ele>437.0</ele>
        <time>2019-01-27T07:57:52-02:00</time>
      </trkpt>
      <trkpt lat="-21.547275" lon="-48.79672632999999">
        <ele>437.0</ele>
        <time>2019-01-27T07:57:53-02:00</time>
      </trkpt>
      <trkpt lat="-21.547293330000002" lon="-48.796713">
        <ele>437.0</ele>
        <time>2019-01-27T07:57:54-02:00</time>
      </trkpt>
      <trkpt lat="-21.54731166" lon="-48.79669733000001">
        <ele>437.0</ele>
        <time>2019-01-27T07:57:55-02:00</time>
      </trkpt>
      <trkpt lat="-21.547329999999995" lon="-48.79668532999999">
        <ele>437.0</ele>
        <time>2019-01-27T07:57:56-02:00</time>
      </trkpt>
      <trkpt lat="-21.547346660000002" lon="-48.79667299999999">
        <ele>437.0</ele>
        <time>2019-01-27T07:57:57-02:00</time>
      </trkpt>
      <trkpt lat="-21.54736666" lon="-48.796658660000006">
        <ele>437.0</ele>
        <time>2019-01-27T07:57:58-02:00</time>
      </trkpt>
      <trkpt lat="-21.547383330000002" lon="-48.796646329999994">
        <ele>437.0</ele>
        <time>2019-01-27T07:57:59-02:00</time>
      </trkpt>
      <trkpt lat="-21.54740333" lon="-48.79663166">
        <ele>437.0</ele>
        <time>2019-01-27T07:58:00-02:00</time>
      </trkpt>
      <trkpt lat="-21.54742333" lon="-48.796618">
        <ele>437.0</ele>
        <time>2019-01-27T07:58:01-02:00</time>
      </trkpt>
      <trkpt lat="-21.547441660000004" lon="-48.79660465999999">
        <ele>437.0</ele>
        <time>2019-01-27T07:58:02-02:00</time>
      </trkpt>
      <trkpt lat="-21.54746" lon="-48.79659166">
        <ele>437.0</ele>
        <time>2019-01-27T07:58:03-02:00</time>
      </trkpt>
      <trkpt lat="-21.547475" lon="-48.796580000000006">
        <ele>437.0</ele>
        <time>2019-01-27T07:58:04-02:00</time>
      </trkpt>
      <trkpt lat="-21.547493330000002" lon="-48.796565660000006">
        <ele>437.0</ele>
        <time>2019-01-27T07:58:05-02:00</time>
      </trkpt>
      <trkpt lat="-21.54751166" lon="-48.796551660000006">
        <ele>437.0</ele>
        <time>2019-01-27T07:58:06-02:00</time>
      </trkpt>
      <trkpt lat="-21.54753" lon="-48.79653666">
        <ele>437.0</ele>
        <time>2019-01-27T07:58:07-02:00</time>
      </trkpt>
      <trkpt lat="-21.54754833" lon="-48.796522">
        <ele>437.0</ele>
        <time>2019-01-27T07:58:08-02:00</time>
      </trkpt>
      <trkpt lat="-21.547563330000003" lon="-48.79650933">
        <ele>437.0</ele>
        <time>2019-01-27T07:58:09-02:00</time>
      </trkpt>
      <trkpt lat="-21.547581660000006" lon="-48.79649433000001">
        <ele>437.0</ele>
        <time>2019-01-27T07:58:10-02:00</time>
      </trkpt>
      <trkpt lat="-21.547601660000005" lon="-48.79647833">
        <ele>437.0</ele>
        <time>2019-01-27T07:58:11-02:00</time>
      </trkpt>
      <trkpt lat="-21.547621659999997" lon="-48.796462000000005">
        <ele>437.0</ele>
        <time>2019-01-27T07:58:12-02:00</time>
      </trkpt>
      <trkpt lat="-21.54764166" lon="-48.79644566">
        <ele>437.0</ele>
        <time>2019-01-27T07:58:13-02:00</time>
      </trkpt>
      <trkpt lat="-21.547661660000003" lon="-48.79643">
        <ele>436.0</ele>
        <time>2019-01-27T07:58:14-02:00</time>
      </trkpt>
      <trkpt lat="-21.54768" lon="-48.796414659999996">
        <ele>436.0</ele>
        <time>2019-01-27T07:58:15-02:00</time>
      </trkpt>
      <trkpt lat="-21.547698330000003" lon="-48.79640033">
        <ele>436.0</ele>
        <time>2019-01-27T07:58:16-02:00</time>
      </trkpt>
      <trkpt lat="-21.547715" lon="-48.796386">
        <ele>436.0</ele>
        <time>2019-01-27T07:58:17-02:00</time>
      </trkpt>
      <trkpt lat="-21.54773166" lon="-48.796371660000005">
        <ele>436.0</ele>
        <time>2019-01-27T07:58:18-02:00</time>
      </trkpt>
      <trkpt lat="-21.547748330000005" lon="-48.79635766000001">
        <ele>436.0</ele>
        <time>2019-01-27T07:58:19-02:00</time>
      </trkpt>
      <trkpt lat="-21.54776666" lon="-48.796341659999996">
        <ele>436.0</ele>
        <time>2019-01-27T07:58:20-02:00</time>
      </trkpt>
      <trkpt lat="-21.547784999999998" lon="-48.796325660000015">
        <ele>436.0</ele>
        <time>2019-01-27T07:58:21-02:00</time>
      </trkpt>
      <trkpt lat="-21.547801660000005" lon="-48.796311">
        <ele>436.0</ele>
        <time>2019-01-27T07:58:22-02:00</time>
      </trkpt>
      <trkpt lat="-21.547818330000002" lon="-48.796296">
        <ele>436.0</ele>
        <time>2019-01-27T07:58:23-02:00</time>
      </trkpt>
      <trkpt lat="-21.547835" lon="-48.79628132999999">
        <ele>436.0</ele>
        <time>2019-01-27T07:58:24-02:00</time>
      </trkpt>
      <trkpt lat="-21.54785" lon="-48.79626766">
        <ele>436.0</ele>
        <time>2019-01-27T07:58:25-02:00</time>
      </trkpt>
      <trkpt lat="-21.547864999999994" lon="-48.796253660000005">
        <ele>435.0</ele>
        <time>2019-01-27T07:58:26-02:00</time>
      </trkpt>
      <trkpt lat="-21.547883329999998" lon="-48.796236660000005">
        <ele>435.0</ele>
        <time>2019-01-27T07:58:27-02:00</time>
      </trkpt>
      <trkpt lat="-21.547898330000002" lon="-48.796223">
        <ele>435.0</ele>
        <time>2019-01-27T07:58:28-02:00</time>
      </trkpt>
      <trkpt lat="-21.547915000000003" lon="-48.79620766000001">
        <ele>435.0</ele>
        <time>2019-01-27T07:58:29-02:00</time>
      </trkpt>
      <trkpt lat="-21.54793" lon="-48.796195">
        <ele>435.0</ele>
        <time>2019-01-27T07:58:30-02:00</time>
      </trkpt>
      <trkpt lat="-21.547943330000003" lon="-48.79618166">
        <ele>435.0</ele>
        <time>2019-01-27T07:58:31-02:00</time>
      </trkpt>
      <trkpt lat="-21.547959999999996" lon="-48.79616632999999">
        <ele>435.0</ele>
        <time>2019-01-27T07:58:32-02:00</time>
      </trkpt>
      <trkpt lat="-21.54797833" lon="-48.79614933">
        <ele>435.0</ele>
        <time>2019-01-27T07:58:33-02:00</time>
      </trkpt>
      <trkpt lat="-21.547995" lon="-48.79613499999999">
        <ele>435.0</ele>
        <time>2019-01-27T07:58:34-02:00</time>
      </trkpt>
      <trkpt lat="-21.548011660000004" lon="-48.79611900000001">
        <ele>435.0</ele>
        <time>2019-01-27T07:58:35-02:00</time>
      </trkpt>
      <trkpt lat="-21.54803" lon="-48.796102000000005">
        <ele>435.0</ele>
        <time>2019-01-27T07:58:36-02:00</time>
      </trkpt>
      <trkpt lat="-21.54804666" lon="-48.79608732999999">
        <ele>435.0</ele>
        <time>2019-01-27T07:58:37-02:00</time>
      </trkpt>
      <trkpt lat="-21.548064999999998" lon="-48.79607">
        <ele>435.0</ele>
        <time>2019-01-27T07:58:38-02:00</time>
      </trkpt>
      <trkpt lat="-21.54808333" lon="-48.796054000000005">
        <ele>435.0</ele>
        <time>2019-01-27T07:58:39-02:00</time>
      </trkpt>
      <trkpt lat="-21.548101660000004" lon="-48.79603866000001">
        <ele>435.0</ele>
        <time>2019-01-27T07:58:40-02:00</time>
      </trkpt>
      <trkpt lat="-21.548120000000004" lon="-48.796023000000005">
        <ele>435.0</ele>
        <time>2019-01-27T07:58:41-02:00</time>
      </trkpt>
      <trkpt lat="-21.54813666" lon="-48.79600733">
        <ele>435.0</ele>
        <time>2019-01-27T07:58:42-02:00</time>
      </trkpt>
      <trkpt lat="-21.548154999999998" lon="-48.795992330000004">
        <ele>435.0</ele>
        <time>2019-01-27T07:58:43-02:00</time>
      </trkpt>
      <trkpt lat="-21.548171659999998" lon="-48.79597700000001">
        <ele>435.0</ele>
        <time>2019-01-27T07:58:44-02:00</time>
      </trkpt>
      <trkpt lat="-21.548189999999998" lon="-48.79595966">
        <ele>434.0</ele>
        <time>2019-01-27T07:58:45-02:00</time>
      </trkpt>
      <trkpt lat="-21.548206660000005" lon="-48.795945999999994">
        <ele>434.0</ele>
        <time>2019-01-27T07:58:46-02:00</time>
      </trkpt>
      <trkpt lat="-21.548226660000005" lon="-48.79592933">
        <ele>434.0</ele>
        <time>2019-01-27T07:58:47-02:00</time>
      </trkpt>
      <trkpt lat="-21.54824666" lon="-48.79591233">
        <ele>434.0</ele>
        <time>2019-01-27T07:58:48-02:00</time>
      </trkpt>
      <trkpt lat="-21.548265" lon="-48.795896660000004">
        <ele>434.0</ele>
        <time>2019-01-27T07:58:49-02:00</time>
      </trkpt>
      <trkpt lat="-21.548301660000007" lon="-48.795868">
        <ele>434.0</ele>
        <time>2019-01-27T07:58:51-02:00</time>
      </trkpt>
      <trkpt lat="-21.54831833" lon="-48.79585366000001">
        <ele>434.0</ele>
        <time>2019-01-27T07:58:52-02:00</time>
      </trkpt>
      <trkpt lat="-21.54833333" lon="-48.795841">
        <ele>434.0</ele>
        <time>2019-01-27T07:58:53-02:00</time>
      </trkpt>
      <trkpt lat="-21.54835" lon="-48.795828660000005">
        <ele>434.0</ele>
        <time>2019-01-27T07:58:54-02:00</time>
      </trkpt>
      <trkpt lat="-21.548370000000006" lon="-48.79581166">
        <ele>434.0</ele>
        <time>2019-01-27T07:58:55-02:00</time>
      </trkpt>
      <trkpt lat="-21.54838833" lon="-48.795798">
        <ele>434.0</ele>
        <time>2019-01-27T07:58:56-02:00</time>
      </trkpt>
      <trkpt lat="-21.548408329999997" lon="-48.795781">
        <ele>434.0</ele>
        <time>2019-01-27T07:58:57-02:00</time>
      </trkpt>
      <trkpt lat="-21.548424999999998" lon="-48.79576900000001">
        <ele>434.0</ele>
        <time>2019-01-27T07:58:58-02:00</time>
      </trkpt>
      <trkpt lat="-21.54844166" lon="-48.795756999999995">
        <ele>434.0</ele>
        <time>2019-01-27T07:58:59-02:00</time>
      </trkpt>
      <trkpt lat="-21.548458330000003" lon="-48.79574266000001">
        <ele>434.0</ele>
        <time>2019-01-27T07:59:00-02:00</time>
      </trkpt>
      <trkpt lat="-21.548475" lon="-48.79573066000001">
        <ele>434.0</ele>
        <time>2019-01-27T07:59:01-02:00</time>
      </trkpt>
      <trkpt lat="-21.548495000000003" lon="-48.79571533">
        <ele>434.0</ele>
        <time>2019-01-27T07:59:02-02:00</time>
      </trkpt>
      <trkpt lat="-21.54851333" lon="-48.795701660000006">
        <ele>434.0</ele>
        <time>2019-01-27T07:59:03-02:00</time>
      </trkpt>
      <trkpt lat="-21.54853166" lon="-48.795688">
        <ele>434.0</ele>
        <time>2019-01-27T07:59:04-02:00</time>
      </trkpt>
      <trkpt lat="-21.54855" lon="-48.79567466">
        <ele>434.0</ele>
        <time>2019-01-27T07:59:05-02:00</time>
      </trkpt>
      <trkpt lat="-21.548568330000002" lon="-48.795661">
        <ele>434.0</ele>
        <time>2019-01-27T07:59:06-02:00</time>
      </trkpt>
      <trkpt lat="-21.54858833" lon="-48.795648">
        <ele>434.0</ele>
        <time>2019-01-27T07:59:07-02:00</time>
      </trkpt>
      <trkpt lat="-21.54860666" lon="-48.79563499999999">
        <ele>434.0</ele>
        <time>2019-01-27T07:59:08-02:00</time>
      </trkpt>
      <trkpt lat="-21.548625" lon="-48.795621329999996">
        <ele>434.0</ele>
        <time>2019-01-27T07:59:09-02:00</time>
      </trkpt>
      <trkpt lat="-21.548641660000005" lon="-48.795609999999996">
        <ele>434.0</ele>
        <time>2019-01-27T07:59:10-02:00</time>
      </trkpt>
      <trkpt lat="-21.54865833" lon="-48.795597660000006">
        <ele>434.0</ele>
        <time>2019-01-27T07:59:11-02:00</time>
      </trkpt>
      <trkpt lat="-21.548676660000005" lon="-48.795585">
        <ele>434.0</ele>
        <time>2019-01-27T07:59:12-02:00</time>
      </trkpt>
      <trkpt lat="-21.54869333" lon="-48.795573">
        <ele>434.0</ele>
        <time>2019-01-27T07:59:13-02:00</time>
      </trkpt>
      <trkpt lat="-21.54871" lon="-48.795561">
        <ele>434.0</ele>
        <time>2019-01-27T07:59:14-02:00</time>
      </trkpt>
      <trkpt lat="-21.548728330000003" lon="-48.795548">
        <ele>434.0</ele>
        <time>2019-01-27T07:59:15-02:00</time>
      </trkpt>
      <trkpt lat="-21.548745000000004" lon="-48.795534659999994">
        <ele>434.0</ele>
        <time>2019-01-27T07:59:16-02:00</time>
      </trkpt>
      <trkpt lat="-21.54876166" lon="-48.795521660000006">
        <ele>434.0</ele>
        <time>2019-01-27T07:59:17-02:00</time>
      </trkpt>
      <trkpt lat="-21.54878166" lon="-48.795507">
        <ele>434.0</ele>
        <time>2019-01-27T07:59:18-02:00</time>
      </trkpt>
      <trkpt lat="-21.5488" lon="-48.79549266">
        <ele>434.0</ele>
        <time>2019-01-27T07:59:19-02:00</time>
      </trkpt>
      <trkpt lat="-21.548818330000003" lon="-48.79547799999999">
        <ele>434.0</ele>
        <time>2019-01-27T07:59:20-02:00</time>
      </trkpt>
      <trkpt lat="-21.54883666" lon="-48.795463330000004">
        <ele>434.0</ele>
        <time>2019-01-27T07:59:21-02:00</time>
      </trkpt>
      <trkpt lat="-21.548854999999996" lon="-48.79545099999999">
        <ele>434.0</ele>
        <time>2019-01-27T07:59:22-02:00</time>
      </trkpt>
      <trkpt lat="-21.54887333" lon="-48.795436329999994">
        <ele>434.0</ele>
        <time>2019-01-27T07:59:23-02:00</time>
      </trkpt>
      <trkpt lat="-21.54889166" lon="-48.79542233">
        <ele>434.0</ele>
        <time>2019-01-27T07:59:24-02:00</time>
      </trkpt>
      <trkpt lat="-21.54891" lon="-48.79540766000001">
        <ele>434.0</ele>
        <time>2019-01-27T07:59:25-02:00</time>
      </trkpt>
      <trkpt lat="-21.548926660000006" lon="-48.795393329999996">
        <ele>434.0</ele>
        <time>2019-01-27T07:59:26-02:00</time>
      </trkpt>
      <trkpt lat="-21.548944999999996" lon="-48.795379000000004">
        <ele>434.0</ele>
        <time>2019-01-27T07:59:27-02:00</time>
      </trkpt>
      <trkpt lat="-21.548965" lon="-48.79536333">
        <ele>434.0</ele>
        <time>2019-01-27T07:59:28-02:00</time>
      </trkpt>
      <trkpt lat="-21.54898166" lon="-48.795350330000005">
        <ele>434.0</ele>
        <time>2019-01-27T07:59:29-02:00</time>
      </trkpt>
      <trkpt lat="-21.549001660000005" lon="-48.795334999999994">
        <ele>434.0</ele>
        <time>2019-01-27T07:59:30-02:00</time>
      </trkpt>
      <trkpt lat="-21.54901833" lon="-48.795322">
        <ele>434.0</ele>
        <time>2019-01-27T07:59:31-02:00</time>
      </trkpt>
      <trkpt lat="-21.549036660000002" lon="-48.795307660000006">
        <ele>434.0</ele>
        <time>2019-01-27T07:59:32-02:00</time>
      </trkpt>
      <trkpt lat="-21.54905666" lon="-48.79529233">
        <ele>434.0</ele>
        <time>2019-01-27T07:59:33-02:00</time>
      </trkpt>
      <trkpt lat="-21.549075000000002" lon="-48.79527832999999">
        <ele>434.0</ele>
        <time>2019-01-27T07:59:34-02:00</time>
      </trkpt>
      <trkpt lat="-21.549095" lon="-48.795264329999995">
        <ele>434.0</ele>
        <time>2019-01-27T07:59:35-02:00</time>
      </trkpt>
      <trkpt lat="-21.549114999999997" lon="-48.795249330000004">
        <ele>434.0</ele>
        <time>2019-01-27T07:59:36-02:00</time>
      </trkpt>
      <trkpt lat="-21.549135" lon="-48.79523566000001">
        <ele>434.0</ele>
        <time>2019-01-27T07:59:37-02:00</time>
      </trkpt>
      <trkpt lat="-21.54915666" lon="-48.79521933000001">
        <ele>434.0</ele>
        <time>2019-01-27T07:59:38-02:00</time>
      </trkpt>
      <trkpt lat="-21.549176660000004" lon="-48.79520599999999">
        <ele>434.0</ele>
        <time>2019-01-27T07:59:39-02:00</time>
      </trkpt>
      <trkpt lat="-21.54919666" lon="-48.79519266000001">
        <ele>434.0</ele>
        <time>2019-01-27T07:59:40-02:00</time>
      </trkpt>
      <trkpt lat="-21.549214999999997" lon="-48.79518099999999">
        <ele>434.0</ele>
        <time>2019-01-27T07:59:41-02:00</time>
      </trkpt>
      <trkpt lat="-21.549236660000002" lon="-48.795167000000006">
        <ele>434.0</ele>
        <time>2019-01-27T07:59:42-02:00</time>
      </trkpt>
      <trkpt lat="-21.549255" lon="-48.795154999999994">
        <ele>434.0</ele>
        <time>2019-01-27T07:59:43-02:00</time>
      </trkpt>
      <trkpt lat="-21.549275" lon="-48.79514233">
        <ele>434.0</ele>
        <time>2019-01-27T07:59:44-02:00</time>
      </trkpt>
      <trkpt lat="-21.54929666" lon="-48.79513099999999">
        <ele>434.0</ele>
        <time>2019-01-27T07:59:45-02:00</time>
      </trkpt>
      <trkpt lat="-21.549314999999996" lon="-48.79511933">
        <ele>434.0</ele>
        <time>2019-01-27T07:59:46-02:00</time>
      </trkpt>
      <trkpt lat="-21.54933666" lon="-48.79510733">
        <ele>434.0</ele>
        <time>2019-01-27T07:59:47-02:00</time>
      </trkpt>
      <trkpt lat="-21.549355" lon="-48.79509666">
        <ele>434.0</ele>
        <time>2019-01-27T07:59:48-02:00</time>
      </trkpt>
      <trkpt lat="-21.54937666" lon="-48.795085">
        <ele>434.0</ele>
        <time>2019-01-27T07:59:49-02:00</time>
      </trkpt>
      <trkpt lat="-21.549396660000003" lon="-48.79507299999999">
        <ele>434.0</ele>
        <time>2019-01-27T07:59:50-02:00</time>
      </trkpt>
      <trkpt lat="-21.549418329999998" lon="-48.79506166">
        <ele>434.0</ele>
        <time>2019-01-27T07:59:51-02:00</time>
      </trkpt>
      <trkpt lat="-21.54943666" lon="-48.795052999999996">
        <ele>434.0</ele>
        <time>2019-01-27T07:59:52-02:00</time>
      </trkpt>
      <trkpt lat="-21.549456660000004" lon="-48.795043">
        <ele>434.0</ele>
        <time>2019-01-27T07:59:53-02:00</time>
      </trkpt>
      <trkpt lat="-21.549476660000003" lon="-48.79503132999999">
        <ele>434.0</ele>
        <time>2019-01-27T07:59:54-02:00</time>
      </trkpt>
      <trkpt lat="-21.54949666" lon="-48.79502166">
        <ele>434.0</ele>
        <time>2019-01-27T07:59:55-02:00</time>
      </trkpt>
      <trkpt lat="-21.54951833" lon="-48.795013">
        <ele>434.0</ele>
        <time>2019-01-27T07:59:56-02:00</time>
      </trkpt>
      <trkpt lat="-21.549538330000004" lon="-48.795003660000006">
        <ele>434.0</ele>
        <time>2019-01-27T07:59:57-02:00</time>
      </trkpt>
      <trkpt lat="-21.54955833" lon="-48.794994329999994">
        <ele>434.0</ele>
        <time>2019-01-27T07:59:58-02:00</time>
      </trkpt>
      <trkpt lat="-21.54957833" lon="-48.79498732999999">
        <ele>434.0</ele>
        <time>2019-01-27T07:59:59-02:00</time>
      </trkpt>
      <trkpt lat="-21.549596660000002" lon="-48.794979">
        <ele>434.0</ele>
        <time>2019-01-27T08:00:00-02:00</time>
      </trkpt>
      <trkpt lat="-21.54961666" lon="-48.79497033">
        <ele>434.0</ele>
        <time>2019-01-27T08:00:01-02:00</time>
      </trkpt>
      <trkpt lat="-21.549635000000002" lon="-48.79496233">
        <ele>434.0</ele>
        <time>2019-01-27T08:00:02-02:00</time>
      </trkpt>
      <trkpt lat="-21.549658329999996" lon="-48.794952">
        <ele>434.0</ele>
        <time>2019-01-27T08:00:03-02:00</time>
      </trkpt>
      <trkpt lat="-21.54967833" lon="-48.794943329999995">
        <ele>434.0</ele>
        <time>2019-01-27T08:00:04-02:00</time>
      </trkpt>
      <trkpt lat="-21.54970166" lon="-48.794934999999995">
        <ele>434.0</ele>
        <time>2019-01-27T08:00:05-02:00</time>
      </trkpt>
      <trkpt lat="-21.54972" lon="-48.794928">
        <ele>434.0</ele>
        <time>2019-01-27T08:00:06-02:00</time>
      </trkpt>
      <trkpt lat="-21.54973833" lon="-48.794920999999995">
        <ele>434.0</ele>
        <time>2019-01-27T08:00:07-02:00</time>
      </trkpt>
      <trkpt lat="-21.54976" lon="-48.79491233">
        <ele>434.0</ele>
        <time>2019-01-27T08:00:08-02:00</time>
      </trkpt>
      <trkpt lat="-21.549780000000002" lon="-48.794905">
        <ele>434.0</ele>
        <time>2019-01-27T08:00:09-02:00</time>
      </trkpt>
      <trkpt lat="-21.549801660000004" lon="-48.794896660000006">
        <ele>433.0</ele>
        <time>2019-01-27T08:00:10-02:00</time>
      </trkpt>
      <trkpt lat="-21.54982" lon="-48.79489033">
        <ele>433.0</ele>
        <time>2019-01-27T08:00:11-02:00</time>
      </trkpt>
      <trkpt lat="-21.549838330000004" lon="-48.79488433">
        <ele>433.0</ele>
        <time>2019-01-27T08:00:12-02:00</time>
      </trkpt>
      <trkpt lat="-21.54985666" lon="-48.79487566000001">
        <ele>433.0</ele>
        <time>2019-01-27T08:00:13-02:00</time>
      </trkpt>
      <trkpt lat="-21.549875000000004" lon="-48.79487">
        <ele>433.0</ele>
        <time>2019-01-27T08:00:14-02:00</time>
      </trkpt>
      <trkpt lat="-21.549898330000005" lon="-48.79486133">
        <ele>433.0</ele>
        <time>2019-01-27T08:00:15-02:00</time>
      </trkpt>
      <trkpt lat="-21.549920000000004" lon="-48.794852000000006">
        <ele>433.0</ele>
        <time>2019-01-27T08:00:16-02:00</time>
      </trkpt>
      <trkpt lat="-21.549941660000005" lon="-48.794845">
        <ele>433.0</ele>
        <time>2019-01-27T08:00:17-02:00</time>
      </trkpt>
      <trkpt lat="-21.54996166" lon="-48.79483866">
        <ele>433.0</ele>
        <time>2019-01-27T08:00:18-02:00</time>
      </trkpt>
      <trkpt lat="-21.549981660000004" lon="-48.79483066000001">
        <ele>433.0</ele>
        <time>2019-01-27T08:00:19-02:00</time>
      </trkpt>
      <trkpt lat="-21.55000333" lon="-48.794823660000006">
        <ele>433.0</ele>
        <time>2019-01-27T08:00:20-02:00</time>
      </trkpt>
      <trkpt lat="-21.550023330000005" lon="-48.794816000000004">
        <ele>433.0</ele>
        <time>2019-01-27T08:00:21-02:00</time>
      </trkpt>
      <trkpt lat="-21.55004333" lon="-48.79481032999999">
        <ele>433.0</ele>
        <time>2019-01-27T08:00:22-02:00</time>
      </trkpt>
      <trkpt lat="-21.550066660000002" lon="-48.794801660000005">
        <ele>433.0</ele>
        <time>2019-01-27T08:00:23-02:00</time>
      </trkpt>
      <trkpt lat="-21.55008833" lon="-48.794793330000005">
        <ele>433.0</ele>
        <time>2019-01-27T08:00:24-02:00</time>
      </trkpt>
      <trkpt lat="-21.55011" lon="-48.794787">
        <ele>433.0</ele>
        <time>2019-01-27T08:00:25-02:00</time>
      </trkpt>
      <trkpt lat="-21.55013166" lon="-48.794779">
        <ele>433.0</ele>
        <time>2019-01-27T08:00:26-02:00</time>
      </trkpt>
      <trkpt lat="-21.550153330000004" lon="-48.79477166">
        <ele>433.0</ele>
        <time>2019-01-27T08:00:27-02:00</time>
      </trkpt>
      <trkpt lat="-21.550175" lon="-48.79476366000001">
        <ele>433.0</ele>
        <time>2019-01-27T08:00:28-02:00</time>
      </trkpt>
      <trkpt lat="-21.550198330000004" lon="-48.79475533">
        <ele>433.0</ele>
        <time>2019-01-27T08:00:29-02:00</time>
      </trkpt>
      <trkpt lat="-21.550221660000002" lon="-48.79474933">
        <ele>433.0</ele>
        <time>2019-01-27T08:00:30-02:00</time>
      </trkpt>
      <trkpt lat="-21.550243330000004" lon="-48.79474233">
        <ele>433.0</ele>
        <time>2019-01-27T08:00:31-02:00</time>
      </trkpt>
      <trkpt lat="-21.550266660000002" lon="-48.79473632999999">
        <ele>433.0</ele>
        <time>2019-01-27T08:00:32-02:00</time>
      </trkpt>
      <trkpt lat="-21.550288330000004" lon="-48.79472933">
        <ele>433.0</ele>
        <time>2019-01-27T08:00:33-02:00</time>
      </trkpt>
      <trkpt lat="-21.55031333" lon="-48.79472333">
        <ele>433.0</ele>
        <time>2019-01-27T08:00:34-02:00</time>
      </trkpt>
      <trkpt lat="-21.550335" lon="-48.794719">
        <ele>433.0</ele>
        <time>2019-01-27T08:00:35-02:00</time>
      </trkpt>
      <trkpt lat="-21.550356660000002" lon="-48.794714330000005">
        <ele>433.0</ele>
        <time>2019-01-27T08:00:36-02:00</time>
      </trkpt>
      <trkpt lat="-21.55039833" lon="-48.79470500000001">
        <ele>433.0</ele>
        <time>2019-01-27T08:00:38-02:00</time>
      </trkpt>
      <trkpt lat="-21.550423330000005" lon="-48.79469933">
        <ele>433.0</ele>
        <time>2019-01-27T08:00:39-02:00</time>
      </trkpt>
      <trkpt lat="-21.550446660000002" lon="-48.79469332999999">
        <ele>433.0</ele>
        <time>2019-01-27T08:00:40-02:00</time>
      </trkpt>
      <trkpt lat="-21.550471660000003" lon="-48.794688660000006">
        <ele>433.0</ele>
        <time>2019-01-27T08:00:41-02:00</time>
      </trkpt>
      <trkpt lat="-21.550495" lon="-48.79468466">
        <ele>433.0</ele>
        <time>2019-01-27T08:00:42-02:00</time>
      </trkpt>
      <trkpt lat="-21.55051833" lon="-48.794683329999984">
        <ele>433.0</ele>
        <time>2019-01-27T08:00:43-02:00</time>
      </trkpt>
      <trkpt lat="-21.55054333" lon="-48.79467966">
        <ele>433.0</ele>
        <time>2019-01-27T08:00:44-02:00</time>
      </trkpt>
      <trkpt lat="-21.550566660000005" lon="-48.794676329999994">
        <ele>433.0</ele>
        <time>2019-01-27T08:00:45-02:00</time>
      </trkpt>
      <trkpt lat="-21.550590000000003" lon="-48.794675999999995">
        <ele>433.0</ele>
        <time>2019-01-27T08:00:46-02:00</time>
      </trkpt>
      <trkpt lat="-21.550611660000005" lon="-48.79467366000001">
        <ele>433.0</ele>
        <time>2019-01-27T08:00:47-02:00</time>
      </trkpt>
      <trkpt lat="-21.550636660000002" lon="-48.794672999999996">
        <ele>433.0</ele>
        <time>2019-01-27T08:00:48-02:00</time>
      </trkpt>
      <trkpt lat="-21.55066" lon="-48.79467066">
        <ele>433.0</ele>
        <time>2019-01-27T08:00:49-02:00</time>
      </trkpt>
      <trkpt lat="-21.550683330000002" lon="-48.794671">
        <ele>433.0</ele>
        <time>2019-01-27T08:00:50-02:00</time>
      </trkpt>
      <trkpt lat="-21.55070333" lon="-48.794669999999996">
        <ele>433.0</ele>
        <time>2019-01-27T08:00:51-02:00</time>
      </trkpt>
      <trkpt lat="-21.550726660000002" lon="-48.79467066">
        <ele>433.0</ele>
        <time>2019-01-27T08:00:52-02:00</time>
      </trkpt>
      <trkpt lat="-21.550755" lon="-48.79466833">
        <ele>433.0</ele>
        <time>2019-01-27T08:00:53-02:00</time>
      </trkpt>
      <trkpt lat="-21.550778330000004" lon="-48.79466900000001">
        <ele>433.0</ele>
        <time>2019-01-27T08:00:54-02:00</time>
      </trkpt>
      <trkpt lat="-21.55080333" lon="-48.79466766">
        <ele>433.0</ele>
        <time>2019-01-27T08:00:55-02:00</time>
      </trkpt>
      <trkpt lat="-21.550825" lon="-48.79466733">
        <ele>433.0</ele>
        <time>2019-01-27T08:00:56-02:00</time>
      </trkpt>
      <trkpt lat="-21.550845" lon="-48.79466966">
        <ele>433.0</ele>
        <time>2019-01-27T08:00:57-02:00</time>
      </trkpt>
      <trkpt lat="-21.550871660000002" lon="-48.79466833">
        <ele>433.0</ele>
        <time>2019-01-27T08:00:58-02:00</time>
      </trkpt>
      <trkpt lat="-21.550895" lon="-48.794670329999995">
        <ele>433.0</ele>
        <time>2019-01-27T08:00:59-02:00</time>
      </trkpt>
      <trkpt lat="-21.55091833" lon="-48.794669999999996">
        <ele>433.0</ele>
        <time>2019-01-27T08:01:00-02:00</time>
      </trkpt>
      <trkpt lat="-21.55094" lon="-48.794670329999995">
        <ele>433.0</ele>
        <time>2019-01-27T08:01:01-02:00</time>
      </trkpt>
      <trkpt lat="-21.550961660000002" lon="-48.794670329999995">
        <ele>433.0</ele>
        <time>2019-01-27T08:01:02-02:00</time>
      </trkpt>
      <trkpt lat="-21.550985" lon="-48.794670329999995">
        <ele>433.0</ele>
        <time>2019-01-27T08:01:03-02:00</time>
      </trkpt>
      <trkpt lat="-21.551004999999996" lon="-48.79466900000001">
        <ele>433.0</ele>
        <time>2019-01-27T08:01:04-02:00</time>
      </trkpt>
      <trkpt lat="-21.551033330000003" lon="-48.794668660000006">
        <ele>432.0</ele>
        <time>2019-01-27T08:01:05-02:00</time>
      </trkpt>
      <trkpt lat="-21.55105833" lon="-48.794667">
        <ele>432.0</ele>
        <time>2019-01-27T08:01:06-02:00</time>
      </trkpt>
      <trkpt lat="-21.551081660000005" lon="-48.79466766">
        <ele>432.0</ele>
        <time>2019-01-27T08:01:07-02:00</time>
      </trkpt>
      <trkpt lat="-21.55110333" lon="-48.79466833">
        <ele>432.0</ele>
        <time>2019-01-27T08:01:08-02:00</time>
      </trkpt>
      <trkpt lat="-21.551125000000003" lon="-48.79466733">
        <ele>432.0</ele>
        <time>2019-01-27T08:01:09-02:00</time>
      </trkpt>
      <trkpt lat="-21.551148330000007" lon="-48.79466566000001">
        <ele>432.0</ele>
        <time>2019-01-27T08:01:10-02:00</time>
      </trkpt>
      <trkpt lat="-21.55117166" lon="-48.79466466">
        <ele>432.0</ele>
        <time>2019-01-27T08:01:11-02:00</time>
      </trkpt>
      <trkpt lat="-21.55119666" lon="-48.794663660000005">
        <ele>432.0</ele>
        <time>2019-01-27T08:01:12-02:00</time>
      </trkpt>
      <trkpt lat="-21.551220000000004" lon="-48.79466233">
        <ele>432.0</ele>
        <time>2019-01-27T08:01:13-02:00</time>
      </trkpt>
      <trkpt lat="-21.551243330000002" lon="-48.79466166">
        <ele>432.0</ele>
        <time>2019-01-27T08:01:14-02:00</time>
      </trkpt>
      <trkpt lat="-21.55126833" lon="-48.79466066000001">
        <ele>432.0</ele>
        <time>2019-01-27T08:01:15-02:00</time>
      </trkpt>
      <trkpt lat="-21.55129166" lon="-48.79465766000001">
        <ele>432.0</ele>
        <time>2019-01-27T08:01:16-02:00</time>
      </trkpt>
      <trkpt lat="-21.551315" lon="-48.79465466">
        <ele>432.0</ele>
        <time>2019-01-27T08:01:17-02:00</time>
      </trkpt>
      <trkpt lat="-21.551335" lon="-48.79465233">
        <ele>432.0</ele>
        <time>2019-01-27T08:01:18-02:00</time>
      </trkpt>
      <trkpt lat="-21.55135833" lon="-48.794649660000005">
        <ele>431.0</ele>
        <time>2019-01-27T08:01:19-02:00</time>
      </trkpt>
      <trkpt lat="-21.55138166" lon="-48.794647000000005">
        <ele>431.0</ele>
        <time>2019-01-27T08:01:20-02:00</time>
      </trkpt>
      <trkpt lat="-21.551405" lon="-48.79464433">
        <ele>431.0</ele>
        <time>2019-01-27T08:01:21-02:00</time>
      </trkpt>
      <trkpt lat="-21.551431660000002" lon="-48.79464133">
        <ele>431.0</ele>
        <time>2019-01-27T08:01:22-02:00</time>
      </trkpt>
      <trkpt lat="-21.551454999999997" lon="-48.79463866">
        <ele>431.0</ele>
        <time>2019-01-27T08:01:23-02:00</time>
      </trkpt>
      <trkpt lat="-21.55148" lon="-48.794635660000004">
        <ele>431.0</ele>
        <time>2019-01-27T08:01:24-02:00</time>
      </trkpt>
      <trkpt lat="-21.551501660000003" lon="-48.794631329999994">
        <ele>431.0</ele>
        <time>2019-01-27T08:01:25-02:00</time>
      </trkpt>
      <trkpt lat="-21.551528330000004" lon="-48.794628329999995">
        <ele>431.0</ele>
        <time>2019-01-27T08:01:26-02:00</time>
      </trkpt>
      <trkpt lat="-21.551551660000005" lon="-48.794626">
        <ele>431.0</ele>
        <time>2019-01-27T08:01:27-02:00</time>
      </trkpt>
      <trkpt lat="-21.551576660000002" lon="-48.79462132999999">
        <ele>431.0</ele>
        <time>2019-01-27T08:01:28-02:00</time>
      </trkpt>
      <trkpt lat="-21.55159833" lon="-48.79461966000001">
        <ele>431.0</ele>
        <time>2019-01-27T08:01:29-02:00</time>
      </trkpt>
      <trkpt lat="-21.551618330000004" lon="-48.79461533">
        <ele>431.0</ele>
        <time>2019-01-27T08:01:30-02:00</time>
      </trkpt>
      <trkpt lat="-21.55163666" lon="-48.79461366">
        <ele>431.0</ele>
        <time>2019-01-27T08:01:31-02:00</time>
      </trkpt>
      <trkpt lat="-21.551658330000002" lon="-48.794611329999995">
        <ele>431.0</ele>
        <time>2019-01-27T08:01:32-02:00</time>
      </trkpt>
      <trkpt lat="-21.551678330000005" lon="-48.79460733">
        <ele>431.0</ele>
        <time>2019-01-27T08:01:33-02:00</time>
      </trkpt>
      <trkpt lat="-21.5517" lon="-48.79460499999999">
        <ele>431.0</ele>
        <time>2019-01-27T08:01:34-02:00</time>
      </trkpt>
      <trkpt lat="-21.551724999999998" lon="-48.79460233">
        <ele>430.0</ele>
        <time>2019-01-27T08:01:35-02:00</time>
      </trkpt>
      <trkpt lat="-21.551773330000007" lon="-48.79459766000001">
        <ele>430.0</ele>
        <time>2019-01-27T08:01:36-02:00</time>
      </trkpt>
      <trkpt lat="-21.551798330000004" lon="-48.794595">
        <ele>430.0</ele>
        <time>2019-01-27T08:01:37-02:00</time>
      </trkpt>
      <trkpt lat="-21.55182" lon="-48.794593000000006">
        <ele>430.0</ele>
        <time>2019-01-27T08:01:38-02:00</time>
      </trkpt>
      <trkpt lat="-21.551843330000004" lon="-48.794590660000004">
        <ele>430.0</ele>
        <time>2019-01-27T08:01:39-02:00</time>
      </trkpt>
      <trkpt lat="-21.551865" lon="-48.794588000000005">
        <ele>430.0</ele>
        <time>2019-01-27T08:01:40-02:00</time>
      </trkpt>
      <trkpt lat="-21.55188666" lon="-48.794585999999995">
        <ele>430.0</ele>
        <time>2019-01-27T08:01:41-02:00</time>
      </trkpt>
      <trkpt lat="-21.55191" lon="-48.794583329999995">
        <ele>430.0</ele>
        <time>2019-01-27T08:01:42-02:00</time>
      </trkpt>
      <trkpt lat="-21.55193166" lon="-48.79458066000001">
        <ele>430.0</ele>
        <time>2019-01-27T08:01:43-02:00</time>
      </trkpt>
      <trkpt lat="-21.551955" lon="-48.79457799999999">
        <ele>430.0</ele>
        <time>2019-01-27T08:01:44-02:00</time>
      </trkpt>
      <trkpt lat="-21.551976660000005" lon="-48.79457533">
        <ele>430.0</ele>
        <time>2019-01-27T08:01:45-02:00</time>
      </trkpt>
      <trkpt lat="-21.552001660000002" lon="-48.79457233">
        <ele>430.0</ele>
        <time>2019-01-27T08:01:46-02:00</time>
      </trkpt>
      <trkpt lat="-21.552023330000004" lon="-48.794572">
        <ele>430.0</ele>
        <time>2019-01-27T08:01:47-02:00</time>
      </trkpt>
      <trkpt lat="-21.55204833" lon="-48.794569">
        <ele>430.0</ele>
        <time>2019-01-27T08:01:48-02:00</time>
      </trkpt>
      <trkpt lat="-21.552071660000003" lon="-48.794566329999995">
        <ele>430.0</ele>
        <time>2019-01-27T08:01:49-02:00</time>
      </trkpt>
      <trkpt lat="-21.552095" lon="-48.79456366000001">
        <ele>430.0</ele>
        <time>2019-01-27T08:01:50-02:00</time>
      </trkpt>
      <trkpt lat="-21.552116660000003" lon="-48.79456133">
        <ele>430.0</ele>
        <time>2019-01-27T08:01:51-02:00</time>
      </trkpt>
      <trkpt lat="-21.552138330000002" lon="-48.79455866">
        <ele>430.0</ele>
        <time>2019-01-27T08:01:52-02:00</time>
      </trkpt>
      <trkpt lat="-21.552161660000003" lon="-48.79455632999999">
        <ele>430.0</ele>
        <time>2019-01-27T08:01:53-02:00</time>
      </trkpt>
      <trkpt lat="-21.55218333" lon="-48.79455599999999">
        <ele>430.0</ele>
        <time>2019-01-27T08:01:54-02:00</time>
      </trkpt>
      <trkpt lat="-21.552204999999997" lon="-48.79455333">
        <ele>430.0</ele>
        <time>2019-01-27T08:01:55-02:00</time>
      </trkpt>
      <trkpt lat="-21.552228330000002" lon="-48.794550660000006">
        <ele>430.0</ele>
        <time>2019-01-27T08:01:56-02:00</time>
      </trkpt>
      <trkpt lat="-21.552251660000003" lon="-48.794548">
        <ele>430.0</ele>
        <time>2019-01-27T08:01:57-02:00</time>
      </trkpt>
      <trkpt lat="-21.552275" lon="-48.794545660000004">
        <ele>430.0</ele>
        <time>2019-01-27T08:01:58-02:00</time>
      </trkpt>
      <trkpt lat="-21.552295000000004" lon="-48.794543329999996">
        <ele>430.0</ele>
        <time>2019-01-27T08:01:59-02:00</time>
      </trkpt>
      <trkpt lat="-21.55232" lon="-48.794540330000004">
        <ele>430.0</ele>
        <time>2019-01-27T08:02:00-02:00</time>
      </trkpt>
      <trkpt lat="-21.55234333" lon="-48.79453766">
        <ele>430.0</ele>
        <time>2019-01-27T08:02:01-02:00</time>
      </trkpt>
      <trkpt lat="-21.55236666" lon="-48.794534999999996">
        <ele>430.0</ele>
        <time>2019-01-27T08:02:02-02:00</time>
      </trkpt>
      <trkpt lat="-21.552388330000003" lon="-48.794532660000016">
        <ele>430.0</ele>
        <time>2019-01-27T08:02:03-02:00</time>
      </trkpt>
      <trkpt lat="-21.552413330000004" lon="-48.794529999999995">
        <ele>430.0</ele>
        <time>2019-01-27T08:02:04-02:00</time>
      </trkpt>
      <trkpt lat="-21.552436659999998" lon="-48.79452766000001">
        <ele>430.0</ele>
        <time>2019-01-27T08:02:05-02:00</time>
      </trkpt>
      <trkpt lat="-21.552460000000004" lon="-48.79452500000001">
        <ele>430.0</ele>
        <time>2019-01-27T08:02:06-02:00</time>
      </trkpt>
      <trkpt lat="-21.55248333" lon="-48.79452266">
        <ele>430.0</ele>
        <time>2019-01-27T08:02:07-02:00</time>
      </trkpt>
      <trkpt lat="-21.552504999999996" lon="-48.79452066">
        <ele>430.0</ele>
        <time>2019-01-27T08:02:08-02:00</time>
      </trkpt>
      <trkpt lat="-21.55252833" lon="-48.79451866000001">
        <ele>430.0</ele>
        <time>2019-01-27T08:02:09-02:00</time>
      </trkpt>
      <trkpt lat="-21.552550000000004" lon="-48.79451633">
        <ele>430.0</ele>
        <time>2019-01-27T08:02:10-02:00</time>
      </trkpt>
      <trkpt lat="-21.552571660000005" lon="-48.794514">
        <ele>430.0</ele>
        <time>2019-01-27T08:02:11-02:00</time>
      </trkpt>
      <trkpt lat="-21.55259333" lon="-48.794514330000005">
        <ele>430.0</ele>
        <time>2019-01-27T08:02:12-02:00</time>
      </trkpt>
      <trkpt lat="-21.55261833" lon="-48.794512000000005">
        <ele>430.0</ele>
        <time>2019-01-27T08:02:13-02:00</time>
      </trkpt>
      <trkpt lat="-21.55264166" lon="-48.794509659999996">
        <ele>430.0</ele>
        <time>2019-01-27T08:02:14-02:00</time>
      </trkpt>
      <trkpt lat="-21.552665" lon="-48.79450733">
        <ele>430.0</ele>
        <time>2019-01-27T08:02:15-02:00</time>
      </trkpt>
      <trkpt lat="-21.552688330000002" lon="-48.79450533000001">
        <ele>430.0</ele>
        <time>2019-01-27T08:02:16-02:00</time>
      </trkpt>
      <trkpt lat="-21.55271166" lon="-48.794503">
        <ele>430.0</ele>
        <time>2019-01-27T08:02:17-02:00</time>
      </trkpt>
      <trkpt lat="-21.552735000000002" lon="-48.794501000000004">
        <ele>430.0</ele>
        <time>2019-01-27T08:02:18-02:00</time>
      </trkpt>
      <trkpt lat="-21.552756660000007" lon="-48.79450132999999">
        <ele>430.0</ele>
        <time>2019-01-27T08:02:19-02:00</time>
      </trkpt>
      <trkpt lat="-21.55278166" lon="-48.79449866000001">
        <ele>430.0</ele>
        <time>2019-01-27T08:02:20-02:00</time>
      </trkpt>
      <trkpt lat="-21.55280333" lon="-48.79449666000001">
        <ele>430.0</ele>
        <time>2019-01-27T08:02:21-02:00</time>
      </trkpt>
      <trkpt lat="-21.55282666" lon="-48.79449666000001">
        <ele>430.0</ele>
        <time>2019-01-27T08:02:22-02:00</time>
      </trkpt>
      <trkpt lat="-21.55285" lon="-48.79449466">
        <ele>430.0</ele>
        <time>2019-01-27T08:02:23-02:00</time>
      </trkpt>
      <trkpt lat="-21.552873330000004" lon="-48.79449466">
        <ele>430.0</ele>
        <time>2019-01-27T08:02:24-02:00</time>
      </trkpt>
      <trkpt lat="-21.552895" lon="-48.79449266">
        <ele>430.0</ele>
        <time>2019-01-27T08:02:25-02:00</time>
      </trkpt>
      <trkpt lat="-21.552918330000004" lon="-48.79449266">
        <ele>429.0</ele>
        <time>2019-01-27T08:02:26-02:00</time>
      </trkpt>
      <trkpt lat="-21.552941660000005" lon="-48.794493">
        <ele>429.0</ele>
        <time>2019-01-27T08:02:27-02:00</time>
      </trkpt>
      <trkpt lat="-21.552963330000004" lon="-48.794491">
        <ele>429.0</ele>
        <time>2019-01-27T08:02:28-02:00</time>
      </trkpt>
      <trkpt lat="-21.552986660000002" lon="-48.794491">
        <ele>429.0</ele>
        <time>2019-01-27T08:02:29-02:00</time>
      </trkpt>
      <trkpt lat="-21.553008330000004" lon="-48.79448933">
        <ele>429.0</ele>
        <time>2019-01-27T08:02:30-02:00</time>
      </trkpt>
      <trkpt lat="-21.55303" lon="-48.794489659999996">
        <ele>429.0</ele>
        <time>2019-01-27T08:02:31-02:00</time>
      </trkpt>
      <trkpt lat="-21.553053330000004" lon="-48.794488">
        <ele>429.0</ele>
        <time>2019-01-27T08:02:32-02:00</time>
      </trkpt>
      <trkpt lat="-21.553075" lon="-48.794488660000006">
        <ele>428.0</ele>
        <time>2019-01-27T08:02:33-02:00</time>
      </trkpt>
      <trkpt lat="-21.55309666" lon="-48.794487">
        <ele>428.0</ele>
        <time>2019-01-27T08:02:34-02:00</time>
      </trkpt>
      <trkpt lat="-21.553116660000008" lon="-48.79448766">
        <ele>428.0</ele>
        <time>2019-01-27T08:02:35-02:00</time>
      </trkpt>
      <trkpt lat="-21.55314" lon="-48.79448599999999">
        <ele>428.0</ele>
        <time>2019-01-27T08:02:36-02:00</time>
      </trkpt>
      <trkpt lat="-21.55316166" lon="-48.794485">
        <ele>428.0</ele>
        <time>2019-01-27T08:02:37-02:00</time>
      </trkpt>
      <trkpt lat="-21.55318666" lon="-48.79448533">
        <ele>428.0</ele>
        <time>2019-01-27T08:02:38-02:00</time>
      </trkpt>
      <trkpt lat="-21.55320833" lon="-48.794484">
        <ele>428.0</ele>
        <time>2019-01-27T08:02:39-02:00</time>
      </trkpt>
      <trkpt lat="-21.55323166" lon="-48.79448466">
        <ele>428.0</ele>
        <time>2019-01-27T08:02:40-02:00</time>
      </trkpt>
      <trkpt lat="-21.553253329999997" lon="-48.79448533">
        <ele>428.0</ele>
        <time>2019-01-27T08:02:41-02:00</time>
      </trkpt>
      <trkpt lat="-21.553278330000005" lon="-48.794484329999996">
        <ele>428.0</ele>
        <time>2019-01-27T08:02:42-02:00</time>
      </trkpt>
      <trkpt lat="-21.553301660000006" lon="-48.794485">
        <ele>428.0</ele>
        <time>2019-01-27T08:02:43-02:00</time>
      </trkpt>
      <trkpt lat="-21.553326660000003" lon="-48.79448599999999">
        <ele>428.0</ele>
        <time>2019-01-27T08:02:44-02:00</time>
      </trkpt>
      <trkpt lat="-21.553351660000004" lon="-48.794487329999995">
        <ele>428.0</ele>
        <time>2019-01-27T08:02:45-02:00</time>
      </trkpt>
      <trkpt lat="-21.553375" lon="-48.79448633">
        <ele>428.0</ele>
        <time>2019-01-27T08:02:46-02:00</time>
      </trkpt>
      <trkpt lat="-21.553400000000003" lon="-48.79448766">
        <ele>428.0</ele>
        <time>2019-01-27T08:02:47-02:00</time>
      </trkpt>
      <trkpt lat="-21.553421659999998" lon="-48.79448933">
        <ele>428.0</ele>
        <time>2019-01-27T08:02:48-02:00</time>
      </trkpt>
      <trkpt lat="-21.55344333" lon="-48.79449066">
        <ele>428.0</ele>
        <time>2019-01-27T08:02:49-02:00</time>
      </trkpt>
      <trkpt lat="-21.553466660000005" lon="-48.794492330000004">
        <ele>427.0</ele>
        <time>2019-01-27T08:02:50-02:00</time>
      </trkpt>
      <trkpt lat="-21.553489999999996" lon="-48.794494">
        <ele>427.0</ele>
        <time>2019-01-27T08:02:51-02:00</time>
      </trkpt>
      <trkpt lat="-21.55351333" lon="-48.79449366">
        <ele>427.0</ele>
        <time>2019-01-27T08:02:52-02:00</time>
      </trkpt>
      <trkpt lat="-21.55353666" lon="-48.79449566">
        <ele>427.0</ele>
        <time>2019-01-27T08:02:53-02:00</time>
      </trkpt>
      <trkpt lat="-21.55356" lon="-48.794497660000005">
        <ele>427.0</ele>
        <time>2019-01-27T08:02:54-02:00</time>
      </trkpt>
      <trkpt lat="-21.553583330000002" lon="-48.79449933000001">
        <ele>427.0</ele>
        <time>2019-01-27T08:02:55-02:00</time>
      </trkpt>
      <trkpt lat="-21.55360666" lon="-48.79450166">
        <ele>427.0</ele>
        <time>2019-01-27T08:02:56-02:00</time>
      </trkpt>
      <trkpt lat="-21.55363" lon="-48.79450366">
        <ele>427.0</ele>
        <time>2019-01-27T08:02:57-02:00</time>
      </trkpt>
      <trkpt lat="-21.553651660000007" lon="-48.79450599999999">
        <ele>427.0</ele>
        <time>2019-01-27T08:02:58-02:00</time>
      </trkpt>
      <trkpt lat="-21.553675" lon="-48.79450632999998">
        <ele>426.0</ele>
        <time>2019-01-27T08:02:59-02:00</time>
      </trkpt>
      <trkpt lat="-21.553698330000003" lon="-48.794511">
        <ele>426.0</ele>
        <time>2019-01-27T08:03:00-02:00</time>
      </trkpt>
      <trkpt lat="-21.553720000000006" lon="-48.79451366">
        <ele>426.0</ele>
        <time>2019-01-27T08:03:01-02:00</time>
      </trkpt>
      <trkpt lat="-21.553745000000003" lon="-48.79451633">
        <ele>426.0</ele>
        <time>2019-01-27T08:03:02-02:00</time>
      </trkpt>
      <trkpt lat="-21.553768329999997" lon="-48.794521329999995">
        <ele>426.0</ele>
        <time>2019-01-27T08:03:03-02:00</time>
      </trkpt>
      <trkpt lat="-21.55379166" lon="-48.794524">
        <ele>426.0</ele>
        <time>2019-01-27T08:03:04-02:00</time>
      </trkpt>
      <trkpt lat="-21.553815" lon="-48.79452733">
        <ele>426.0</ele>
        <time>2019-01-27T08:03:05-02:00</time>
      </trkpt>
      <trkpt lat="-21.55384" lon="-48.79453299999999">
        <ele>426.0</ele>
        <time>2019-01-27T08:03:06-02:00</time>
      </trkpt>
      <trkpt lat="-21.55386333" lon="-48.794536">
        <ele>426.0</ele>
        <time>2019-01-27T08:03:07-02:00</time>
      </trkpt>
      <trkpt lat="-21.553886659999996" lon="-48.794539">
        <ele>426.0</ele>
        <time>2019-01-27T08:03:08-02:00</time>
      </trkpt>
      <trkpt lat="-21.553910000000002" lon="-48.794542660000005">
        <ele>426.0</ele>
        <time>2019-01-27T08:03:09-02:00</time>
      </trkpt>
      <trkpt lat="-21.553935000000003" lon="-48.79454599999999">
        <ele>425.0</ele>
        <time>2019-01-27T08:03:10-02:00</time>
      </trkpt>
      <trkpt lat="-21.553959999999996" lon="-48.79454966">
        <ele>425.0</ele>
        <time>2019-01-27T08:03:11-02:00</time>
      </trkpt>
      <trkpt lat="-21.55398333" lon="-48.79455299999999">
        <ele>425.0</ele>
        <time>2019-01-27T08:03:12-02:00</time>
      </trkpt>
      <trkpt lat="-21.554004999999997" lon="-48.794559">
        <ele>425.0</ele>
        <time>2019-01-27T08:03:13-02:00</time>
      </trkpt>
      <trkpt lat="-21.554029999999997" lon="-48.794560329999996">
        <ele>425.0</ele>
        <time>2019-01-27T08:03:14-02:00</time>
      </trkpt>
      <trkpt lat="-21.554053330000002" lon="-48.794564">
        <ele>425.0</ele>
        <time>2019-01-27T08:03:15-02:00</time>
      </trkpt>
      <trkpt lat="-21.55407666" lon="-48.79456766000001">
        <ele>425.0</ele>
        <time>2019-01-27T08:03:16-02:00</time>
      </trkpt>
      <trkpt lat="-21.554101660000008" lon="-48.79457166">
        <ele>425.0</ele>
        <time>2019-01-27T08:03:17-02:00</time>
      </trkpt>
      <trkpt lat="-21.554125" lon="-48.79457533">
        <ele>425.0</ele>
        <time>2019-01-27T08:03:18-02:00</time>
      </trkpt>
      <trkpt lat="-21.554148330000004" lon="-48.79457733">
        <ele>425.0</ele>
        <time>2019-01-27T08:03:19-02:00</time>
      </trkpt>
      <trkpt lat="-21.55417166" lon="-48.79458132999999">
        <ele>425.0</ele>
        <time>2019-01-27T08:03:20-02:00</time>
      </trkpt>
      <trkpt lat="-21.554195" lon="-48.79458566">
        <ele>425.0</ele>
        <time>2019-01-27T08:03:21-02:00</time>
      </trkpt>
      <trkpt lat="-21.55422" lon="-48.79459000000001">
        <ele>425.0</ele>
        <time>2019-01-27T08:03:22-02:00</time>
      </trkpt>
      <trkpt lat="-21.55424333" lon="-48.794592">
        <ele>425.0</ele>
        <time>2019-01-27T08:03:23-02:00</time>
      </trkpt>
      <trkpt lat="-21.55426833" lon="-48.794597">
        <ele>425.0</ele>
        <time>2019-01-27T08:03:24-02:00</time>
      </trkpt>
      <trkpt lat="-21.55429" lon="-48.794599">
        <ele>425.0</ele>
        <time>2019-01-27T08:03:25-02:00</time>
      </trkpt>
      <trkpt lat="-21.554314999999995" lon="-48.794603660000014">
        <ele>425.0</ele>
        <time>2019-01-27T08:03:26-02:00</time>
      </trkpt>
      <trkpt lat="-21.55433833" lon="-48.794605999999995">
        <ele>424.0</ele>
        <time>2019-01-27T08:03:27-02:00</time>
      </trkpt>
      <trkpt lat="-21.55436333" lon="-48.79460866000001">
        <ele>424.0</ele>
        <time>2019-01-27T08:03:28-02:00</time>
      </trkpt>
      <trkpt lat="-21.55438666" lon="-48.794610999999996">
        <ele>424.0</ele>
        <time>2019-01-27T08:03:29-02:00</time>
      </trkpt>
      <trkpt lat="-21.554409999999997" lon="-48.79461533">
        <ele>424.0</ele>
        <time>2019-01-27T08:03:30-02:00</time>
      </trkpt>
      <trkpt lat="-21.554433330000002" lon="-48.79461766000001">
        <ele>424.0</ele>
        <time>2019-01-27T08:03:31-02:00</time>
      </trkpt>
      <trkpt lat="-21.554456660000007" lon="-48.79462">
        <ele>424.0</ele>
        <time>2019-01-27T08:03:32-02:00</time>
      </trkpt>
      <trkpt lat="-21.55448166" lon="-48.794623">
        <ele>424.0</ele>
        <time>2019-01-27T08:03:33-02:00</time>
      </trkpt>
      <trkpt lat="-21.554503329999996" lon="-48.794624999999996">
        <ele>424.0</ele>
        <time>2019-01-27T08:03:34-02:00</time>
      </trkpt>
      <trkpt lat="-21.554528330000004" lon="-48.794625329999995">
        <ele>424.0</ele>
        <time>2019-01-27T08:03:35-02:00</time>
      </trkpt>
      <trkpt lat="-21.55455166000001" lon="-48.79462766000002">
        <ele>424.0</ele>
        <time>2019-01-27T08:03:36-02:00</time>
      </trkpt>
      <trkpt lat="-21.554575" lon="-48.79462966">
        <ele>424.0</ele>
        <time>2019-01-27T08:03:37-02:00</time>
      </trkpt>
      <trkpt lat="-21.554598329999997" lon="-48.794632">
        <ele>424.0</ele>
        <time>2019-01-27T08:03:38-02:00</time>
      </trkpt>
      <trkpt lat="-21.554621660000002" lon="-48.794634329999994">
        <ele>423.0</ele>
        <time>2019-01-27T08:03:39-02:00</time>
      </trkpt>
      <trkpt lat="-21.554645" lon="-48.794634329999994">
        <ele>423.0</ele>
        <time>2019-01-27T08:03:40-02:00</time>
      </trkpt>
      <trkpt lat="-21.55466833" lon="-48.79463666">
        <ele>423.0</ele>
        <time>2019-01-27T08:03:41-02:00</time>
      </trkpt>
      <trkpt lat="-21.554691660000003" lon="-48.79463933">
        <ele>423.0</ele>
        <time>2019-01-27T08:03:42-02:00</time>
      </trkpt>
      <trkpt lat="-21.554715" lon="-48.79463933">
        <ele>423.0</ele>
        <time>2019-01-27T08:03:43-02:00</time>
      </trkpt>
      <trkpt lat="-21.55474" lon="-48.794642">
        <ele>423.0</ele>
        <time>2019-01-27T08:03:44-02:00</time>
      </trkpt>
      <trkpt lat="-21.55476333" lon="-48.794642">
        <ele>423.0</ele>
        <time>2019-01-27T08:03:45-02:00</time>
      </trkpt>
      <trkpt lat="-21.554786659999998" lon="-48.79464433">
        <ele>423.0</ele>
        <time>2019-01-27T08:03:46-02:00</time>
      </trkpt>
      <trkpt lat="-21.554810000000003" lon="-48.794644000000005">
        <ele>423.0</ele>
        <time>2019-01-27T08:03:47-02:00</time>
      </trkpt>
      <trkpt lat="-21.554831660000005" lon="-48.79464632999999">
        <ele>423.0</ele>
        <time>2019-01-27T08:03:48-02:00</time>
      </trkpt>
      <trkpt lat="-21.554856660000002" lon="-48.79464599999999">
        <ele>422.0</ele>
        <time>2019-01-27T08:03:49-02:00</time>
      </trkpt>
      <trkpt lat="-21.55487833" lon="-48.794647999999995">
        <ele>422.0</ele>
        <time>2019-01-27T08:03:50-02:00</time>
      </trkpt>
      <trkpt lat="-21.554901660000006" lon="-48.794650329999996">
        <ele>422.0</ele>
        <time>2019-01-27T08:03:51-02:00</time>
      </trkpt>
      <trkpt lat="-21.554924999999997" lon="-48.794650000000004">
        <ele>422.0</ele>
        <time>2019-01-27T08:03:52-02:00</time>
      </trkpt>
      <trkpt lat="-21.554948330000002" lon="-48.794652000000006">
        <ele>422.0</ele>
        <time>2019-01-27T08:03:53-02:00</time>
      </trkpt>
      <trkpt lat="-21.554973330000003" lon="-48.794654">
        <ele>422.0</ele>
        <time>2019-01-27T08:03:54-02:00</time>
      </trkpt>
      <trkpt lat="-21.554998330000004" lon="-48.79465632999999">
        <ele>422.0</ele>
        <time>2019-01-27T08:03:55-02:00</time>
      </trkpt>
      <trkpt lat="-21.55502166" lon="-48.79465832999999">
        <ele>422.0</ele>
        <time>2019-01-27T08:03:56-02:00</time>
      </trkpt>
      <trkpt lat="-21.555043329999997" lon="-48.79466033">
        <ele>422.0</ele>
        <time>2019-01-27T08:03:57-02:00</time>
      </trkpt>
      <trkpt lat="-21.55506666" lon="-48.79466233">
        <ele>422.0</ele>
        <time>2019-01-27T08:03:58-02:00</time>
      </trkpt>
      <trkpt lat="-21.555088330000004" lon="-48.79466233">
        <ele>422.0</ele>
        <time>2019-01-27T08:03:59-02:00</time>
      </trkpt>
      <trkpt lat="-21.55511333" lon="-48.794664329999996">
        <ele>421.0</ele>
        <time>2019-01-27T08:04:00-02:00</time>
      </trkpt>
      <trkpt lat="-21.55513833" lon="-48.79466632999999">
        <ele>421.0</ele>
        <time>2019-01-27T08:04:01-02:00</time>
      </trkpt>
      <trkpt lat="-21.555161660000003" lon="-48.794668">
        <ele>421.0</ele>
        <time>2019-01-27T08:04:02-02:00</time>
      </trkpt>
      <trkpt lat="-21.555185" lon="-48.794669999999996">
        <ele>421.0</ele>
        <time>2019-01-27T08:04:03-02:00</time>
      </trkpt>
      <trkpt lat="-21.55520833" lon="-48.794672000000006">
        <ele>421.0</ele>
        <time>2019-01-27T08:04:04-02:00</time>
      </trkpt>
      <trkpt lat="-21.555231659999997" lon="-48.794671660000006">
        <ele>421.0</ele>
        <time>2019-01-27T08:04:05-02:00</time>
      </trkpt>
      <trkpt lat="-21.555254999999995" lon="-48.79467366000001">
        <ele>421.0</ele>
        <time>2019-01-27T08:04:06-02:00</time>
      </trkpt>
      <trkpt lat="-21.55528" lon="-48.794675999999995">
        <ele>421.0</ele>
        <time>2019-01-27T08:04:07-02:00</time>
      </trkpt>
      <trkpt lat="-21.555304999999997" lon="-48.794678329999996">
        <ele>421.0</ele>
        <time>2019-01-27T08:04:08-02:00</time>
      </trkpt>
      <trkpt lat="-21.555328330000002" lon="-48.79468032999999">
        <ele>421.0</ele>
        <time>2019-01-27T08:04:09-02:00</time>
      </trkpt>
      <trkpt lat="-21.555351660000007" lon="-48.79468232999999">
        <ele>420.0</ele>
        <time>2019-01-27T08:04:10-02:00</time>
      </trkpt>
      <trkpt lat="-21.55537666" lon="-48.79468433">
        <ele>420.0</ele>
        <time>2019-01-27T08:04:11-02:00</time>
      </trkpt>
      <trkpt lat="-21.5554" lon="-48.79468833">
        <ele>420.0</ele>
        <time>2019-01-27T08:04:12-02:00</time>
      </trkpt>
      <trkpt lat="-21.55542166" lon="-48.79469">
        <ele>420.0</ele>
        <time>2019-01-27T08:04:13-02:00</time>
      </trkpt>
      <trkpt lat="-21.55544666" lon="-48.79469233000001">
        <ele>420.0</ele>
        <time>2019-01-27T08:04:14-02:00</time>
      </trkpt>
      <trkpt lat="-21.55547" lon="-48.794694330000006">
        <ele>420.0</ele>
        <time>2019-01-27T08:04:15-02:00</time>
      </trkpt>
      <trkpt lat="-21.555493329999997" lon="-48.794698">
        <ele>420.0</ele>
        <time>2019-01-27T08:04:16-02:00</time>
      </trkpt>
      <trkpt lat="-21.555516660000002" lon="-48.79469999999999">
        <ele>420.0</ele>
        <time>2019-01-27T08:04:17-02:00</time>
      </trkpt>
      <trkpt lat="-21.555541660000003" lon="-48.79470233">
        <ele>420.0</ele>
        <time>2019-01-27T08:04:18-02:00</time>
      </trkpt>
      <trkpt lat="-21.555564999999994" lon="-48.79470666">
        <ele>420.0</ele>
        <time>2019-01-27T08:04:19-02:00</time>
      </trkpt>
      <trkpt lat="-21.55558833" lon="-48.794708660000005">
        <ele>420.0</ele>
        <time>2019-01-27T08:04:20-02:00</time>
      </trkpt>
      <trkpt lat="-21.555611660000004" lon="-48.79471066">
        <ele>420.0</ele>
        <time>2019-01-27T08:04:21-02:00</time>
      </trkpt>
      <trkpt lat="-21.555636659999998" lon="-48.794713">
        <ele>420.0</ele>
        <time>2019-01-27T08:04:22-02:00</time>
      </trkpt>
      <trkpt lat="-21.555659999999996" lon="-48.79471466">
        <ele>420.0</ele>
        <time>2019-01-27T08:04:23-02:00</time>
      </trkpt>
      <trkpt lat="-21.55568333" lon="-48.794719">
        <ele>420.0</ele>
        <time>2019-01-27T08:04:24-02:00</time>
      </trkpt>
      <trkpt lat="-21.555706660000006" lon="-48.794720999999996">
        <ele>420.0</ele>
        <time>2019-01-27T08:04:25-02:00</time>
      </trkpt>
      <trkpt lat="-21.555725" lon="-48.794722660000005">
        <ele>419.0</ele>
        <time>2019-01-27T08:04:26-02:00</time>
      </trkpt>
      <trkpt lat="-21.555753329999998" lon="-48.794725">
        <ele>419.0</ele>
        <time>2019-01-27T08:04:27-02:00</time>
      </trkpt>
      <trkpt lat="-21.555775000000004" lon="-48.794726659999995">
        <ele>419.0</ele>
        <time>2019-01-27T08:04:28-02:00</time>
      </trkpt>
      <trkpt lat="-21.555798330000002" lon="-48.79472866000001">
        <ele>419.0</ele>
        <time>2019-01-27T08:04:29-02:00</time>
      </trkpt>
      <trkpt lat="-21.555823330000003" lon="-48.794730660000006">
        <ele>419.0</ele>
        <time>2019-01-27T08:04:30-02:00</time>
      </trkpt>
      <trkpt lat="-21.555846660000004" lon="-48.79473266000001">
        <ele>419.0</ele>
        <time>2019-01-27T08:04:31-02:00</time>
      </trkpt>
      <trkpt lat="-21.55587166" lon="-48.79473433">
        <ele>419.0</ele>
        <time>2019-01-27T08:04:32-02:00</time>
      </trkpt>
      <trkpt lat="-21.555893329999996" lon="-48.794734000000005">
        <ele>419.0</ele>
        <time>2019-01-27T08:04:33-02:00</time>
      </trkpt>
      <trkpt lat="-21.55591666" lon="-48.79473599999999">
        <ele>419.0</ele>
        <time>2019-01-27T08:04:34-02:00</time>
      </trkpt>
      <trkpt lat="-21.55594" lon="-48.794737999999995">
        <ele>419.0</ele>
        <time>2019-01-27T08:04:35-02:00</time>
      </trkpt>
      <trkpt lat="-21.555963330000004" lon="-48.794740000000004">
        <ele>419.0</ele>
        <time>2019-01-27T08:04:36-02:00</time>
      </trkpt>
      <trkpt lat="-21.555986660000002" lon="-48.79474200000001">
        <ele>419.0</ele>
        <time>2019-01-27T08:04:37-02:00</time>
      </trkpt>
      <trkpt lat="-21.55601" lon="-48.79474166">
        <ele>419.0</ele>
        <time>2019-01-27T08:04:38-02:00</time>
      </trkpt>
      <trkpt lat="-21.556033329999998" lon="-48.79474366000001">
        <ele>419.0</ele>
        <time>2019-01-27T08:04:39-02:00</time>
      </trkpt>
      <trkpt lat="-21.556058330000003" lon="-48.794745660000004">
        <ele>419.0</ele>
        <time>2019-01-27T08:04:40-02:00</time>
      </trkpt>
      <trkpt lat="-21.55608333" lon="-48.79474766000001">
        <ele>419.0</ele>
        <time>2019-01-27T08:04:41-02:00</time>
      </trkpt>
      <trkpt lat="-21.55610666" lon="-48.79474766000001">
        <ele>419.0</ele>
        <time>2019-01-27T08:04:42-02:00</time>
      </trkpt>
      <trkpt lat="-21.55613333" lon="-48.794749659999994">
        <ele>419.0</ele>
        <time>2019-01-27T08:04:43-02:00</time>
      </trkpt>
      <trkpt lat="-21.556156660000003" lon="-48.79475166">
        <ele>419.0</ele>
        <time>2019-01-27T08:04:44-02:00</time>
      </trkpt>
      <trkpt lat="-21.55618166" lon="-48.794753660000005">
        <ele>418.0</ele>
        <time>2019-01-27T08:04:45-02:00</time>
      </trkpt>
      <trkpt lat="-21.556205" lon="-48.79475533">
        <ele>418.0</ele>
        <time>2019-01-27T08:04:46-02:00</time>
      </trkpt>
      <trkpt lat="-21.55623166" lon="-48.794757660000016">
        <ele>418.0</ele>
        <time>2019-01-27T08:04:47-02:00</time>
      </trkpt>
      <trkpt lat="-21.556256660000003" lon="-48.79475966">
        <ele>418.0</ele>
        <time>2019-01-27T08:04:48-02:00</time>
      </trkpt>
      <trkpt lat="-21.556279999999997" lon="-48.79476132999999">
        <ele>417.0</ele>
        <time>2019-01-27T08:04:49-02:00</time>
      </trkpt>
      <trkpt lat="-21.55630333" lon="-48.794761">
        <ele>417.0</ele>
        <time>2019-01-27T08:04:50-02:00</time>
      </trkpt>
      <trkpt lat="-21.556328330000003" lon="-48.794763">
        <ele>417.0</ele>
        <time>2019-01-27T08:04:51-02:00</time>
      </trkpt>
      <trkpt lat="-21.556351660000004" lon="-48.794765">
        <ele>417.0</ele>
        <time>2019-01-27T08:04:52-02:00</time>
      </trkpt>
      <trkpt lat="-21.55637666" lon="-48.79476733">
        <ele>417.0</ele>
        <time>2019-01-27T08:04:53-02:00</time>
      </trkpt>
      <trkpt lat="-21.55640166" lon="-48.794769329999994">
        <ele>417.0</ele>
        <time>2019-01-27T08:04:54-02:00</time>
      </trkpt>
      <trkpt lat="-21.556424999999997" lon="-48.79477132999999">
        <ele>417.0</ele>
        <time>2019-01-27T08:04:55-02:00</time>
      </trkpt>
      <trkpt lat="-21.55645" lon="-48.79477333">
        <ele>417.0</ele>
        <time>2019-01-27T08:04:56-02:00</time>
      </trkpt>
      <trkpt lat="-21.55647333" lon="-48.794775">
        <ele>417.0</ele>
        <time>2019-01-27T08:04:57-02:00</time>
      </trkpt>
      <trkpt lat="-21.556498330000004" lon="-48.794777">
        <ele>417.0</ele>
        <time>2019-01-27T08:04:58-02:00</time>
      </trkpt>
      <trkpt lat="-21.556521660000005" lon="-48.794779">
        <ele>417.0</ele>
        <time>2019-01-27T08:04:59-02:00</time>
      </trkpt>
      <trkpt lat="-21.55654666" lon="-48.79478099999999">
        <ele>417.0</ele>
        <time>2019-01-27T08:05:00-02:00</time>
      </trkpt>
      <trkpt lat="-21.55657" lon="-48.794782999999995">
        <ele>417.0</ele>
        <time>2019-01-27T08:05:01-02:00</time>
      </trkpt>
      <trkpt lat="-21.556595" lon="-48.794785329999996">
        <ele>417.0</ele>
        <time>2019-01-27T08:05:02-02:00</time>
      </trkpt>
      <trkpt lat="-21.556616660000003" lon="-48.79478666">
        <ele>417.0</ele>
        <time>2019-01-27T08:05:03-02:00</time>
      </trkpt>
      <trkpt lat="-21.556639999999998" lon="-48.79478866000001">
        <ele>417.0</ele>
        <time>2019-01-27T08:05:04-02:00</time>
      </trkpt>
      <trkpt lat="-21.556665000000002" lon="-48.794790660000004">
        <ele>416.0</ele>
        <time>2019-01-27T08:05:05-02:00</time>
      </trkpt>
      <trkpt lat="-21.556688330000004" lon="-48.79479499999999">
        <ele>416.0</ele>
        <time>2019-01-27T08:05:06-02:00</time>
      </trkpt>
      <trkpt lat="-21.55671333" lon="-48.794797">
        <ele>416.0</ele>
        <time>2019-01-27T08:05:07-02:00</time>
      </trkpt>
      <trkpt lat="-21.556738329999998" lon="-48.794799">
        <ele>416.0</ele>
        <time>2019-01-27T08:05:08-02:00</time>
      </trkpt>
      <trkpt lat="-21.556765000000002" lon="-48.79480366000001">
        <ele>416.0</ele>
        <time>2019-01-27T08:05:09-02:00</time>
      </trkpt>
      <trkpt lat="-21.556788330000003" lon="-48.79480566">
        <ele>416.0</ele>
        <time>2019-01-27T08:05:10-02:00</time>
      </trkpt>
      <trkpt lat="-21.556816660000003" lon="-48.79481032999999">
        <ele>416.0</ele>
        <time>2019-01-27T08:05:11-02:00</time>
      </trkpt>
      <trkpt lat="-21.55684166" lon="-48.794812660000005">
        <ele>416.0</ele>
        <time>2019-01-27T08:05:12-02:00</time>
      </trkpt>
      <trkpt lat="-21.556866660000004" lon="-48.794817">
        <ele>416.0</ele>
        <time>2019-01-27T08:05:13-02:00</time>
      </trkpt>
      <trkpt lat="-21.55689166" lon="-48.79481966">
        <ele>416.0</ele>
        <time>2019-01-27T08:05:14-02:00</time>
      </trkpt>
      <trkpt lat="-21.55691833" lon="-48.79482166">
        <ele>416.0</ele>
        <time>2019-01-27T08:05:15-02:00</time>
      </trkpt>
      <trkpt lat="-21.556943330000003" lon="-48.79482632999999">
        <ele>416.0</ele>
        <time>2019-01-27T08:05:16-02:00</time>
      </trkpt>
      <trkpt lat="-21.556966660000004" lon="-48.79482833">
        <ele>416.0</ele>
        <time>2019-01-27T08:05:17-02:00</time>
      </trkpt>
      <trkpt lat="-21.55699166" lon="-48.79483066000001">
        <ele>416.0</ele>
        <time>2019-01-27T08:05:18-02:00</time>
      </trkpt>
      <trkpt lat="-21.557015" lon="-48.794833">
        <ele>416.0</ele>
        <time>2019-01-27T08:05:19-02:00</time>
      </trkpt>
      <trkpt lat="-21.557038330000005" lon="-48.79483766">
        <ele>416.0</ele>
        <time>2019-01-27T08:05:20-02:00</time>
      </trkpt>
      <trkpt lat="-21.55706166" lon="-48.79484000000001">
        <ele>416.0</ele>
        <time>2019-01-27T08:05:21-02:00</time>
      </trkpt>
      <trkpt lat="-21.557079999999996" lon="-48.79484166">
        <ele>416.0</ele>
        <time>2019-01-27T08:05:22-02:00</time>
      </trkpt>
      <trkpt lat="-21.55710833" lon="-48.79484466">
        <ele>416.0</ele>
        <time>2019-01-27T08:05:23-02:00</time>
      </trkpt>
      <trkpt lat="-21.557131660000003" lon="-48.794849330000005">
        <ele>416.0</ele>
        <time>2019-01-27T08:05:24-02:00</time>
      </trkpt>
      <trkpt lat="-21.557154999999998" lon="-48.79485132999999">
        <ele>415.0</ele>
        <time>2019-01-27T08:05:25-02:00</time>
      </trkpt>
      <trkpt lat="-21.557178330000003" lon="-48.794854">
        <ele>415.0</ele>
        <time>2019-01-27T08:05:26-02:00</time>
      </trkpt>
      <trkpt lat="-21.55720333" lon="-48.794856329999995">
        <ele>415.0</ele>
        <time>2019-01-27T08:05:27-02:00</time>
      </trkpt>
      <trkpt lat="-21.557226660000005" lon="-48.79485866000001">
        <ele>415.0</ele>
        <time>2019-01-27T08:05:28-02:00</time>
      </trkpt>
      <trkpt lat="-21.55725" lon="-48.794861000000004">
        <ele>415.0</ele>
        <time>2019-01-27T08:05:29-02:00</time>
      </trkpt>
      <trkpt lat="-21.557273330000005" lon="-48.79486333">
        <ele>415.0</ele>
        <time>2019-01-27T08:05:30-02:00</time>
      </trkpt>
      <trkpt lat="-21.557296660000002" lon="-48.794865660000006">
        <ele>415.0</ele>
        <time>2019-01-27T08:05:31-02:00</time>
      </trkpt>
      <trkpt lat="-21.557319999999997" lon="-48.79486800000001">
        <ele>415.0</ele>
        <time>2019-01-27T08:05:32-02:00</time>
      </trkpt>
      <trkpt lat="-21.557345" lon="-48.794870329999995">
        <ele>415.0</ele>
        <time>2019-01-27T08:05:33-02:00</time>
      </trkpt>
      <trkpt lat="-21.55736833" lon="-48.79487266000001">
        <ele>415.0</ele>
        <time>2019-01-27T08:05:34-02:00</time>
      </trkpt>
      <trkpt lat="-21.55739166" lon="-48.794874660000005">
        <ele>415.0</ele>
        <time>2019-01-27T08:05:35-02:00</time>
      </trkpt>
      <trkpt lat="-21.557415" lon="-48.79487666">
        <ele>415.0</ele>
        <time>2019-01-27T08:05:36-02:00</time>
      </trkpt>
      <trkpt lat="-21.55743833" lon="-48.794879">
        <ele>414.0</ele>
        <time>2019-01-27T08:05:37-02:00</time>
      </trkpt>
      <trkpt lat="-21.55746333" lon="-48.79488132999999">
        <ele>414.0</ele>
        <time>2019-01-27T08:05:38-02:00</time>
      </trkpt>
      <trkpt lat="-21.557486660000002" lon="-48.79488132999999">
        <ele>414.0</ele>
        <time>2019-01-27T08:05:39-02:00</time>
      </trkpt>
      <trkpt lat="-21.55751166" lon="-48.794884">
        <ele>414.0</ele>
        <time>2019-01-27T08:05:40-02:00</time>
      </trkpt>
      <trkpt lat="-21.557533329999995" lon="-48.794886">
        <ele>414.0</ele>
        <time>2019-01-27T08:05:41-02:00</time>
      </trkpt>
      <trkpt lat="-21.55755833" lon="-48.794886">
        <ele>414.0</ele>
        <time>2019-01-27T08:05:42-02:00</time>
      </trkpt>
      <trkpt lat="-21.557583330000003" lon="-48.794888">
        <ele>414.0</ele>
        <time>2019-01-27T08:05:43-02:00</time>
      </trkpt>
      <trkpt lat="-21.55760666" lon="-48.79489033">
        <ele>414.0</ele>
        <time>2019-01-27T08:05:44-02:00</time>
      </trkpt>
      <trkpt lat="-21.55763" lon="-48.79489033">
        <ele>414.0</ele>
        <time>2019-01-27T08:05:45-02:00</time>
      </trkpt>
      <trkpt lat="-21.557655" lon="-48.79489266">
        <ele>414.0</ele>
        <time>2019-01-27T08:05:46-02:00</time>
      </trkpt>
      <trkpt lat="-21.557678330000005" lon="-48.79489500000001">
        <ele>414.0</ele>
        <time>2019-01-27T08:05:47-02:00</time>
      </trkpt>
      <trkpt lat="-21.55770333" lon="-48.794897000000006">
        <ele>414.0</ele>
        <time>2019-01-27T08:05:48-02:00</time>
      </trkpt>
      <trkpt lat="-21.557726660000004" lon="-48.79489933">
        <ele>414.0</ele>
        <time>2019-01-27T08:05:49-02:00</time>
      </trkpt>
      <trkpt lat="-21.55775166" lon="-48.79490166000001">
        <ele>414.0</ele>
        <time>2019-01-27T08:05:50-02:00</time>
      </trkpt>
      <trkpt lat="-21.55779666" lon="-48.79490433000001">
        <ele>414.0</ele>
        <time>2019-01-27T08:05:51-02:00</time>
      </trkpt>
      <trkpt lat="-21.55782" lon="-48.794906659999995">
        <ele>414.0</ele>
        <time>2019-01-27T08:05:52-02:00</time>
      </trkpt>
      <trkpt lat="-21.55784333" lon="-48.79490866">
        <ele>414.0</ele>
        <time>2019-01-27T08:05:53-02:00</time>
      </trkpt>
      <trkpt lat="-21.557866660000006" lon="-48.794911">
        <ele>414.0</ele>
        <time>2019-01-27T08:05:54-02:00</time>
      </trkpt>
      <trkpt lat="-21.557891660000003" lon="-48.79491333">
        <ele>414.0</ele>
        <time>2019-01-27T08:05:55-02:00</time>
      </trkpt>
      <trkpt lat="-21.55791666" lon="-48.79491566">
        <ele>414.0</ele>
        <time>2019-01-27T08:05:56-02:00</time>
      </trkpt>
      <trkpt lat="-21.55794" lon="-48.79491766000001">
        <ele>414.0</ele>
        <time>2019-01-27T08:05:57-02:00</time>
      </trkpt>
      <trkpt lat="-21.55796333" lon="-48.794920000000005">
        <ele>414.0</ele>
        <time>2019-01-27T08:05:58-02:00</time>
      </trkpt>
      <trkpt lat="-21.55798666" lon="-48.79492233">
        <ele>413.0</ele>
        <time>2019-01-27T08:05:59-02:00</time>
      </trkpt>
      <trkpt lat="-21.55800833" lon="-48.79492466000001">
        <ele>413.0</ele>
        <time>2019-01-27T08:06:00-02:00</time>
      </trkpt>
      <trkpt lat="-21.55803" lon="-48.794926329999996">
        <ele>413.0</ele>
        <time>2019-01-27T08:06:01-02:00</time>
      </trkpt>
      <trkpt lat="-21.55805333" lon="-48.794931">
        <ele>413.0</ele>
        <time>2019-01-27T08:06:02-02:00</time>
      </trkpt>
      <trkpt lat="-21.55807666" lon="-48.794933">
        <ele>413.0</ele>
        <time>2019-01-27T08:06:03-02:00</time>
      </trkpt>
      <trkpt lat="-21.5581" lon="-48.79493532999999">
        <ele>413.0</ele>
        <time>2019-01-27T08:06:04-02:00</time>
      </trkpt>
      <trkpt lat="-21.558123330000004" lon="-48.79493733">
        <ele>413.0</ele>
        <time>2019-01-27T08:06:05-02:00</time>
      </trkpt>
      <trkpt lat="-21.558146660000002" lon="-48.79493933">
        <ele>413.0</ele>
        <time>2019-01-27T08:06:06-02:00</time>
      </trkpt>
      <trkpt lat="-21.558168329999997" lon="-48.79494165999999">
        <ele>413.0</ele>
        <time>2019-01-27T08:06:07-02:00</time>
      </trkpt>
      <trkpt lat="-21.558191660000002" lon="-48.794944">
        <ele>413.0</ele>
        <time>2019-01-27T08:06:08-02:00</time>
      </trkpt>
      <trkpt lat="-21.558215" lon="-48.794945999999996">
        <ele>413.0</ele>
        <time>2019-01-27T08:06:09-02:00</time>
      </trkpt>
      <trkpt lat="-21.558238330000002" lon="-48.79494799999999">
        <ele>413.0</ele>
        <time>2019-01-27T08:06:10-02:00</time>
      </trkpt>
      <trkpt lat="-21.55826333" lon="-48.79495033">
        <ele>413.0</ele>
        <time>2019-01-27T08:06:11-02:00</time>
      </trkpt>
      <trkpt lat="-21.558286660000004" lon="-48.79495466">
        <ele>413.0</ele>
        <time>2019-01-27T08:06:12-02:00</time>
      </trkpt>
      <trkpt lat="-21.55831" lon="-48.794957000000004">
        <ele>413.0</ele>
        <time>2019-01-27T08:06:13-02:00</time>
      </trkpt>
      <trkpt lat="-21.55833333" lon="-48.794959">
        <ele>413.0</ele>
        <time>2019-01-27T08:06:14-02:00</time>
      </trkpt>
      <trkpt lat="-21.558356659999998" lon="-48.79496132999999">
        <ele>413.0</ele>
        <time>2019-01-27T08:06:15-02:00</time>
      </trkpt>
      <trkpt lat="-21.558379999999996" lon="-48.79496533">
        <ele>413.0</ele>
        <time>2019-01-27T08:06:16-02:00</time>
      </trkpt>
      <trkpt lat="-21.55840333" lon="-48.79496766000001">
        <ele>413.0</ele>
        <time>2019-01-27T08:06:17-02:00</time>
      </trkpt>
      <trkpt lat="-21.558426660000002" lon="-48.79496966000001">
        <ele>413.0</ele>
        <time>2019-01-27T08:06:18-02:00</time>
      </trkpt>
      <trkpt lat="-21.55845" lon="-48.794971999999994">
        <ele>413.0</ele>
        <time>2019-01-27T08:06:19-02:00</time>
      </trkpt>
      <trkpt lat="-21.558471660000002" lon="-48.794973660000004">
        <ele>413.0</ele>
        <time>2019-01-27T08:06:20-02:00</time>
      </trkpt>
      <trkpt lat="-21.558495" lon="-48.79497832999999">
        <ele>413.0</ele>
        <time>2019-01-27T08:06:21-02:00</time>
      </trkpt>
      <trkpt lat="-21.558516660000002" lon="-48.79498066000001">
        <ele>413.0</ele>
        <time>2019-01-27T08:06:22-02:00</time>
      </trkpt>
      <trkpt lat="-21.55854" lon="-48.79498299999999">
        <ele>413.0</ele>
        <time>2019-01-27T08:06:23-02:00</time>
      </trkpt>
      <trkpt lat="-21.558563330000002" lon="-48.794985329999996">
        <ele>413.0</ele>
        <time>2019-01-27T08:06:24-02:00</time>
      </trkpt>
      <trkpt lat="-21.558585" lon="-48.79498732999999">
        <ele>413.0</ele>
        <time>2019-01-27T08:06:25-02:00</time>
      </trkpt>
      <trkpt lat="-21.558609999999998" lon="-48.794990000000006">
        <ele>413.0</ele>
        <time>2019-01-27T08:06:26-02:00</time>
      </trkpt>
      <trkpt lat="-21.55863166" lon="-48.794992">
        <ele>413.0</ele>
        <time>2019-01-27T08:06:27-02:00</time>
      </trkpt>
      <trkpt lat="-21.558654999999998" lon="-48.79499466">
        <ele>413.0</ele>
        <time>2019-01-27T08:06:28-02:00</time>
      </trkpt>
      <trkpt lat="-21.558676660000007" lon="-48.79499666">
        <ele>413.0</ele>
        <time>2019-01-27T08:06:29-02:00</time>
      </trkpt>
      <trkpt lat="-21.558699999999998" lon="-48.794999000000004">
        <ele>413.0</ele>
        <time>2019-01-27T08:06:30-02:00</time>
      </trkpt>
      <trkpt lat="-21.55872166" lon="-48.79500166">
        <ele>413.0</ele>
        <time>2019-01-27T08:06:31-02:00</time>
      </trkpt>
      <trkpt lat="-21.558745000000005" lon="-48.79500433">
        <ele>413.0</ele>
        <time>2019-01-27T08:06:32-02:00</time>
      </trkpt>
      <trkpt lat="-21.55877" lon="-48.79500733">
        <ele>413.0</ele>
        <time>2019-01-27T08:06:33-02:00</time>
      </trkpt>
      <trkpt lat="-21.558791660000004" lon="-48.79500965999999">
        <ele>413.0</ele>
        <time>2019-01-27T08:06:34-02:00</time>
      </trkpt>
      <trkpt lat="-21.55881666" lon="-48.79501466">
        <ele>413.0</ele>
        <time>2019-01-27T08:06:35-02:00</time>
      </trkpt>
      <trkpt lat="-21.558841660000002" lon="-48.79501766">
        <ele>413.0</ele>
        <time>2019-01-27T08:06:36-02:00</time>
      </trkpt>
      <trkpt lat="-21.558864999999997" lon="-48.79502033">
        <ele>413.0</ele>
        <time>2019-01-27T08:06:37-02:00</time>
      </trkpt>
      <trkpt lat="-21.55888833" lon="-48.79502533">
        <ele>413.0</ele>
        <time>2019-01-27T08:06:38-02:00</time>
      </trkpt>
      <trkpt lat="-21.558911660000003" lon="-48.795028">
        <ele>413.0</ele>
        <time>2019-01-27T08:06:39-02:00</time>
      </trkpt>
      <trkpt lat="-21.558935" lon="-48.79503066">
        <ele>413.0</ele>
        <time>2019-01-27T08:06:40-02:00</time>
      </trkpt>
      <trkpt lat="-21.558958330000003" lon="-48.795033">
        <ele>413.0</ele>
        <time>2019-01-27T08:06:41-02:00</time>
      </trkpt>
      <trkpt lat="-21.558976660000003" lon="-48.795035">
        <ele>413.0</ele>
        <time>2019-01-27T08:06:42-02:00</time>
      </trkpt>
      <trkpt lat="-21.559004999999996" lon="-48.795038000000005">
        <ele>413.0</ele>
        <time>2019-01-27T08:06:43-02:00</time>
      </trkpt>
      <trkpt lat="-21.55902833" lon="-48.795040660000005">
        <ele>413.0</ele>
        <time>2019-01-27T08:06:44-02:00</time>
      </trkpt>
      <trkpt lat="-21.559051660000005" lon="-48.795043">
        <ele>413.0</ele>
        <time>2019-01-27T08:06:45-02:00</time>
      </trkpt>
      <trkpt lat="-21.55907333" lon="-48.79504533000001">
        <ele>413.0</ele>
        <time>2019-01-27T08:06:46-02:00</time>
      </trkpt>
      <trkpt lat="-21.55909833" lon="-48.795047999999994">
        <ele>413.0</ele>
        <time>2019-01-27T08:06:47-02:00</time>
      </trkpt>
      <trkpt lat="-21.55912166" lon="-48.795050329999995">
        <ele>413.0</ele>
        <time>2019-01-27T08:06:48-02:00</time>
      </trkpt>
      <trkpt lat="-21.559144999999997" lon="-48.79505266000001">
        <ele>413.0</ele>
        <time>2019-01-27T08:06:49-02:00</time>
      </trkpt>
      <trkpt lat="-21.559168330000002" lon="-48.795055000000005">
        <ele>413.0</ele>
        <time>2019-01-27T08:06:50-02:00</time>
      </trkpt>
      <trkpt lat="-21.559191660000003" lon="-48.795057660000005">
        <ele>413.0</ele>
        <time>2019-01-27T08:06:51-02:00</time>
      </trkpt>
      <trkpt lat="-21.559215000000002" lon="-48.79505999999999">
        <ele>413.0</ele>
        <time>2019-01-27T08:06:52-02:00</time>
      </trkpt>
      <trkpt lat="-21.55924" lon="-48.79506266000001">
        <ele>413.0</ele>
        <time>2019-01-27T08:06:53-02:00</time>
      </trkpt>
      <trkpt lat="-21.559265" lon="-48.79506500000001">
        <ele>413.0</ele>
        <time>2019-01-27T08:06:54-02:00</time>
      </trkpt>
      <trkpt lat="-21.559288330000005" lon="-48.79506533">
        <ele>413.0</ele>
        <time>2019-01-27T08:06:55-02:00</time>
      </trkpt>
      <trkpt lat="-21.55931" lon="-48.79506733">
        <ele>413.0</ele>
        <time>2019-01-27T08:06:56-02:00</time>
      </trkpt>
      <trkpt lat="-21.559333329999998" lon="-48.79506966">
        <ele>413.0</ele>
        <time>2019-01-27T08:06:57-02:00</time>
      </trkpt>
      <trkpt lat="-21.559355" lon="-48.795072">
        <ele>413.0</ele>
        <time>2019-01-27T08:06:58-02:00</time>
      </trkpt>
      <trkpt lat="-21.559376660000005" lon="-48.79507400000001">
        <ele>413.0</ele>
        <time>2019-01-27T08:06:59-02:00</time>
      </trkpt>
      <trkpt lat="-21.5594" lon="-48.79507400000001">
        <ele>413.0</ele>
        <time>2019-01-27T08:07:00-02:00</time>
      </trkpt>
      <trkpt lat="-21.559421659999998" lon="-48.79507666000001">
        <ele>413.0</ele>
        <time>2019-01-27T08:07:01-02:00</time>
      </trkpt>
      <trkpt lat="-21.559445" lon="-48.795079">
        <ele>413.0</ele>
        <time>2019-01-27T08:07:02-02:00</time>
      </trkpt>
      <trkpt lat="-21.559468329999998" lon="-48.795081329999995">
        <ele>413.0</ele>
        <time>2019-01-27T08:07:03-02:00</time>
      </trkpt>
      <trkpt lat="-21.559493330000002" lon="-48.79508400000001">
        <ele>413.0</ele>
        <time>2019-01-27T08:07:04-02:00</time>
      </trkpt>
      <trkpt lat="-21.55951666" lon="-48.79508400000001">
        <ele>413.0</ele>
        <time>2019-01-27T08:07:05-02:00</time>
      </trkpt>
      <trkpt lat="-21.559540000000002" lon="-48.79508632999999">
        <ele>413.0</ele>
        <time>2019-01-27T08:07:06-02:00</time>
      </trkpt>
      <trkpt lat="-21.55956166" lon="-48.79508866">
        <ele>413.0</ele>
        <time>2019-01-27T08:07:07-02:00</time>
      </trkpt>
      <trkpt lat="-21.559585" lon="-48.795091">
        <ele>413.0</ele>
        <time>2019-01-27T08:07:08-02:00</time>
      </trkpt>
      <trkpt lat="-21.55960666" lon="-48.795092999999994">
        <ele>413.0</ele>
        <time>2019-01-27T08:07:09-02:00</time>
      </trkpt>
      <trkpt lat="-21.559628330000002" lon="-48.795092999999994">
        <ele>413.0</ele>
        <time>2019-01-27T08:07:10-02:00</time>
      </trkpt>
      <trkpt lat="-21.559651660000004" lon="-48.795095329999995">
        <ele>413.0</ele>
        <time>2019-01-27T08:07:11-02:00</time>
      </trkpt>
      <trkpt lat="-21.559675" lon="-48.79509766000001">
        <ele>413.0</ele>
        <time>2019-01-27T08:07:12-02:00</time>
      </trkpt>
      <trkpt lat="-21.55969666" lon="-48.79509766000001">
        <ele>413.0</ele>
        <time>2019-01-27T08:07:13-02:00</time>
      </trkpt>
      <trkpt lat="-21.559721660000005" lon="-48.795100330000004">
        <ele>413.0</ele>
        <time>2019-01-27T08:07:14-02:00</time>
      </trkpt>
      <trkpt lat="-21.55974333" lon="-48.795100000000005">
        <ele>413.0</ele>
        <time>2019-01-27T08:07:15-02:00</time>
      </trkpt>
      <trkpt lat="-21.559768329999997" lon="-48.79510233">
        <ele>413.0</ele>
        <time>2019-01-27T08:07:16-02:00</time>
      </trkpt>
      <trkpt lat="-21.559790000000003" lon="-48.79510466">
        <ele>413.0</ele>
        <time>2019-01-27T08:07:17-02:00</time>
      </trkpt>
      <trkpt lat="-21.559813330000004" lon="-48.79510700000001">
        <ele>413.0</ele>
        <time>2019-01-27T08:07:18-02:00</time>
      </trkpt>
      <trkpt lat="-21.559836660000002" lon="-48.795109329999995">
        <ele>413.0</ele>
        <time>2019-01-27T08:07:19-02:00</time>
      </trkpt>
      <trkpt lat="-21.559858329999997" lon="-48.79511166">
        <ele>413.0</ele>
        <time>2019-01-27T08:07:20-02:00</time>
      </trkpt>
      <trkpt lat="-21.559881660000002" lon="-48.795114">
        <ele>413.0</ele>
        <time>2019-01-27T08:07:21-02:00</time>
      </trkpt>
      <trkpt lat="-21.559901660000005" lon="-48.79511599999999">
        <ele>413.0</ele>
        <time>2019-01-27T08:07:22-02:00</time>
      </trkpt>
      <trkpt lat="-21.559925" lon="-48.795118">
        <ele>413.0</ele>
        <time>2019-01-27T08:07:23-02:00</time>
      </trkpt>
      <trkpt lat="-21.559949999999997" lon="-48.795120329999996">
        <ele>413.0</ele>
        <time>2019-01-27T08:07:24-02:00</time>
      </trkpt>
      <trkpt lat="-21.559971660000002" lon="-48.795122000000006">
        <ele>413.0</ele>
        <time>2019-01-27T08:07:25-02:00</time>
      </trkpt>
      <trkpt lat="-21.559995000000004" lon="-48.795124">
        <ele>414.0</ele>
        <time>2019-01-27T08:07:26-02:00</time>
      </trkpt>
      <trkpt lat="-21.560016660000002" lon="-48.79512799999999">
        <ele>414.0</ele>
        <time>2019-01-27T08:07:27-02:00</time>
      </trkpt>
      <trkpt lat="-21.560038330000005" lon="-48.79513">
        <ele>414.0</ele>
        <time>2019-01-27T08:07:28-02:00</time>
      </trkpt>
      <trkpt lat="-21.560061660000002" lon="-48.795131999999995">
        <ele>414.0</ele>
        <time>2019-01-27T08:07:29-02:00</time>
      </trkpt>
      <trkpt lat="-21.560081660000005" lon="-48.79513366000001">
        <ele>414.0</ele>
        <time>2019-01-27T08:07:30-02:00</time>
      </trkpt>
      <trkpt lat="-21.56010333" lon="-48.79513766000001">
        <ele>414.0</ele>
        <time>2019-01-27T08:07:31-02:00</time>
      </trkpt>
      <trkpt lat="-21.56012166" lon="-48.79513933">
        <ele>414.0</ele>
        <time>2019-01-27T08:07:32-02:00</time>
      </trkpt>
      <trkpt lat="-21.56014666" lon="-48.79514166">
        <ele>414.0</ele>
        <time>2019-01-27T08:07:33-02:00</time>
      </trkpt>
      <trkpt lat="-21.560168330000003" lon="-48.79514333">
        <ele>414.0</ele>
        <time>2019-01-27T08:07:34-02:00</time>
      </trkpt>
      <trkpt lat="-21.56018833" lon="-48.795145000000005">
        <ele>414.0</ele>
        <time>2019-01-27T08:07:35-02:00</time>
      </trkpt>
      <trkpt lat="-21.560209999999998" lon="-48.79514733">
        <ele>414.0</ele>
        <time>2019-01-27T08:07:36-02:00</time>
      </trkpt>
      <trkpt lat="-21.56023" lon="-48.795149">
        <ele>414.0</ele>
        <time>2019-01-27T08:07:37-02:00</time>
      </trkpt>
      <trkpt lat="-21.56024666" lon="-48.795150660000004">
        <ele>414.0</ele>
        <time>2019-01-27T08:07:38-02:00</time>
      </trkpt>
      <trkpt lat="-21.560273330000005" lon="-48.795153">
        <ele>414.0</ele>
        <time>2019-01-27T08:07:39-02:00</time>
      </trkpt>
      <trkpt lat="-21.560295000000004" lon="-48.795154999999994">
        <ele>414.0</ele>
        <time>2019-01-27T08:07:40-02:00</time>
      </trkpt>
      <trkpt lat="-21.56031833" lon="-48.79515733">
        <ele>414.0</ele>
        <time>2019-01-27T08:07:41-02:00</time>
      </trkpt>
      <trkpt lat="-21.560340000000004" lon="-48.795159330000004">
        <ele>414.0</ele>
        <time>2019-01-27T08:07:42-02:00</time>
      </trkpt>
      <trkpt lat="-21.560361660000005" lon="-48.79516132999999">
        <ele>414.0</ele>
        <time>2019-01-27T08:07:43-02:00</time>
      </trkpt>
      <trkpt lat="-21.56038166" lon="-48.79516132999999">
        <ele>414.0</ele>
        <time>2019-01-27T08:07:44-02:00</time>
      </trkpt>
      <trkpt lat="-21.560401660000004" lon="-48.795163">
        <ele>414.0</ele>
        <time>2019-01-27T08:07:45-02:00</time>
      </trkpt>
      <trkpt lat="-21.560421660000003" lon="-48.79516465999999">
        <ele>414.0</ele>
        <time>2019-01-27T08:07:46-02:00</time>
      </trkpt>
      <trkpt lat="-21.560443330000005" lon="-48.795167000000006">
        <ele>414.0</ele>
        <time>2019-01-27T08:07:47-02:00</time>
      </trkpt>
      <trkpt lat="-21.56046333" lon="-48.795169">
        <ele>414.0</ele>
        <time>2019-01-27T08:07:48-02:00</time>
      </trkpt>
      <trkpt lat="-21.560483329999997" lon="-48.795170660000004">
        <ele>414.0</ele>
        <time>2019-01-27T08:07:49-02:00</time>
      </trkpt>
      <trkpt lat="-21.560505" lon="-48.795172660000006">
        <ele>414.0</ele>
        <time>2019-01-27T08:07:50-02:00</time>
      </trkpt>
      <trkpt lat="-21.560523330000006" lon="-48.795174329999995">
        <ele>414.0</ele>
        <time>2019-01-27T08:07:51-02:00</time>
      </trkpt>
      <trkpt lat="-21.56054333" lon="-48.79517599999999">
        <ele>414.0</ele>
        <time>2019-01-27T08:07:52-02:00</time>
      </trkpt>
      <trkpt lat="-21.56056333" lon="-48.79517766000001">
        <ele>415.0</ele>
        <time>2019-01-27T08:07:53-02:00</time>
      </trkpt>
      <trkpt lat="-21.56058333" lon="-48.795177329999994">
        <ele>415.0</ele>
        <time>2019-01-27T08:07:54-02:00</time>
      </trkpt>
      <trkpt lat="-21.560603330000003" lon="-48.79517933">
        <ele>415.0</ele>
        <time>2019-01-27T08:07:55-02:00</time>
      </trkpt>
      <trkpt lat="-21.560624999999998" lon="-48.79518133">
        <ele>415.0</ele>
        <time>2019-01-27T08:07:56-02:00</time>
      </trkpt>
      <trkpt lat="-21.560645" lon="-48.795182999999994">
        <ele>415.0</ele>
        <time>2019-01-27T08:07:57-02:00</time>
      </trkpt>
      <trkpt lat="-21.560666660000003" lon="-48.79518466">
        <ele>415.0</ele>
        <time>2019-01-27T08:07:58-02:00</time>
      </trkpt>
      <trkpt lat="-21.560686660000002" lon="-48.79518666">
        <ele>415.0</ele>
        <time>2019-01-27T08:07:59-02:00</time>
      </trkpt>
      <trkpt lat="-21.56071" lon="-48.79518866">
        <ele>415.0</ele>
        <time>2019-01-27T08:08:00-02:00</time>
      </trkpt>
      <trkpt lat="-21.560731660000002" lon="-48.79519066000001">
        <ele>415.0</ele>
        <time>2019-01-27T08:08:01-02:00</time>
      </trkpt>
      <trkpt lat="-21.56075166" lon="-48.79519266000001">
        <ele>415.0</ele>
        <time>2019-01-27T08:08:02-02:00</time>
      </trkpt>
      <trkpt lat="-21.560768330000002" lon="-48.79519433">
        <ele>415.0</ele>
        <time>2019-01-27T08:08:03-02:00</time>
      </trkpt>
      <trkpt lat="-21.560791660000003" lon="-48.79519433">
        <ele>415.0</ele>
        <time>2019-01-27T08:08:04-02:00</time>
      </trkpt>
      <trkpt lat="-21.560813330000002" lon="-48.79519632999999">
        <ele>415.0</ele>
        <time>2019-01-27T08:08:05-02:00</time>
      </trkpt>
      <trkpt lat="-21.56083333" lon="-48.795198330000005">
        <ele>415.0</ele>
        <time>2019-01-27T08:08:06-02:00</time>
      </trkpt>
      <trkpt lat="-21.56085333" lon="-48.795199999999994">
        <ele>415.0</ele>
        <time>2019-01-27T08:08:07-02:00</time>
      </trkpt>
      <trkpt lat="-21.560871660000004" lon="-48.795201660000004">
        <ele>415.0</ele>
        <time>2019-01-27T08:08:08-02:00</time>
      </trkpt>
      <trkpt lat="-21.560888330000004" lon="-48.795205">
        <ele>415.0</ele>
        <time>2019-01-27T08:08:09-02:00</time>
      </trkpt>
      <trkpt lat="-21.560911660000002" lon="-48.795206660000005">
        <ele>415.0</ele>
        <time>2019-01-27T08:08:10-02:00</time>
      </trkpt>
      <trkpt lat="-21.56093166" lon="-48.79520866000001">
        <ele>415.0</ele>
        <time>2019-01-27T08:08:11-02:00</time>
      </trkpt>
      <trkpt lat="-21.56095166" lon="-48.79521032999999">
        <ele>415.0</ele>
        <time>2019-01-27T08:08:12-02:00</time>
      </trkpt>
      <trkpt lat="-21.560973330000003" lon="-48.79521232999999">
        <ele>415.0</ele>
        <time>2019-01-27T08:08:13-02:00</time>
      </trkpt>
      <trkpt lat="-21.560991660000006" lon="-48.795214">
        <ele>415.0</ele>
        <time>2019-01-27T08:08:14-02:00</time>
      </trkpt>
      <trkpt lat="-21.56101166" lon="-48.795215660000004">
        <ele>416.0</ele>
        <time>2019-01-27T08:08:15-02:00</time>
      </trkpt>
      <trkpt lat="-21.56103333" lon="-48.795217660000006">
        <ele>416.0</ele>
        <time>2019-01-27T08:08:16-02:00</time>
      </trkpt>
      <trkpt lat="-21.561053330000004" lon="-48.79521933000001">
        <ele>416.0</ele>
        <time>2019-01-27T08:08:17-02:00</time>
      </trkpt>
      <trkpt lat="-21.561073330000006" lon="-48.795221000000005">
        <ele>416.0</ele>
        <time>2019-01-27T08:08:18-02:00</time>
      </trkpt>
      <trkpt lat="-21.561095" lon="-48.795223">
        <ele>416.0</ele>
        <time>2019-01-27T08:08:19-02:00</time>
      </trkpt>
      <trkpt lat="-21.561115" lon="-48.795225">
        <ele>416.0</ele>
        <time>2019-01-27T08:08:20-02:00</time>
      </trkpt>
      <trkpt lat="-21.561136660000003" lon="-48.79522866000001">
        <ele>416.0</ele>
        <time>2019-01-27T08:08:21-02:00</time>
      </trkpt>
      <trkpt lat="-21.561155" lon="-48.79523066">
        <ele>416.0</ele>
        <time>2019-01-27T08:08:22-02:00</time>
      </trkpt>
      <trkpt lat="-21.561175" lon="-48.79523266000001">
        <ele>416.0</ele>
        <time>2019-01-27T08:08:23-02:00</time>
      </trkpt>
      <trkpt lat="-21.561194999999998" lon="-48.79523433000001">
        <ele>416.0</ele>
        <time>2019-01-27T08:08:24-02:00</time>
      </trkpt>
      <trkpt lat="-21.561215" lon="-48.795235999999996">
        <ele>416.0</ele>
        <time>2019-01-27T08:08:25-02:00</time>
      </trkpt>
      <trkpt lat="-21.561235000000003" lon="-48.795238">
        <ele>416.0</ele>
        <time>2019-01-27T08:08:26-02:00</time>
      </trkpt>
      <trkpt lat="-21.561254999999996" lon="-48.79523966">
        <ele>416.0</ele>
        <time>2019-01-27T08:08:27-02:00</time>
      </trkpt>
      <trkpt lat="-21.561276660000004" lon="-48.79524166">
        <ele>416.0</ele>
        <time>2019-01-27T08:08:28-02:00</time>
      </trkpt>
      <trkpt lat="-21.56129833" lon="-48.79524366">
        <ele>416.0</ele>
        <time>2019-01-27T08:08:29-02:00</time>
      </trkpt>
      <trkpt lat="-21.561318330000002" lon="-48.79524533">
        <ele>416.0</ele>
        <time>2019-01-27T08:08:30-02:00</time>
      </trkpt>
      <trkpt lat="-21.56134" lon="-48.79524733">
        <ele>416.0</ele>
        <time>2019-01-27T08:08:31-02:00</time>
      </trkpt>
      <trkpt lat="-21.561361660000003" lon="-48.795249">
        <ele>416.0</ele>
        <time>2019-01-27T08:08:32-02:00</time>
      </trkpt>
      <trkpt lat="-21.561381660000002" lon="-48.79525066">
        <ele>416.0</ele>
        <time>2019-01-27T08:08:33-02:00</time>
      </trkpt>
      <trkpt lat="-21.56140333" lon="-48.79525266000002">
        <ele>416.0</ele>
        <time>2019-01-27T08:08:34-02:00</time>
      </trkpt>
      <trkpt lat="-21.561425" lon="-48.79525466">
        <ele>416.0</ele>
        <time>2019-01-27T08:08:35-02:00</time>
      </trkpt>
      <trkpt lat="-21.561445" lon="-48.79525665999999">
        <ele>416.0</ele>
        <time>2019-01-27T08:08:36-02:00</time>
      </trkpt>
      <trkpt lat="-21.56146666" lon="-48.795258329999996">
        <ele>416.0</ele>
        <time>2019-01-27T08:08:37-02:00</time>
      </trkpt>
      <trkpt lat="-21.561488330000003" lon="-48.79526">
        <ele>416.0</ele>
        <time>2019-01-27T08:08:38-02:00</time>
      </trkpt>
      <trkpt lat="-21.561510000000006" lon="-48.79526233">
        <ele>416.0</ele>
        <time>2019-01-27T08:08:39-02:00</time>
      </trkpt>
      <trkpt lat="-21.561525" lon="-48.79526333">
        <ele>416.0</ele>
        <time>2019-01-27T08:08:40-02:00</time>
      </trkpt>
      <trkpt lat="-21.561549999999997" lon="-48.795265660000005">
        <ele>416.0</ele>
        <time>2019-01-27T08:08:41-02:00</time>
      </trkpt>
      <trkpt lat="-21.56157166" lon="-48.795268">
        <ele>416.0</ele>
        <time>2019-01-27T08:08:42-02:00</time>
      </trkpt>
      <trkpt lat="-21.561590000000002" lon="-48.79526933">
        <ele>416.0</ele>
        <time>2019-01-27T08:08:43-02:00</time>
      </trkpt>
      <trkpt lat="-21.56161333" lon="-48.79527166000001">
        <ele>416.0</ele>
        <time>2019-01-27T08:08:44-02:00</time>
      </trkpt>
      <trkpt lat="-21.561635000000003" lon="-48.79527366000001">
        <ele>416.0</ele>
        <time>2019-01-27T08:08:45-02:00</time>
      </trkpt>
      <trkpt lat="-21.561651660000003" lon="-48.795275329999996">
        <ele>417.0</ele>
        <time>2019-01-27T08:08:46-02:00</time>
      </trkpt>
      <trkpt lat="-21.561676660000003" lon="-48.79527766000001">
        <ele>417.0</ele>
        <time>2019-01-27T08:08:47-02:00</time>
      </trkpt>
      <trkpt lat="-21.561698330000006" lon="-48.79527965999999">
        <ele>417.0</ele>
        <time>2019-01-27T08:08:48-02:00</time>
      </trkpt>
      <trkpt lat="-21.56172" lon="-48.79528166">
        <ele>417.0</ele>
        <time>2019-01-27T08:08:49-02:00</time>
      </trkpt>
      <trkpt lat="-21.561741660000003" lon="-48.79528366000001">
        <ele>417.0</ele>
        <time>2019-01-27T08:08:50-02:00</time>
      </trkpt>
      <trkpt lat="-21.561761660000002" lon="-48.795285660000005">
        <ele>417.0</ele>
        <time>2019-01-27T08:08:51-02:00</time>
      </trkpt>
      <trkpt lat="-21.561783329999997" lon="-48.795288">
        <ele>417.0</ele>
        <time>2019-01-27T08:08:52-02:00</time>
      </trkpt>
      <trkpt lat="-21.561805" lon="-48.79529000000001">
        <ele>417.0</ele>
        <time>2019-01-27T08:08:53-02:00</time>
      </trkpt>
      <trkpt lat="-21.56182666" lon="-48.795294330000004">
        <ele>417.0</ele>
        <time>2019-01-27T08:08:54-02:00</time>
      </trkpt>
      <trkpt lat="-21.561848330000004" lon="-48.79529633">
        <ele>417.0</ele>
        <time>2019-01-27T08:08:55-02:00</time>
      </trkpt>
      <trkpt lat="-21.561868330000003" lon="-48.795298329999994">
        <ele>417.0</ele>
        <time>2019-01-27T08:08:56-02:00</time>
      </trkpt>
      <trkpt lat="-21.561888330000002" lon="-48.79530000000001">
        <ele>418.0</ele>
        <time>2019-01-27T08:08:57-02:00</time>
      </trkpt>
      <trkpt lat="-21.56191166" lon="-48.79530232999999">
        <ele>418.0</ele>
        <time>2019-01-27T08:08:58-02:00</time>
      </trkpt>
      <trkpt lat="-21.56193" lon="-48.79530433">
        <ele>418.0</ele>
        <time>2019-01-27T08:08:59-02:00</time>
      </trkpt>
      <trkpt lat="-21.561951660000005" lon="-48.79530866">
        <ele>418.0</ele>
        <time>2019-01-27T08:09:00-02:00</time>
      </trkpt>
      <trkpt lat="-21.561970000000002" lon="-48.79531032999999">
        <ele>418.0</ele>
        <time>2019-01-27T08:09:01-02:00</time>
      </trkpt>
      <trkpt lat="-21.561989999999998" lon="-48.795312329999994">
        <ele>418.0</ele>
        <time>2019-01-27T08:09:02-02:00</time>
      </trkpt>
      <trkpt lat="-21.56201166" lon="-48.795314330000004">
        <ele>418.0</ele>
        <time>2019-01-27T08:09:03-02:00</time>
      </trkpt>
      <trkpt lat="-21.562035" lon="-48.795317000000004">
        <ele>418.0</ele>
        <time>2019-01-27T08:09:04-02:00</time>
      </trkpt>
      <trkpt lat="-21.562055" lon="-48.795320999999994">
        <ele>418.0</ele>
        <time>2019-01-27T08:09:05-02:00</time>
      </trkpt>
      <trkpt lat="-21.562076660000002" lon="-48.79532333">
        <ele>418.0</ele>
        <time>2019-01-27T08:09:06-02:00</time>
      </trkpt>
      <trkpt lat="-21.562095" lon="-48.79532533">
        <ele>418.0</ele>
        <time>2019-01-27T08:09:07-02:00</time>
      </trkpt>
      <trkpt lat="-21.562113330000003" lon="-48.79532733">
        <ele>418.0</ele>
        <time>2019-01-27T08:09:08-02:00</time>
      </trkpt>
    </trkseg>
  </trk>
</gpx>
